<?xml version="1.0" encoding="UTF-8" standalone="no" ?><gpx xmlns="http://www.topografix.com/GPX/1/1" xmlns:gpxx="http://www.garmin.com/xmlschemas/GpxExtensions/v3" xmlns:gpxtrkx="http://www.garmin.com/xmlschemas/TrackStatsExtension/v1" xmlns:wptx1="http://www.garmin.com/xmlschemas/WaypointExtension/v1" xmlns:gpxtpx="http://www.garmin.com/xmlschemas/TrackPointExtension/v1" creator="eTrex 20" version="1.1" xmlns:xsi="http://www.w3.org/2001/XMLSchema-instance" xsi:schemaLocation="http://www.topografix.com/GPX/1/1 http://www.topografix.com/GPX/1/1/gpx.xsd http://www.garmin.com/xmlschemas/GpxExtensions/v3 http://www8.garmin.com/xmlschemas/GpxExtensionsv3.xsd http://www.garmin.com/xmlschemas/TrackStatsExtension/v1 http://www8.garmin.com/xmlschemas/TrackStatsExtension.xsd http://www.garmin.com/xmlschemas/WaypointExtension/v1 http://www8.garmin.com/xmlschemas/WaypointExtensionv1.xsd http://www.garmin.com/xmlschemas/TrackPointExtension/v1 http://www.garmin.com/xmlschemas/TrackPointExtensionv1.xsd"><metadata><link href="http://www.garmin.com"><text>Garmin International</text></link><time>2014-09-08T01:57:00Z</time></metadata><trk><name>2014-09-05 11:47:36 Auto</name><extensions><gpxx:TrackExtension><gpxx:DisplayColor>Cyan</gpxx:DisplayColor></gpxx:TrackExtension></extensions><trkseg><trkpt lat="45.7071974315" lon="6.9535573851"><ele>1481.05</ele><time>2014-09-05T09:47:36Z</time></trkpt><trkpt lat="45.7072623074" lon="6.9532844704"><ele>1474.80</ele><time>2014-09-05T09:48:04Z</time></trkpt><trkpt lat="45.7072743773" lon="6.9533425570"><ele>1472.88</ele><time>2014-09-05T09:48:52Z</time></trkpt><trkpt lat="45.7072688453" lon="6.9533451553"><ele>1469.51</ele><time>2014-09-05T09:49:18Z</time></trkpt><trkpt lat="45.7072866149" lon="6.9531897549"><ele>1468.55</ele><time>2014-09-05T09:49:26Z</time></trkpt><trkpt lat="45.7072946616" lon="6.9531720690"><ele>1468.55</ele><time>2014-09-05T09:49:27Z</time></trkpt><trkpt lat="45.7073054742" lon="6.9531420618"><ele>1468.55</ele><time>2014-09-05T09:49:28Z</time></trkpt><trkpt lat="45.7073131856" lon="6.9531271420"><ele>1468.07</ele><time>2014-09-05T09:49:29Z</time></trkpt><trkpt lat="45.7073812466" lon="6.9530248828"><ele>1467.59</ele><time>2014-09-05T09:49:35Z</time></trkpt><trkpt lat="45.7074525766" lon="6.9526994135"><ele>1464.71</ele><time>2014-09-05T09:49:46Z</time></trkpt><trkpt lat="45.7075613737" lon="6.9524844177"><ele>1462.78</ele><time>2014-09-05T09:49:51Z</time></trkpt><trkpt lat="45.7078614458" lon="6.9519551005"><ele>1462.30</ele><time>2014-09-05T09:50:03Z</time></trkpt><trkpt lat="45.7079424988" lon="6.9518707786"><ele>1462.30</ele><time>2014-09-05T09:50:05Z</time></trkpt><trkpt lat="45.7082571555" lon="6.9516099337"><ele>1459.42</ele><time>2014-09-05T09:50:12Z</time></trkpt><trkpt lat="45.7085763384" lon="6.9513011444"><ele>1457.50</ele><time>2014-09-05T09:50:20Z</time></trkpt><trkpt lat="45.7086174935" lon="6.9512683712"><ele>1457.02</ele><time>2014-09-05T09:50:21Z</time></trkpt><trkpt lat="45.7086566370" lon="6.9512366876"><ele>1457.02</ele><time>2014-09-05T09:50:22Z</time></trkpt><trkpt lat="45.7086933497" lon="6.9512047525"><ele>1457.02</ele><time>2014-09-05T09:50:23Z</time></trkpt><trkpt lat="45.7087267935" lon="6.9511774275"><ele>1457.02</ele><time>2014-09-05T09:50:24Z</time></trkpt><trkpt lat="45.7087552920" lon="6.9511492644"><ele>1457.02</ele><time>2014-09-05T09:50:25Z</time></trkpt><trkpt lat="45.7087787613" lon="6.9511208497"><ele>1456.53</ele><time>2014-09-05T09:50:26Z</time></trkpt><trkpt lat="45.7089850400" lon="6.9508370385"><ele>1455.09</ele><time>2014-09-05T09:50:36Z</time></trkpt><trkpt lat="45.7089728862" lon="6.9508098811"><ele>1455.09</ele><time>2014-09-05T09:50:38Z</time></trkpt><trkpt lat="45.7090075873" lon="6.9508390501"><ele>1455.09</ele><time>2014-09-05T09:50:44Z</time></trkpt><trkpt lat="45.7090317272" lon="6.9508063607"><ele>1455.09</ele><time>2014-09-05T09:50:45Z</time></trkpt><trkpt lat="45.7090474013" lon="6.9507915247"><ele>1455.09</ele><time>2014-09-05T09:50:46Z</time></trkpt><trkpt lat="45.7090761513" lon="6.9507614337"><ele>1455.09</ele><time>2014-09-05T09:50:47Z</time></trkpt><trkpt lat="45.7094473019" lon="6.9502435159"><ele>1453.17</ele><time>2014-09-05T09:51:01Z</time></trkpt><trkpt lat="45.7095226552" lon="6.9501074776"><ele>1453.17</ele><time>2014-09-05T09:51:04Z</time></trkpt><trkpt lat="45.7095364016" lon="6.9500547554"><ele>1453.17</ele><time>2014-09-05T09:51:05Z</time></trkpt><trkpt lat="45.7095493935" lon="6.9500032905"><ele>1453.17</ele><time>2014-09-05T09:51:06Z</time></trkpt><trkpt lat="45.7095680851" lon="6.9499558490"><ele>1453.17</ele><time>2014-09-05T09:51:07Z</time></trkpt><trkpt lat="45.7095904648" lon="6.9499108382"><ele>1452.69</ele><time>2014-09-05T09:51:08Z</time></trkpt><trkpt lat="45.7096166164" lon="6.9498678390"><ele>1452.69</ele><time>2014-09-05T09:51:09Z</time></trkpt><trkpt lat="45.7096504793" lon="6.9498288631"><ele>1452.21</ele><time>2014-09-05T09:51:10Z</time></trkpt><trkpt lat="45.7098262478" lon="6.9496423658"><ele>1452.21</ele><time>2014-09-05T09:51:15Z</time></trkpt><trkpt lat="45.7098590210" lon="6.9495999534"><ele>1452.69</ele><time>2014-09-05T09:51:16Z</time></trkpt><trkpt lat="45.7098942250" lon="6.9495634083"><ele>1452.69</ele><time>2014-09-05T09:51:17Z</time></trkpt><trkpt lat="45.7104056887" lon="6.9492932595"><ele>1453.65</ele><time>2014-09-05T09:51:31Z</time></trkpt><trkpt lat="45.7109510154" lon="6.9493422098"><ele>1452.21</ele><time>2014-09-05T09:51:43Z</time></trkpt><trkpt lat="45.7109926734" lon="6.9493397791"><ele>1451.73</ele><time>2014-09-05T09:51:44Z</time></trkpt><trkpt lat="45.7110307273" lon="6.9493448921"><ele>1451.73</ele><time>2014-09-05T09:51:45Z</time></trkpt><trkpt lat="45.7110658474" lon="6.9493565429"><ele>1452.21</ele><time>2014-09-05T09:51:46Z</time></trkpt><trkpt lat="45.7111001294" lon="6.9493696187"><ele>1451.73</ele><time>2014-09-05T09:51:47Z</time></trkpt><trkpt lat="45.7113241777" lon="6.9494360033"><ele>1451.25</ele><time>2014-09-05T09:51:58Z</time></trkpt><trkpt lat="45.7113485690" lon="6.9494395237"><ele>1446.92</ele><time>2014-09-05T09:52:17Z</time></trkpt><trkpt lat="45.7113065757" lon="6.9494461454"><ele>1459.90</ele><time>2014-09-05T09:52:47Z</time></trkpt><trkpt lat="45.7114011236" lon="6.9494779129"><ele>1458.94</ele><time>2014-09-05T09:53:17Z</time></trkpt><trkpt lat="45.7117801532" lon="6.9495428726"><ele>1457.98</ele><time>2014-09-05T09:53:28Z</time></trkpt><trkpt lat="45.7118237391" lon="6.9495463092"><ele>1457.98</ele><time>2014-09-05T09:53:29Z</time></trkpt><trkpt lat="45.7120839134" lon="6.9495147094"><ele>1457.02</ele><time>2014-09-05T09:53:35Z</time></trkpt><trkpt lat="45.7121274155" lon="6.9494986162"><ele>1456.53</ele><time>2014-09-05T09:53:36Z</time></trkpt><trkpt lat="45.7122150902" lon="6.9494722970"><ele>1455.57</ele><time>2014-09-05T09:53:38Z</time></trkpt><trkpt lat="45.7124871667" lon="6.9494235981"><ele>1453.65</ele><time>2014-09-05T09:53:44Z</time></trkpt><trkpt lat="45.7126421481" lon="6.9493880589"><ele>1452.69</ele><time>2014-09-05T09:53:47Z</time></trkpt><trkpt lat="45.7126854826" lon="6.9493790064"><ele>1452.21</ele><time>2014-09-05T09:53:48Z</time></trkpt><trkpt lat="45.7127267215" lon="6.9493677747"><ele>1452.21</ele><time>2014-09-05T09:53:49Z</time></trkpt><trkpt lat="45.7127745822" lon="6.9493523519"><ele>1451.73</ele><time>2014-09-05T09:53:50Z</time></trkpt><trkpt lat="45.7128214370" lon="6.9493383542"><ele>1451.73</ele><time>2014-09-05T09:53:51Z</time></trkpt><trkpt lat="45.7128659450" lon="6.9493313134"><ele>1451.25</ele><time>2014-09-05T09:53:52Z</time></trkpt><trkpt lat="45.7131728064" lon="6.9492821954"><ele>1449.81</ele><time>2014-09-05T09:54:04Z</time></trkpt><trkpt lat="45.7131939288" lon="6.9492894039"><ele>1446.92</ele><time>2014-09-05T09:54:23Z</time></trkpt><trkpt lat="45.7132102735" lon="6.9492806867"><ele>1446.44</ele><time>2014-09-05T09:54:27Z</time></trkpt><trkpt lat="45.7132230978" lon="6.9492718857"><ele>1446.44</ele><time>2014-09-05T09:54:28Z</time></trkpt><trkpt lat="45.7132367603" lon="6.9492636714"><ele>1446.44</ele><time>2014-09-05T09:54:29Z</time></trkpt><trkpt lat="45.7132499199" lon="6.9492553733"><ele>1446.44</ele><time>2014-09-05T09:54:30Z</time></trkpt><trkpt lat="45.7132652588" lon="6.9492490869"><ele>1446.44</ele><time>2014-09-05T09:54:31Z</time></trkpt><trkpt lat="45.7136317156" lon="6.9491652679"><ele>1445.96</ele><time>2014-09-05T09:54:45Z</time></trkpt><trkpt lat="45.7141580153" lon="6.9490238652"><ele>1444.04</ele><time>2014-09-05T09:55:00Z</time></trkpt><trkpt lat="45.7144204527" lon="6.9489200134"><ele>1442.11</ele><time>2014-09-05T09:55:07Z</time></trkpt><trkpt lat="45.7145833969" lon="6.9488286506"><ele>1441.63</ele><time>2014-09-05T09:55:11Z</time></trkpt><trkpt lat="45.7146237977" lon="6.9488018285"><ele>1441.15</ele><time>2014-09-05T09:55:12Z</time></trkpt><trkpt lat="45.7146662939" lon="6.9487819634"><ele>1441.15</ele><time>2014-09-05T09:55:13Z</time></trkpt><trkpt lat="45.7152910810" lon="6.9485267345"><ele>1438.75</ele><time>2014-09-05T09:55:28Z</time></trkpt><trkpt lat="45.7156771515" lon="6.9484149199"><ele>1437.79</ele><time>2014-09-05T09:55:38Z</time></trkpt><trkpt lat="45.7162151020" lon="6.9483155105"><ele>1436.35</ele><time>2014-09-05T09:55:50Z</time></trkpt><trkpt lat="45.7165818941" lon="6.9482734334"><ele>1434.91</ele><time>2014-09-05T09:56:00Z</time></trkpt><trkpt lat="45.7171289809" lon="6.9480030332"><ele>1432.98</ele><time>2014-09-05T09:56:15Z</time></trkpt><trkpt lat="45.7176111918" lon="6.9476023782"><ele>1431.54</ele><time>2014-09-05T09:56:31Z</time></trkpt><trkpt lat="45.7177898940" lon="6.9476136938"><ele>1430.58</ele><time>2014-09-05T09:56:40Z</time></trkpt><trkpt lat="45.7178308815" lon="6.9476953335"><ele>1430.58</ele><time>2014-09-05T09:56:44Z</time></trkpt><trkpt lat="45.7178261038" lon="6.9477296155"><ele>1430.58</ele><time>2014-09-05T09:56:45Z</time></trkpt><trkpt lat="45.7178056519" lon="6.9477584492"><ele>1430.58</ele><time>2014-09-05T09:56:46Z</time></trkpt><trkpt lat="45.7177929115" lon="6.9477701001"><ele>1431.06</ele><time>2014-09-05T09:56:47Z</time></trkpt><trkpt lat="45.7177699450" lon="6.9477879535"><ele>1431.06</ele><time>2014-09-05T09:56:48Z</time></trkpt><trkpt lat="45.7177473139" lon="6.9478073996"><ele>1431.54</ele><time>2014-09-05T09:56:49Z</time></trkpt><trkpt lat="45.7175405324" lon="6.9480457809"><ele>1432.50</ele><time>2014-09-05T09:57:01Z</time></trkpt><trkpt lat="45.7172761671" lon="6.9483520556"><ele>1433.46</ele><time>2014-09-05T09:57:18Z</time></trkpt><trkpt lat="45.7171787694" lon="6.9484650437"><ele>1433.94</ele><time>2014-09-05T09:57:26Z</time></trkpt><trkpt lat="45.7171710581" lon="6.9484783709"><ele>1434.42</ele><time>2014-09-05T09:57:27Z</time></trkpt><trkpt lat="45.7171627600" lon="6.9484932907"><ele>1434.42</ele><time>2014-09-05T09:57:28Z</time></trkpt><trkpt lat="45.7171585690" lon="6.9485119823"><ele>1434.91</ele><time>2014-09-05T09:57:29Z</time></trkpt><trkpt lat="45.7171537913" lon="6.9485317636"><ele>1434.91</ele><time>2014-09-05T09:57:30Z</time></trkpt><trkpt lat="45.7171604130" lon="6.9485672191"><ele>1436.35</ele><time>2014-09-05T09:57:41Z</time></trkpt><trkpt lat="45.7171644364" lon="6.9485476054"><ele>1437.31</ele><time>2014-09-05T09:57:56Z</time></trkpt><trkpt lat="45.7171632629" lon="6.9485298358"><ele>1442.11</ele><time>2014-09-05T09:58:27Z</time></trkpt><trkpt lat="45.7171083614" lon="6.9485118985"><ele>1444.04</ele><time>2014-09-05T09:59:00Z</time></trkpt><trkpt lat="45.7171010692" lon="6.9485074561"><ele>1444.52</ele><time>2014-09-05T09:59:35Z</time></trkpt><trkpt lat="45.7171129715" lon="6.9484828971"><ele>1445.00</ele><time>2014-09-05T10:00:10Z</time></trkpt><trkpt lat="45.7171107084" lon="6.9484783709"><ele>1444.04</ele><time>2014-09-05T10:00:49Z</time></trkpt><trkpt lat="45.7171118818" lon="6.9484378863"><ele>1446.92</ele><time>2014-09-05T10:01:24Z</time></trkpt><trkpt lat="45.7171193417" lon="6.9484853279"><ele>1445.96</ele><time>2014-09-05T10:01:48Z</time></trkpt><trkpt lat="45.7171050087" lon="6.9484958053"><ele>1445.48</ele><time>2014-09-05T10:02:10Z</time></trkpt><trkpt lat="45.7170911785" lon="6.9484912790"><ele>1445.96</ele><time>2014-09-05T10:02:12Z</time></trkpt><trkpt lat="45.7170797791" lon="6.9484963920"><ele>1445.96</ele><time>2014-09-05T10:02:13Z</time></trkpt><trkpt lat="45.7170671225" lon="6.9485067856"><ele>1446.44</ele><time>2014-09-05T10:02:14Z</time></trkpt><trkpt lat="45.7168811280" lon="6.9487856515"><ele>1441.15</ele><time>2014-09-05T10:02:29Z</time></trkpt><trkpt lat="45.7168317586" lon="6.9488189276"><ele>1440.67</ele><time>2014-09-05T10:02:32Z</time></trkpt><trkpt lat="45.7168155815" lon="6.9488179218"><ele>1440.67</ele><time>2014-09-05T10:02:33Z</time></trkpt><trkpt lat="45.7167938724" lon="6.9488095399"><ele>1440.67</ele><time>2014-09-05T10:02:34Z</time></trkpt><trkpt lat="45.7167771924" lon="6.9488002360"><ele>1441.15</ele><time>2014-09-05T10:02:35Z</time></trkpt><trkpt lat="45.7167582493" lon="6.9487782754"><ele>1441.15</ele><time>2014-09-05T10:02:36Z</time></trkpt><trkpt lat="45.7167386357" lon="6.9487455860"><ele>1440.67</ele><time>2014-09-05T10:02:38Z</time></trkpt><trkpt lat="45.7166337781" lon="6.9484214578"><ele>1441.63</ele><time>2014-09-05T10:02:51Z</time></trkpt><trkpt lat="45.7165403198" lon="6.9479399174"><ele>1442.60</ele><time>2014-09-05T10:03:10Z</time></trkpt><trkpt lat="45.7166189421" lon="6.9475609716"><ele>1444.52</ele><time>2014-09-05T10:03:25Z</time></trkpt><trkpt lat="45.7167058624" lon="6.9471948501"><ele>1444.52</ele><time>2014-09-05T10:03:38Z</time></trkpt><trkpt lat="45.7168185152" lon="6.9467453286"><ele>1446.92</ele><time>2014-09-05T10:03:53Z</time></trkpt><trkpt lat="45.7166950498" lon="6.9463198632"><ele>1448.84</ele><time>2014-09-05T10:04:06Z</time></trkpt><trkpt lat="45.7164745219" lon="6.9460958149"><ele>1450.29</ele><time>2014-09-05T10:04:19Z</time></trkpt><trkpt lat="45.7162443548" lon="6.9458841719"><ele>1452.21</ele><time>2014-09-05T10:04:33Z</time></trkpt><trkpt lat="45.7158971764" lon="6.9455913920"><ele>1454.13</ele><time>2014-09-05T10:04:53Z</time></trkpt><trkpt lat="45.7156147063" lon="6.9453601353"><ele>1456.05</ele><time>2014-09-05T10:05:09Z</time></trkpt><trkpt lat="45.7153060846" lon="6.9451286271"><ele>1459.42</ele><time>2014-09-05T10:05:25Z</time></trkpt><trkpt lat="45.7149459142" lon="6.9449194986"><ele>1461.34</ele><time>2014-09-05T10:05:42Z</time></trkpt><trkpt lat="45.7145906892" lon="6.9447269663"><ele>1463.74</ele><time>2014-09-05T10:05:59Z</time></trkpt><trkpt lat="45.7142163534" lon="6.9445190951"><ele>1465.67</ele><time>2014-09-05T10:06:17Z</time></trkpt><trkpt lat="45.7139046304" lon="6.9441981521"><ele>1469.03</ele><time>2014-09-05T10:06:34Z</time></trkpt><trkpt lat="45.7136573642" lon="6.9439067971"><ele>1471.44</ele><time>2014-09-05T10:06:49Z</time></trkpt><trkpt lat="45.7133964356" lon="6.9436089881"><ele>1474.32</ele><time>2014-09-05T10:07:05Z</time></trkpt><trkpt lat="45.7131926715" lon="6.9433015399"><ele>1475.28</ele><time>2014-09-05T10:07:19Z</time></trkpt><trkpt lat="45.7131938450" lon="6.9432759751"><ele>1475.76</ele><time>2014-09-05T10:07:20Z</time></trkpt><trkpt lat="45.7133406959" lon="6.9429635815"><ele>1476.24</ele><time>2014-09-05T10:07:34Z</time></trkpt><trkpt lat="45.7133599743" lon="6.9429504219"><ele>1476.24</ele><time>2014-09-05T10:07:35Z</time></trkpt><trkpt lat="45.7133762352" lon="6.9429359213"><ele>1476.24</ele><time>2014-09-05T10:07:36Z</time></trkpt><trkpt lat="45.7136423606" lon="6.9426845480"><ele>1479.61</ele><time>2014-09-05T10:07:52Z</time></trkpt><trkpt lat="45.7139737811" lon="6.9424527045"><ele>1480.57</ele><time>2014-09-05T10:08:08Z</time></trkpt><trkpt lat="45.7143195346" lon="6.9423938636"><ele>1481.53</ele><time>2014-09-05T10:08:24Z</time></trkpt><trkpt lat="45.7146643661" lon="6.9425093662"><ele>1483.45</ele><time>2014-09-05T10:08:41Z</time></trkpt><trkpt lat="45.7149200141" lon="6.9423229527"><ele>1484.41</ele><time>2014-09-05T10:08:54Z</time></trkpt><trkpt lat="45.7152182423" lon="6.9423552230"><ele>1485.85</ele><time>2014-09-05T10:09:08Z</time></trkpt><trkpt lat="45.7155266963" lon="6.9424634334"><ele>1487.78</ele><time>2014-09-05T10:09:23Z</time></trkpt><trkpt lat="45.7155881356" lon="6.9424918480"><ele>1487.78</ele><time>2014-09-05T10:09:26Z</time></trkpt><trkpt lat="45.7158339769" lon="6.9424977154"><ele>1490.66</ele><time>2014-09-05T10:09:41Z</time></trkpt><trkpt lat="45.7158561051" lon="6.9424050115"><ele>1490.66</ele><time>2014-09-05T10:09:45Z</time></trkpt><trkpt lat="45.7158413529" lon="6.9423764292"><ele>1490.66</ele><time>2014-09-05T10:09:46Z</time></trkpt><trkpt lat="45.7158230804" lon="6.9423510320"><ele>1491.14</ele><time>2014-09-05T10:09:47Z</time></trkpt><trkpt lat="45.7158058137" lon="6.9423254672"><ele>1491.14</ele><time>2014-09-05T10:09:48Z</time></trkpt><trkpt lat="45.7157889660" lon="6.9422945380"><ele>1491.14</ele><time>2014-09-05T10:09:49Z</time></trkpt><trkpt lat="45.7157716993" lon="6.9422713201"><ele>1491.14</ele><time>2014-09-05T10:09:50Z</time></trkpt><trkpt lat="45.7157609705" lon="6.9422579091"><ele>1490.66</ele><time>2014-09-05T10:09:51Z</time></trkpt><trkpt lat="45.7157089189" lon="6.9422206935"><ele>1489.70</ele><time>2014-09-05T10:10:01Z</time></trkpt><trkpt lat="45.7157111820" lon="6.9422344398"><ele>1487.78</ele><time>2014-09-05T10:10:24Z</time></trkpt><trkpt lat="45.7156962622" lon="6.9422308356"><ele>1487.30</ele><time>2014-09-05T10:10:43Z</time></trkpt><trkpt lat="45.7156768162" lon="6.9422119763"><ele>1488.74</ele><time>2014-09-05T10:10:46Z</time></trkpt><trkpt lat="45.7156632375" lon="6.9422095455"><ele>1489.22</ele><time>2014-09-05T10:10:47Z</time></trkpt><trkpt lat="45.7156485692" lon="6.9422093779"><ele>1489.22</ele><time>2014-09-05T10:10:48Z</time></trkpt><trkpt lat="45.7156278659" lon="6.9422031753"><ele>1489.22</ele><time>2014-09-05T10:10:49Z</time></trkpt><trkpt lat="45.7156034745" lon="6.9421910215"><ele>1489.70</ele><time>2014-09-05T10:10:50Z</time></trkpt><trkpt lat="45.7155780774" lon="6.9421825558"><ele>1490.18</ele><time>2014-09-05T10:10:51Z</time></trkpt><trkpt lat="45.7152314018" lon="6.9419824798"><ele>1494.03</ele><time>2014-09-05T10:11:06Z</time></trkpt><trkpt lat="45.7148260530" lon="6.9417259935"><ele>1500.76</ele><time>2014-09-05T10:11:24Z</time></trkpt><trkpt lat="45.7144719176" lon="6.9415601995"><ele>1503.64</ele><time>2014-09-05T10:11:40Z</time></trkpt><trkpt lat="45.7141435985" lon="6.9414480496"><ele>1506.04</ele><time>2014-09-05T10:11:54Z</time></trkpt><trkpt lat="45.7140246592" lon="6.9414192997"><ele>1507.97</ele><time>2014-09-05T10:12:01Z</time></trkpt><trkpt lat="45.7140177861" lon="6.9414309505"><ele>1507.48</ele><time>2014-09-05T10:12:02Z</time></trkpt><trkpt lat="45.7140054647" lon="6.9414730277"><ele>1507.48</ele><time>2014-09-05T10:12:14Z</time></trkpt><trkpt lat="45.7139886171" lon="6.9415234029"><ele>1508.93</ele><time>2014-09-05T10:12:33Z</time></trkpt><trkpt lat="45.7139989268" lon="6.9415090699"><ele>1507.97</ele><time>2014-09-05T10:13:15Z</time></trkpt><trkpt lat="45.7139956579" lon="6.9414729439"><ele>1512.77</ele><time>2014-09-05T10:14:03Z</time></trkpt><trkpt lat="45.7139747869" lon="6.9414726086"><ele>1507.00</ele><time>2014-09-05T10:14:45Z</time></trkpt><trkpt lat="45.7139630523" lon="6.9415310305"><ele>1507.48</ele><time>2014-09-05T10:15:37Z</time></trkpt><trkpt lat="45.7139594480" lon="6.9414961617"><ele>1510.85</ele><time>2014-09-05T10:16:21Z</time></trkpt><trkpt lat="45.7139675785" lon="6.9415219780"><ele>1508.93</ele><time>2014-09-05T10:16:54Z</time></trkpt><trkpt lat="45.7139607053" lon="6.9415011909"><ele>1508.45</ele><time>2014-09-05T10:17:01Z</time></trkpt><trkpt lat="45.7139590289" lon="6.9414767157"><ele>1507.97</ele><time>2014-09-05T10:17:02Z</time></trkpt><trkpt lat="45.7139534969" lon="6.9414490554"><ele>1507.97</ele><time>2014-09-05T10:17:03Z</time></trkpt><trkpt lat="45.7139462046" lon="6.9414202217"><ele>1507.97</ele><time>2014-09-05T10:17:04Z</time></trkpt><trkpt lat="45.7139400858" lon="6.9413904659"><ele>1507.97</ele><time>2014-09-05T10:17:05Z</time></trkpt><trkpt lat="45.7139104977" lon="6.9412486441"><ele>1507.48</ele><time>2014-09-05T10:17:10Z</time></trkpt><trkpt lat="45.7139004394" lon="6.9412208162"><ele>1507.48</ele><time>2014-09-05T10:17:11Z</time></trkpt><trkpt lat="45.7138960809" lon="6.9411918987"><ele>1507.97</ele><time>2014-09-05T10:17:12Z</time></trkpt><trkpt lat="45.7138921414" lon="6.9411644060"><ele>1507.97</ele><time>2014-09-05T10:17:13Z</time></trkpt><trkpt lat="45.7138835080" lon="6.9411377516"><ele>1507.97</ele><time>2014-09-05T10:17:14Z</time></trkpt><trkpt lat="45.7137600426" lon="6.9407301396"><ele>1507.97</ele><time>2014-09-05T10:17:29Z</time></trkpt><trkpt lat="45.7136023790" lon="6.9402667042"><ele>1508.45</ele><time>2014-09-05T10:17:46Z</time></trkpt><trkpt lat="45.7134828530" lon="6.9400807936"><ele>1508.93</ele><time>2014-09-05T10:17:55Z</time></trkpt><trkpt lat="45.7134701964" lon="6.9400771055"><ele>1509.41</ele><time>2014-09-05T10:17:56Z</time></trkpt><trkpt lat="45.7134601381" lon="6.9400821347"><ele>1509.41</ele><time>2014-09-05T10:17:57Z</time></trkpt><trkpt lat="45.7134607248" lon="6.9401047658"><ele>1509.41</ele><time>2014-09-05T10:17:58Z</time></trkpt><trkpt lat="45.7134709507" lon="6.9401288219"><ele>1509.41</ele><time>2014-09-05T10:17:59Z</time></trkpt><trkpt lat="45.7134784944" lon="6.9401427358"><ele>1509.41</ele><time>2014-09-05T10:18:00Z</time></trkpt><trkpt lat="45.7134904806" lon="6.9401632715"><ele>1509.41</ele><time>2014-09-05T10:18:01Z</time></trkpt><trkpt lat="45.7135065738" lon="6.9401848130"><ele>1509.41</ele><time>2014-09-05T10:18:11Z</time></trkpt><trkpt lat="45.7134960964" lon="6.9401708990"><ele>1507.48</ele><time>2014-09-05T10:19:01Z</time></trkpt><trkpt lat="45.7135058194" lon="6.9401667919"><ele>1507.48</ele><time>2014-09-05T10:19:03Z</time></trkpt><trkpt lat="45.7135018799" lon="6.9400809612"><ele>1509.41</ele><time>2014-09-05T10:19:11Z</time></trkpt><trkpt lat="45.7132754009" lon="6.9398098066"><ele>1510.85</ele><time>2014-09-05T10:19:26Z</time></trkpt><trkpt lat="45.7131847925" lon="6.9396449346"><ele>1511.81</ele><time>2014-09-05T10:19:33Z</time></trkpt><trkpt lat="45.7132402807" lon="6.9395943917"><ele>1512.77</ele><time>2014-09-05T10:19:37Z</time></trkpt><trkpt lat="45.7132677734" lon="6.9396063779"><ele>1512.77</ele><time>2014-09-05T10:19:38Z</time></trkpt><trkpt lat="45.7133667637" lon="6.9396557473"><ele>1513.25</ele><time>2014-09-05T10:19:43Z</time></trkpt><trkpt lat="45.7133862097" lon="6.9396647997"><ele>1513.25</ele><time>2014-09-05T10:19:44Z</time></trkpt><trkpt lat="45.7137181330" lon="6.9398813043"><ele>1516.14</ele><time>2014-09-05T10:20:01Z</time></trkpt><trkpt lat="45.7140391599" lon="6.9402311649"><ele>1520.94</ele><time>2014-09-05T10:20:20Z</time></trkpt><trkpt lat="45.7143202052" lon="6.9404424727"><ele>1523.83</ele><time>2014-09-05T10:20:35Z</time></trkpt><trkpt lat="45.7145687286" lon="6.9405850489"><ele>1526.71</ele><time>2014-09-05T10:20:49Z</time></trkpt><trkpt lat="45.7148964610" lon="6.9407524355"><ele>1529.11</ele><time>2014-09-05T10:21:06Z</time></trkpt><trkpt lat="45.7151757460" lon="6.9409845304"><ele>1531.52</ele><time>2014-09-05T10:21:22Z</time></trkpt><trkpt lat="45.7154294662" lon="6.9412711076"><ele>1533.92</ele><time>2014-09-05T10:21:39Z</time></trkpt><trkpt lat="45.7156333979" lon="6.9412478898"><ele>1536.32</ele><time>2014-09-05T10:21:51Z</time></trkpt><trkpt lat="45.7156384271" lon="6.9412231632"><ele>1536.32</ele><time>2014-09-05T10:21:52Z</time></trkpt><trkpt lat="45.7155011315" lon="6.9408862945"><ele>1536.32</ele><time>2014-09-05T10:22:06Z</time></trkpt><trkpt lat="45.7152991276" lon="6.9405805226"><ele>1536.80</ele><time>2014-09-05T10:22:21Z</time></trkpt><trkpt lat="45.7150265481" lon="6.9402339309"><ele>1537.77</ele><time>2014-09-05T10:22:40Z</time></trkpt><trkpt lat="45.7146932837" lon="6.9401346892"><ele>1544.50</ele><time>2014-09-05T10:22:56Z</time></trkpt><trkpt lat="45.7144466043" lon="6.9399403129"><ele>1545.94</ele><time>2014-09-05T10:23:10Z</time></trkpt><trkpt lat="45.7141698338" lon="6.9396041147"><ele>1545.46</ele><time>2014-09-05T10:23:27Z</time></trkpt><trkpt lat="45.7139250822" lon="6.9392726105"><ele>1545.46</ele><time>2014-09-05T10:23:43Z</time></trkpt><trkpt lat="45.7137142774" lon="6.9388630707"><ele>1547.38</ele><time>2014-09-05T10:24:00Z</time></trkpt><trkpt lat="45.7135375869" lon="6.9384731445"><ele>1549.30</ele><time>2014-09-05T10:24:16Z</time></trkpt><trkpt lat="45.7133836113" lon="6.9381413050"><ele>1550.26</ele><time>2014-09-05T10:24:30Z</time></trkpt><trkpt lat="45.7131480798" lon="6.9377182703"><ele>1552.19</ele><time>2014-09-05T10:24:48Z</time></trkpt><trkpt lat="45.7129804417" lon="6.9374342915"><ele>1553.63</ele><time>2014-09-05T10:25:01Z</time></trkpt><trkpt lat="45.7126871590" lon="6.9371166173"><ele>1554.59</ele><time>2014-09-05T10:25:19Z</time></trkpt><trkpt lat="45.7124155015" lon="6.9368575327"><ele>1555.07</ele><time>2014-09-05T10:25:35Z</time></trkpt><trkpt lat="45.7121579256" lon="6.9365801755"><ele>1556.99</ele><time>2014-09-05T10:25:51Z</time></trkpt><trkpt lat="45.7120782975" lon="6.9362868089"><ele>1559.40</ele><time>2014-09-05T10:26:05Z</time></trkpt><trkpt lat="45.7121234760" lon="6.9362132996"><ele>1559.88</ele><time>2014-09-05T10:26:09Z</time></trkpt><trkpt lat="45.7121667266" lon="6.9361823704"><ele>1559.88</ele><time>2014-09-05T10:26:12Z</time></trkpt><trkpt lat="45.7121856697" lon="6.9361770898"><ele>1559.88</ele><time>2014-09-05T10:26:13Z</time></trkpt><trkpt lat="45.7122052833" lon="6.9361720607"><ele>1559.88</ele><time>2014-09-05T10:26:14Z</time></trkpt><trkpt lat="45.7122209575" lon="6.9361626729"><ele>1560.84</ele><time>2014-09-05T10:26:15Z</time></trkpt><trkpt lat="45.7122378051" lon="6.9361607451"><ele>1561.80</ele><time>2014-09-05T10:26:16Z</time></trkpt><trkpt lat="45.7122542337" lon="6.9361669477"><ele>1562.76</ele><time>2014-09-05T10:26:17Z</time></trkpt><trkpt lat="45.7122715004" lon="6.9361751620"><ele>1563.24</ele><time>2014-09-05T10:26:18Z</time></trkpt><trkpt lat="45.7122912817" lon="6.9361928478"><ele>1563.24</ele><time>2014-09-05T10:26:19Z</time></trkpt><trkpt lat="45.7123101410" lon="6.9362127967"><ele>1563.24</ele><time>2014-09-05T10:26:20Z</time></trkpt><trkpt lat="45.7125097979" lon="6.9363847096"><ele>1565.64</ele><time>2014-09-05T10:26:34Z</time></trkpt><trkpt lat="45.7125253044" lon="6.9364227634"><ele>1564.20</ele><time>2014-09-05T10:26:49Z</time></trkpt><trkpt lat="45.7125154138" lon="6.9364075083"><ele>1562.28</ele><time>2014-09-05T10:27:29Z</time></trkpt><trkpt lat="45.7125211135" lon="6.9364376832"><ele>1563.24</ele><time>2014-09-05T10:28:03Z</time></trkpt><trkpt lat="45.7125277352" lon="6.9364335760"><ele>1562.76</ele><time>2014-09-05T10:28:28Z</time></trkpt><trkpt lat="45.7125242986" lon="6.9364376832"><ele>1559.88</ele><time>2014-09-05T10:29:03Z</time></trkpt><trkpt lat="45.7125210296" lon="6.9364135433"><ele>1560.36</ele><time>2014-09-05T10:29:28Z</time></trkpt><trkpt lat="45.7125375420" lon="6.9364134595"><ele>1558.43</ele><time>2014-09-05T10:30:00Z</time></trkpt><trkpt lat="45.7125618495" lon="6.9364233501"><ele>1558.43</ele><time>2014-09-05T10:30:03Z</time></trkpt><trkpt lat="45.7125762664" lon="6.9364275411"><ele>1558.43</ele><time>2014-09-05T10:30:04Z</time></trkpt><trkpt lat="45.7128345966" lon="6.9365968555"><ele>1562.76</ele><time>2014-09-05T10:30:18Z</time></trkpt><trkpt lat="45.7131043263" lon="6.9367638230"><ele>1566.12</ele><time>2014-09-05T10:30:32Z</time></trkpt><trkpt lat="45.7132893987" lon="6.9370889571"><ele>1570.93</ele><time>2014-09-05T10:30:47Z</time></trkpt><trkpt lat="45.7134094276" lon="6.9374318607"><ele>1573.33</ele><time>2014-09-05T10:31:01Z</time></trkpt><trkpt lat="45.7134159654" lon="6.9374566711"><ele>1573.33</ele><time>2014-09-05T10:31:02Z</time></trkpt><trkpt lat="45.7135250140" lon="6.9375221338"><ele>1575.26</ele><time>2014-09-05T10:31:10Z</time></trkpt><trkpt lat="45.7135409396" lon="6.9375148416"><ele>1575.26</ele><time>2014-09-05T10:31:11Z</time></trkpt><trkpt lat="45.7135555241" lon="6.9375020172"><ele>1575.26</ele><time>2014-09-05T10:31:12Z</time></trkpt><trkpt lat="45.7135690190" lon="6.9374787994"><ele>1574.78</ele><time>2014-09-05T10:31:13Z</time></trkpt><trkpt lat="45.7135768142" lon="6.9374506362"><ele>1574.78</ele><time>2014-09-05T10:31:14Z</time></trkpt><trkpt lat="45.7135761436" lon="6.9374127500"><ele>1574.78</ele><time>2014-09-05T10:31:15Z</time></trkpt><trkpt lat="45.7135681808" lon="6.9373764563"><ele>1574.78</ele><time>2014-09-05T10:31:16Z</time></trkpt><trkpt lat="45.7135581225" lon="6.9373379834"><ele>1574.78</ele><time>2014-09-05T10:31:17Z</time></trkpt><trkpt lat="45.7134038955" lon="6.9368620589"><ele>1577.18</ele><time>2014-09-05T10:31:32Z</time></trkpt><trkpt lat="45.7132665161" lon="6.9365099352"><ele>1578.62</ele><time>2014-09-05T10:31:48Z</time></trkpt><trkpt lat="45.7131739799" lon="6.9362869766"><ele>1581.03</ele><time>2014-09-05T10:31:58Z</time></trkpt><trkpt lat="45.7130007260" lon="6.9357455894"><ele>1583.43</ele><time>2014-09-05T10:32:17Z</time></trkpt><trkpt lat="45.7127299067" lon="6.9351744466"><ele>1586.79</ele><time>2014-09-05T10:32:39Z</time></trkpt><trkpt lat="45.7124567404" lon="6.9347747136"><ele>1587.27</ele><time>2014-09-05T10:32:57Z</time></trkpt><trkpt lat="45.7123856619" lon="6.9346435368"><ele>1588.72</ele><time>2014-09-05T10:33:08Z</time></trkpt><trkpt lat="45.7123703230" lon="6.9346671738"><ele>1596.89</ele><time>2014-09-05T10:33:40Z</time></trkpt><trkpt lat="45.7123606838" lon="6.9347012881"><ele>1599.29</ele><time>2014-09-05T10:34:06Z</time></trkpt><trkpt lat="45.7123624440" lon="6.9347142801"><ele>1599.29</ele><time>2014-09-05T10:34:34Z</time></trkpt><trkpt lat="45.7123651262" lon="6.9347121846"><ele>1597.37</ele><time>2014-09-05T10:34:41Z</time></trkpt><trkpt lat="45.7123405673" lon="6.9346797466"><ele>1597.37</ele><time>2014-09-05T10:34:45Z</time></trkpt><trkpt lat="45.7123301737" lon="6.9346425310"><ele>1597.85</ele><time>2014-09-05T10:34:47Z</time></trkpt><trkpt lat="45.7123201992" lon="6.9346321374"><ele>1597.85</ele><time>2014-09-05T10:34:48Z</time></trkpt><trkpt lat="45.7123109791" lon="6.9346157089"><ele>1597.85</ele><time>2014-09-05T10:34:49Z</time></trkpt><trkpt lat="45.7123032678" lon="6.9345919881"><ele>1597.85</ele><time>2014-09-05T10:34:50Z</time></trkpt><trkpt lat="45.7122922875" lon="6.9345722068"><ele>1597.85</ele><time>2014-09-05T10:34:51Z</time></trkpt><trkpt lat="45.7120709214" lon="6.9341532793"><ele>1599.29</ele><time>2014-09-05T10:35:07Z</time></trkpt><trkpt lat="45.7119213883" lon="6.9337097090"><ele>1602.17</ele><time>2014-09-05T10:35:23Z</time></trkpt><trkpt lat="45.7117985096" lon="6.9333202019"><ele>1603.62</ele><time>2014-09-05T10:35:37Z</time></trkpt><trkpt lat="45.7117022015" lon="6.9329791423"><ele>1605.06</ele><time>2014-09-05T10:35:50Z</time></trkpt><trkpt lat="45.7116899639" lon="6.9329508115"><ele>1605.06</ele><time>2014-09-05T10:35:52Z</time></trkpt><trkpt lat="45.7116885390" lon="6.9329126738"><ele>1605.06</ele><time>2014-09-05T10:36:04Z</time></trkpt><trkpt lat="45.7116811629" lon="6.9329530746"><ele>1605.54</ele><time>2014-09-05T10:36:37Z</time></trkpt><trkpt lat="45.7116701826" lon="6.9329769630"><ele>1606.02</ele><time>2014-09-05T10:37:10Z</time></trkpt><trkpt lat="45.7116504852" lon="6.9329586904"><ele>1606.50</ele><time>2014-09-05T10:37:44Z</time></trkpt><trkpt lat="45.7116458751" lon="6.9329368975"><ele>1606.98</ele><time>2014-09-05T10:37:45Z</time></trkpt><trkpt lat="45.7116411813" lon="6.9329131767"><ele>1606.98</ele><time>2014-09-05T10:37:46Z</time></trkpt><trkpt lat="45.7116326317" lon="6.9328880310"><ele>1606.98</ele><time>2014-09-05T10:37:47Z</time></trkpt><trkpt lat="45.7116219867" lon="6.9328638073"><ele>1607.46</ele><time>2014-09-05T10:37:48Z</time></trkpt><trkpt lat="45.7116135210" lon="6.9328382425"><ele>1607.46</ele><time>2014-09-05T10:37:49Z</time></trkpt><trkpt lat="45.7116064802" lon="6.9328063913"><ele>1607.94</ele><time>2014-09-05T10:37:50Z</time></trkpt><trkpt lat="45.7115968410" lon="6.9327772222"><ele>1607.94</ele><time>2014-09-05T10:37:51Z</time></trkpt><trkpt lat="45.7114560250" lon="6.9322546944"><ele>1610.83</ele><time>2014-09-05T10:38:09Z</time></trkpt><trkpt lat="45.7114221621" lon="6.9320869725"><ele>1612.27</ele><time>2014-09-05T10:38:21Z</time></trkpt><trkpt lat="45.7114263531" lon="6.9320298918"><ele>1609.86</ele><time>2014-09-05T10:38:34Z</time></trkpt><trkpt lat="45.7114358246" lon="6.9320229348"><ele>1611.31</ele><time>2014-09-05T10:39:02Z</time></trkpt><trkpt lat="45.7114043087" lon="6.9320153911"><ele>1611.31</ele><time>2014-09-05T10:39:08Z</time></trkpt><trkpt lat="45.7113951724" lon="6.9320059195"><ele>1611.31</ele><time>2014-09-05T10:39:09Z</time></trkpt><trkpt lat="45.7113817614" lon="6.9320011418"><ele>1611.31</ele><time>2014-09-05T10:39:10Z</time></trkpt><trkpt lat="45.7113699429" lon="6.9319863897"><ele>1611.31</ele><time>2014-09-05T10:39:11Z</time></trkpt><trkpt lat="45.7113600522" lon="6.9319689553"><ele>1611.79</ele><time>2014-09-05T10:39:12Z</time></trkpt><trkpt lat="45.7113486528" lon="6.9319514371"><ele>1611.79</ele><time>2014-09-05T10:39:13Z</time></trkpt><trkpt lat="45.7113383431" lon="6.9319310691"><ele>1612.27</ele><time>2014-09-05T10:39:14Z</time></trkpt><trkpt lat="45.7113261055" lon="6.9319111202"><ele>1612.27</ele><time>2014-09-05T10:39:15Z</time></trkpt><trkpt lat="45.7113142870" lon="6.9318904169"><ele>1612.75</ele><time>2014-09-05T10:39:16Z</time></trkpt><trkpt lat="45.7113029715" lon="6.9318663608"><ele>1613.23</ele><time>2014-09-05T10:39:17Z</time></trkpt><trkpt lat="45.7112898957" lon="6.9318442326"><ele>1613.23</ele><time>2014-09-05T10:39:18Z</time></trkpt><trkpt lat="45.7112755626" lon="6.9318238646"><ele>1613.71</ele><time>2014-09-05T10:39:19Z</time></trkpt><trkpt lat="45.7112608105" lon="6.9318049215"><ele>1613.71</ele><time>2014-09-05T10:39:20Z</time></trkpt><trkpt lat="45.7110230997" lon="6.9314738363"><ele>1613.23</ele><time>2014-09-05T10:39:36Z</time></trkpt><trkpt lat="45.7108830381" lon="6.9311238918"><ele>1615.15</ele><time>2014-09-05T10:39:51Z</time></trkpt><trkpt lat="45.7108323276" lon="6.9308631308"><ele>1618.04</ele><time>2014-09-05T10:40:02Z</time></trkpt><trkpt lat="45.7108252868" lon="6.9308411703"><ele>1618.04</ele><time>2014-09-05T10:40:03Z</time></trkpt><trkpt lat="45.7108151447" lon="6.9308187068"><ele>1618.52</ele><time>2014-09-05T10:40:04Z</time></trkpt><trkpt lat="45.7108060922" lon="6.9308042899"><ele>1618.52</ele><time>2014-09-05T10:40:05Z</time></trkpt><trkpt lat="45.7107988838" lon="6.9307892863"><ele>1618.52</ele><time>2014-09-05T10:40:06Z</time></trkpt><trkpt lat="45.7107924297" lon="6.9307736959"><ele>1618.52</ele><time>2014-09-05T10:40:07Z</time></trkpt><trkpt lat="45.7107667811" lon="6.9307516515"><ele>1617.56</ele><time>2014-09-05T10:40:18Z</time></trkpt><trkpt lat="45.7107941899" lon="6.9307347201"><ele>1615.15</ele><time>2014-09-05T10:40:43Z</time></trkpt><trkpt lat="45.7108080201" lon="6.9307102449"><ele>1613.71</ele><time>2014-09-05T10:41:08Z</time></trkpt><trkpt lat="45.7108039130" lon="6.9307131786"><ele>1613.23</ele><time>2014-09-05T10:41:43Z</time></trkpt><trkpt lat="45.7108012307" lon="6.9307179563"><ele>1613.71</ele><time>2014-09-05T10:42:16Z</time></trkpt><trkpt lat="45.7108088583" lon="6.9307297748"><ele>1613.71</ele><time>2014-09-05T10:42:39Z</time></trkpt><trkpt lat="45.7108134683" lon="6.9307274278"><ele>1613.23</ele><time>2014-09-05T10:43:02Z</time></trkpt><trkpt lat="45.7108138036" lon="6.9307068922"><ele>1615.15</ele><time>2014-09-05T10:43:28Z</time></trkpt><trkpt lat="45.7108241972" lon="6.9307118375"><ele>1619.48</ele><time>2014-09-05T10:43:57Z</time></trkpt><trkpt lat="45.7108011469" lon="6.9307680801"><ele>1619.96</ele><time>2014-09-05T10:44:21Z</time></trkpt><trkpt lat="45.7108147256" lon="6.9307524059"><ele>1617.07</ele><time>2014-09-05T10:44:47Z</time></trkpt><trkpt lat="45.7108174916" lon="6.9307773840"><ele>1617.07</ele><time>2014-09-05T10:44:53Z</time></trkpt><trkpt lat="45.7108248677" lon="6.9308034517"><ele>1617.07</ele><time>2014-09-05T10:44:54Z</time></trkpt><trkpt lat="45.7108352613" lon="6.9308191258"><ele>1617.07</ele><time>2014-09-05T10:44:55Z</time></trkpt><trkpt lat="45.7108464092" lon="6.9308307767"><ele>1617.07</ele><time>2014-09-05T10:44:56Z</time></trkpt><trkpt lat="45.7108567189" lon="6.9308467023"><ele>1617.07</ele><time>2014-09-05T10:44:57Z</time></trkpt><trkpt lat="45.7108613290" lon="6.9308687467"><ele>1617.07</ele><time>2014-09-05T10:44:58Z</time></trkpt><trkpt lat="45.7108273823" lon="6.9309544936"><ele>1616.11</ele><time>2014-09-05T10:45:01Z</time></trkpt><trkpt lat="45.7107967045" lon="6.9309555832"><ele>1616.11</ele><time>2014-09-05T10:45:02Z</time></trkpt><trkpt lat="45.7107832097" lon="6.9309528172"><ele>1616.59</ele><time>2014-09-05T10:45:03Z</time></trkpt><trkpt lat="45.7107624225" lon="6.9309462793"><ele>1616.59</ele><time>2014-09-05T10:45:04Z</time></trkpt><trkpt lat="45.7107428089" lon="6.9309399091"><ele>1616.11</ele><time>2014-09-05T10:45:05Z</time></trkpt><trkpt lat="45.7107231952" lon="6.9309349637"><ele>1616.59</ele><time>2014-09-05T10:45:06Z</time></trkpt><trkpt lat="45.7107034139" lon="6.9309327006"><ele>1616.59</ele><time>2014-09-05T10:45:07Z</time></trkpt><trkpt lat="45.7106841356" lon="6.9309344608"><ele>1616.59</ele><time>2014-09-05T10:45:08Z</time></trkpt><trkpt lat="45.7106670365" lon="6.9309409149"><ele>1616.59</ele><time>2014-09-05T10:45:09Z</time></trkpt><trkpt lat="45.7106497698" lon="6.9309505541"><ele>1617.07</ele><time>2014-09-05T10:45:10Z</time></trkpt><trkpt lat="45.7106315810" lon="6.9309645519"><ele>1617.07</ele><time>2014-09-05T10:45:11Z</time></trkpt><trkpt lat="45.7106114645" lon="6.9309798907"><ele>1617.56</ele><time>2014-09-05T10:45:12Z</time></trkpt><trkpt lat="45.7105946168" lon="6.9309960678"><ele>1618.04</ele><time>2014-09-05T10:45:13Z</time></trkpt><trkpt lat="45.7105812058" lon="6.9310166873"><ele>1618.52</ele><time>2014-09-05T10:45:14Z</time></trkpt><trkpt lat="45.7105682977" lon="6.9310396537"><ele>1618.52</ele><time>2014-09-05T10:45:15Z</time></trkpt><trkpt lat="45.7105597481" lon="6.9310678169"><ele>1619.00</ele><time>2014-09-05T10:45:16Z</time></trkpt><trkpt lat="45.7105541322" lon="6.9310963992"><ele>1619.00</ele><time>2014-09-05T10:45:17Z</time></trkpt><trkpt lat="45.7105478458" lon="6.9311249815"><ele>1619.00</ele><time>2014-09-05T10:45:18Z</time></trkpt><trkpt lat="45.7105368655" lon="6.9311503787"><ele>1619.48</ele><time>2014-09-05T10:45:19Z</time></trkpt><trkpt lat="45.7105258852" lon="6.9311749376"><ele>1619.48</ele><time>2014-09-05T10:45:20Z</time></trkpt><trkpt lat="45.7105206884" lon="6.9312010054"><ele>1619.48</ele><time>2014-09-05T10:45:21Z</time></trkpt><trkpt lat="45.7105157431" lon="6.9312269893"><ele>1619.96</ele><time>2014-09-05T10:45:22Z</time></trkpt><trkpt lat="45.7105086185" lon="6.9312540628"><ele>1619.96</ele><time>2014-09-05T10:45:23Z</time></trkpt><trkpt lat="45.7104966324" lon="6.9313300028"><ele>1620.92</ele><time>2014-09-05T10:45:26Z</time></trkpt><trkpt lat="45.7104947045" lon="6.9313579984"><ele>1620.92</ele><time>2014-09-05T10:45:27Z</time></trkpt><trkpt lat="45.7104923576" lon="6.9313849881"><ele>1621.40</ele><time>2014-09-05T10:45:28Z</time></trkpt><trkpt lat="45.7104613446" lon="6.9316279795"><ele>1622.84</ele><time>2014-09-05T10:45:37Z</time></trkpt><trkpt lat="45.7104578242" lon="6.9316558074"><ele>1622.84</ele><time>2014-09-05T10:45:38Z</time></trkpt><trkpt lat="45.7104522083" lon="6.9316833001"><ele>1623.32</ele><time>2014-09-05T10:45:39Z</time></trkpt><trkpt lat="45.7104463410" lon="6.9317107089"><ele>1623.32</ele><time>2014-09-05T10:45:40Z</time></trkpt><trkpt lat="45.7104413118" lon="6.9317378663"><ele>1623.80</ele><time>2014-09-05T10:45:41Z</time></trkpt><trkpt lat="45.7104392163" lon="6.9317660294"><ele>1623.80</ele><time>2014-09-05T10:45:42Z</time></trkpt><trkpt lat="45.7104400545" lon="6.9317942765"><ele>1623.80</ele><time>2014-09-05T10:45:43Z</time></trkpt><trkpt lat="45.7103985641" lon="6.9321427122"><ele>1625.73</ele><time>2014-09-05T10:45:57Z</time></trkpt><trkpt lat="45.7102243043" lon="6.9324572850"><ele>1626.21</ele><time>2014-09-05T10:46:13Z</time></trkpt><trkpt lat="45.7101994101" lon="6.9324810896"><ele>1625.73</ele><time>2014-09-05T10:46:15Z</time></trkpt><trkpt lat="45.7101861667" lon="6.9324930757"><ele>1626.21</ele><time>2014-09-05T10:46:16Z</time></trkpt><trkpt lat="45.7100077160" lon="6.9327281881"><ele>1627.65</ele><time>2014-09-05T10:46:31Z</time></trkpt><trkpt lat="45.7099070493" lon="6.9331062958"><ele>1630.05</ele><time>2014-09-05T10:46:47Z</time></trkpt><trkpt lat="45.7098210510" lon="6.9334608503"><ele>1632.46</ele><time>2014-09-05T10:47:02Z</time></trkpt><trkpt lat="45.7098010182" lon="6.9335497823"><ele>1632.94</ele><time>2014-09-05T10:47:06Z</time></trkpt><trkpt lat="45.7096659858" lon="6.9338973798"><ele>1633.42</ele><time>2014-09-05T10:47:22Z</time></trkpt><trkpt lat="45.7095145248" lon="6.9341668580"><ele>1634.38</ele><time>2014-09-05T10:47:37Z</time></trkpt><trkpt lat="45.7095023710" lon="6.9341736473"><ele>1634.38</ele><time>2014-09-05T10:47:38Z</time></trkpt><trkpt lat="45.7094891276" lon="6.9341676962"><ele>1634.86</ele><time>2014-09-05T10:47:39Z</time></trkpt><trkpt lat="45.7094804943" lon="6.9341518544"><ele>1634.38</ele><time>2014-09-05T10:47:40Z</time></trkpt><trkpt lat="45.7094745431" lon="6.9341341686"><ele>1634.38</ele><time>2014-09-05T10:47:41Z</time></trkpt><trkpt lat="45.7094704360" lon="6.9341177400"><ele>1634.86</ele><time>2014-09-05T10:47:42Z</time></trkpt><trkpt lat="45.7094669156" lon="6.9340993837"><ele>1634.86</ele><time>2014-09-05T10:47:43Z</time></trkpt><trkpt lat="45.7094659097" lon="6.9340739027"><ele>1634.86</ele><time>2014-09-05T10:47:44Z</time></trkpt><trkpt lat="45.7094716933" lon="6.9340492599"><ele>1634.86</ele><time>2014-09-05T10:47:45Z</time></trkpt><trkpt lat="45.7094800752" lon="6.9340271316"><ele>1634.86</ele><time>2014-09-05T10:47:46Z</time></trkpt><trkpt lat="45.7094871998" lon="6.9340099487"><ele>1634.86</ele><time>2014-09-05T10:47:47Z</time></trkpt><trkpt lat="45.7094979286" lon="6.9339953642"><ele>1634.86</ele><time>2014-09-05T10:47:48Z</time></trkpt><trkpt lat="45.7095066458" lon="6.9339763373"><ele>1634.86</ele><time>2014-09-05T10:47:49Z</time></trkpt><trkpt lat="45.7095127646" lon="6.9339561369"><ele>1634.86</ele><time>2014-09-05T10:47:50Z</time></trkpt><trkpt lat="45.7095716894" lon="6.9337442424"><ele>1637.74</ele><time>2014-09-05T10:48:00Z</time></trkpt><trkpt lat="45.7095781434" lon="6.9337260537"><ele>1637.74</ele><time>2014-09-05T10:48:01Z</time></trkpt><trkpt lat="45.7095815800" lon="6.9337042607"><ele>1638.22</ele><time>2014-09-05T10:48:02Z</time></trkpt><trkpt lat="45.7095885370" lon="6.9336924423"><ele>1638.22</ele><time>2014-09-05T10:48:03Z</time></trkpt><trkpt lat="45.7095950749" lon="6.9336821325"><ele>1638.70</ele><time>2014-09-05T10:48:04Z</time></trkpt><trkpt lat="45.7095901296" lon="6.9336529635"><ele>1636.78</ele><time>2014-09-05T10:48:17Z</time></trkpt><trkpt lat="45.7095634751" lon="6.9336192682"><ele>1637.26</ele><time>2014-09-05T10:48:51Z</time></trkpt><trkpt lat="45.7095478009" lon="6.9335947093"><ele>1636.30</ele><time>2014-09-05T10:49:29Z</time></trkpt><trkpt lat="45.7095229067" lon="6.9336070307"><ele>1634.38</ele><time>2014-09-05T10:50:04Z</time></trkpt><trkpt lat="45.7095089089" lon="6.9336572383"><ele>1636.30</ele><time>2014-09-05T10:50:37Z</time></trkpt><trkpt lat="45.7095488068" lon="6.9335951284"><ele>1641.59</ele><time>2014-09-05T10:51:14Z</time></trkpt><trkpt lat="45.7095477171" lon="6.9336500298"><ele>1640.15</ele><time>2014-09-05T10:51:46Z</time></trkpt><trkpt lat="45.7095578592" lon="6.9335996546"><ele>1639.67</ele><time>2014-09-05T10:52:22Z</time></trkpt><trkpt lat="45.7095628884" lon="6.9335755985"><ele>1643.03</ele><time>2014-09-05T10:52:50Z</time></trkpt><trkpt lat="45.7095852681" lon="6.9335637800"><ele>1646.40</ele><time>2014-09-05T10:52:56Z</time></trkpt><trkpt lat="45.7095882855" lon="6.9335474353"><ele>1646.40</ele><time>2014-09-05T10:52:57Z</time></trkpt><trkpt lat="45.7096964959" lon="6.9332700782"><ele>1647.84</ele><time>2014-09-05T10:53:09Z</time></trkpt><trkpt lat="45.7097430155" lon="6.9328912999"><ele>1648.32</ele><time>2014-09-05T10:53:24Z</time></trkpt><trkpt lat="45.7097400818" lon="6.9328696746"><ele>1648.32</ele><time>2014-09-05T10:53:25Z</time></trkpt><trkpt lat="45.7097391598" lon="6.9328418467"><ele>1649.28</ele><time>2014-09-05T10:53:26Z</time></trkpt><trkpt lat="45.7097418420" lon="6.9328160305"><ele>1649.28</ele><time>2014-09-05T10:53:27Z</time></trkpt><trkpt lat="45.7097415905" lon="6.9327891245"><ele>1649.76</ele><time>2014-09-05T10:53:28Z</time></trkpt><trkpt lat="45.7097436860" lon="6.9327628892"><ele>1649.76</ele><time>2014-09-05T10:53:29Z</time></trkpt><trkpt lat="45.7097467035" lon="6.9327369891"><ele>1649.76</ele><time>2014-09-05T10:53:30Z</time></trkpt><trkpt lat="45.7097482961" lon="6.9327134360"><ele>1650.24</ele><time>2014-09-05T10:53:31Z</time></trkpt><trkpt lat="45.7097292691" lon="6.9323599711"><ele>1653.60</ele><time>2014-09-05T10:53:45Z</time></trkpt><trkpt lat="45.7096787263" lon="6.9320210069"><ele>1656.97</ele><time>2014-09-05T10:53:59Z</time></trkpt><trkpt lat="45.7096628007" lon="6.9319268782"><ele>1658.41</ele><time>2014-09-05T10:54:03Z</time></trkpt><trkpt lat="45.7096604537" lon="6.9319051690"><ele>1658.89</ele><time>2014-09-05T10:54:04Z</time></trkpt><trkpt lat="45.7096583582" lon="6.9318807777"><ele>1658.89</ele><time>2014-09-05T10:54:05Z</time></trkpt><trkpt lat="45.7096554246" lon="6.9318574760"><ele>1659.37</ele><time>2014-09-05T10:54:06Z</time></trkpt><trkpt lat="45.7096534967" lon="6.9318361022"><ele>1659.85</ele><time>2014-09-05T10:54:07Z</time></trkpt><trkpt lat="45.7096508145" lon="6.9318122137"><ele>1660.33</ele><time>2014-09-05T10:54:08Z</time></trkpt><trkpt lat="45.7096500602" lon="6.9317858946"><ele>1660.81</ele><time>2014-09-05T10:54:09Z</time></trkpt><trkpt lat="45.7096499763" lon="6.9317566417"><ele>1661.78</ele><time>2014-09-05T10:54:10Z</time></trkpt><trkpt lat="45.7096476294" lon="6.9317320827"><ele>1661.78</ele><time>2014-09-05T10:54:11Z</time></trkpt><trkpt lat="45.7096430194" lon="6.9317038357"><ele>1661.78</ele><time>2014-09-05T10:54:12Z</time></trkpt><trkpt lat="45.7096422650" lon="6.9316746667"><ele>1662.26</ele><time>2014-09-05T10:54:13Z</time></trkpt><trkpt lat="45.7096443605" lon="6.9316456653"><ele>1662.74</ele><time>2014-09-05T10:54:14Z</time></trkpt><trkpt lat="45.7096480485" lon="6.9316187594"><ele>1663.22</ele><time>2014-09-05T10:54:15Z</time></trkpt><trkpt lat="45.7096498925" lon="6.9315953739"><ele>1663.22</ele><time>2014-09-05T10:54:16Z</time></trkpt><trkpt lat="45.7097015250" lon="6.9312985707"><ele>1664.66</ele><time>2014-09-05T10:54:29Z</time></trkpt><trkpt lat="45.7097299397" lon="6.9312317669"><ele>1664.18</ele><time>2014-09-05T10:54:32Z</time></trkpt><trkpt lat="45.7097366452" lon="6.9312063698"><ele>1664.18</ele><time>2014-09-05T10:54:33Z</time></trkpt><trkpt lat="45.7098260801" lon="6.9307841733"><ele>1664.18</ele><time>2014-09-05T10:54:52Z</time></trkpt><trkpt lat="45.7098672353" lon="6.9304851908"><ele>1665.62</ele><time>2014-09-05T10:55:04Z</time></trkpt><trkpt lat="45.7097581867" lon="6.9303334784"><ele>1665.62</ele><time>2014-09-05T10:55:16Z</time></trkpt><trkpt lat="45.7097441051" lon="6.9303577021"><ele>1665.62</ele><time>2014-09-05T10:55:17Z</time></trkpt><trkpt lat="45.7097320352" lon="6.9303826801"><ele>1665.14</ele><time>2014-09-05T10:55:18Z</time></trkpt><trkpt lat="45.7096532453" lon="6.9307873584"><ele>1666.10</ele><time>2014-09-05T10:55:33Z</time></trkpt><trkpt lat="45.7095706835" lon="6.9310905319"><ele>1668.02</ele><time>2014-09-05T10:55:46Z</time></trkpt><trkpt lat="45.7094698492" lon="6.9313912746"><ele>1666.10</ele><time>2014-09-05T10:55:59Z</time></trkpt><trkpt lat="45.7094358187" lon="6.9317232817"><ele>1670.91</ele><time>2014-09-05T10:56:12Z</time></trkpt><trkpt lat="45.7093513291" lon="6.9320937619"><ele>1674.27</ele><time>2014-09-05T10:56:27Z</time></trkpt><trkpt lat="45.7091874629" lon="6.9324613921"><ele>1672.35</ele><time>2014-09-05T10:56:43Z</time></trkpt><trkpt lat="45.7090158015" lon="6.9327835925"><ele>1672.83</ele><time>2014-09-05T10:56:58Z</time></trkpt><trkpt lat="45.7088277116" lon="6.9330001809"><ele>1672.83</ele><time>2014-09-05T10:57:12Z</time></trkpt><trkpt lat="45.7086470816" lon="6.9332775380"><ele>1673.31</ele><time>2014-09-05T10:57:28Z</time></trkpt><trkpt lat="45.7086162362" lon="6.9333363790"><ele>1673.31</ele><time>2014-09-05T10:57:31Z</time></trkpt><trkpt lat="45.7086024061" lon="6.9333518017"><ele>1673.31</ele><time>2014-09-05T10:57:32Z</time></trkpt><trkpt lat="45.7085889950" lon="6.9333673082"><ele>1673.31</ele><time>2014-09-05T10:57:33Z</time></trkpt><trkpt lat="45.7085731532" lon="6.9333797134"><ele>1673.31</ele><time>2014-09-05T10:57:34Z</time></trkpt><trkpt lat="45.7085364405" lon="6.9332842436"><ele>1674.27</ele><time>2014-09-05T10:57:40Z</time></trkpt><trkpt lat="45.7086491771" lon="6.9329526555"><ele>1677.64</ele><time>2014-09-05T10:57:55Z</time></trkpt><trkpt lat="45.7087831199" lon="6.9326891284"><ele>1679.56</ele><time>2014-09-05T10:58:09Z</time></trkpt><trkpt lat="45.7088885643" lon="6.9322887249"><ele>1682.93</ele><time>2014-09-05T10:58:26Z</time></trkpt><trkpt lat="45.7089377660" lon="6.9319744036"><ele>1685.33</ele><time>2014-09-05T10:58:39Z</time></trkpt><trkpt lat="45.7089433819" lon="6.9316402171"><ele>1688.69</ele><time>2014-09-05T10:58:53Z</time></trkpt><trkpt lat="45.7089354191" lon="6.9312528893"><ele>1693.02</ele><time>2014-09-05T10:59:09Z</time></trkpt><trkpt lat="45.7089727186" lon="6.9309426751"><ele>1694.94</ele><time>2014-09-05T10:59:24Z</time></trkpt><trkpt lat="45.7089813519" lon="6.9309500512"><ele>1691.58</ele><time>2014-09-05T10:59:40Z</time></trkpt><trkpt lat="45.7089686114" lon="6.9309859257"><ele>1692.54</ele><time>2014-09-05T11:00:21Z</time></trkpt><trkpt lat="45.7089650910" lon="6.9309691619"><ele>1694.94</ele><time>2014-09-05T11:00:55Z</time></trkpt><trkpt lat="45.7089781668" lon="6.9309475366"><ele>1696.38</ele><time>2014-09-05T11:01:31Z</time></trkpt><trkpt lat="45.7089758199" lon="6.9309658930"><ele>1693.98</ele><time>2014-09-05T11:02:26Z</time></trkpt><trkpt lat="45.7089860458" lon="6.9309374783"><ele>1693.98</ele><time>2014-09-05T11:03:08Z</time></trkpt><trkpt lat="45.7090008818" lon="6.9309700001"><ele>1694.94</ele><time>2014-09-05T11:03:37Z</time></trkpt><trkpt lat="45.7089731377" lon="6.9309417531"><ele>1694.46</ele><time>2014-09-05T11:04:05Z</time></trkpt><trkpt lat="45.7089825254" lon="6.9310002588"><ele>1699.75</ele><time>2014-09-05T11:04:39Z</time></trkpt><trkpt lat="45.7089967746" lon="6.9309346285"><ele>1696.86</ele><time>2014-09-05T11:05:07Z</time></trkpt><trkpt lat="45.7089877222" lon="6.9308673218"><ele>1699.75</ele><time>2014-09-05T11:05:22Z</time></trkpt><trkpt lat="45.7090017200" lon="6.9304970931"><ele>1700.23</ele><time>2014-09-05T11:05:37Z</time></trkpt><trkpt lat="45.7089713775" lon="6.9301375933"><ele>1702.15</ele><time>2014-09-05T11:05:50Z</time></trkpt><trkpt lat="45.7089379337" lon="6.9297105353"><ele>1704.55</ele><time>2014-09-05T11:06:05Z</time></trkpt><trkpt lat="45.7089457288" lon="6.9296874013"><ele>1705.04</ele><time>2014-09-05T11:06:06Z</time></trkpt><trkpt lat="45.7089451421" lon="6.9296671171"><ele>1705.04</ele><time>2014-09-05T11:06:07Z</time></trkpt><trkpt lat="45.7089423761" lon="6.9296385348"><ele>1705.04</ele><time>2014-09-05T11:06:08Z</time></trkpt><trkpt lat="45.7089391071" lon="6.9296132214"><ele>1705.04</ele><time>2014-09-05T11:06:09Z</time></trkpt><trkpt lat="45.7089377660" lon="6.9295884110"><ele>1705.04</ele><time>2014-09-05T11:06:10Z</time></trkpt><trkpt lat="45.7089416217" lon="6.9295636844"><ele>1705.04</ele><time>2014-09-05T11:06:11Z</time></trkpt><trkpt lat="45.7089461479" lon="6.9295382034"><ele>1705.52</ele><time>2014-09-05T11:06:12Z</time></trkpt><trkpt lat="45.7089453936" lon="6.9292789511"><ele>1706.00</ele><time>2014-09-05T11:06:22Z</time></trkpt><trkpt lat="45.7089330722" lon="6.9292644504"><ele>1706.00</ele><time>2014-09-05T11:06:23Z</time></trkpt><trkpt lat="45.7089181524" lon="6.9292565715"><ele>1706.00</ele><time>2014-09-05T11:06:24Z</time></trkpt><trkpt lat="45.7088987902" lon="6.9292533863"><ele>1706.00</ele><time>2014-09-05T11:06:25Z</time></trkpt><trkpt lat="45.7088800985" lon="6.9292541407"><ele>1705.52</ele><time>2014-09-05T11:06:26Z</time></trkpt><trkpt lat="45.7088615745" lon="6.9292632770"><ele>1705.52</ele><time>2014-09-05T11:06:27Z</time></trkpt><trkpt lat="45.7088446431" lon="6.9292721618"><ele>1705.52</ele><time>2014-09-05T11:06:28Z</time></trkpt><trkpt lat="45.7088300586" lon="6.9292885903"><ele>1705.52</ele><time>2014-09-05T11:06:29Z</time></trkpt><trkpt lat="45.7088161446" lon="6.9293121435"><ele>1706.00</ele><time>2014-09-05T11:06:30Z</time></trkpt><trkpt lat="45.7088033203" lon="6.9293356966"><ele>1706.00</ele><time>2014-09-05T11:06:31Z</time></trkpt><trkpt lat="45.7087453175" lon="6.9297197554"><ele>1707.44</ele><time>2014-09-05T11:06:45Z</time></trkpt><trkpt lat="45.7087050844" lon="6.9301261939"><ele>1711.28</ele><time>2014-09-05T11:07:01Z</time></trkpt><trkpt lat="45.7085348479" lon="6.9304703549"><ele>1711.28</ele><time>2014-09-05T11:07:17Z</time></trkpt><trkpt lat="45.7083575707" lon="6.9307473768"><ele>1712.25</ele><time>2014-09-05T11:07:31Z</time></trkpt><trkpt lat="45.7081274036" lon="6.9311066251"><ele>1713.21</ele><time>2014-09-05T11:07:48Z</time></trkpt><trkpt lat="45.7079289202" lon="6.9314595871"><ele>1716.57</ele><time>2014-09-05T11:08:05Z</time></trkpt><trkpt lat="45.7078322768" lon="6.9317971263"><ele>1719.46</ele><time>2014-09-05T11:08:18Z</time></trkpt><trkpt lat="45.7078010961" lon="6.9319506828"><ele>1721.86</ele><time>2014-09-05T11:08:30Z</time></trkpt><trkpt lat="45.7078727614" lon="6.9320175704"><ele>1723.78</ele><time>2014-09-05T11:09:19Z</time></trkpt><trkpt lat="45.7078409940" lon="6.9319905806"><ele>1721.38</ele><time>2014-09-05T11:10:11Z</time></trkpt><trkpt lat="45.7078308519" lon="6.9320151396"><ele>1716.57</ele><time>2014-09-05T11:10:58Z</time></trkpt><trkpt lat="45.7078357972" lon="6.9319968671"><ele>1717.53</ele><time>2014-09-05T11:11:29Z</time></trkpt><trkpt lat="45.7078087237" lon="6.9320180733"><ele>1719.46</ele><time>2014-09-05T11:11:53Z</time></trkpt><trkpt lat="45.7078067958" lon="6.9320272934"><ele>1719.46</ele><time>2014-09-05T11:11:54Z</time></trkpt><trkpt lat="45.7078022696" lon="6.9320614077"><ele>1721.38</ele><time>2014-09-05T11:11:57Z</time></trkpt><trkpt lat="45.7078031078" lon="6.9320758246"><ele>1721.86</ele><time>2014-09-05T11:11:58Z</time></trkpt><trkpt lat="45.7077994198" lon="6.9320963603"><ele>1722.34</ele><time>2014-09-05T11:11:59Z</time></trkpt><trkpt lat="45.7077976596" lon="6.9321184047"><ele>1723.30</ele><time>2014-09-05T11:12:00Z</time></trkpt><trkpt lat="45.7077978272" lon="6.9321413711"><ele>1723.78</ele><time>2014-09-05T11:12:01Z</time></trkpt><trkpt lat="45.7077948935" lon="6.9321705401"><ele>1724.26</ele><time>2014-09-05T11:12:02Z</time></trkpt><trkpt lat="45.7077795547" lon="6.9326448720"><ele>1733.88</ele><time>2014-09-05T11:12:19Z</time></trkpt><trkpt lat="45.7077743579" lon="6.9330811501"><ele>1738.68</ele><time>2014-09-05T11:12:34Z</time></trkpt><trkpt lat="45.7077319454" lon="6.9334989041"><ele>1741.57</ele><time>2014-09-05T11:12:49Z</time></trkpt><trkpt lat="45.7076918799" lon="6.9338259660"><ele>1741.08</ele><time>2014-09-05T11:12:59Z</time></trkpt><trkpt lat="45.7076783013" lon="6.9338484295"><ele>1740.60</ele><time>2014-09-05T11:13:00Z</time></trkpt><trkpt lat="45.7076609507" lon="6.9338564761"><ele>1740.12</ele><time>2014-09-05T11:13:01Z</time></trkpt><trkpt lat="45.7076456957" lon="6.9338541292"><ele>1740.12</ele><time>2014-09-05T11:13:02Z</time></trkpt><trkpt lat="45.7076354697" lon="6.9338351022"><ele>1739.64</ele><time>2014-09-05T11:13:03Z</time></trkpt><trkpt lat="45.7076301891" lon="6.9338026643"><ele>1739.64</ele><time>2014-09-05T11:13:04Z</time></trkpt><trkpt lat="45.7076280098" lon="6.9334350340"><ele>1739.64</ele><time>2014-09-05T11:13:19Z</time></trkpt><trkpt lat="45.7076208014" lon="6.9332669768"><ele>1741.08</ele><time>2014-09-05T11:13:34Z</time></trkpt><trkpt lat="45.7075970806" lon="6.9332044479"><ele>1740.60</ele><time>2014-09-05T11:14:02Z</time></trkpt><trkpt lat="45.7076246571" lon="6.9332347065"><ele>1743.97</ele><time>2014-09-05T11:14:29Z</time></trkpt><trkpt lat="45.7076430973" lon="6.9331932999"><ele>1738.68</ele><time>2014-09-05T11:15:03Z</time></trkpt><trkpt lat="45.7076314464" lon="6.9331923779"><ele>1739.64</ele><time>2014-09-05T11:15:48Z</time></trkpt><trkpt lat="45.7076291833" lon="6.9331606943"><ele>1737.72</ele><time>2014-09-05T11:16:15Z</time></trkpt><trkpt lat="45.7076821569" lon="6.9332476985"><ele>1739.64</ele><time>2014-09-05T11:16:58Z</time></trkpt><trkpt lat="45.7077066321" lon="6.9331363868"><ele>1741.08</ele><time>2014-09-05T11:17:35Z</time></trkpt><trkpt lat="45.7076275069" lon="6.9330145139"><ele>1741.08</ele><time>2014-09-05T11:17:49Z</time></trkpt><trkpt lat="45.7076037861" lon="6.9327252544"><ele>1742.53</ele><time>2014-09-05T11:18:02Z</time></trkpt><trkpt lat="45.7075975835" lon="6.9326986000"><ele>1742.53</ele><time>2014-09-05T11:18:03Z</time></trkpt><trkpt lat="45.7075643912" lon="6.9323501643"><ele>1745.41</ele><time>2014-09-05T11:18:17Z</time></trkpt><trkpt lat="45.7075297739" lon="6.9319721404"><ele>1746.85</ele><time>2014-09-05T11:18:32Z</time></trkpt><trkpt lat="45.7074948214" lon="6.9315378740"><ele>1747.33</ele><time>2014-09-05T11:18:48Z</time></trkpt><trkpt lat="45.7074913010" lon="6.9313502871"><ele>1747.33</ele><time>2014-09-05T11:18:56Z</time></trkpt><trkpt lat="45.7074931450" lon="6.9313269015"><ele>1747.33</ele><time>2014-09-05T11:18:57Z</time></trkpt><trkpt lat="45.7075167820" lon="6.9309280906"><ele>1748.29</ele><time>2014-09-05T11:19:13Z</time></trkpt><trkpt lat="45.7075190451" lon="6.9307317026"><ele>1746.85</ele><time>2014-09-05T11:19:21Z</time></trkpt><trkpt lat="45.7075174525" lon="6.9307072274"><ele>1746.37</ele><time>2014-09-05T11:19:22Z</time></trkpt><trkpt lat="45.7075203024" lon="6.9306830037"><ele>1746.37</ele><time>2014-09-05T11:19:23Z</time></trkpt><trkpt lat="45.7075699233" lon="6.9303551037"><ele>1746.37</ele><time>2014-09-05T11:19:37Z</time></trkpt><trkpt lat="45.7076174486" lon="6.9300208334"><ele>1745.89</ele><time>2014-09-05T11:19:52Z</time></trkpt><trkpt lat="45.7076459471" lon="6.9297118764"><ele>1745.89</ele><time>2014-09-05T11:20:06Z</time></trkpt><trkpt lat="45.7076685783" lon="6.9293453358"><ele>1747.33</ele><time>2014-09-05T11:20:22Z</time></trkpt><trkpt lat="45.7076654769" lon="6.9289761968"><ele>1747.81</ele><time>2014-09-05T11:20:38Z</time></trkpt><trkpt lat="45.7076601963" lon="6.9288271666"><ele>1748.78</ele><time>2014-09-05T11:20:44Z</time></trkpt><trkpt lat="45.7076581009" lon="6.9288040325"><ele>1748.78</ele><time>2014-09-05T11:20:45Z</time></trkpt><trkpt lat="45.7076572627" lon="6.9287788030"><ele>1749.26</ele><time>2014-09-05T11:20:46Z</time></trkpt><trkpt lat="45.7076567598" lon="6.9287535734"><ele>1749.26</ele><time>2014-09-05T11:20:47Z</time></trkpt><trkpt lat="45.7076563407" lon="6.9287258293"><ele>1749.74</ele><time>2014-09-05T11:20:48Z</time></trkpt><trkpt lat="45.7076398283" lon="6.9283480570"><ele>1751.18</ele><time>2014-09-05T11:21:03Z</time></trkpt><trkpt lat="45.7076369785" lon="6.9279401936"><ele>1755.50</ele><time>2014-09-05T11:21:19Z</time></trkpt><trkpt lat="45.7076371461" lon="6.9277464040"><ele>1756.47</ele><time>2014-09-05T11:21:27Z</time></trkpt><trkpt lat="45.7076374814" lon="6.9277276285"><ele>1756.95</ele><time>2014-09-05T11:21:28Z</time></trkpt><trkpt lat="45.7076251600" lon="6.9274267182"><ele>1757.43</ele><time>2014-09-05T11:21:43Z</time></trkpt><trkpt lat="45.7076345477" lon="6.9271026738"><ele>1760.79</ele><time>2014-09-05T11:21:58Z</time></trkpt><trkpt lat="45.7076249924" lon="6.9268334471"><ele>1765.12</ele><time>2014-09-05T11:22:12Z</time></trkpt><trkpt lat="45.7075943984" lon="6.9266147632"><ele>1769.92</ele><time>2014-09-05T11:22:26Z</time></trkpt><trkpt lat="45.7075413410" lon="6.9263169542"><ele>1776.65</ele><time>2014-09-05T11:22:40Z</time></trkpt><trkpt lat="45.7074467093" lon="6.9261088315"><ele>1784.34</ele><time>2014-09-05T11:22:51Z</time></trkpt><trkpt lat="45.7074458711" lon="6.9260832667"><ele>1784.82</ele><time>2014-09-05T11:22:52Z</time></trkpt><trkpt lat="45.7074465416" lon="6.9260587916"><ele>1785.31</ele><time>2014-09-05T11:22:53Z</time></trkpt><trkpt lat="45.7074499782" lon="6.9260341488"><ele>1786.27</ele><time>2014-09-05T11:22:54Z</time></trkpt><trkpt lat="45.7074521575" lon="6.9260076620"><ele>1786.75</ele><time>2014-09-05T11:22:55Z</time></trkpt><trkpt lat="45.7074755430" lon="6.9258828554"><ele>1788.19</ele><time>2014-09-05T11:23:00Z</time></trkpt><trkpt lat="45.7074918877" lon="6.9258670975"><ele>1788.19</ele><time>2014-09-05T11:23:01Z</time></trkpt><trkpt lat="45.7075043768" lon="6.9258525968"><ele>1787.71</ele><time>2014-09-05T11:23:02Z</time></trkpt><trkpt lat="45.7075161114" lon="6.9258384313"><ele>1787.71</ele><time>2014-09-05T11:23:03Z</time></trkpt><trkpt lat="45.7075291034" lon="6.9258260261"><ele>1787.71</ele><time>2014-09-05T11:23:04Z</time></trkpt><trkpt lat="45.7075437717" lon="6.9258185662"><ele>1788.19</ele><time>2014-09-05T11:23:05Z</time></trkpt><trkpt lat="45.7075590268" lon="6.9258105196"><ele>1788.19</ele><time>2014-09-05T11:23:06Z</time></trkpt><trkpt lat="45.7075717673" lon="6.9257994555"><ele>1788.19</ele><time>2014-09-05T11:23:07Z</time></trkpt><trkpt lat="45.7076548319" lon="6.9256121200"><ele>1783.38</ele><time>2014-09-05T11:23:19Z</time></trkpt><trkpt lat="45.7076276746" lon="6.9252637681"><ele>1780.98</ele><time>2014-09-05T11:23:36Z</time></trkpt><trkpt lat="45.7076225616" lon="6.9252185058"><ele>1780.98</ele><time>2014-09-05T11:23:38Z</time></trkpt><trkpt lat="45.7076165266" lon="6.9251993112"><ele>1780.98</ele><time>2014-09-05T11:23:39Z</time></trkpt><trkpt lat="45.7076099887" lon="6.9251828827"><ele>1780.98</ele><time>2014-09-05T11:23:40Z</time></trkpt><trkpt lat="45.7076041214" lon="6.9251661189"><ele>1780.98</ele><time>2014-09-05T11:23:41Z</time></trkpt><trkpt lat="45.7076006848" lon="6.9251450803"><ele>1780.98</ele><time>2014-09-05T11:23:42Z</time></trkpt><trkpt lat="45.7075969130" lon="6.9251252152"><ele>1780.98</ele><time>2014-09-05T11:23:43Z</time></trkpt><trkpt lat="45.7075913809" lon="6.9251070265"><ele>1780.98</ele><time>2014-09-05T11:23:44Z</time></trkpt><trkpt lat="45.7075850107" lon="6.9250858203"><ele>1780.98</ele><time>2014-09-05T11:23:45Z</time></trkpt><trkpt lat="45.7075792272" lon="6.9250654522"><ele>1780.98</ele><time>2014-09-05T11:23:46Z</time></trkpt><trkpt lat="45.7075761259" lon="6.9250418153"><ele>1780.98</ele><time>2014-09-05T11:23:47Z</time></trkpt><trkpt lat="45.7075719349" lon="6.9250154123"><ele>1780.98</ele><time>2014-09-05T11:23:48Z</time></trkpt><trkpt lat="45.7074863557" lon="6.9245964848"><ele>1780.98</ele><time>2014-09-05T11:24:06Z</time></trkpt><trkpt lat="45.7074580248" lon="6.9245010987"><ele>1780.50</ele><time>2014-09-05T11:24:11Z</time></trkpt><trkpt lat="45.7074505650" lon="6.9244863465"><ele>1780.50</ele><time>2014-09-05T11:24:12Z</time></trkpt><trkpt lat="45.7074439432" lon="6.9244674873"><ele>1780.50</ele><time>2014-09-05T11:24:13Z</time></trkpt><trkpt lat="45.7074381597" lon="6.9244518969"><ele>1780.02</ele><time>2014-09-05T11:24:14Z</time></trkpt><trkpt lat="45.7074311189" lon="6.9244359713"><ele>1780.02</ele><time>2014-09-05T11:24:15Z</time></trkpt><trkpt lat="45.7074263413" lon="6.9244204648"><ele>1780.02</ele><time>2014-09-05T11:24:16Z</time></trkpt><trkpt lat="45.7074201386" lon="6.9244031142"><ele>1779.54</ele><time>2014-09-05T11:24:17Z</time></trkpt><trkpt lat="45.7074144389" lon="6.9243855961"><ele>1779.54</ele><time>2014-09-05T11:24:18Z</time></trkpt><trkpt lat="45.7074084878" lon="6.9243703410"><ele>1779.54</ele><time>2014-09-05T11:24:19Z</time></trkpt><trkpt lat="45.7074011117" lon="6.9243570138"><ele>1779.54</ele><time>2014-09-05T11:24:20Z</time></trkpt><trkpt lat="45.7073964179" lon="6.9243393280"><ele>1779.06</ele><time>2014-09-05T11:24:21Z</time></trkpt><trkpt lat="45.7073926460" lon="6.9243215583"><ele>1779.06</ele><time>2014-09-05T11:24:22Z</time></trkpt><trkpt lat="45.7073562685" lon="6.9241493102"><ele>1780.02</ele><time>2014-09-05T11:24:33Z</time></trkpt><trkpt lat="45.7073701825" lon="6.9241021201"><ele>1781.94</ele><time>2014-09-05T11:24:53Z</time></trkpt><trkpt lat="45.7073856052" lon="6.9240975101"><ele>1787.71</ele><time>2014-09-05T11:25:23Z</time></trkpt><trkpt lat="45.7073761337" lon="6.9241264276"><ele>1786.75</ele><time>2014-09-05T11:25:54Z</time></trkpt><trkpt lat="45.7073508203" lon="6.9241008628"><ele>1786.75</ele><time>2014-09-05T11:26:30Z</time></trkpt><trkpt lat="45.7073933166" lon="6.9240996055"><ele>1790.59</ele><time>2014-09-05T11:27:03Z</time></trkpt><trkpt lat="45.7073736191" lon="6.9241095800"><ele>1794.92</ele><time>2014-09-05T11:27:30Z</time></trkpt><trkpt lat="45.7073516585" lon="6.9240612164"><ele>1793.96</ele><time>2014-09-05T11:27:58Z</time></trkpt><trkpt lat="45.7073038816" lon="6.9238605537"><ele>1794.44</ele><time>2014-09-05T11:28:07Z</time></trkpt><trkpt lat="45.7072989363" lon="6.9238362461"><ele>1794.44</ele><time>2014-09-05T11:28:08Z</time></trkpt><trkpt lat="45.7072730362" lon="6.9235035684"><ele>1793.00</ele><time>2014-09-05T11:28:22Z</time></trkpt><trkpt lat="45.7074013632" lon="6.9231314957"><ele>1793.48</ele><time>2014-09-05T11:28:39Z</time></trkpt><trkpt lat="45.7074908819" lon="6.9230730738"><ele>1793.96</ele><time>2014-09-05T11:28:46Z</time></trkpt><trkpt lat="45.7075049635" lon="6.9230819587"><ele>1794.44</ele><time>2014-09-05T11:28:47Z</time></trkpt><trkpt lat="45.7075206377" lon="6.9230922684"><ele>1794.92</ele><time>2014-09-05T11:28:48Z</time></trkpt><trkpt lat="45.7075355574" lon="6.9231000636"><ele>1794.92</ele><time>2014-09-05T11:28:49Z</time></trkpt><trkpt lat="45.7075500581" lon="6.9231075235"><ele>1795.40</ele><time>2014-09-05T11:28:50Z</time></trkpt><trkpt lat="45.7077201270" lon="6.9231449068"><ele>1801.17</ele><time>2014-09-05T11:29:01Z</time></trkpt><trkpt lat="45.7077354658" lon="6.9231374469"><ele>1801.17</ele><time>2014-09-05T11:29:02Z</time></trkpt><trkpt lat="45.7077799737" lon="6.9230999798"><ele>1802.13</ele><time>2014-09-05T11:29:05Z</time></trkpt><trkpt lat="45.7077894453" lon="6.9230822939"><ele>1802.13</ele><time>2014-09-05T11:29:06Z</time></trkpt><trkpt lat="45.7077968214" lon="6.9230598304"><ele>1802.13</ele><time>2014-09-05T11:29:07Z</time></trkpt><trkpt lat="45.7077835780" lon="6.9227617700"><ele>1801.65</ele><time>2014-09-05T11:29:21Z</time></trkpt><trkpt lat="45.7077674847" lon="6.9226950500"><ele>1800.21</ele><time>2014-09-05T11:29:25Z</time></trkpt><trkpt lat="45.7077674847" lon="6.9226768613"><ele>1799.73</ele><time>2014-09-05T11:29:26Z</time></trkpt><trkpt lat="45.7077583484" lon="6.9226152543"><ele>1799.73</ele><time>2014-09-05T11:29:30Z</time></trkpt><trkpt lat="45.7076860126" lon="6.9223694131"><ele>1801.17</ele><time>2014-09-05T11:29:44Z</time></trkpt><trkpt lat="45.7076789718" lon="6.9223488774"><ele>1801.17</ele><time>2014-09-05T11:29:45Z</time></trkpt><trkpt lat="45.7076693326" lon="6.9223068841"><ele>1801.17</ele><time>2014-09-05T11:29:47Z</time></trkpt><trkpt lat="45.7076632138" lon="6.9222873542"><ele>1801.17</ele><time>2014-09-05T11:29:48Z</time></trkpt><trkpt lat="45.7075871900" lon="6.9219928142"><ele>1802.61</ele><time>2014-09-05T11:30:02Z</time></trkpt><trkpt lat="45.7075859327" lon="6.9219715241"><ele>1802.61</ele><time>2014-09-05T11:30:03Z</time></trkpt><trkpt lat="45.7075839210" lon="6.9218468014"><ele>1805.97</ele><time>2014-09-05T11:30:09Z</time></trkpt><trkpt lat="45.7075817417" lon="6.9218172971"><ele>1806.94</ele><time>2014-09-05T11:30:10Z</time></trkpt><trkpt lat="45.7075809874" lon="6.9217893016"><ele>1807.90</ele><time>2014-09-05T11:30:11Z</time></trkpt><trkpt lat="45.7075813226" lon="6.9217615575"><ele>1808.38</ele><time>2014-09-05T11:30:12Z</time></trkpt><trkpt lat="45.7075685821" lon="6.9216828514"><ele>1809.34</ele><time>2014-09-05T11:30:16Z</time></trkpt><trkpt lat="45.7075622119" lon="6.9216638245"><ele>1809.34</ele><time>2014-09-05T11:30:17Z</time></trkpt><trkpt lat="45.7075566798" lon="6.9216461387"><ele>1809.34</ele><time>2014-09-05T11:30:18Z</time></trkpt><trkpt lat="45.7075548358" lon="6.9216294587"><ele>1809.34</ele><time>2014-09-05T11:30:19Z</time></trkpt><trkpt lat="45.7075301092" lon="6.9213744812"><ele>1812.22</ele><time>2014-09-05T11:30:32Z</time></trkpt><trkpt lat="45.7074755430" lon="6.9211245328"><ele>1813.18</ele><time>2014-09-05T11:30:44Z</time></trkpt><trkpt lat="45.7074628863" lon="6.9211059250"><ele>1812.70</ele><time>2014-09-05T11:30:45Z</time></trkpt><trkpt lat="45.7074562646" lon="6.9210877363"><ele>1812.70</ele><time>2014-09-05T11:30:46Z</time></trkpt><trkpt lat="45.7074415125" lon="6.9210624229"><ele>1812.70</ele><time>2014-09-05T11:30:48Z</time></trkpt><trkpt lat="45.7074305322" lon="6.9210511912"><ele>1812.70</ele><time>2014-09-05T11:30:49Z</time></trkpt><trkpt lat="45.7074196357" lon="6.9210400432"><ele>1812.70</ele><time>2014-09-05T11:30:50Z</time></trkpt><trkpt lat="45.7074012794" lon="6.9210178312"><ele>1813.18</ele><time>2014-09-05T11:30:52Z</time></trkpt><trkpt lat="45.7073908858" lon="6.9210102875"><ele>1813.18</ele><time>2014-09-05T11:30:53Z</time></trkpt><trkpt lat="45.7073813304" lon="6.9210033305"><ele>1813.66</ele><time>2014-09-05T11:30:54Z</time></trkpt><trkpt lat="45.7073711045" lon="6.9209994748"><ele>1814.15</ele><time>2014-09-05T11:30:55Z</time></trkpt><trkpt lat="45.7072385028" lon="6.9209864829"><ele>1817.99</ele><time>2014-09-05T11:31:06Z</time></trkpt><trkpt lat="45.7070655841" lon="6.9209937751"><ele>1821.84</ele><time>2014-09-05T11:31:18Z</time></trkpt><trkpt lat="45.7069452200" lon="6.9209678750"><ele>1823.28</ele><time>2014-09-05T11:31:29Z</time></trkpt><trkpt lat="45.7069414482" lon="6.9209518656"><ele>1823.28</ele><time>2014-09-05T11:31:30Z</time></trkpt><trkpt lat="45.7069291268" lon="6.9209174998"><ele>1822.32</ele><time>2014-09-05T11:31:40Z</time></trkpt><trkpt lat="45.7069267798" lon="6.9209204335"><ele>1821.35</ele><time>2014-09-05T11:32:02Z</time></trkpt><trkpt lat="45.7069328148" lon="6.9208648615"><ele>1819.91</ele><time>2014-09-05T11:32:33Z</time></trkpt><trkpt lat="45.7069466449" lon="6.9208264723"><ele>1819.91</ele><time>2014-09-05T11:32:58Z</time></trkpt><trkpt lat="45.7069147099" lon="6.9209176674"><ele>1819.43</ele><time>2014-09-05T11:33:15Z</time></trkpt><trkpt lat="45.7069057412" lon="6.9209097046"><ele>1819.91</ele><time>2014-09-05T11:33:32Z</time></trkpt><trkpt lat="45.7068727165" lon="6.9209000655"><ele>1821.35</ele><time>2014-09-05T11:33:44Z</time></trkpt><trkpt lat="45.7068562042" lon="6.9208945334"><ele>1821.35</ele><time>2014-09-05T11:33:47Z</time></trkpt><trkpt lat="45.7068463136" lon="6.9208872411"><ele>1821.84</ele><time>2014-09-05T11:33:48Z</time></trkpt><trkpt lat="45.7068365067" lon="6.9208784401"><ele>1822.32</ele><time>2014-09-05T11:33:49Z</time></trkpt><trkpt lat="45.7068280410" lon="6.9208674598"><ele>1822.80</ele><time>2014-09-05T11:33:50Z</time></trkpt><trkpt lat="45.7068215869" lon="6.9208537973"><ele>1823.28</ele><time>2014-09-05T11:33:51Z</time></trkpt><trkpt lat="45.7068184018" lon="6.9208352733"><ele>1823.76</ele><time>2014-09-05T11:33:52Z</time></trkpt><trkpt lat="45.7069045678" lon="6.9206054416"><ele>1825.68</ele><time>2014-09-05T11:34:06Z</time></trkpt><trkpt lat="45.7069165539" lon="6.9205937069"><ele>1825.68</ele><time>2014-09-05T11:34:07Z</time></trkpt><trkpt lat="45.7070895564" lon="6.9205187727"><ele>1826.64</ele><time>2014-09-05T11:34:19Z</time></trkpt><trkpt lat="45.7072892133" lon="6.9203866739"><ele>1826.16</ele><time>2014-09-05T11:34:33Z</time></trkpt><trkpt lat="45.7073658239" lon="6.9200592767"><ele>1821.35</ele><time>2014-09-05T11:34:49Z</time></trkpt><trkpt lat="45.7073522452" lon="6.9197967555"><ele>1817.51</ele><time>2014-09-05T11:35:02Z</time></trkpt><trkpt lat="45.7073415164" lon="6.9195043109"><ele>1815.59</ele><time>2014-09-05T11:35:16Z</time></trkpt><trkpt lat="45.7073359005" lon="6.9194861222"><ele>1815.59</ele><time>2014-09-05T11:35:17Z</time></trkpt><trkpt lat="45.7073342241" lon="6.9194651674"><ele>1815.11</ele><time>2014-09-05T11:35:18Z</time></trkpt><trkpt lat="45.7073362358" lon="6.9194445480"><ele>1815.11</ele><time>2014-09-05T11:35:19Z</time></trkpt><trkpt lat="45.7073385827" lon="6.9194238447"><ele>1815.11</ele><time>2014-09-05T11:35:20Z</time></trkpt><trkpt lat="45.7073395886" lon="6.9194044825"><ele>1814.63</ele><time>2014-09-05T11:35:21Z</time></trkpt><trkpt lat="45.7073412649" lon="6.9193848688"><ele>1814.63</ele><time>2014-09-05T11:35:22Z</time></trkpt><trkpt lat="45.7073425222" lon="6.9193644170"><ele>1814.63</ele><time>2014-09-05T11:35:23Z</time></trkpt><trkpt lat="45.7073425222" lon="6.9193446357"><ele>1814.63</ele><time>2014-09-05T11:35:24Z</time></trkpt><trkpt lat="45.7073416002" lon="6.9193277042"><ele>1814.15</ele><time>2014-09-05T11:35:25Z</time></trkpt><trkpt lat="45.7073415164" lon="6.9193105213"><ele>1814.15</ele><time>2014-09-05T11:35:26Z</time></trkpt><trkpt lat="45.7073421031" lon="6.9192916621"><ele>1813.66</ele><time>2014-09-05T11:35:27Z</time></trkpt><trkpt lat="45.7073338050" lon="6.9189059269"><ele>1811.74</ele><time>2014-09-05T11:35:46Z</time></trkpt><trkpt lat="45.7073405106" lon="6.9187754206"><ele>1813.18</ele><time>2014-09-05T11:35:52Z</time></trkpt><trkpt lat="45.7073421869" lon="6.9187499397"><ele>1813.18</ele><time>2014-09-05T11:35:53Z</time></trkpt><trkpt lat="45.7074516546" lon="6.9183647912"><ele>1819.43</ele><time>2014-09-05T11:36:09Z</time></trkpt><trkpt lat="45.7076550834" lon="6.9183315989"><ele>1822.80</ele><time>2014-09-05T11:36:21Z</time></trkpt><trkpt lat="45.7076719310" lon="6.9183290843"><ele>1823.28</ele><time>2014-09-05T11:36:22Z</time></trkpt><trkpt lat="45.7076875214" lon="6.9183313474"><ele>1823.28</ele><time>2014-09-05T11:36:23Z</time></trkpt><trkpt lat="45.7077019382" lon="6.9183335267"><ele>1823.28</ele><time>2014-09-05T11:36:24Z</time></trkpt><trkpt lat="45.7077158522" lon="6.9183382206"><ele>1823.76</ele><time>2014-09-05T11:36:25Z</time></trkpt><trkpt lat="45.7078551594" lon="6.9183215406"><ele>1826.64</ele><time>2014-09-05T11:36:36Z</time></trkpt><trkpt lat="45.7080553193" lon="6.9181440957"><ele>1828.56</ele><time>2014-09-05T11:36:52Z</time></trkpt><trkpt lat="45.7083035074" lon="6.9180017710"><ele>1830.97</ele><time>2014-09-05T11:37:08Z</time></trkpt><trkpt lat="45.7085529529" lon="6.9180230610"><ele>1832.89</ele><time>2014-09-05T11:37:24Z</time></trkpt><trkpt lat="45.7086764183" lon="6.9179800618"><ele>1833.37</ele><time>2014-09-05T11:37:32Z</time></trkpt><trkpt lat="45.7086918410" lon="6.9179699197"><ele>1833.37</ele><time>2014-09-05T11:37:33Z</time></trkpt><trkpt lat="45.7087074313" lon="6.9179623760"><ele>1833.85</ele><time>2014-09-05T11:37:34Z</time></trkpt><trkpt lat="45.7087213453" lon="6.9179520663"><ele>1833.85</ele><time>2014-09-05T11:37:35Z</time></trkpt><trkpt lat="45.7087339181" lon="6.9179374818"><ele>1833.85</ele><time>2014-09-05T11:37:36Z</time></trkpt><trkpt lat="45.7087459881" lon="6.9179234840"><ele>1833.85</ele><time>2014-09-05T11:37:37Z</time></trkpt><trkpt lat="45.7089769095" lon="6.9176842645"><ele>1836.74</ele><time>2014-09-05T11:37:55Z</time></trkpt><trkpt lat="45.7091489062" lon="6.9174305443"><ele>1836.74</ele><time>2014-09-05T11:38:11Z</time></trkpt><trkpt lat="45.7092281990" lon="6.9171441346"><ele>1839.14</ele><time>2014-09-05T11:38:24Z</time></trkpt><trkpt lat="45.7092429511" lon="6.9168113731"><ele>1840.58</ele><time>2014-09-05T11:38:39Z</time></trkpt><trkpt lat="45.7092385925" lon="6.9166400470"><ele>1840.58</ele><time>2014-09-05T11:38:52Z</time></trkpt><trkpt lat="45.7092748024" lon="6.9166375324"><ele>1844.43</ele><time>2014-09-05T11:39:31Z</time></trkpt><trkpt lat="45.7092416938" lon="6.9166465010"><ele>1845.39</ele><time>2014-09-05T11:40:19Z</time></trkpt><trkpt lat="45.7092375029" lon="6.9165100437"><ele>1843.95</ele><time>2014-09-05T11:40:31Z</time></trkpt><trkpt lat="45.7092340663" lon="6.9164667930"><ele>1844.43</ele><time>2014-09-05T11:40:33Z</time></trkpt><trkpt lat="45.7092295401" lon="6.9164461736"><ele>1844.43</ele><time>2014-09-05T11:40:34Z</time></trkpt><trkpt lat="45.7092255168" lon="6.9164203573"><ele>1844.43</ele><time>2014-09-05T11:40:35Z</time></trkpt><trkpt lat="45.7092219964" lon="6.9163961336"><ele>1844.43</ele><time>2014-09-05T11:40:36Z</time></trkpt><trkpt lat="45.7092193980" lon="6.9163738377"><ele>1844.91</ele><time>2014-09-05T11:40:37Z</time></trkpt><trkpt lat="45.7092148717" lon="6.9163510390"><ele>1844.91</ele><time>2014-09-05T11:40:38Z</time></trkpt><trkpt lat="45.7091938332" lon="6.9161139149"><ele>1845.87</ele><time>2014-09-05T11:40:48Z</time></trkpt><trkpt lat="45.7091924921" lon="6.9160889369"><ele>1845.87</ele><time>2014-09-05T11:40:49Z</time></trkpt><trkpt lat="45.7091880497" lon="6.9160630368"><ele>1845.87</ele><time>2014-09-05T11:40:50Z</time></trkpt><trkpt lat="45.7091839425" lon="6.9160381425"><ele>1845.87</ele><time>2014-09-05T11:40:51Z</time></trkpt><trkpt lat="45.7091774046" lon="6.9160161819"><ele>1845.87</ele><time>2014-09-05T11:40:52Z</time></trkpt><trkpt lat="45.7091720402" lon="6.9157553371"><ele>1848.27</ele><time>2014-09-05T11:41:04Z</time></trkpt><trkpt lat="45.7091653347" lon="6.9155503158"><ele>1849.71</ele><time>2014-09-05T11:41:13Z</time></trkpt><trkpt lat="45.7091675978" lon="6.9155258406"><ele>1849.71</ele><time>2014-09-05T11:41:14Z</time></trkpt><trkpt lat="45.7091696933" lon="6.9155021198"><ele>1849.71</ele><time>2014-09-05T11:41:15Z</time></trkpt><trkpt lat="45.7092242595" lon="6.9149816874"><ele>1851.64</ele><time>2014-09-05T11:41:34Z</time></trkpt><trkpt lat="45.7092693541" lon="6.9145091996"><ele>1852.12</ele><time>2014-09-05T11:41:51Z</time></trkpt><trkpt lat="45.7093463000" lon="6.9140990730"><ele>1853.08</ele><time>2014-09-05T11:42:07Z</time></trkpt><trkpt lat="45.7093970105" lon="6.9140558224"><ele>1853.08</ele><time>2014-09-05T11:42:10Z</time></trkpt><trkpt lat="45.7094164565" lon="6.9140503742"><ele>1853.08</ele><time>2014-09-05T11:42:11Z</time></trkpt><trkpt lat="45.7094348129" lon="6.9140400644"><ele>1853.08</ele><time>2014-09-05T11:42:12Z</time></trkpt><trkpt lat="45.7094524987" lon="6.9140299223"><ele>1853.08</ele><time>2014-09-05T11:42:13Z</time></trkpt><trkpt lat="45.7094692625" lon="6.9140249770"><ele>1853.08</ele><time>2014-09-05T11:42:14Z</time></trkpt><trkpt lat="45.7094874512" lon="6.9140241388"><ele>1853.56</ele><time>2014-09-05T11:42:15Z</time></trkpt><trkpt lat="45.7096029539" lon="6.9139626157"><ele>1855.48</ele><time>2014-09-05T11:42:22Z</time></trkpt><trkpt lat="45.7096280996" lon="6.9139502104"><ele>1855.48</ele><time>2014-09-05T11:42:23Z</time></trkpt><trkpt lat="45.7097343821" lon="6.9138492085"><ele>1855.00</ele><time>2014-09-05T11:42:30Z</time></trkpt><trkpt lat="45.7097447757" lon="6.9138250686"><ele>1855.00</ele><time>2014-09-05T11:42:31Z</time></trkpt><trkpt lat="45.7097570132" lon="6.9138013478"><ele>1855.00</ele><time>2014-09-05T11:42:32Z</time></trkpt><trkpt lat="45.7097720169" lon="6.9137771241"><ele>1855.00</ele><time>2014-09-05T11:42:33Z</time></trkpt><trkpt lat="45.7097849250" lon="6.9137489609"><ele>1855.00</ele><time>2014-09-05T11:42:34Z</time></trkpt><trkpt lat="45.7097960729" lon="6.9137202110"><ele>1855.00</ele><time>2014-09-05T11:42:35Z</time></trkpt><trkpt lat="45.7098050416" lon="6.9136893656"><ele>1855.00</ele><time>2014-09-05T11:42:36Z</time></trkpt><trkpt lat="45.7098924648" lon="6.9133047201"><ele>1855.48</ele><time>2014-09-05T11:42:50Z</time></trkpt><trkpt lat="45.7100635394" lon="6.9128673524"><ele>1857.40</ele><time>2014-09-05T11:43:05Z</time></trkpt><trkpt lat="45.7100878470" lon="6.9124552142"><ele>1859.81</ele><time>2014-09-05T11:43:19Z</time></trkpt><trkpt lat="45.7099513058" lon="6.9121657871"><ele>1861.25</ele><time>2014-09-05T11:43:31Z</time></trkpt><trkpt lat="45.7099275012" lon="6.9120913558"><ele>1862.21</ele><time>2014-09-05T11:43:34Z</time></trkpt><trkpt lat="45.7099219691" lon="6.9120644499"><ele>1862.69</ele><time>2014-09-05T11:43:35Z</time></trkpt><trkpt lat="45.7099112403" lon="6.9120368734"><ele>1863.65</ele><time>2014-09-05T11:43:36Z</time></trkpt><trkpt lat="45.7098979969" lon="6.9120083749"><ele>1864.13</ele><time>2014-09-05T11:43:37Z</time></trkpt><trkpt lat="45.7098820712" lon="6.9119802956"><ele>1864.61</ele><time>2014-09-05T11:43:38Z</time></trkpt><trkpt lat="45.7096902095" lon="6.9115865976"><ele>1868.94</ele><time>2014-09-05T11:43:51Z</time></trkpt><trkpt lat="45.7096636388" lon="6.9109828491"><ele>1868.94</ele><time>2014-09-05T11:44:06Z</time></trkpt><trkpt lat="45.7096527424" lon="6.9103742391"><ele>1866.06</ele><time>2014-09-05T11:44:24Z</time></trkpt><trkpt lat="45.7097020280" lon="6.9098000787"><ele>1866.06</ele><time>2014-09-05T11:44:41Z</time></trkpt><trkpt lat="45.7096695062" lon="6.9092825800"><ele>1867.02</ele><time>2014-09-05T11:44:59Z</time></trkpt><trkpt lat="45.7096742839" lon="6.9092855137"><ele>1868.46</ele><time>2014-09-05T11:45:12Z</time></trkpt><trkpt lat="45.7096608728" lon="6.9092698395"><ele>1868.46</ele><time>2014-09-05T11:45:42Z</time></trkpt><trkpt lat="45.7096379064" lon="6.9092757907"><ele>1868.46</ele><time>2014-09-05T11:45:55Z</time></trkpt><trkpt lat="45.7096280158" lon="6.9092658162"><ele>1868.46</ele><time>2014-09-05T11:45:56Z</time></trkpt><trkpt lat="45.7096151076" lon="6.9092506450"><ele>1868.46</ele><time>2014-09-05T11:45:57Z</time></trkpt><trkpt lat="45.7095995173" lon="6.9092368148"><ele>1868.46</ele><time>2014-09-05T11:45:58Z</time></trkpt><trkpt lat="45.7095820829" lon="6.9092298578"><ele>1868.46</ele><time>2014-09-05T11:45:59Z</time></trkpt><trkpt lat="45.7095625531" lon="6.9092265051"><ele>1868.46</ele><time>2014-09-05T11:46:00Z</time></trkpt><trkpt lat="45.7095433585" lon="6.9092265051"><ele>1868.46</ele><time>2014-09-05T11:46:01Z</time></trkpt><trkpt lat="45.7095205598" lon="6.9092284329"><ele>1868.46</ele><time>2014-09-05T11:46:02Z</time></trkpt><trkpt lat="45.7093867008" lon="6.9094554987"><ele>1868.46</ele><time>2014-09-05T11:46:14Z</time></trkpt><trkpt lat="45.7094091643" lon="6.9097508769"><ele>1869.90</ele><time>2014-09-05T11:46:24Z</time></trkpt><trkpt lat="45.7094058115" lon="6.9097740948"><ele>1870.38</ele><time>2014-09-05T11:46:25Z</time></trkpt><trkpt lat="45.7093677577" lon="6.9102175813"><ele>1871.34</ele><time>2014-09-05T11:46:41Z</time></trkpt><trkpt lat="45.7093313802" lon="6.9106540270"><ele>1873.27</ele><time>2014-09-05T11:46:58Z</time></trkpt><trkpt lat="45.7092862017" lon="6.9110955857"><ele>1876.63</ele><time>2014-09-05T11:47:16Z</time></trkpt><trkpt lat="45.7092398498" lon="6.9114887808"><ele>1879.51</ele><time>2014-09-05T11:47:32Z</time></trkpt><trkpt lat="45.7090675179" lon="6.9117861707"><ele>1880.48</ele><time>2014-09-05T11:47:48Z</time></trkpt><trkpt lat="45.7088491693" lon="6.9120482728"><ele>1882.40</ele><time>2014-09-05T11:48:05Z</time></trkpt><trkpt lat="45.7086427230" lon="6.9122983050"><ele>1883.36</ele><time>2014-09-05T11:48:21Z</time></trkpt><trkpt lat="45.7084652781" lon="6.9125762489"><ele>1884.80</ele><time>2014-09-05T11:48:37Z</time></trkpt><trkpt lat="45.7083239593" lon="6.9129226729"><ele>1888.17</ele><time>2014-09-05T11:48:53Z</time></trkpt><trkpt lat="45.7081763539" lon="6.9132110104"><ele>1892.01</ele><time>2014-09-05T11:49:08Z</time></trkpt><trkpt lat="45.7079010084" lon="6.9134855177"><ele>1895.38</ele><time>2014-09-05T11:49:30Z</time></trkpt><trkpt lat="45.7077311911" lon="6.9135586079"><ele>1895.86</ele><time>2014-09-05T11:49:45Z</time></trkpt><trkpt lat="45.7077112421" lon="6.9135544170"><ele>1895.86</ele><time>2014-09-05T11:50:04Z</time></trkpt><trkpt lat="45.7077062130" lon="6.9135585241"><ele>1896.34</ele><time>2014-09-05T11:50:38Z</time></trkpt><trkpt lat="45.7077109907" lon="6.9135597814"><ele>1896.34</ele><time>2014-09-05T11:51:02Z</time></trkpt><trkpt lat="45.7077112421" lon="6.9135493878"><ele>1895.86</ele><time>2014-09-05T11:51:40Z</time></trkpt><trkpt lat="45.7077074703" lon="6.9135471247"><ele>1898.26</ele><time>2014-09-05T11:52:24Z</time></trkpt><trkpt lat="45.7076968253" lon="6.9135436881"><ele>1898.26</ele><time>2014-09-05T11:53:02Z</time></trkpt><trkpt lat="45.7076896168" lon="6.9135306962"><ele>1897.30</ele><time>2014-09-05T11:53:32Z</time></trkpt><trkpt lat="45.7077036984" lon="6.9135747012"><ele>1897.78</ele><time>2014-09-05T11:53:57Z</time></trkpt><trkpt lat="45.7076948136" lon="6.9135846756"><ele>1898.26</ele><time>2014-09-05T11:53:58Z</time></trkpt><trkpt lat="45.7076828275" lon="6.9135943148"><ele>1898.26</ele><time>2014-09-05T11:53:59Z</time></trkpt><trkpt lat="45.7076671533" lon="6.9136056304"><ele>1898.26</ele><time>2014-09-05T11:54:00Z</time></trkpt><trkpt lat="45.7076515630" lon="6.9136202987"><ele>1898.74</ele><time>2014-09-05T11:54:01Z</time></trkpt><trkpt lat="45.7076356374" lon="6.9136379007"><ele>1898.74</ele><time>2014-09-05T11:54:02Z</time></trkpt><trkpt lat="45.7076192927" lon="6.9136545807"><ele>1899.22</ele><time>2014-09-05T11:54:03Z</time></trkpt><trkpt lat="45.7076036185" lon="6.9136703387"><ele>1899.22</ele><time>2014-09-05T11:54:04Z</time></trkpt><trkpt lat="45.7075902913" lon="6.9136875216"><ele>1899.70</ele><time>2014-09-05T11:54:05Z</time></trkpt><trkpt lat="45.7075779699" lon="6.9137040339"><ele>1899.70</ele><time>2014-09-05T11:54:06Z</time></trkpt><trkpt lat="45.7075633854" lon="6.9137199596"><ele>1900.18</ele><time>2014-09-05T11:54:07Z</time></trkpt><trkpt lat="45.7075509802" lon="6.9137372263"><ele>1900.18</ele><time>2014-09-05T11:54:08Z</time></trkpt><trkpt lat="45.7075389940" lon="6.9137581810"><ele>1900.18</ele><time>2014-09-05T11:54:09Z</time></trkpt><trkpt lat="45.7074033748" lon="6.9139404874"><ele>1902.59</ele><time>2014-09-05T11:54:23Z</time></trkpt><trkpt lat="45.7073821686" lon="6.9139279146"><ele>1902.11</ele><time>2014-09-05T11:54:39Z</time></trkpt><trkpt lat="45.7073852699" lon="6.9139202870"><ele>1902.59</ele><time>2014-09-05T11:55:20Z</time></trkpt><trkpt lat="45.7073678356" lon="6.9139514677"><ele>1901.63</ele><time>2014-09-05T11:55:41Z</time></trkpt><trkpt lat="45.7072489802" lon="6.9141465984"><ele>1902.59</ele><time>2014-09-05T11:55:54Z</time></trkpt><trkpt lat="45.7072066516" lon="6.9142733328"><ele>1902.59</ele><time>2014-09-05T11:56:00Z</time></trkpt><trkpt lat="45.7072031312" lon="6.9142955448"><ele>1902.59</ele><time>2014-09-05T11:56:01Z</time></trkpt><trkpt lat="45.7071984373" lon="6.9143193495"><ele>1902.59</ele><time>2014-09-05T11:56:02Z</time></trkpt><trkpt lat="45.7071919832" lon="6.9143408071"><ele>1902.59</ele><time>2014-09-05T11:56:03Z</time></trkpt><trkpt lat="45.7071852777" lon="6.9143613428"><ele>1902.59</ele><time>2014-09-05T11:56:04Z</time></trkpt><trkpt lat="45.7071799133" lon="6.9143841416"><ele>1902.59</ele><time>2014-09-05T11:56:05Z</time></trkpt><trkpt lat="45.7071788236" lon="6.9144076109"><ele>1902.59</ele><time>2014-09-05T11:56:06Z</time></trkpt><trkpt lat="45.7071815897" lon="6.9145304058"><ele>1903.07</ele><time>2014-09-05T11:56:11Z</time></trkpt><trkpt lat="45.7071787398" lon="6.9145507738"><ele>1903.55</ele><time>2014-09-05T11:56:12Z</time></trkpt><trkpt lat="45.7071775664" lon="6.9145725667"><ele>1904.03</ele><time>2014-09-05T11:56:13Z</time></trkpt><trkpt lat="45.7071768958" lon="6.9145953655"><ele>1904.03</ele><time>2014-09-05T11:56:14Z</time></trkpt><trkpt lat="45.7071757223" lon="6.9146172423"><ele>1904.51</ele><time>2014-09-05T11:56:15Z</time></trkpt><trkpt lat="45.7070514187" lon="6.9149184879"><ele>1908.83</ele><time>2014-09-05T11:56:31Z</time></trkpt><trkpt lat="45.7069914043" lon="6.9149510097"><ele>1908.35</ele><time>2014-09-05T11:56:35Z</time></trkpt><trkpt lat="45.7069769874" lon="6.9149506744"><ele>1908.35</ele><time>2014-09-05T11:56:36Z</time></trkpt><trkpt lat="45.7069627382" lon="6.9149487466"><ele>1908.35</ele><time>2014-09-05T11:56:37Z</time></trkpt><trkpt lat="45.7069003768" lon="6.9147723075"><ele>1909.32</ele><time>2014-09-05T11:56:50Z</time></trkpt><trkpt lat="45.7068814337" lon="6.9147392828"><ele>1905.95</ele><time>2014-09-05T11:57:08Z</time></trkpt><trkpt lat="45.7068650052" lon="6.9147029892"><ele>1907.39</ele><time>2014-09-05T11:57:30Z</time></trkpt><trkpt lat="45.7068716269" lon="6.9146875665"><ele>1907.39</ele><time>2014-09-05T11:57:32Z</time></trkpt><trkpt lat="45.7068776619" lon="6.9146754965"><ele>1907.87</ele><time>2014-09-05T11:57:33Z</time></trkpt><trkpt lat="45.7068836968" lon="6.9146646839"><ele>1907.87</ele><time>2014-09-05T11:57:34Z</time></trkpt><trkpt lat="45.7068932522" lon="6.9146489259"><ele>1908.35</ele><time>2014-09-05T11:57:35Z</time></trkpt><trkpt lat="45.7069060765" lon="6.9146332517"><ele>1908.83</ele><time>2014-09-05T11:57:36Z</time></trkpt><trkpt lat="45.7069204096" lon="6.9146167394"><ele>1909.32</ele><time>2014-09-05T11:57:37Z</time></trkpt><trkpt lat="45.7069348264" lon="6.9145951979"><ele>1909.80</ele><time>2014-09-05T11:57:38Z</time></trkpt><trkpt lat="45.7071175519" lon="6.9143674616"><ele>1912.20</ele><time>2014-09-05T11:57:52Z</time></trkpt><trkpt lat="45.7071199827" lon="6.9143434055"><ele>1912.68</ele><time>2014-09-05T11:57:53Z</time></trkpt><trkpt lat="45.7071219943" lon="6.9143184274"><ele>1912.68</ele><time>2014-09-05T11:57:54Z</time></trkpt><trkpt lat="45.7071004529" lon="6.9139554910"><ele>1915.56</ele><time>2014-09-05T11:58:09Z</time></trkpt><trkpt lat="45.7071256824" lon="6.9136174489"><ele>1919.89</ele><time>2014-09-05T11:58:23Z</time></trkpt><trkpt lat="45.7072085794" lon="6.9133647345"><ele>1922.29</ele><time>2014-09-05T11:58:35Z</time></trkpt><trkpt lat="45.7072219905" lon="6.9133479707"><ele>1922.29</ele><time>2014-09-05T11:58:36Z</time></trkpt><trkpt lat="45.7072295342" lon="6.9133275189"><ele>1922.29</ele><time>2014-09-05T11:58:37Z</time></trkpt><trkpt lat="45.7072358206" lon="6.9133066479"><ele>1922.29</ele><time>2014-09-05T11:58:38Z</time></trkpt><trkpt lat="45.7072449569" lon="6.9132873695"><ele>1922.77</ele><time>2014-09-05T11:58:39Z</time></trkpt><trkpt lat="45.7072556857" lon="6.9132672530"><ele>1922.77</ele><time>2014-09-05T11:58:40Z</time></trkpt><trkpt lat="45.7072666660" lon="6.9132462982"><ele>1922.77</ele><time>2014-09-05T11:58:41Z</time></trkpt><trkpt lat="45.7074288558" lon="6.9129719585"><ele>1925.18</ele><time>2014-09-05T11:58:56Z</time></trkpt><trkpt lat="45.7075936440" lon="6.9127856288"><ele>1926.14</ele><time>2014-09-05T11:59:11Z</time></trkpt><trkpt lat="45.7075926382" lon="6.9127960224"><ele>1920.85</ele><time>2014-09-05T11:59:25Z</time></trkpt><trkpt lat="45.7076059654" lon="6.9127646741"><ele>1920.37</ele><time>2014-09-05T12:00:05Z</time></trkpt><trkpt lat="45.7076168619" lon="6.9127265364"><ele>1920.37</ele><time>2014-09-05T12:00:08Z</time></trkpt><trkpt lat="45.7076252438" lon="6.9127068389"><ele>1920.85</ele><time>2014-09-05T12:00:09Z</time></trkpt><trkpt lat="45.7076358888" lon="6.9126901589"><ele>1920.85</ele><time>2014-09-05T12:00:10Z</time></trkpt><trkpt lat="45.7076462824" lon="6.9126712158"><ele>1920.85</ele><time>2014-09-05T12:00:11Z</time></trkpt><trkpt lat="45.7076555863" lon="6.9126485847"><ele>1921.33</ele><time>2014-09-05T12:00:12Z</time></trkpt><trkpt lat="45.7076668181" lon="6.9126238581"><ele>1921.81</ele><time>2014-09-05T12:00:13Z</time></trkpt><trkpt lat="45.7076780498" lon="6.9126021490"><ele>1921.81</ele><time>2014-09-05T12:00:14Z</time></trkpt><trkpt lat="45.7078451011" lon="6.9122376200"><ele>1927.10</ele><time>2014-09-05T12:00:31Z</time></trkpt><trkpt lat="45.7079713326" lon="6.9119113125"><ele>1929.50</ele><time>2014-09-05T12:00:46Z</time></trkpt><trkpt lat="45.7080893498" lon="6.9115904532"><ele>1934.31</ele><time>2014-09-05T12:01:03Z</time></trkpt><trkpt lat="45.7081921957" lon="6.9113115035"><ele>1936.71</ele><time>2014-09-05T12:01:16Z</time></trkpt><trkpt lat="45.7082863245" lon="6.9109482318"><ele>1939.12</ele><time>2014-09-05T12:01:32Z</time></trkpt><trkpt lat="45.7083492726" lon="6.9106426276"><ele>1941.52</ele><time>2014-09-05T12:01:47Z</time></trkpt><trkpt lat="45.7083365321" lon="6.9105823617"><ele>1941.52</ele><time>2014-09-05T12:01:50Z</time></trkpt><trkpt lat="45.7083242107" lon="6.9105650112"><ele>1941.52</ele><time>2014-09-05T12:01:51Z</time></trkpt><trkpt lat="45.7083121408" lon="6.9105536956"><ele>1942.00</ele><time>2014-09-05T12:01:52Z</time></trkpt><trkpt lat="45.7083000708" lon="6.9105485827"><ele>1942.00</ele><time>2014-09-05T12:01:53Z</time></trkpt><trkpt lat="45.7082868274" lon="6.9105501752"><ele>1942.00</ele><time>2014-09-05T12:01:54Z</time></trkpt><trkpt lat="45.7082708180" lon="6.9105593115"><ele>1941.52</ele><time>2014-09-05T12:01:55Z</time></trkpt><trkpt lat="45.7082553115" lon="6.9105738122"><ele>1941.04</ele><time>2014-09-05T12:01:56Z</time></trkpt><trkpt lat="45.7082392182" lon="6.9105908275"><ele>1941.04</ele><time>2014-09-05T12:01:57Z</time></trkpt><trkpt lat="45.7082259748" lon="6.9106105249"><ele>1940.56</ele><time>2014-09-05T12:01:58Z</time></trkpt><trkpt lat="45.7082145754" lon="6.9106303062"><ele>1940.56</ele><time>2014-09-05T12:01:59Z</time></trkpt><trkpt lat="45.7082051039" lon="6.9106511772"><ele>1940.08</ele><time>2014-09-05T12:02:00Z</time></trkpt><trkpt lat="45.7081509568" lon="6.9109490700"><ele>1941.04</ele><time>2014-09-05T12:02:13Z</time></trkpt><trkpt lat="45.7080121525" lon="6.9112410955"><ele>1943.92</ele><time>2014-09-05T12:02:28Z</time></trkpt><trkpt lat="45.7078243140" lon="6.9116169401"><ele>1945.36</ele><time>2014-09-05T12:02:45Z</time></trkpt><trkpt lat="45.7076819055" lon="6.9118557405"><ele>1946.81</ele><time>2014-09-05T12:02:59Z</time></trkpt><trkpt lat="45.7076077256" lon="6.9119461812"><ele>1947.29</ele><time>2014-09-05T12:03:10Z</time></trkpt><trkpt lat="45.7076156884" lon="6.9119227119"><ele>1949.21</ele><time>2014-09-05T12:03:31Z</time></trkpt><trkpt lat="45.7076064683" lon="6.9119906891"><ele>1947.77</ele><time>2014-09-05T12:03:51Z</time></trkpt><trkpt lat="45.7075807359" lon="6.9120158348"><ele>1948.25</ele><time>2014-09-05T12:03:54Z</time></trkpt><trkpt lat="45.7075687498" lon="6.9120253902"><ele>1948.25</ele><time>2014-09-05T12:03:55Z</time></trkpt><trkpt lat="45.7075561769" lon="6.9120342750"><ele>1948.25</ele><time>2014-09-05T12:03:56Z</time></trkpt><trkpt lat="45.7075453643" lon="6.9120440818"><ele>1948.25</ele><time>2014-09-05T12:03:57Z</time></trkpt><trkpt lat="45.7075343002" lon="6.9120576605"><ele>1948.73</ele><time>2014-09-05T12:03:58Z</time></trkpt><trkpt lat="45.7075202186" lon="6.9120726641"><ele>1948.73</ele><time>2014-09-05T12:03:59Z</time></trkpt><trkpt lat="45.7075045444" lon="6.9120838121"><ele>1949.21</ele><time>2014-09-05T12:04:00Z</time></trkpt><trkpt lat="45.7074877806" lon="6.9120948762"><ele>1949.69</ele><time>2014-09-05T12:04:01Z</time></trkpt><trkpt lat="45.7074735314" lon="6.9121077843"><ele>1949.69</ele><time>2014-09-05T12:04:02Z</time></trkpt><trkpt lat="45.7074586116" lon="6.9121201057"><ele>1950.17</ele><time>2014-09-05T12:04:03Z</time></trkpt><trkpt lat="45.7074013632" lon="6.9121834729"><ele>1950.65</ele><time>2014-09-05T12:04:07Z</time></trkpt><trkpt lat="45.7073887903" lon="6.9121990632"><ele>1950.65</ele><time>2014-09-05T12:04:08Z</time></trkpt><trkpt lat="45.7073711883" lon="6.9122090377"><ele>1951.13</ele><time>2014-09-05T12:04:09Z</time></trkpt><trkpt lat="45.7070893049" lon="6.9123110455"><ele>1952.09</ele><time>2014-09-05T12:04:25Z</time></trkpt><trkpt lat="45.7068609819" lon="6.9124888256"><ele>1951.13</ele><time>2014-09-05T12:04:41Z</time></trkpt><trkpt lat="45.7066305634" lon="6.9126634207"><ele>1953.06</ele><time>2014-09-05T12:04:56Z</time></trkpt><trkpt lat="45.7064374443" lon="6.9127202500"><ele>1953.54</ele><time>2014-09-05T12:05:10Z</time></trkpt><trkpt lat="45.7063444052" lon="6.9127958547"><ele>1954.02</ele><time>2014-09-05T12:05:17Z</time></trkpt><trkpt lat="45.7061040122" lon="6.9127754867"><ele>1955.46</ele><time>2014-09-05T12:05:34Z</time></trkpt><trkpt lat="45.7058977336" lon="6.9125982933"><ele>1956.42</ele><time>2014-09-05T12:05:50Z</time></trkpt><trkpt lat="45.7057429198" lon="6.9124129694"><ele>1957.38</ele><time>2014-09-05T12:06:03Z</time></trkpt><trkpt lat="45.7057347056" lon="6.9123977143"><ele>1957.38</ele><time>2014-09-05T12:06:04Z</time></trkpt><trkpt lat="45.7057258207" lon="6.9123812858"><ele>1957.86</ele><time>2014-09-05T12:06:05Z</time></trkpt><trkpt lat="45.7057171874" lon="6.9123610016"><ele>1957.86</ele><time>2014-09-05T12:06:06Z</time></trkpt><trkpt lat="45.7057096437" lon="6.9123444892"><ele>1957.86</ele><time>2014-09-05T12:06:07Z</time></trkpt><trkpt lat="45.7056993339" lon="6.9123281445"><ele>1957.86</ele><time>2014-09-05T12:06:08Z</time></trkpt><trkpt lat="45.7056892756" lon="6.9123125542"><ele>1957.86</ele><time>2014-09-05T12:06:09Z</time></trkpt><trkpt lat="45.7056800555" lon="6.9122968800"><ele>1958.34</ele><time>2014-09-05T12:06:10Z</time></trkpt><trkpt lat="45.7056725118" lon="6.9122793619"><ele>1958.34</ele><time>2014-09-05T12:06:11Z</time></trkpt><trkpt lat="45.7056642137" lon="6.9122651964"><ele>1958.34</ele><time>2014-09-05T12:06:12Z</time></trkpt><trkpt lat="45.7056549937" lon="6.9122517016"><ele>1958.82</ele><time>2014-09-05T12:06:13Z</time></trkpt><trkpt lat="45.7056474499" lon="6.9122336805"><ele>1958.82</ele><time>2014-09-05T12:06:14Z</time></trkpt><trkpt lat="45.7056383137" lon="6.9122182578"><ele>1958.82</ele><time>2014-09-05T12:06:15Z</time></trkpt><trkpt lat="45.7056290098" lon="6.9122019131"><ele>1959.30</ele><time>2014-09-05T12:06:16Z</time></trkpt><trkpt lat="45.7056229748" lon="6.9121844787"><ele>1959.30</ele><time>2014-09-05T12:06:17Z</time></trkpt><trkpt lat="45.7056145091" lon="6.9121672958"><ele>1959.30</ele><time>2014-09-05T12:06:18Z</time></trkpt><trkpt lat="45.7056059595" lon="6.9121517055"><ele>1959.30</ele><time>2014-09-05T12:06:19Z</time></trkpt><trkpt lat="45.7055970747" lon="6.9121357799"><ele>1959.78</ele><time>2014-09-05T12:06:20Z</time></trkpt><trkpt lat="45.7055904530" lon="6.9121183455"><ele>1959.78</ele><time>2014-09-05T12:06:21Z</time></trkpt><trkpt lat="45.7054655626" lon="6.9118524715"><ele>1960.27</ele><time>2014-09-05T12:06:36Z</time></trkpt><trkpt lat="45.7054094039" lon="6.9117533136"><ele>1960.27</ele><time>2014-09-05T12:06:42Z</time></trkpt><trkpt lat="45.7054019440" lon="6.9117379747"><ele>1960.75</ele><time>2014-09-05T12:06:43Z</time></trkpt><trkpt lat="45.7053897902" lon="6.9117259886"><ele>1960.75</ele><time>2014-09-05T12:06:44Z</time></trkpt><trkpt lat="45.7051949948" lon="6.9115807302"><ele>1963.63</ele><time>2014-09-05T12:06:58Z</time></trkpt><trkpt lat="45.7049722038" lon="6.9115591887"><ele>1966.03</ele><time>2014-09-05T12:07:13Z</time></trkpt><trkpt lat="45.7049573679" lon="6.9115707558"><ele>1966.03</ele><time>2014-09-05T12:07:14Z</time></trkpt><trkpt lat="45.7049412746" lon="6.9115845859"><ele>1966.03</ele><time>2014-09-05T12:07:15Z</time></trkpt><trkpt lat="45.7047577947" lon="6.9117103983"><ele>1967.48</ele><time>2014-09-05T12:07:29Z</time></trkpt><trkpt lat="45.7046987023" lon="6.9116890244"><ele>1968.44</ele><time>2014-09-05T12:07:34Z</time></trkpt><trkpt lat="45.7045680285" lon="6.9115001801"><ele>1971.80</ele><time>2014-09-05T12:07:47Z</time></trkpt><trkpt lat="45.7045573834" lon="6.9114849251"><ele>1971.80</ele><time>2014-09-05T12:07:48Z</time></trkpt><trkpt lat="45.7045459840" lon="6.9114725199"><ele>1972.28</ele><time>2014-09-05T12:07:49Z</time></trkpt><trkpt lat="45.7045347523" lon="6.9114570972"><ele>1972.28</ele><time>2014-09-05T12:07:50Z</time></trkpt><trkpt lat="45.7045241073" lon="6.9114397466"><ele>1972.76</ele><time>2014-09-05T12:07:51Z</time></trkpt><trkpt lat="45.7045148872" lon="6.9114223123"><ele>1972.76</ele><time>2014-09-05T12:07:52Z</time></trkpt><trkpt lat="45.7043671142" lon="6.9111364894"><ele>1976.61</ele><time>2014-09-05T12:08:10Z</time></trkpt><trkpt lat="45.7043609954" lon="6.9111146964"><ele>1976.61</ele><time>2014-09-05T12:08:11Z</time></trkpt><trkpt lat="45.7043550443" lon="6.9110981002"><ele>1976.61</ele><time>2014-09-05T12:08:12Z</time></trkpt><trkpt lat="45.7042641006" lon="6.9108704478"><ele>1977.09</ele><time>2014-09-05T12:08:26Z</time></trkpt><trkpt lat="45.7042594068" lon="6.9108563662"><ele>1977.09</ele><time>2014-09-05T12:08:27Z</time></trkpt><trkpt lat="45.7042566407" lon="6.9108411949"><ele>1977.57</ele><time>2014-09-05T12:08:28Z</time></trkpt><trkpt lat="45.7042516954" lon="6.9108286221"><ele>1978.05</ele><time>2014-09-05T12:08:29Z</time></trkpt><trkpt lat="45.7042449061" lon="6.9108157139"><ele>1978.05</ele><time>2014-09-05T12:08:30Z</time></trkpt><trkpt lat="45.7042365242" lon="6.9107696973"><ele>1979.97</ele><time>2014-09-05T12:08:41Z</time></trkpt><trkpt lat="45.7042330876" lon="6.9107542746"><ele>1979.97</ele><time>2014-09-05T12:08:42Z</time></trkpt><trkpt lat="45.7042282261" lon="6.9107397739"><ele>1980.45</ele><time>2014-09-05T12:08:43Z</time></trkpt><trkpt lat="45.7042268012" lon="6.9107244350"><ele>1980.45</ele><time>2014-09-05T12:08:44Z</time></trkpt><trkpt lat="45.7042279746" lon="6.9106981158"><ele>1979.49</ele><time>2014-09-05T12:08:56Z</time></trkpt><trkpt lat="45.7042429782" lon="6.9106713776"><ele>1979.49</ele><time>2014-09-05T12:09:01Z</time></trkpt><trkpt lat="45.7042490132" lon="6.9106598105"><ele>1979.49</ele><time>2014-09-05T12:09:02Z</time></trkpt><trkpt lat="45.7042531203" lon="6.9106444716"><ele>1979.49</ele><time>2014-09-05T12:09:03Z</time></trkpt><trkpt lat="45.7042533718" lon="6.9106070045"><ele>1979.97</ele><time>2014-09-05T12:09:17Z</time></trkpt><trkpt lat="45.7042399608" lon="6.9106324017"><ele>1979.97</ele><time>2014-09-05T12:09:55Z</time></trkpt><trkpt lat="45.7042388711" lon="6.9106187392"><ele>1978.53</ele><time>2014-09-05T12:10:28Z</time></trkpt><trkpt lat="45.7042470854" lon="6.9106179848"><ele>1979.49</ele><time>2014-09-05T12:11:10Z</time></trkpt><trkpt lat="45.7042459957" lon="6.9106105249"><ele>1978.05</ele><time>2014-09-05T12:11:43Z</time></trkpt><trkpt lat="45.7042560540" lon="6.9106085133"><ele>1976.61</ele><time>2014-09-05T12:12:21Z</time></trkpt><trkpt lat="45.7042344287" lon="6.9106086809"><ele>1976.61</ele><time>2014-09-05T12:12:46Z</time></trkpt><trkpt lat="45.7042442355" lon="6.9106267858"><ele>1976.61</ele><time>2014-09-05T12:13:16Z</time></trkpt><trkpt lat="45.7042342611" lon="6.9106065016"><ele>1975.65</ele><time>2014-09-05T12:13:40Z</time></trkpt><trkpt lat="45.7042470854" lon="6.9105977844"><ele>1977.09</ele><time>2014-09-05T12:14:03Z</time></trkpt><trkpt lat="45.7042410504" lon="6.9106358383"><ele>1979.01</ele><time>2014-09-05T12:14:26Z</time></trkpt><trkpt lat="45.7042376976" lon="6.9106171466"><ele>1979.49</ele><time>2014-09-05T12:15:03Z</time></trkpt><trkpt lat="45.7042368595" lon="6.9106111117"><ele>1978.05</ele><time>2014-09-05T12:15:31Z</time></trkpt><trkpt lat="45.7042599097" lon="6.9106119499"><ele>1979.97</ele><time>2014-09-05T12:16:00Z</time></trkpt><trkpt lat="45.7042105403" lon="6.9106288813"><ele>1980.45</ele><time>2014-09-05T12:16:21Z</time></trkpt><trkpt lat="45.7041421439" lon="6.9106267020"><ele>1978.53</ele><time>2014-09-05T12:16:28Z</time></trkpt><trkpt lat="45.7041147351" lon="6.9105557911"><ele>1978.05</ele><time>2014-09-05T12:16:35Z</time></trkpt><trkpt lat="45.7041077781" lon="6.9105357584"><ele>1978.53</ele><time>2014-09-05T12:16:36Z</time></trkpt><trkpt lat="45.7041047607" lon="6.9105239399"><ele>1978.53</ele><time>2014-09-05T12:16:37Z</time></trkpt><trkpt lat="45.7040973846" lon="6.9105049968"><ele>1978.53</ele><time>2014-09-05T12:16:38Z</time></trkpt><trkpt lat="45.7040879130" lon="6.9104834553"><ele>1978.53</ele><time>2014-09-05T12:16:39Z</time></trkpt><trkpt lat="45.7040797826" lon="6.9104618300"><ele>1978.53</ele><time>2014-09-05T12:16:40Z</time></trkpt><trkpt lat="45.7040322572" lon="6.9103471655"><ele>1979.01</ele><time>2014-09-05T12:16:46Z</time></trkpt><trkpt lat="45.7040216122" lon="6.9103297312"><ele>1979.01</ele><time>2014-09-05T12:16:47Z</time></trkpt><trkpt lat="45.7040154096" lon="6.9103083573"><ele>1979.01</ele><time>2014-09-05T12:16:48Z</time></trkpt><trkpt lat="45.7040124759" lon="6.9102851395"><ele>1979.01</ele><time>2014-09-05T12:16:49Z</time></trkpt><trkpt lat="45.7040052675" lon="6.9102653582"><ele>1979.01</ele><time>2014-09-05T12:16:50Z</time></trkpt><trkpt lat="45.7039761823" lon="6.9101952016"><ele>1979.01</ele><time>2014-09-05T12:16:54Z</time></trkpt><trkpt lat="45.7039689738" lon="6.9101777673"><ele>1979.01</ele><time>2014-09-05T12:16:55Z</time></trkpt><trkpt lat="45.7039599214" lon="6.9101586565"><ele>1979.01</ele><time>2014-09-05T12:16:56Z</time></trkpt><trkpt lat="45.7039527129" lon="6.9101421442"><ele>1979.01</ele><time>2014-09-05T12:16:57Z</time></trkpt><trkpt lat="45.7039450854" lon="6.9101237040"><ele>1979.01</ele><time>2014-09-05T12:16:58Z</time></trkpt><trkpt lat="45.7039347757" lon="6.9101098739"><ele>1979.01</ele><time>2014-09-05T12:16:59Z</time></trkpt><trkpt lat="45.7039299980" lon="6.9100928586"><ele>1979.01</ele><time>2014-09-05T12:17:00Z</time></trkpt><trkpt lat="45.7039236277" lon="6.9100750051"><ele>1979.01</ele><time>2014-09-05T12:17:01Z</time></trkpt><trkpt lat="45.7039162517" lon="6.9100570679"><ele>1979.01</ele><time>2014-09-05T12:17:02Z</time></trkpt><trkpt lat="45.7039082889" lon="6.9100395497"><ele>1979.01</ele><time>2014-09-05T12:17:03Z</time></trkpt><trkpt lat="45.7037899364" lon="6.9098173454"><ele>1980.93</ele><time>2014-09-05T12:17:17Z</time></trkpt><trkpt lat="45.7037739269" lon="6.9097835664"><ele>1980.93</ele><time>2014-09-05T12:17:19Z</time></trkpt><trkpt lat="45.7037697360" lon="6.9097643718"><ele>1980.93</ele><time>2014-09-05T12:17:20Z</time></trkpt><trkpt lat="45.7037630305" lon="6.9097440876"><ele>1980.93</ele><time>2014-09-05T12:17:21Z</time></trkpt><trkpt lat="45.7037550677" lon="6.9097244740"><ele>1980.45</ele><time>2014-09-05T12:17:22Z</time></trkpt><trkpt lat="45.7037492841" lon="6.9097034354"><ele>1980.45</ele><time>2014-09-05T12:17:23Z</time></trkpt><trkpt lat="45.7037116494" lon="6.9096158445"><ele>1980.45</ele><time>2014-09-05T12:17:28Z</time></trkpt><trkpt lat="45.7037041895" lon="6.9095975719"><ele>1980.45</ele><time>2014-09-05T12:17:29Z</time></trkpt><trkpt lat="45.7036943827" lon="6.9095782097"><ele>1979.97</ele><time>2014-09-05T12:17:30Z</time></trkpt><trkpt lat="45.7036845759" lon="6.9095606077"><ele>1980.45</ele><time>2014-09-05T12:17:31Z</time></trkpt><trkpt lat="45.7036755234" lon="6.9095441792"><ele>1980.45</ele><time>2014-09-05T12:17:32Z</time></trkpt><trkpt lat="45.7036689017" lon="6.9095254038"><ele>1980.45</ele><time>2014-09-05T12:17:33Z</time></trkpt><trkpt lat="45.7036618609" lon="6.9095059577"><ele>1980.45</ele><time>2014-09-05T12:17:34Z</time></trkpt><trkpt lat="45.7036513835" lon="6.9094906189"><ele>1980.45</ele><time>2014-09-05T12:17:35Z</time></trkpt><trkpt lat="45.7035358809" lon="6.9092814066"><ele>1982.38</ele><time>2014-09-05T12:17:48Z</time></trkpt><trkpt lat="45.7035184465" lon="6.9092479628"><ele>1982.86</ele><time>2014-09-05T12:17:50Z</time></trkpt><trkpt lat="45.7035110705" lon="6.9092286006"><ele>1982.86</ele><time>2014-09-05T12:17:51Z</time></trkpt><trkpt lat="45.7035015151" lon="6.9092079811"><ele>1982.86</ele><time>2014-09-05T12:17:52Z</time></trkpt><trkpt lat="45.7034933008" lon="6.9091908820"><ele>1982.38</ele><time>2014-09-05T12:17:53Z</time></trkpt><trkpt lat="45.7034866791" lon="6.9091697596"><ele>1982.38</ele><time>2014-09-05T12:17:54Z</time></trkpt><trkpt lat="45.7034811471" lon="6.9091510680"><ele>1982.38</ele><time>2014-09-05T12:17:55Z</time></trkpt><trkpt lat="45.7034759503" lon="6.9091317896"><ele>1982.38</ele><time>2014-09-05T12:17:56Z</time></trkpt><trkpt lat="45.7034721784" lon="6.9091106672"><ele>1982.38</ele><time>2014-09-05T12:17:57Z</time></trkpt><trkpt lat="45.7033296023" lon="6.9088036381"><ele>1983.34</ele><time>2014-09-05T12:18:15Z</time></trkpt><trkpt lat="45.7033142634" lon="6.9087705296"><ele>1983.34</ele><time>2014-09-05T12:18:17Z</time></trkpt><trkpt lat="45.7033040375" lon="6.9087547716"><ele>1983.82</ele><time>2014-09-05T12:18:18Z</time></trkpt><trkpt lat="45.7032970805" lon="6.9087401871"><ele>1983.82</ele><time>2014-09-05T12:18:19Z</time></trkpt><trkpt lat="45.7032902073" lon="6.9087219983"><ele>1983.82</ele><time>2014-09-05T12:18:20Z</time></trkpt><trkpt lat="45.7032814901" lon="6.9087079167"><ele>1984.30</ele><time>2014-09-05T12:18:21Z</time></trkpt><trkpt lat="45.7032724377" lon="6.9086903986"><ele>1984.30</ele><time>2014-09-05T12:18:22Z</time></trkpt><trkpt lat="45.7032657322" lon="6.9086728804"><ele>1984.30</ele><time>2014-09-05T12:18:23Z</time></trkpt><trkpt lat="45.7032586075" lon="6.9086535182"><ele>1984.78</ele><time>2014-09-05T12:18:24Z</time></trkpt><trkpt lat="45.7032443583" lon="6.9086201582"><ele>1985.26</ele><time>2014-09-05T12:18:26Z</time></trkpt><trkpt lat="45.7032402512" lon="6.9085987844"><ele>1985.26</ele><time>2014-09-05T12:18:27Z</time></trkpt><trkpt lat="45.7032334618" lon="6.9085797574"><ele>1985.26</ele><time>2014-09-05T12:18:28Z</time></trkpt><trkpt lat="45.7032252476" lon="6.9085665978"><ele>1985.26</ele><time>2014-09-05T12:18:29Z</time></trkpt><trkpt lat="45.7032159436" lon="6.9085463975"><ele>1985.74</ele><time>2014-09-05T12:18:30Z</time></trkpt><trkpt lat="45.7032069750" lon="6.9085272029"><ele>1985.74</ele><time>2014-09-05T12:18:31Z</time></trkpt><trkpt lat="45.7031981740" lon="6.9085077569"><ele>1985.74</ele><time>2014-09-05T12:18:32Z</time></trkpt><trkpt lat="45.7031183783" lon="6.9083515182"><ele>1988.14</ele><time>2014-09-05T12:18:41Z</time></trkpt><trkpt lat="45.7031119242" lon="6.9083291385"><ele>1988.14</ele><time>2014-09-05T12:18:42Z</time></trkpt><trkpt lat="45.7031029556" lon="6.9083095249"><ele>1988.14</ele><time>2014-09-05T12:18:43Z</time></trkpt><trkpt lat="45.7030939870" lon="6.9082917552"><ele>1988.14</ele><time>2014-09-05T12:18:44Z</time></trkpt><trkpt lat="45.7030840963" lon="6.9082758296"><ele>1988.62</ele><time>2014-09-05T12:18:45Z</time></trkpt><trkpt lat="45.7030763011" lon="6.9082556292"><ele>1988.62</ele><time>2014-09-05T12:18:46Z</time></trkpt><trkpt lat="45.7030145265" lon="6.9081290625"><ele>1989.59</ele><time>2014-09-05T12:18:53Z</time></trkpt><trkpt lat="45.7030095812" lon="6.9081101194"><ele>1990.07</ele><time>2014-09-05T12:18:54Z</time></trkpt><trkpt lat="45.7030036300" lon="6.9080896676"><ele>1990.07</ele><time>2014-09-05T12:18:55Z</time></trkpt><trkpt lat="45.7029157877" lon="6.9078704808"><ele>1991.03</ele><time>2014-09-05T12:19:08Z</time></trkpt><trkpt lat="45.7029031310" lon="6.9078581594"><ele>1991.03</ele><time>2014-09-05T12:19:09Z</time></trkpt><trkpt lat="45.7028912287" lon="6.9078452513"><ele>1991.51</ele><time>2014-09-05T12:19:10Z</time></trkpt><trkpt lat="45.7028816734" lon="6.9078319240"><ele>1991.99</ele><time>2014-09-05T12:19:11Z</time></trkpt><trkpt lat="45.7028714474" lon="6.9078195188"><ele>1991.99</ele><time>2014-09-05T12:19:12Z</time></trkpt><trkpt lat="45.7028621435" lon="6.9078061916"><ele>1992.47</ele><time>2014-09-05T12:19:13Z</time></trkpt><trkpt lat="45.7028519176" lon="6.9077877514"><ele>1992.95</ele><time>2014-09-05T12:19:14Z</time></trkpt><trkpt lat="45.7028434519" lon="6.9077707361"><ele>1993.43</ele><time>2014-09-05T12:19:15Z</time></trkpt><trkpt lat="45.7028341480" lon="6.9077535532"><ele>1993.43</ele><time>2014-09-05T12:19:16Z</time></trkpt><trkpt lat="45.7028256822" lon="6.9077363703"><ele>1993.91</ele><time>2014-09-05T12:19:17Z</time></trkpt><trkpt lat="45.7028170489" lon="6.9077174272"><ele>1993.91</ele><time>2014-09-05T12:19:18Z</time></trkpt><trkpt lat="45.7028093375" lon="6.9077018369"><ele>1993.91</ele><time>2014-09-05T12:19:19Z</time></trkpt><trkpt lat="45.7026562840" lon="6.9074704126"><ele>1996.32</ele><time>2014-09-05T12:19:34Z</time></trkpt><trkpt lat="45.7026208285" lon="6.9074207079"><ele>1996.80</ele><time>2014-09-05T12:19:38Z</time></trkpt><trkpt lat="45.7026131172" lon="6.9074026030"><ele>1996.80</ele><time>2014-09-05T12:19:39Z</time></trkpt><trkpt lat="45.7024888135" lon="6.9072369765"><ele>1998.72</ele><time>2014-09-05T12:19:51Z</time></trkpt><trkpt lat="45.7024748158" lon="6.9072248228"><ele>1998.72</ele><time>2014-09-05T12:19:52Z</time></trkpt><trkpt lat="45.7024303917" lon="6.9071603660"><ele>1999.20</ele><time>2014-09-05T12:19:57Z</time></trkpt><trkpt lat="45.7024206687" lon="6.9071505591"><ele>1999.20</ele><time>2014-09-05T12:19:58Z</time></trkpt><trkpt lat="45.7022539526" lon="6.9069499802"><ele>2002.08</ele><time>2014-09-05T12:20:13Z</time></trkpt><trkpt lat="45.7021623384" lon="6.9068230782"><ele>2002.56</ele><time>2014-09-05T12:20:22Z</time></trkpt><trkpt lat="45.7020239532" lon="6.9065504987"><ele>2003.52</ele><time>2014-09-05T12:20:39Z</time></trkpt><trkpt lat="45.7019869052" lon="6.9064859580"><ele>2004.01</ele><time>2014-09-05T12:20:43Z</time></trkpt><trkpt lat="45.7019806188" lon="6.9064693619"><ele>2003.52</ele><time>2014-09-05T12:20:44Z</time></trkpt><trkpt lat="45.7019712310" lon="6.9064529333"><ele>2004.01</ele><time>2014-09-05T12:20:45Z</time></trkpt><trkpt lat="45.7019613404" lon="6.9064371753"><ele>2004.01</ele><time>2014-09-05T12:20:46Z</time></trkpt><trkpt lat="45.7019517012" lon="6.9064235967"><ele>2004.01</ele><time>2014-09-05T12:20:47Z</time></trkpt><trkpt lat="45.7019170839" lon="6.9063360058"><ele>2003.52</ele><time>2014-09-05T12:20:58Z</time></trkpt><trkpt lat="45.7019206043" lon="6.9063624926"><ele>2005.45</ele><time>2014-09-05T12:21:29Z</time></trkpt><trkpt lat="45.7019185089" lon="6.9063586369"><ele>2006.89</ele><time>2014-09-05T12:22:05Z</time></trkpt><trkpt lat="45.7019234542" lon="6.9063660130"><ele>2003.52</ele><time>2014-09-05T12:22:41Z</time></trkpt><trkpt lat="45.7019042596" lon="6.9063384365"><ele>2004.49</ele><time>2014-09-05T12:23:07Z</time></trkpt><trkpt lat="45.7019312494" lon="6.9062948506"><ele>2002.08</ele><time>2014-09-05T12:23:37Z</time></trkpt><trkpt lat="45.7019081991" lon="6.9063056633"><ele>2002.08</ele><time>2014-09-05T12:24:16Z</time></trkpt><trkpt lat="45.7019128930" lon="6.9063132908"><ele>2005.45</ele><time>2014-09-05T12:24:47Z</time></trkpt><trkpt lat="45.7019131444" lon="6.9063175656"><ele>2003.52</ele><time>2014-09-05T12:25:21Z</time></trkpt><trkpt lat="45.7019096240" lon="6.9063148834"><ele>2005.45</ele><time>2014-09-05T12:25:53Z</time></trkpt><trkpt lat="45.7019043434" lon="6.9063106924"><ele>2004.01</ele><time>2014-09-05T12:26:32Z</time></trkpt><trkpt lat="45.7019140664" lon="6.9063082617"><ele>2004.49</ele><time>2014-09-05T12:27:11Z</time></trkpt><trkpt lat="45.7019187603" lon="6.9063236006"><ele>2004.97</ele><time>2014-09-05T12:27:50Z</time></trkpt><trkpt lat="45.7019284833" lon="6.9063259475"><ele>2005.45</ele><time>2014-09-05T12:28:28Z</time></trkpt><trkpt lat="45.7019081153" lon="6.9063411187"><ele>2007.37</ele><time>2014-09-05T12:28:53Z</time></trkpt><trkpt lat="45.7018916868" lon="6.9063572958"><ele>2006.89</ele><time>2014-09-05T12:28:56Z</time></trkpt><trkpt lat="45.7018825505" lon="6.9063712936"><ele>2006.89</ele><time>2014-09-05T12:28:57Z</time></trkpt><trkpt lat="45.7018702291" lon="6.9063862134"><ele>2006.89</ele><time>2014-09-05T12:28:58Z</time></trkpt><trkpt lat="45.7016343623" lon="6.9065844454"><ele>2008.33</ele><time>2014-09-05T12:29:13Z</time></trkpt><trkpt lat="45.7014072128" lon="6.9065600540"><ele>2009.77</ele><time>2014-09-05T12:29:27Z</time></trkpt><trkpt lat="45.7013770379" lon="6.9065479841"><ele>2009.77</ele><time>2014-09-05T12:29:29Z</time></trkpt><trkpt lat="45.7013622019" lon="6.9065414462"><ele>2010.25</ele><time>2014-09-05T12:29:30Z</time></trkpt><trkpt lat="45.7013462763" lon="6.9065407757"><ele>2010.25</ele><time>2014-09-05T12:29:31Z</time></trkpt><trkpt lat="45.7013316080" lon="6.9065385126"><ele>2010.25</ele><time>2014-09-05T12:29:32Z</time></trkpt><trkpt lat="45.7013150956" lon="6.9065375067"><ele>2010.25</ele><time>2014-09-05T12:29:33Z</time></trkpt><trkpt lat="45.7012995053" lon="6.9065342378"><ele>2010.25</ele><time>2014-09-05T12:29:34Z</time></trkpt><trkpt lat="45.7012836635" lon="6.9065291248"><ele>2010.73</ele><time>2014-09-05T12:29:35Z</time></trkpt><trkpt lat="45.7012675703" lon="6.9065262750"><ele>2010.73</ele><time>2014-09-05T12:29:36Z</time></trkpt><trkpt lat="45.7010355592" lon="6.9065205753"><ele>2012.66</ele><time>2014-09-05T12:29:52Z</time></trkpt><trkpt lat="45.7009543385" lon="6.9066857826"><ele>2012.66</ele><time>2014-09-05T12:30:01Z</time></trkpt><trkpt lat="45.7009427715" lon="6.9066970143"><ele>2012.66</ele><time>2014-09-05T12:30:02Z</time></trkpt><trkpt lat="45.7009326294" lon="6.9067109283"><ele>2012.66</ele><time>2014-09-05T12:30:03Z</time></trkpt><trkpt lat="45.7008724473" lon="6.9068339746"><ele>2013.14</ele><time>2014-09-05T12:30:10Z</time></trkpt><trkpt lat="45.7008628920" lon="6.9068493973"><ele>2013.14</ele><time>2014-09-05T12:30:11Z</time></trkpt><trkpt lat="45.7008528337" lon="6.9068644010"><ele>2013.14</ele><time>2014-09-05T12:30:12Z</time></trkpt><trkpt lat="45.7008426078" lon="6.9068817515"><ele>2013.62</ele><time>2014-09-05T12:30:13Z</time></trkpt><trkpt lat="45.7008335553" lon="6.9069004431"><ele>2013.62</ele><time>2014-09-05T12:30:14Z</time></trkpt><trkpt lat="45.7008232456" lon="6.9069160335"><ele>2013.62</ele><time>2014-09-05T12:30:15Z</time></trkpt><trkpt lat="45.7008127682" lon="6.9069326296"><ele>2014.10</ele><time>2014-09-05T12:30:16Z</time></trkpt><trkpt lat="45.7008050568" lon="6.9069499802"><ele>2014.58</ele><time>2014-09-05T12:30:17Z</time></trkpt><trkpt lat="45.7007951662" lon="6.9069669116"><ele>2014.58</ele><time>2014-09-05T12:30:18Z</time></trkpt><trkpt lat="45.7007851917" lon="6.9069792330"><ele>2014.58</ele><time>2014-09-05T12:30:19Z</time></trkpt><trkpt lat="45.7007763907" lon="6.9069931470"><ele>2015.06</ele><time>2014-09-05T12:30:20Z</time></trkpt><trkpt lat="45.7007455453" lon="6.9070293568"><ele>2015.54</ele><time>2014-09-05T12:30:23Z</time></trkpt><trkpt lat="45.7007332239" lon="6.9070372358"><ele>2015.54</ele><time>2014-09-05T12:30:24Z</time></trkpt><trkpt lat="45.7007203996" lon="6.9070460368"><ele>2016.02</ele><time>2014-09-05T12:30:25Z</time></trkpt><trkpt lat="45.7007055636" lon="6.9070500601"><ele>2016.02</ele><time>2014-09-05T12:30:26Z</time></trkpt><trkpt lat="45.7006925717" lon="6.9070453662"><ele>2016.02</ele><time>2014-09-05T12:30:27Z</time></trkpt><trkpt lat="45.7006778196" lon="6.9070395827"><ele>2016.02</ele><time>2014-09-05T12:30:28Z</time></trkpt><trkpt lat="45.7006598823" lon="6.9070343021"><ele>2016.50</ele><time>2014-09-05T12:30:29Z</time></trkpt><trkpt lat="45.7006467227" lon="6.9070268422"><ele>2016.50</ele><time>2014-09-05T12:30:30Z</time></trkpt><trkpt lat="45.7006320544" lon="6.9070157781"><ele>2016.50</ele><time>2014-09-05T12:30:31Z</time></trkpt><trkpt lat="45.7006193977" lon="6.9070041273"><ele>2016.50</ele><time>2014-09-05T12:30:32Z</time></trkpt><trkpt lat="45.7004649192" lon="6.9068070687"><ele>2018.43</ele><time>2014-09-05T12:30:47Z</time></trkpt><trkpt lat="45.7003224269" lon="6.9066163804"><ele>2018.91</ele><time>2014-09-05T12:31:02Z</time></trkpt><trkpt lat="45.7001512684" lon="6.9063919969"><ele>2020.35</ele><time>2014-09-05T12:31:18Z</time></trkpt><trkpt lat="45.7001127955" lon="6.9063022267"><ele>2020.35</ele><time>2014-09-05T12:31:23Z</time></trkpt><trkpt lat="45.7001043297" lon="6.9062844571"><ele>2020.35</ele><time>2014-09-05T12:31:24Z</time></trkpt><trkpt lat="45.7000964507" lon="6.9062655978"><ele>2020.35</ele><time>2014-09-05T12:31:25Z</time></trkpt><trkpt lat="45.7000566367" lon="6.9062042423"><ele>2020.83</ele><time>2014-09-05T12:31:29Z</time></trkpt><trkpt lat="45.7000452373" lon="6.9061873108"><ele>2020.83</ele><time>2014-09-05T12:31:30Z</time></trkpt><trkpt lat="45.7000257075" lon="6.9061582256"><ele>2020.83</ele><time>2014-09-05T12:31:32Z</time></trkpt><trkpt lat="45.6998913456" lon="6.9059185032"><ele>2023.23</ele><time>2014-09-05T12:31:47Z</time></trkpt><trkpt lat="45.6997572351" lon="6.9056657050"><ele>2026.12</ele><time>2014-09-05T12:32:02Z</time></trkpt><trkpt lat="45.6997474283" lon="6.9056270644"><ele>2025.15</ele><time>2014-09-05T12:32:04Z</time></trkpt><trkpt lat="45.6997374538" lon="6.9056112226"><ele>2025.64</ele><time>2014-09-05T12:32:05Z</time></trkpt><trkpt lat="45.6997312512" lon="6.9055918604"><ele>2025.64</ele><time>2014-09-05T12:32:06Z</time></trkpt><trkpt lat="45.6997243781" lon="6.9055739231"><ele>2025.64</ele><time>2014-09-05T12:32:07Z</time></trkpt><trkpt lat="45.6997176725" lon="6.9055583328"><ele>2026.12</ele><time>2014-09-05T12:32:08Z</time></trkpt><trkpt lat="45.6997125596" lon="6.9055391382"><ele>2026.12</ele><time>2014-09-05T12:32:09Z</time></trkpt><trkpt lat="45.6996173412" lon="6.9052424189"><ele>2029.00</ele><time>2014-09-05T12:32:25Z</time></trkpt><trkpt lat="45.6995168421" lon="6.9049377367"><ele>2029.96</ele><time>2014-09-05T12:32:41Z</time></trkpt><trkpt lat="45.6994273234" lon="6.9046243373"><ele>2032.36</ele><time>2014-09-05T12:32:58Z</time></trkpt><trkpt lat="45.6992953084" lon="6.9043575414"><ele>2032.84</ele><time>2014-09-05T12:33:14Z</time></trkpt><trkpt lat="45.6991913728" lon="6.9041930046"><ele>2033.81</ele><time>2014-09-05T12:33:24Z</time></trkpt><trkpt lat="45.6991799735" lon="6.9041825272"><ele>2034.29</ele><time>2014-09-05T12:33:25Z</time></trkpt><trkpt lat="45.6991732679" lon="6.9041614886"><ele>2033.81</ele><time>2014-09-05T12:33:26Z</time></trkpt><trkpt lat="45.6991626229" lon="6.9041495025"><ele>2034.29</ele><time>2014-09-05T12:33:27Z</time></trkpt><trkpt lat="45.6991493795" lon="6.9041404501"><ele>2034.77</ele><time>2014-09-05T12:33:28Z</time></trkpt><trkpt lat="45.6991357170" lon="6.9041311461"><ele>2035.73</ele><time>2014-09-05T12:33:29Z</time></trkpt><trkpt lat="45.6991265807" lon="6.9041152205"><ele>2035.73</ele><time>2014-09-05T12:33:30Z</time></trkpt><trkpt lat="45.6990865991" lon="6.9040303957"><ele>2036.21</ele><time>2014-09-05T12:33:35Z</time></trkpt><trkpt lat="45.6990777981" lon="6.9040156435"><ele>2036.69</ele><time>2014-09-05T12:33:36Z</time></trkpt><trkpt lat="45.6990659796" lon="6.9040045794"><ele>2036.69</ele><time>2014-09-05T12:33:37Z</time></trkpt><trkpt lat="45.6990566757" lon="6.9039899949"><ele>2037.17</ele><time>2014-09-05T12:33:38Z</time></trkpt><trkpt lat="45.6990510598" lon="6.9039739016"><ele>2037.17</ele><time>2014-09-05T12:33:39Z</time></trkpt><trkpt lat="45.6990467012" lon="6.9039576408"><ele>2037.17</ele><time>2014-09-05T12:33:40Z</time></trkpt><trkpt lat="45.6990227289" lon="6.9039112050"><ele>2037.17</ele><time>2014-09-05T12:33:43Z</time></trkpt><trkpt lat="45.6990263332" lon="6.9038452394"><ele>2036.21</ele><time>2014-09-05T12:33:54Z</time></trkpt><trkpt lat="45.6990229804" lon="6.9038522802"><ele>2032.84</ele><time>2014-09-05T12:34:37Z</time></trkpt><trkpt lat="45.6990377326" lon="6.9038490951"><ele>2036.21</ele><time>2014-09-05T12:35:29Z</time></trkpt><trkpt lat="45.6990453601" lon="6.9038400427"><ele>2035.25</ele><time>2014-09-05T12:36:14Z</time></trkpt><trkpt lat="45.6990166102" lon="6.9038701337"><ele>2038.61</ele><time>2014-09-05T12:37:04Z</time></trkpt><trkpt lat="45.6989805680" lon="6.9038619194"><ele>2039.09</ele><time>2014-09-05T12:37:25Z</time></trkpt><trkpt lat="45.6989534944" lon="6.9038296491"><ele>2039.09</ele><time>2014-09-05T12:37:28Z</time></trkpt><trkpt lat="45.6989442743" lon="6.9038122986"><ele>2039.09</ele><time>2014-09-05T12:37:29Z</time></trkpt><trkpt lat="45.6989375688" lon="6.9037910085"><ele>2039.09</ele><time>2014-09-05T12:37:30Z</time></trkpt><trkpt lat="45.6989314500" lon="6.9037703052"><ele>2039.09</ele><time>2014-09-05T12:37:31Z</time></trkpt><trkpt lat="45.6989200506" lon="6.9037585706"><ele>2040.05</ele><time>2014-09-05T12:37:32Z</time></trkpt><trkpt lat="45.6989135128" lon="6.9037328381"><ele>2039.57</ele><time>2014-09-05T12:37:33Z</time></trkpt><trkpt lat="45.6987700984" lon="6.9034588337"><ele>2043.42</ele><time>2014-09-05T12:37:49Z</time></trkpt><trkpt lat="45.6985869538" lon="6.9032600988"><ele>2044.38</ele><time>2014-09-05T12:38:05Z</time></trkpt><trkpt lat="45.6985592097" lon="6.9032326899"><ele>2044.86</ele><time>2014-09-05T12:38:07Z</time></trkpt><trkpt lat="45.6985503249" lon="6.9032113999"><ele>2044.86</ele><time>2014-09-05T12:38:08Z</time></trkpt><trkpt lat="45.6985364109" lon="6.9031965639"><ele>2045.34</ele><time>2014-09-05T12:38:09Z</time></trkpt><trkpt lat="45.6985223293" lon="6.9031851646"><ele>2045.34</ele><time>2014-09-05T12:38:10Z</time></trkpt><trkpt lat="45.6985106785" lon="6.9031715859"><ele>2045.34</ele><time>2014-09-05T12:38:11Z</time></trkpt><trkpt lat="45.6985005364" lon="6.9031545706"><ele>2045.82</ele><time>2014-09-05T12:38:12Z</time></trkpt><trkpt lat="45.6984874606" lon="6.9031406567"><ele>2045.82</ele><time>2014-09-05T12:38:13Z</time></trkpt><trkpt lat="45.6984763127" lon="6.9031226356"><ele>2045.82</ele><time>2014-09-05T12:38:14Z</time></trkpt><trkpt lat="45.6984647457" lon="6.9031044468"><ele>2045.82</ele><time>2014-09-05T12:38:15Z</time></trkpt><trkpt lat="45.6984550226" lon="6.9030839112"><ele>2046.30</ele><time>2014-09-05T12:38:16Z</time></trkpt><trkpt lat="45.6983745564" lon="6.9028822426"><ele>2047.75</ele><time>2014-09-05T12:38:26Z</time></trkpt><trkpt lat="45.6983653363" lon="6.9028621260"><ele>2047.75</ele><time>2014-09-05T12:38:27Z</time></trkpt><trkpt lat="45.6983437110" lon="6.9028070569"><ele>2048.23</ele><time>2014-09-05T12:38:30Z</time></trkpt><trkpt lat="45.6983407773" lon="6.9027853478"><ele>2047.75</ele><time>2014-09-05T12:38:31Z</time></trkpt><trkpt lat="45.6983307190" lon="6.9027677458"><ele>2047.75</ele><time>2014-09-05T12:38:32Z</time></trkpt><trkpt lat="45.6983197387" lon="6.9027510658"><ele>2048.23</ele><time>2014-09-05T12:38:33Z</time></trkpt><trkpt lat="45.6983146258" lon="6.9027289376"><ele>2048.23</ele><time>2014-09-05T12:38:34Z</time></trkpt><trkpt lat="45.6983100157" lon="6.9027042110"><ele>2048.23</ele><time>2014-09-05T12:38:35Z</time></trkpt><trkpt lat="45.6982712075" lon="6.9024851080"><ele>2049.19</ele><time>2014-09-05T12:38:46Z</time></trkpt><trkpt lat="45.6982676033" lon="6.9024711102"><ele>2049.19</ele><time>2014-09-05T12:38:47Z</time></trkpt><trkpt lat="45.6982665975" lon="6.9024488144"><ele>2048.71</ele><time>2014-09-05T12:38:48Z</time></trkpt><trkpt lat="45.6981514301" lon="6.9021907356"><ele>2051.11</ele><time>2014-09-05T12:39:04Z</time></trkpt><trkpt lat="45.6979632564" lon="6.9019861333"><ele>2053.51</ele><time>2014-09-05T12:39:20Z</time></trkpt><trkpt lat="45.6979148928" lon="6.9019391946"><ele>2053.51</ele><time>2014-09-05T12:39:24Z</time></trkpt><trkpt lat="45.6979002245" lon="6.9019303098"><ele>2053.51</ele><time>2014-09-05T12:39:25Z</time></trkpt><trkpt lat="45.6978906691" lon="6.9019178208"><ele>2053.51</ele><time>2014-09-05T12:39:26Z</time></trkpt><trkpt lat="45.6978799403" lon="6.9019010570"><ele>2053.99</ele><time>2014-09-05T12:39:27Z</time></trkpt><trkpt lat="45.6978701334" lon="6.9018898252"><ele>2053.99</ele><time>2014-09-05T12:39:28Z</time></trkpt><trkpt lat="45.6976914313" lon="6.9016904198"><ele>2055.44</ele><time>2014-09-05T12:39:43Z</time></trkpt><trkpt lat="45.6976688001" lon="6.9016643520"><ele>2055.44</ele><time>2014-09-05T12:39:45Z</time></trkpt><trkpt lat="45.6976573169" lon="6.9016549643"><ele>2055.44</ele><time>2014-09-05T12:39:46Z</time></trkpt><trkpt lat="45.6976490188" lon="6.9016389549"><ele>2055.44</ele><time>2014-09-05T12:39:47Z</time></trkpt><trkpt lat="45.6976362783" lon="6.9016283937"><ele>2055.92</ele><time>2014-09-05T12:39:48Z</time></trkpt><trkpt lat="45.6976231188" lon="6.9016197603"><ele>2055.92</ele><time>2014-09-05T12:39:49Z</time></trkpt><trkpt lat="45.6976118032" lon="6.9016117975"><ele>2056.40</ele><time>2014-09-05T12:39:50Z</time></trkpt><trkpt lat="45.6975678820" lon="6.9015676249"><ele>2056.40</ele><time>2014-09-05T12:39:54Z</time></trkpt><trkpt lat="45.6975592487" lon="6.9015525375"><ele>2056.40</ele><time>2014-09-05T12:39:55Z</time></trkpt><trkpt lat="45.6973704044" lon="6.9012849871"><ele>2057.36</ele><time>2014-09-05T12:40:13Z</time></trkpt><trkpt lat="45.6973184366" lon="6.9012072030"><ele>2058.32</ele><time>2014-09-05T12:40:18Z</time></trkpt><trkpt lat="45.6973099709" lon="6.9011884276"><ele>2058.32</ele><time>2014-09-05T12:40:19Z</time></trkpt><trkpt lat="45.6973024271" lon="6.9011736754"><ele>2058.32</ele><time>2014-09-05T12:40:20Z</time></trkpt><trkpt lat="45.6972923689" lon="6.9011572469"><ele>2058.80</ele><time>2014-09-05T12:40:21Z</time></trkpt><trkpt lat="45.6972815562" lon="6.9011438359"><ele>2058.80</ele><time>2014-09-05T12:40:22Z</time></trkpt><trkpt lat="45.6972731743" lon="6.9011285808"><ele>2058.80</ele><time>2014-09-05T12:40:23Z</time></trkpt><trkpt lat="45.6972646248" lon="6.9011151697"><ele>2058.80</ele><time>2014-09-05T12:40:24Z</time></trkpt><trkpt lat="45.6972523034" lon="6.9011081289"><ele>2058.80</ele><time>2014-09-05T12:40:25Z</time></trkpt><trkpt lat="45.6972414907" lon="6.9010981545"><ele>2058.80</ele><time>2014-09-05T12:40:26Z</time></trkpt><trkpt lat="45.6972315162" lon="6.9010886829"><ele>2058.80</ele><time>2014-09-05T12:40:27Z</time></trkpt><trkpt lat="45.6972221285" lon="6.9010695722"><ele>2058.80</ele><time>2014-09-05T12:40:28Z</time></trkpt><trkpt lat="45.6972155906" lon="6.9010479469"><ele>2059.28</ele><time>2014-09-05T12:40:29Z</time></trkpt><trkpt lat="45.6972086336" lon="6.9010310154"><ele>2059.28</ele><time>2014-09-05T12:40:30Z</time></trkpt><trkpt lat="45.6972027663" lon="6.9010144193"><ele>2058.80</ele><time>2014-09-05T12:40:31Z</time></trkpt><trkpt lat="45.6971969828" lon="6.9009993318"><ele>2058.80</ele><time>2014-09-05T12:40:32Z</time></trkpt><trkpt lat="45.6971874274" lon="6.9009865075"><ele>2058.80</ele><time>2014-09-05T12:40:33Z</time></trkpt><trkpt lat="45.6971763633" lon="6.9009681512"><ele>2058.80</ele><time>2014-09-05T12:40:34Z</time></trkpt><trkpt lat="45.6971664727" lon="6.9009431731"><ele>2058.80</ele><time>2014-09-05T12:40:35Z</time></trkpt><trkpt lat="45.6971537322" lon="6.9009178597"><ele>2058.80</ele><time>2014-09-05T12:40:36Z</time></trkpt><trkpt lat="45.6971392315" lon="6.9008960668"><ele>2058.80</ele><time>2014-09-05T12:40:37Z</time></trkpt><trkpt lat="45.6971243955" lon="6.9008724298"><ele>2058.80</ele><time>2014-09-05T12:40:38Z</time></trkpt><trkpt lat="45.6971114874" lon="6.9008487929"><ele>2058.80</ele><time>2014-09-05T12:40:39Z</time></trkpt><trkpt lat="45.6970942207" lon="6.9008301012"><ele>2058.80</ele><time>2014-09-05T12:40:40Z</time></trkpt><trkpt lat="45.6970787141" lon="6.9008050393"><ele>2058.80</ele><time>2014-09-05T12:40:41Z</time></trkpt><trkpt lat="45.6970643811" lon="6.9007780496"><ele>2058.80</ele><time>2014-09-05T12:40:42Z</time></trkpt><trkpt lat="45.6970507186" lon="6.9007505570"><ele>2058.32</ele><time>2014-09-05T12:40:43Z</time></trkpt><trkpt lat="45.6967919692" lon="6.9003253430"><ele>2058.32</ele><time>2014-09-05T12:41:00Z</time></trkpt><trkpt lat="45.6965431105" lon="6.8999168929"><ele>2058.80</ele><time>2014-09-05T12:41:18Z</time></trkpt><trkpt lat="45.6964595430" lon="6.8997944333"><ele>2058.32</ele><time>2014-09-05T12:41:24Z</time></trkpt><trkpt lat="45.6964452937" lon="6.8997749873"><ele>2058.32</ele><time>2014-09-05T12:41:25Z</time></trkpt><trkpt lat="45.6962567009" lon="6.8994751666"><ele>2058.80</ele><time>2014-09-05T12:41:40Z</time></trkpt><trkpt lat="45.6960537750" lon="6.8992655352"><ele>2058.80</ele><time>2014-09-05T12:41:55Z</time></trkpt><trkpt lat="45.6959992088" lon="6.8992169201"><ele>2059.76</ele><time>2014-09-05T12:41:59Z</time></trkpt><trkpt lat="45.6957708020" lon="6.8990525510"><ele>2059.28</ele><time>2014-09-05T12:42:14Z</time></trkpt><trkpt lat="45.6954937801" lon="6.8989125732"><ele>2059.28</ele><time>2014-09-05T12:42:30Z</time></trkpt><trkpt lat="45.6952798739" lon="6.8987167720"><ele>2060.72</ele><time>2014-09-05T12:42:44Z</time></trkpt><trkpt lat="45.6950684823" lon="6.8982868642"><ele>2062.65</ele><time>2014-09-05T12:43:03Z</time></trkpt><trkpt lat="45.6949953921" lon="6.8979347404"><ele>2063.61</ele><time>2014-09-05T12:43:19Z</time></trkpt><trkpt lat="45.6950010918" lon="6.8979198206"><ele>2063.61</ele><time>2014-09-05T12:43:20Z</time></trkpt><trkpt lat="45.6949889380" lon="6.8978768215"><ele>2062.65</ele><time>2014-09-05T12:43:32Z</time></trkpt><trkpt lat="45.6949831545" lon="6.8978567049"><ele>2067.45</ele><time>2014-09-05T12:44:13Z</time></trkpt><trkpt lat="45.6949762814" lon="6.8978525978"><ele>2067.45</ele><time>2014-09-05T12:44:18Z</time></trkpt><trkpt lat="45.6949009281" lon="6.8976474088"><ele>2069.38</ele><time>2014-09-05T12:44:30Z</time></trkpt><trkpt lat="45.6948109064" lon="6.8972419761"><ele>2069.38</ele><time>2014-09-05T12:44:44Z</time></trkpt><trkpt lat="45.6946786400" lon="6.8968548160"><ele>2070.82</ele><time>2014-09-05T12:44:59Z</time></trkpt><trkpt lat="45.6944645662" lon="6.8964721821"><ele>2070.82</ele><time>2014-09-05T12:45:16Z</time></trkpt><trkpt lat="45.6943157874" lon="6.8960793223"><ele>2071.78</ele><time>2014-09-05T12:45:32Z</time></trkpt><trkpt lat="45.6942696031" lon="6.8959157076"><ele>2072.74</ele><time>2014-09-05T12:45:39Z</time></trkpt><trkpt lat="45.6942615565" lon="6.8958669249"><ele>2071.30</ele><time>2014-09-05T12:45:49Z</time></trkpt><trkpt lat="45.6942564435" lon="6.8958553579"><ele>2068.41</ele><time>2014-09-05T12:46:25Z</time></trkpt><trkpt lat="45.6942503247" lon="6.8958751392"><ele>2068.89</ele><time>2014-09-05T12:47:04Z</time></trkpt><trkpt lat="45.6942566950" lon="6.8958593812"><ele>2068.41</ele><time>2014-09-05T12:47:38Z</time></trkpt><trkpt lat="45.6942479778" lon="6.8958384264"><ele>2069.86</ele><time>2014-09-05T12:47:54Z</time></trkpt><trkpt lat="45.6942363270" lon="6.8958136160"><ele>2070.34</ele><time>2014-09-05T12:47:56Z</time></trkpt><trkpt lat="45.6941991951" lon="6.8957354967"><ele>2072.26</ele><time>2014-09-05T12:48:06Z</time></trkpt><trkpt lat="45.6940353289" lon="6.8953431398"><ele>2074.18</ele><time>2014-09-05T12:48:21Z</time></trkpt><trkpt lat="45.6939807627" lon="6.8948517926"><ele>2075.14</ele><time>2014-09-05T12:48:37Z</time></trkpt><trkpt lat="45.6939634122" lon="6.8942992575"><ele>2076.59</ele><time>2014-09-05T12:48:55Z</time></trkpt><trkpt lat="45.6937909126" lon="6.8938695174"><ele>2079.47</ele><time>2014-09-05T12:49:12Z</time></trkpt><trkpt lat="45.6936470792" lon="6.8935177289"><ele>2080.43</ele><time>2014-09-05T12:49:28Z</time></trkpt><trkpt lat="45.6935253739" lon="6.8932041619"><ele>2081.39</ele><time>2014-09-05T12:49:42Z</time></trkpt><trkpt lat="45.6935178302" lon="6.8931832071"><ele>2081.39</ele><time>2014-09-05T12:49:43Z</time></trkpt><trkpt lat="45.6935157347" lon="6.8928449135"><ele>2081.87</ele><time>2014-09-05T12:49:57Z</time></trkpt><trkpt lat="45.6935205963" lon="6.8925740942"><ele>2081.39</ele><time>2014-09-05T12:50:08Z</time></trkpt><trkpt lat="45.6935276370" lon="6.8922401592"><ele>2083.31</ele><time>2014-09-05T12:50:22Z</time></trkpt><trkpt lat="45.6935045868" lon="6.8919395003"><ele>2084.76</ele><time>2014-09-05T12:50:35Z</time></trkpt><trkpt lat="45.6934948638" lon="6.8919205572"><ele>2084.76</ele><time>2014-09-05T12:50:36Z</time></trkpt><trkpt lat="45.6934864819" lon="6.8918998539"><ele>2084.76</ele><time>2014-09-05T12:50:37Z</time></trkpt><trkpt lat="45.6932981405" lon="6.8917473033"><ele>2086.20</ele><time>2014-09-05T12:50:52Z</time></trkpt><trkpt lat="45.6932875793" lon="6.8917302042"><ele>2086.68</ele><time>2014-09-05T12:50:53Z</time></trkpt><trkpt lat="45.6932165846" lon="6.8915864546"><ele>2087.64</ele><time>2014-09-05T12:51:01Z</time></trkpt><trkpt lat="45.6932164170" lon="6.8915655836"><ele>2087.64</ele><time>2014-09-05T12:51:02Z</time></trkpt><trkpt lat="45.6932111364" lon="6.8915474787"><ele>2087.64</ele><time>2014-09-05T12:51:03Z</time></trkpt><trkpt lat="45.6931505352" lon="6.8913763203"><ele>2089.08</ele><time>2014-09-05T12:51:12Z</time></trkpt><trkpt lat="45.6931445003" lon="6.8913582992"><ele>2089.08</ele><time>2014-09-05T12:51:13Z</time></trkpt><trkpt lat="45.6931366213" lon="6.8913386017"><ele>2089.08</ele><time>2014-09-05T12:51:14Z</time></trkpt><trkpt lat="45.6930932030" lon="6.8912552018"><ele>2090.04</ele><time>2014-09-05T12:51:20Z</time></trkpt><trkpt lat="45.6930866651" lon="6.8912453949"><ele>2090.52</ele><time>2014-09-05T12:51:21Z</time></trkpt><trkpt lat="45.6930792052" lon="6.8912282959"><ele>2090.52</ele><time>2014-09-05T12:51:22Z</time></trkpt><trkpt lat="45.6929300074" lon="6.8909248710"><ele>2091.97</ele><time>2014-09-05T12:51:39Z</time></trkpt><trkpt lat="45.6928635389" lon="6.8908414710"><ele>2092.45</ele><time>2014-09-05T12:51:46Z</time></trkpt><trkpt lat="45.6928516366" lon="6.8908323348"><ele>2092.45</ele><time>2014-09-05T12:51:47Z</time></trkpt><trkpt lat="45.6926804781" lon="6.8906329293"><ele>2094.37</ele><time>2014-09-05T12:52:02Z</time></trkpt><trkpt lat="45.6925136782" lon="6.8904642854"><ele>2095.81</ele><time>2014-09-05T12:52:17Z</time></trkpt><trkpt lat="45.6923162844" lon="6.8903533090"><ele>2097.25</ele><time>2014-09-05T12:52:32Z</time></trkpt><trkpt lat="45.6922934856" lon="6.8903420772"><ele>2097.25</ele><time>2014-09-05T12:52:34Z</time></trkpt><trkpt lat="45.6922824215" lon="6.8903311808"><ele>2097.25</ele><time>2014-09-05T12:52:35Z</time></trkpt><trkpt lat="45.6922692619" lon="6.8903231341"><ele>2097.25</ele><time>2014-09-05T12:52:36Z</time></trkpt><trkpt lat="45.6922569405" lon="6.8903186079"><ele>2097.25</ele><time>2014-09-05T12:52:37Z</time></trkpt><trkpt lat="45.6922431942" lon="6.8903127406"><ele>2097.73</ele><time>2014-09-05T12:52:38Z</time></trkpt><trkpt lat="45.6922308728" lon="6.8903034367"><ele>2097.73</ele><time>2014-09-05T12:52:39Z</time></trkpt><trkpt lat="45.6921337266" lon="6.8902471103"><ele>2098.70</ele><time>2014-09-05T12:52:47Z</time></trkpt><trkpt lat="45.6921216566" lon="6.8902361300"><ele>2098.70</ele><time>2014-09-05T12:52:48Z</time></trkpt><trkpt lat="45.6921085808" lon="6.8902277481"><ele>2098.70</ele><time>2014-09-05T12:52:49Z</time></trkpt><trkpt lat="45.6919566169" lon="6.8901346251"><ele>2100.62</ele><time>2014-09-05T12:53:01Z</time></trkpt><trkpt lat="45.6919432897" lon="6.8901274167"><ele>2100.62</ele><time>2014-09-05T12:53:02Z</time></trkpt><trkpt lat="45.6919294596" lon="6.8901219685"><ele>2100.62</ele><time>2014-09-05T12:53:03Z</time></trkpt><trkpt lat="45.6919155456" lon="6.8901205435"><ele>2101.10</ele><time>2014-09-05T12:53:04Z</time></trkpt><trkpt lat="45.6919017155" lon="6.8901221361"><ele>2101.10</ele><time>2014-09-05T12:53:05Z</time></trkpt><trkpt lat="45.6918869633" lon="6.8901185319"><ele>2101.10</ele><time>2014-09-05T12:53:06Z</time></trkpt><trkpt lat="45.6918740552" lon="6.8901150115"><ele>2101.58</ele><time>2014-09-05T12:53:07Z</time></trkpt><trkpt lat="45.6918618176" lon="6.8901140895"><ele>2101.58</ele><time>2014-09-05T12:53:08Z</time></trkpt><trkpt lat="45.6918499991" lon="6.8901081383"><ele>2101.10</ele><time>2014-09-05T12:53:09Z</time></trkpt><trkpt lat="45.6918380968" lon="6.8901110720"><ele>2101.10</ele><time>2014-09-05T12:53:10Z</time></trkpt><trkpt lat="45.6918247696" lon="6.8901155144"><ele>2101.58</ele><time>2014-09-05T12:53:11Z</time></trkpt><trkpt lat="45.6918101851" lon="6.8901150115"><ele>2101.58</ele><time>2014-09-05T12:53:12Z</time></trkpt><trkpt lat="45.6917955168" lon="6.8901135027"><ele>2102.06</ele><time>2014-09-05T12:53:13Z</time></trkpt><trkpt lat="45.6917825248" lon="6.8901145086"><ele>2102.06</ele><time>2014-09-05T12:53:14Z</time></trkpt><trkpt lat="45.6917712931" lon="6.8901164364"><ele>2102.06</ele><time>2014-09-05T12:53:15Z</time></trkpt><trkpt lat="45.6917616539" lon="6.8901221361"><ele>2102.06</ele><time>2014-09-05T12:53:16Z</time></trkpt><trkpt lat="45.6917504221" lon="6.8901228905"><ele>2102.54</ele><time>2014-09-05T12:53:17Z</time></trkpt><trkpt lat="45.6917382684" lon="6.8901215494"><ele>2102.54</ele><time>2014-09-05T12:53:18Z</time></trkpt><trkpt lat="45.6917254440" lon="6.8901236448"><ele>2102.54</ele><time>2014-09-05T12:53:19Z</time></trkpt><trkpt lat="45.6917148829" lon="6.8901308533"><ele>2102.54</ele><time>2014-09-05T12:53:20Z</time></trkpt><trkpt lat="45.6917053275" lon="6.8901399057"><ele>2102.54</ele><time>2014-09-05T12:53:21Z</time></trkpt><trkpt lat="45.6916921679" lon="6.8901486229"><ele>2102.54</ele><time>2014-09-05T12:53:22Z</time></trkpt><trkpt lat="45.6916781701" lon="6.8901596032"><ele>2103.02</ele><time>2014-09-05T12:53:23Z</time></trkpt><trkpt lat="45.6916628312" lon="6.8901674822"><ele>2103.02</ele><time>2014-09-05T12:53:24Z</time></trkpt><trkpt lat="45.6916508451" lon="6.8901799712"><ele>2103.50</ele><time>2014-09-05T12:53:25Z</time></trkpt><trkpt lat="45.6916453131" lon="6.8902057875"><ele>2103.02</ele><time>2014-09-05T12:53:26Z</time></trkpt><trkpt lat="45.6916365959" lon="6.8902250659"><ele>2103.50</ele><time>2014-09-05T12:53:27Z</time></trkpt><trkpt lat="45.6916288007" lon="6.8902471103"><ele>2103.50</ele><time>2014-09-05T12:53:28Z</time></trkpt><trkpt lat="45.6916268729" lon="6.8902744353"><ele>2103.50</ele><time>2014-09-05T12:53:29Z</time></trkpt><trkpt lat="45.6916227657" lon="6.8902992457"><ele>2103.50</ele><time>2014-09-05T12:53:30Z</time></trkpt><trkpt lat="45.6916185748" lon="6.8903264869"><ele>2103.98</ele><time>2014-09-05T12:53:31Z</time></trkpt><trkpt lat="45.6916158926" lon="6.8903521355"><ele>2103.98</ele><time>2014-09-05T12:53:32Z</time></trkpt><trkpt lat="45.6916140486" lon="6.8903754372"><ele>2103.98</ele><time>2014-09-05T12:53:33Z</time></trkpt><trkpt lat="45.6916122884" lon="6.8903958052"><ele>2103.98</ele><time>2014-09-05T12:53:34Z</time></trkpt><trkpt lat="45.6916139647" lon="6.8904156704"><ele>2104.46</ele><time>2014-09-05T12:53:35Z</time></trkpt><trkpt lat="45.6916175690" lon="6.8904357031"><ele>2104.46</ele><time>2014-09-05T12:53:36Z</time></trkpt><trkpt lat="45.6916424632" lon="6.8907089531"><ele>2106.39</ele><time>2014-09-05T12:53:49Z</time></trkpt><trkpt lat="45.6916268729" lon="6.8907166645"><ele>2106.39</ele><time>2014-09-05T12:53:50Z</time></trkpt><trkpt lat="45.6916075945" lon="6.8907140661"><ele>2106.87</ele><time>2014-09-05T12:53:51Z</time></trkpt><trkpt lat="45.6915972847" lon="6.8907012418"><ele>2107.35</ele><time>2014-09-05T12:53:52Z</time></trkpt><trkpt lat="45.6915904116" lon="6.8906833045"><ele>2107.35</ele><time>2014-09-05T12:53:53Z</time></trkpt><trkpt lat="45.6915816944" lon="6.8906659540"><ele>2107.35</ele><time>2014-09-05T12:53:54Z</time></trkpt><trkpt lat="45.6915760785" lon="6.8906478491"><ele>2107.35</ele><time>2014-09-05T12:53:55Z</time></trkpt><trkpt lat="45.6915707141" lon="6.8906306662"><ele>2107.83</ele><time>2014-09-05T12:53:56Z</time></trkpt><trkpt lat="45.6915662717" lon="6.8906133156"><ele>2107.83</ele><time>2014-09-05T12:53:57Z</time></trkpt><trkpt lat="45.6915601529" lon="6.8905974738"><ele>2108.31</ele><time>2014-09-05T12:53:58Z</time></trkpt><trkpt lat="45.6915528607" lon="6.8905821349"><ele>2108.79</ele><time>2014-09-05T12:53:59Z</time></trkpt><trkpt lat="45.6914319936" lon="6.8903565779"><ele>2109.75</ele><time>2014-09-05T12:54:14Z</time></trkpt><trkpt lat="45.6913380325" lon="6.8901036959"><ele>2110.71</ele><time>2014-09-05T12:54:28Z</time></trkpt><trkpt lat="45.6913311593" lon="6.8900850043"><ele>2110.71</ele><time>2014-09-05T12:54:29Z</time></trkpt><trkpt lat="45.6912736595" lon="6.8898571841"><ele>2112.63</ele><time>2014-09-05T12:54:42Z</time></trkpt><trkpt lat="45.6912673730" lon="6.8898415100"><ele>2112.63</ele><time>2014-09-05T12:54:43Z</time></trkpt><trkpt lat="45.6912512798" lon="6.8897925597"><ele>2113.12</ele><time>2014-09-05T12:54:46Z</time></trkpt><trkpt lat="45.6912470888" lon="6.8897747900"><ele>2113.12</ele><time>2014-09-05T12:54:47Z</time></trkpt><trkpt lat="45.6912405510" lon="6.8897366524"><ele>2113.60</ele><time>2014-09-05T12:54:49Z</time></trkpt><trkpt lat="45.6912340969" lon="6.8897154462"><ele>2113.60</ele><time>2014-09-05T12:54:50Z</time></trkpt><trkpt lat="45.6912280619" lon="6.8896944076"><ele>2113.60</ele><time>2014-09-05T12:54:51Z</time></trkpt><trkpt lat="45.6912232004" lon="6.8896778952"><ele>2114.08</ele><time>2014-09-05T12:54:52Z</time></trkpt><trkpt lat="45.6912198476" lon="6.8896597065"><ele>2114.08</ele><time>2014-09-05T12:54:53Z</time></trkpt><trkpt lat="45.6912164111" lon="6.8896430265"><ele>2114.08</ele><time>2014-09-05T12:54:54Z</time></trkpt><trkpt lat="45.6912109628" lon="6.8896260951"><ele>2114.56</ele><time>2014-09-05T12:54:55Z</time></trkpt><trkpt lat="45.6912023295" lon="6.8896131869"><ele>2114.56</ele><time>2014-09-05T12:54:56Z</time></trkpt><trkpt lat="45.6911964621" lon="6.8895959202"><ele>2114.56</ele><time>2014-09-05T12:54:57Z</time></trkpt><trkpt lat="45.6911960430" lon="6.8895540945"><ele>2116.48</ele><time>2014-09-05T12:55:09Z</time></trkpt><trkpt lat="45.6911916845" lon="6.8895587046"><ele>2116.96</ele><time>2014-09-05T12:55:42Z</time></trkpt><trkpt lat="45.6911594979" lon="6.8894632347"><ele>2116.48</ele><time>2014-09-05T12:56:05Z</time></trkpt><trkpt lat="45.6911513675" lon="6.8894401006"><ele>2116.00</ele><time>2014-09-05T12:56:06Z</time></trkpt><trkpt lat="45.6911403872" lon="6.8894275278"><ele>2116.00</ele><time>2014-09-05T12:56:07Z</time></trkpt><trkpt lat="45.6911303289" lon="6.8894090038"><ele>2116.00</ele><time>2014-09-05T12:56:08Z</time></trkpt><trkpt lat="45.6911200192" lon="6.8893922400"><ele>2116.00</ele><time>2014-09-05T12:56:09Z</time></trkpt><trkpt lat="45.6911103800" lon="6.8893748894"><ele>2116.00</ele><time>2014-09-05T12:56:10Z</time></trkpt><trkpt lat="45.6911039259" lon="6.8893520068"><ele>2116.48</ele><time>2014-09-05T12:56:11Z</time></trkpt><trkpt lat="45.6910957955" lon="6.8893314712"><ele>2116.48</ele><time>2014-09-05T12:56:12Z</time></trkpt><trkpt lat="45.6910843961" lon="6.8893178925"><ele>2116.48</ele><time>2014-09-05T12:56:13Z</time></trkpt><trkpt lat="45.6910729129" lon="6.8893042300"><ele>2116.48</ele><time>2014-09-05T12:56:14Z</time></trkpt><trkpt lat="45.6909336895" lon="6.8891526852"><ele>2117.44</ele><time>2014-09-05T12:56:26Z</time></trkpt><trkpt lat="45.6909247208" lon="6.8891396932"><ele>2117.44</ele><time>2014-09-05T12:56:27Z</time></trkpt><trkpt lat="45.6909152493" lon="6.8891278747"><ele>2117.44</ele><time>2014-09-05T12:56:28Z</time></trkpt><trkpt lat="45.6909041014" lon="6.8891168945"><ele>2117.92</ele><time>2014-09-05T12:56:29Z</time></trkpt><trkpt lat="45.6908921991" lon="6.8891110271"><ele>2117.92</ele><time>2014-09-05T12:56:30Z</time></trkpt><trkpt lat="45.6908810511" lon="6.8891061656"><ele>2118.40</ele><time>2014-09-05T12:56:31Z</time></trkpt><trkpt lat="45.6908724178" lon="6.8891015556"><ele>2118.40</ele><time>2014-09-05T12:56:32Z</time></trkpt><trkpt lat="45.6908475235" lon="6.8890945986"><ele>2118.40</ele><time>2014-09-05T12:56:35Z</time></trkpt><trkpt lat="45.6908378843" lon="6.8890914135"><ele>2118.88</ele><time>2014-09-05T12:56:36Z</time></trkpt><trkpt lat="45.6908143312" lon="6.8890823610"><ele>2119.84</ele><time>2014-09-05T12:56:46Z</time></trkpt><trkpt lat="45.6908125710" lon="6.8890850432"><ele>2118.88</ele><time>2014-09-05T12:57:28Z</time></trkpt><trkpt lat="45.6908314303" lon="6.8890710454"><ele>2120.32</ele><time>2014-09-05T12:58:03Z</time></trkpt><trkpt lat="45.6908157561" lon="6.8890576344"><ele>2118.88</ele><time>2014-09-05T12:58:46Z</time></trkpt><trkpt lat="45.6908114813" lon="6.8890790921"><ele>2118.88</ele><time>2014-09-05T12:59:26Z</time></trkpt><trkpt lat="45.6908215396" lon="6.8890686147"><ele>2121.29</ele><time>2014-09-05T13:00:09Z</time></trkpt><trkpt lat="45.6908286642" lon="6.8890615739"><ele>2119.36</ele><time>2014-09-05T13:00:44Z</time></trkpt><trkpt lat="45.6908105593" lon="6.8890905753"><ele>2120.81</ele><time>2014-09-05T13:01:23Z</time></trkpt><trkpt lat="45.6907994952" lon="6.8890686985"><ele>2119.84</ele><time>2014-09-05T13:01:56Z</time></trkpt><trkpt lat="45.6908050273" lon="6.8890922517"><ele>2120.81</ele><time>2014-09-05T13:02:38Z</time></trkpt><trkpt lat="45.6908096373" lon="6.8891372625"><ele>2119.84</ele><time>2014-09-05T13:02:57Z</time></trkpt><trkpt lat="45.6908519659" lon="6.8894368317"><ele>2120.32</ele><time>2014-09-05T13:03:09Z</time></trkpt><trkpt lat="45.6908689812" lon="6.8895729538"><ele>2120.81</ele><time>2014-09-05T13:03:16Z</time></trkpt><trkpt lat="45.6908739265" lon="6.8895960040"><ele>2120.81</ele><time>2014-09-05T13:03:17Z</time></trkpt><trkpt lat="45.6908721663" lon="6.8896211497"><ele>2120.81</ele><time>2014-09-05T13:03:18Z</time></trkpt><trkpt lat="45.6908691488" lon="6.8896447029"><ele>2121.29</ele><time>2014-09-05T13:03:19Z</time></trkpt><trkpt lat="45.6908684783" lon="6.8896669149"><ele>2121.77</ele><time>2014-09-05T13:03:20Z</time></trkpt><trkpt lat="45.6908712443" lon="6.8896909710"><ele>2121.77</ele><time>2014-09-05T13:03:21Z</time></trkpt><trkpt lat="45.6909148302" lon="6.8899520673"><ele>2122.25</ele><time>2014-09-05T13:03:32Z</time></trkpt><trkpt lat="45.6909129862" lon="6.8899740279"><ele>2122.73</ele><time>2014-09-05T13:03:33Z</time></trkpt><trkpt lat="45.6909133215" lon="6.8899960723"><ele>2123.21</ele><time>2014-09-05T13:03:34Z</time></trkpt><trkpt lat="45.6909153331" lon="6.8900167756"><ele>2123.21</ele><time>2014-09-05T13:03:35Z</time></trkpt><trkpt lat="45.6909164228" lon="6.8900389038"><ele>2123.69</ele><time>2014-09-05T13:03:36Z</time></trkpt><trkpt lat="45.6909169257" lon="6.8900616188"><ele>2123.69</ele><time>2014-09-05T13:03:37Z</time></trkpt><trkpt lat="45.6909186859" lon="6.8900841661"><ele>2123.69</ele><time>2014-09-05T13:03:38Z</time></trkpt><trkpt lat="45.6909186020" lon="6.8901053723"><ele>2124.17</ele><time>2014-09-05T13:03:39Z</time></trkpt><trkpt lat="45.6909107231" lon="6.8901828211"><ele>2124.65</ele><time>2014-09-05T13:03:43Z</time></trkpt><trkpt lat="45.6909028441" lon="6.8901999202"><ele>2125.13</ele><time>2014-09-05T13:03:44Z</time></trkpt><trkpt lat="45.6908973958" lon="6.8902204558"><ele>2125.13</ele><time>2014-09-05T13:03:45Z</time></trkpt><trkpt lat="45.6908932887" lon="6.8902403209"><ele>2125.13</ele><time>2014-09-05T13:03:46Z</time></trkpt><trkpt lat="45.6908900198" lon="6.8902636226"><ele>2125.13</ele><time>2014-09-05T13:03:47Z</time></trkpt><trkpt lat="45.6908871699" lon="6.8903039396"><ele>2125.61</ele><time>2014-09-05T13:03:49Z</time></trkpt><trkpt lat="45.6908904389" lon="6.8903233856"><ele>2126.09</ele><time>2014-09-05T13:03:50Z</time></trkpt><trkpt lat="45.6908960547" lon="6.8903386407"><ele>2125.61</ele><time>2014-09-05T13:03:51Z</time></trkpt><trkpt lat="45.6909024250" lon="6.8903576676"><ele>2125.61</ele><time>2014-09-05T13:03:52Z</time></trkpt><trkpt lat="45.6909095496" lon="6.8903789576"><ele>2125.61</ele><time>2014-09-05T13:03:53Z</time></trkpt><trkpt lat="45.6909149140" lon="6.8904015049"><ele>2125.61</ele><time>2014-09-05T13:03:54Z</time></trkpt><trkpt lat="45.6909533869" lon="6.8905769382"><ele>2126.57</ele><time>2014-09-05T13:04:08Z</time></trkpt><trkpt lat="45.6909674685" lon="6.8905790336"><ele>2128.50</ele><time>2014-09-05T13:04:39Z</time></trkpt><trkpt lat="45.6910041813" lon="6.8906972185"><ele>2128.50</ele><time>2014-09-05T13:04:47Z</time></trkpt><trkpt lat="45.6910260580" lon="6.8907914311"><ele>2129.46</ele><time>2014-09-05T13:04:51Z</time></trkpt><trkpt lat="45.6910341885" lon="6.8908157386"><ele>2129.46</ele><time>2014-09-05T13:04:52Z</time></trkpt><trkpt lat="45.6910703145" lon="6.8909252062"><ele>2129.94</ele><time>2014-09-05T13:04:57Z</time></trkpt><trkpt lat="45.6910732482" lon="6.8909523636"><ele>2130.42</ele><time>2014-09-05T13:04:58Z</time></trkpt><trkpt lat="45.6910773553" lon="6.8909771740"><ele>2130.42</ele><time>2014-09-05T13:04:59Z</time></trkpt><trkpt lat="45.6911544688" lon="6.8913303874"><ele>2131.38</ele><time>2014-09-05T13:05:14Z</time></trkpt><trkpt lat="45.6910346914" lon="6.8915549386"><ele>2133.30</ele><time>2014-09-05T13:05:27Z</time></trkpt><trkpt lat="45.6910102163" lon="6.8915633205"><ele>2133.30</ele><time>2014-09-05T13:05:29Z</time></trkpt><trkpt lat="45.6909948774" lon="6.8915673438"><ele>2133.30</ele><time>2014-09-05T13:05:30Z</time></trkpt><trkpt lat="45.6908854097" lon="6.8915662542"><ele>2134.26</ele><time>2014-09-05T13:05:38Z</time></trkpt><trkpt lat="45.6908725854" lon="6.8915563636"><ele>2134.26</ele><time>2014-09-05T13:05:39Z</time></trkpt><trkpt lat="45.6908591744" lon="6.8915508315"><ele>2134.74</ele><time>2014-09-05T13:05:40Z</time></trkpt><trkpt lat="45.6908203661" lon="6.8915328104"><ele>2135.23</ele><time>2014-09-05T13:05:43Z</time></trkpt><trkpt lat="45.6908095535" lon="6.8915261049"><ele>2135.71</ele><time>2014-09-05T13:05:44Z</time></trkpt><trkpt lat="45.6907994952" lon="6.8915178906"><ele>2135.71</ele><time>2014-09-05T13:05:45Z</time></trkpt><trkpt lat="45.6907788757" lon="6.8914915714"><ele>2135.71</ele><time>2014-09-05T13:05:49Z</time></trkpt><trkpt lat="45.6907936279" lon="6.8914823513"><ele>2134.26</ele><time>2014-09-05T13:06:04Z</time></trkpt><trkpt lat="45.6907937955" lon="6.8914815970"><ele>2133.78</ele><time>2014-09-05T13:06:40Z</time></trkpt><trkpt lat="45.6908092182" lon="6.8914789148"><ele>2136.67</ele><time>2014-09-05T13:07:09Z</time></trkpt><trkpt lat="45.6908142474" lon="6.8914728798"><ele>2136.19</ele><time>2014-09-05T13:07:36Z</time></trkpt><trkpt lat="45.6908016745" lon="6.8914841954"><ele>2135.71</ele><time>2014-09-05T13:08:14Z</time></trkpt><trkpt lat="45.6908084638" lon="6.8914914876"><ele>2136.67</ele><time>2014-09-05T13:08:46Z</time></trkpt><trkpt lat="45.6907996628" lon="6.8914805911"><ele>2136.19</ele><time>2014-09-05T13:09:12Z</time></trkpt><trkpt lat="45.6908087991" lon="6.8914723769"><ele>2139.07</ele><time>2014-09-05T13:09:45Z</time></trkpt><trkpt lat="45.6907814741" lon="6.8914762326"><ele>2137.15</ele><time>2014-09-05T13:10:08Z</time></trkpt><trkpt lat="45.6907015946" lon="6.8914593011"><ele>2136.19</ele><time>2014-09-05T13:10:19Z</time></trkpt><trkpt lat="45.6906897761" lon="6.8914521765"><ele>2136.19</ele><time>2014-09-05T13:10:20Z</time></trkpt><trkpt lat="45.6906210445" lon="6.8913909048"><ele>2137.15</ele><time>2014-09-05T13:10:28Z</time></trkpt><trkpt lat="45.6904357206" lon="6.8912327383"><ele>2138.11</ele><time>2014-09-05T13:10:41Z</time></trkpt><trkpt lat="45.6903933920" lon="6.8911753222"><ele>2139.07</ele><time>2014-09-05T13:10:45Z</time></trkpt><trkpt lat="45.6903884467" lon="6.8911529426"><ele>2139.07</ele><time>2014-09-05T13:10:46Z</time></trkpt><trkpt lat="45.6903846748" lon="6.8911278807"><ele>2139.07</ele><time>2014-09-05T13:10:47Z</time></trkpt><trkpt lat="45.6903772987" lon="6.8911077641"><ele>2139.07</ele><time>2014-09-05T13:10:48Z</time></trkpt><trkpt lat="45.6903733592" lon="6.8910865579"><ele>2139.07</ele><time>2014-09-05T13:10:49Z</time></trkpt><trkpt lat="45.6903705932" lon="6.8910637591"><ele>2139.07</ele><time>2014-09-05T13:10:50Z</time></trkpt><trkpt lat="45.6903601158" lon="6.8908705562"><ele>2139.55</ele><time>2014-09-05T13:10:59Z</time></trkpt><trkpt lat="45.6903561763" lon="6.8908508588"><ele>2139.55</ele><time>2014-09-05T13:11:00Z</time></trkpt><trkpt lat="45.6903555896" lon="6.8908289820"><ele>2140.03</ele><time>2014-09-05T13:11:01Z</time></trkpt><trkpt lat="45.6903362274" lon="6.8904828094"><ele>2141.95</ele><time>2014-09-05T13:11:17Z</time></trkpt><trkpt lat="45.6903256662" lon="6.8903336115"><ele>2142.44</ele><time>2014-09-05T13:11:24Z</time></trkpt><trkpt lat="45.6903249957" lon="6.8903105613"><ele>2142.44</ele><time>2014-09-05T13:11:25Z</time></trkpt><trkpt lat="45.6902731117" lon="6.8899629638"><ele>2144.36</ele><time>2014-09-05T13:11:42Z</time></trkpt><trkpt lat="45.6901856884" lon="6.8897363171"><ele>2145.80</ele><time>2014-09-05T13:11:54Z</time></trkpt><trkpt lat="45.6901751272" lon="6.8897286057"><ele>2146.28</ele><time>2014-09-05T13:11:55Z</time></trkpt><trkpt lat="45.6901065633" lon="6.8896570243"><ele>2146.76</ele><time>2014-09-05T13:12:00Z</time></trkpt><trkpt lat="45.6900890451" lon="6.8896493129"><ele>2146.76</ele><time>2014-09-05T13:12:01Z</time></trkpt><trkpt lat="45.6900372449" lon="6.8896168750"><ele>2147.24</ele><time>2014-09-05T13:12:04Z</time></trkpt><trkpt lat="45.6900240015" lon="6.8895991053"><ele>2147.24</ele><time>2014-09-05T13:12:05Z</time></trkpt><trkpt lat="45.6900096685" lon="6.8895830121"><ele>2147.24</ele><time>2014-09-05T13:12:06Z</time></trkpt><trkpt lat="45.6899971794" lon="6.8895706069"><ele>2147.24</ele><time>2014-09-05T13:12:07Z</time></trkpt><trkpt lat="45.6899825111" lon="6.8895590398"><ele>2147.72</ele><time>2014-09-05T13:12:08Z</time></trkpt><trkpt lat="45.6899693515" lon="6.8895460479"><ele>2147.72</ele><time>2014-09-05T13:12:09Z</time></trkpt><trkpt lat="45.6897899788" lon="6.8894346524"><ele>2148.68</ele><time>2014-09-05T13:12:22Z</time></trkpt><trkpt lat="45.6897762325" lon="6.8894243427"><ele>2149.16</ele><time>2014-09-05T13:12:23Z</time></trkpt><trkpt lat="45.6897588819" lon="6.8894157931"><ele>2149.16</ele><time>2014-09-05T13:12:24Z</time></trkpt><trkpt lat="45.6897431239" lon="6.8894058187"><ele>2149.65</ele><time>2014-09-05T13:12:25Z</time></trkpt><trkpt lat="45.6897294614" lon="6.8893970177"><ele>2149.65</ele><time>2014-09-05T13:12:26Z</time></trkpt><trkpt lat="45.6897168048" lon="6.8893928267"><ele>2150.13</ele><time>2014-09-05T13:12:27Z</time></trkpt><trkpt lat="45.6897024717" lon="6.8893831875"><ele>2150.13</ele><time>2014-09-05T13:12:28Z</time></trkpt><trkpt lat="45.6896897312" lon="6.8893754762"><ele>2150.13</ele><time>2014-09-05T13:12:29Z</time></trkpt><trkpt lat="45.6896770746" lon="6.8893711176"><ele>2150.13</ele><time>2014-09-05T13:12:30Z</time></trkpt><trkpt lat="45.6896631606" lon="6.8893660046"><ele>2150.61</ele><time>2014-09-05T13:12:31Z</time></trkpt><trkpt lat="45.6894371007" lon="6.8892291281"><ele>2153.01</ele><time>2014-09-05T13:12:48Z</time></trkpt><trkpt lat="45.6892574765" lon="6.8891204149"><ele>2153.97</ele><time>2014-09-05T13:13:01Z</time></trkpt><trkpt lat="45.6892440654" lon="6.8891199958"><ele>2153.97</ele><time>2014-09-05T13:13:02Z</time></trkpt><trkpt lat="45.6892321631" lon="6.8891116139"><ele>2154.45</ele><time>2014-09-05T13:13:03Z</time></trkpt><trkpt lat="45.6889948715" lon="6.8889577221"><ele>2155.89</ele><time>2014-09-05T13:13:20Z</time></trkpt><trkpt lat="45.6887942925" lon="6.8888333347"><ele>2157.34</ele><time>2014-09-05T13:13:35Z</time></trkpt><trkpt lat="45.6885633711" lon="6.8887030799"><ele>2158.30</ele><time>2014-09-05T13:13:51Z</time></trkpt><trkpt lat="45.6883130874" lon="6.8886283133"><ele>2160.22</ele><time>2014-09-05T13:14:08Z</time></trkpt><trkpt lat="45.6881123409" lon="6.8885788601"><ele>2162.14</ele><time>2014-09-05T13:14:23Z</time></trkpt><trkpt lat="45.6880948227" lon="6.8885524571"><ele>2162.14</ele><time>2014-09-05T13:14:35Z</time></trkpt><trkpt lat="45.6880973373" lon="6.8885449134"><ele>2164.06</ele><time>2014-09-05T13:15:10Z</time></trkpt><trkpt lat="45.6880797353" lon="6.8885590788"><ele>2163.10</ele><time>2014-09-05T13:15:50Z</time></trkpt><trkpt lat="45.6880872790" lon="6.8885631021"><ele>2161.66</ele><time>2014-09-05T13:16:24Z</time></trkpt><trkpt lat="45.6880970020" lon="6.8885564804"><ele>2161.66</ele><time>2014-09-05T13:16:58Z</time></trkpt><trkpt lat="45.6880588643" lon="6.8885786086"><ele>2164.06</ele><time>2014-09-05T13:17:29Z</time></trkpt><trkpt lat="45.6880272646" lon="6.8885877449"><ele>2163.58</ele><time>2014-09-05T13:17:40Z</time></trkpt><trkpt lat="45.6880192179" lon="6.8885947019"><ele>2163.58</ele><time>2014-09-05T13:17:41Z</time></trkpt><trkpt lat="45.6880085729" lon="6.8885967135"><ele>2164.06</ele><time>2014-09-05T13:17:42Z</time></trkpt><trkpt lat="45.6879925635" lon="6.8885986414"><ele>2164.06</ele><time>2014-09-05T13:17:43Z</time></trkpt><trkpt lat="45.6879773922" lon="6.8886010721"><ele>2164.06</ele><time>2014-09-05T13:17:44Z</time></trkpt><trkpt lat="45.6879632268" lon="6.8886052631"><ele>2164.55</ele><time>2014-09-05T13:17:45Z</time></trkpt><trkpt lat="45.6879490614" lon="6.8886122201"><ele>2164.55</ele><time>2014-09-05T13:17:46Z</time></trkpt><trkpt lat="45.6879337225" lon="6.8886157405"><ele>2164.55</ele><time>2014-09-05T13:17:47Z</time></trkpt><trkpt lat="45.6879195571" lon="6.8886191770"><ele>2164.55</ele><time>2014-09-05T13:17:48Z</time></trkpt><trkpt lat="45.6879037991" lon="6.8886283133"><ele>2165.03</ele><time>2014-09-05T13:17:49Z</time></trkpt><trkpt lat="45.6876667589" lon="6.8887626752"><ele>2166.47</ele><time>2014-09-05T13:18:03Z</time></trkpt><trkpt lat="45.6875444669" lon="6.8887938559"><ele>2166.47</ele><time>2014-09-05T13:18:10Z</time></trkpt><trkpt lat="45.6875272840" lon="6.8887906708"><ele>2166.47</ele><time>2014-09-05T13:18:11Z</time></trkpt><trkpt lat="45.6875100173" lon="6.8887844682"><ele>2166.47</ele><time>2014-09-05T13:18:12Z</time></trkpt><trkpt lat="45.6874930020" lon="6.8887824565"><ele>2166.47</ele><time>2014-09-05T13:18:13Z</time></trkpt><trkpt lat="45.6874772441" lon="6.8887841329"><ele>2166.47</ele><time>2014-09-05T13:18:14Z</time></trkpt><trkpt lat="45.6872865558" lon="6.8886807002"><ele>2166.95</ele><time>2014-09-05T13:18:27Z</time></trkpt><trkpt lat="45.6872326601" lon="6.8886583205"><ele>2167.43</ele><time>2014-09-05T13:18:31Z</time></trkpt><trkpt lat="45.6869891658" lon="6.8886320014"><ele>2166.95</ele><time>2014-09-05T13:18:47Z</time></trkpt><trkpt lat="45.6867729966" lon="6.8886095379"><ele>2167.91</ele><time>2014-09-05T13:19:01Z</time></trkpt><trkpt lat="45.6867139041" lon="6.8885958754"><ele>2168.87</ele><time>2014-09-05T13:19:05Z</time></trkpt><trkpt lat="45.6866819691" lon="6.8885893375"><ele>2169.35</ele><time>2014-09-05T13:19:07Z</time></trkpt><trkpt lat="45.6866680551" lon="6.8885801174"><ele>2169.83</ele><time>2014-09-05T13:19:08Z</time></trkpt><trkpt lat="45.6864733435" lon="6.8884376250"><ele>2171.76</ele><time>2014-09-05T13:19:21Z</time></trkpt><trkpt lat="45.6864612736" lon="6.8884231243"><ele>2171.76</ele><time>2014-09-05T13:19:22Z</time></trkpt><trkpt lat="45.6864463538" lon="6.8884100486"><ele>2171.76</ele><time>2014-09-05T13:19:23Z</time></trkpt><trkpt lat="45.6863002572" lon="6.8882873375"><ele>2172.72</ele><time>2014-09-05T13:19:34Z</time></trkpt><trkpt lat="45.6862701662" lon="6.8882874213"><ele>2172.72</ele><time>2014-09-05T13:19:36Z</time></trkpt><trkpt lat="45.6862560008" lon="6.8882762734"><ele>2173.20</ele><time>2014-09-05T13:19:37Z</time></trkpt><trkpt lat="45.6862430088" lon="6.8882622756"><ele>2173.20</ele><time>2014-09-05T13:19:38Z</time></trkpt><trkpt lat="45.6862323638" lon="6.8882456794"><ele>2173.20</ele><time>2014-09-05T13:19:39Z</time></trkpt><trkpt lat="45.6862195395" lon="6.8882305082"><ele>2173.20</ele><time>2014-09-05T13:19:40Z</time></trkpt><trkpt lat="45.6862047873" lon="6.8882211205"><ele>2173.20</ele><time>2014-09-05T13:19:41Z</time></trkpt><trkpt lat="45.6861879397" lon="6.8882198632"><ele>2173.68</ele><time>2014-09-05T13:19:42Z</time></trkpt><trkpt lat="45.6861715112" lon="6.8882166781"><ele>2173.68</ele><time>2014-09-05T13:19:43Z</time></trkpt><trkpt lat="45.6861551665" lon="6.8882121518"><ele>2174.16</ele><time>2014-09-05T13:19:44Z</time></trkpt><trkpt lat="45.6861389056" lon="6.8882049434"><ele>2174.16</ele><time>2014-09-05T13:19:45Z</time></trkpt><trkpt lat="45.6861223932" lon="6.8881979026"><ele>2174.16</ele><time>2014-09-05T13:19:46Z</time></trkpt><trkpt lat="45.6861064676" lon="6.8881946336"><ele>2174.16</ele><time>2014-09-05T13:19:47Z</time></trkpt><trkpt lat="45.6860914640" lon="6.8881900236"><ele>2174.16</ele><time>2014-09-05T13:19:48Z</time></trkpt><trkpt lat="45.6860766280" lon="6.8881834857"><ele>2174.16</ele><time>2014-09-05T13:19:49Z</time></trkpt><trkpt lat="45.6858303677" lon="6.8880544044"><ele>2175.60</ele><time>2014-09-05T13:20:05Z</time></trkpt><trkpt lat="45.6856295373" lon="6.8878826592"><ele>2178.00</ele><time>2014-09-05T13:20:20Z</time></trkpt><trkpt lat="45.6854642462" lon="6.8877457827"><ele>2178.97</ele><time>2014-09-05T13:20:33Z</time></trkpt><trkpt lat="45.6851813570" lon="6.8876377400"><ele>2180.41</ele><time>2014-09-05T13:20:49Z</time></trkpt><trkpt lat="45.6849164888" lon="6.8875269312"><ele>2181.37</ele><time>2014-09-05T13:21:04Z</time></trkpt><trkpt lat="45.6846835557" lon="6.8873401824"><ele>2183.29</ele><time>2014-09-05T13:21:18Z</time></trkpt><trkpt lat="45.6844095513" lon="6.8871263601"><ele>2182.33</ele><time>2014-09-05T13:21:35Z</time></trkpt><trkpt lat="45.6841967348" lon="6.8869541958"><ele>2182.33</ele><time>2014-09-05T13:21:48Z</time></trkpt><trkpt lat="45.6839308608" lon="6.8867324106"><ele>2182.33</ele><time>2014-09-05T13:22:04Z</time></trkpt><trkpt lat="45.6836587843" lon="6.8864964601"><ele>2184.73</ele><time>2014-09-05T13:22:21Z</time></trkpt><trkpt lat="45.6833974365" lon="6.8862937018"><ele>2186.18</ele><time>2014-09-05T13:22:37Z</time></trkpt><trkpt lat="45.6831815187" lon="6.8861179333"><ele>2186.66</ele><time>2014-09-05T13:22:51Z</time></trkpt><trkpt lat="45.6829730608" lon="6.8859418295"><ele>2187.62</ele><time>2014-09-05T13:23:05Z</time></trkpt><trkpt lat="45.6827973761" lon="6.8857814837"><ele>2188.10</ele><time>2014-09-05T13:23:19Z</time></trkpt><trkpt lat="45.6827856414" lon="6.8857660610"><ele>2188.58</ele><time>2014-09-05T13:23:21Z</time></trkpt><trkpt lat="45.6827931851" lon="6.8857427593"><ele>2188.10</ele><time>2014-09-05T13:23:31Z</time></trkpt><trkpt lat="45.6827919278" lon="6.8857152667"><ele>2186.66</ele><time>2014-09-05T13:23:56Z</time></trkpt><trkpt lat="45.6828025728" lon="6.8857283425"><ele>2181.85</ele><time>2014-09-05T13:24:51Z</time></trkpt><trkpt lat="45.6828278024" lon="6.8857352156"><ele>2176.56</ele><time>2014-09-05T13:25:47Z</time></trkpt><trkpt lat="45.6827577297" lon="6.8857624568"><ele>2178.97</ele><time>2014-09-05T13:26:08Z</time></trkpt><trkpt lat="45.6827305723" lon="6.8857606966"><ele>2180.41</ele><time>2014-09-05T13:26:10Z</time></trkpt><trkpt lat="45.6826491840" lon="6.8857632112"><ele>2183.77</ele><time>2014-09-05T13:26:15Z</time></trkpt><trkpt lat="45.6825874094" lon="6.8857135903"><ele>2186.66</ele><time>2014-09-05T13:26:20Z</time></trkpt><trkpt lat="45.6825752556" lon="6.8857129198"><ele>2186.66</ele><time>2014-09-05T13:26:21Z</time></trkpt><trkpt lat="45.6825233717" lon="6.8857218046"><ele>2188.10</ele><time>2014-09-05T13:26:35Z</time></trkpt><trkpt lat="45.6825358607" lon="6.8857537396"><ele>2190.98</ele><time>2014-09-05T13:27:26Z</time></trkpt><trkpt lat="45.6825564802" lon="6.8857444357"><ele>2195.31</ele><time>2014-09-05T13:28:14Z</time></trkpt><trkpt lat="45.6825288199" lon="6.8857596070"><ele>2196.27</ele><time>2014-09-05T13:29:04Z</time></trkpt><trkpt lat="45.6825441588" lon="6.8857657257"><ele>2195.79</ele><time>2014-09-05T13:29:45Z</time></trkpt><trkpt lat="45.6825657841" lon="6.8857850041"><ele>2196.27</ele><time>2014-09-05T13:30:29Z</time></trkpt><trkpt lat="45.6825574022" lon="6.8857553322"><ele>2195.79</ele><time>2014-09-05T13:31:14Z</time></trkpt><trkpt lat="45.6825618446" lon="6.8857476208"><ele>2197.23</ele><time>2014-09-05T13:31:47Z</time></trkpt><trkpt lat="45.6825600006" lon="6.8857398257"><ele>2197.23</ele><time>2014-09-05T13:32:17Z</time></trkpt><trkpt lat="45.6825594138" lon="6.8857382331"><ele>2195.79</ele><time>2014-09-05T13:32:50Z</time></trkpt><trkpt lat="45.6825429853" lon="6.8857482914"><ele>2195.79</ele><time>2014-09-05T13:33:09Z</time></trkpt><trkpt lat="45.6825238746" lon="6.8857876863"><ele>2194.35</ele><time>2014-09-05T13:33:32Z</time></trkpt><trkpt lat="45.6824985612" lon="6.8857306894"><ele>2193.87</ele><time>2014-09-05T13:33:50Z</time></trkpt><trkpt lat="45.6825067755" lon="6.8856253289"><ele>2193.39</ele><time>2014-09-05T13:33:57Z</time></trkpt><trkpt lat="45.6824975554" lon="6.8856103253"><ele>2193.39</ele><time>2014-09-05T13:33:58Z</time></trkpt><trkpt lat="45.6824828032" lon="6.8855947349"><ele>2193.87</ele><time>2014-09-05T13:33:59Z</time></trkpt><trkpt lat="45.6824667938" lon="6.8855748698"><ele>2193.87</ele><time>2014-09-05T13:34:00Z</time></trkpt><trkpt lat="45.6824558973" lon="6.8855534121"><ele>2193.39</ele><time>2014-09-05T13:34:01Z</time></trkpt><trkpt lat="45.6824450847" lon="6.8855295237"><ele>2193.39</ele><time>2014-09-05T13:34:02Z</time></trkpt><trkpt lat="45.6824302487" lon="6.8855007738"><ele>2192.90</ele><time>2014-09-05T13:34:03Z</time></trkpt><trkpt lat="45.6824165862" lon="6.8854797352"><ele>2192.90</ele><time>2014-09-05T13:34:04Z</time></trkpt><trkpt lat="45.6822816376" lon="6.8853644002"><ele>2190.50</ele><time>2014-09-05T13:34:13Z</time></trkpt><trkpt lat="45.6822669692" lon="6.8853639811"><ele>2190.50</ele><time>2014-09-05T13:34:14Z</time></trkpt><trkpt lat="45.6822501216" lon="6.8853561021"><ele>2190.50</ele><time>2014-09-05T13:34:15Z</time></trkpt><trkpt lat="45.6819783803" lon="6.8851484824"><ele>2190.02</ele><time>2014-09-05T13:34:30Z</time></trkpt><trkpt lat="45.6819635443" lon="6.8851471413"><ele>2190.50</ele><time>2014-09-05T13:34:31Z</time></trkpt><trkpt lat="45.6819509715" lon="6.8851383403"><ele>2190.50</ele><time>2014-09-05T13:34:32Z</time></trkpt><trkpt lat="45.6819360517" lon="6.8851319700"><ele>2190.02</ele><time>2014-09-05T13:34:33Z</time></trkpt><trkpt lat="45.6819188688" lon="6.8851184752"><ele>2190.02</ele><time>2014-09-05T13:34:34Z</time></trkpt><trkpt lat="45.6819001772" lon="6.8851059023"><ele>2190.02</ele><time>2014-09-05T13:34:35Z</time></trkpt><trkpt lat="45.6818814017" lon="6.8851048127"><ele>2190.02</ele><time>2014-09-05T13:34:36Z</time></trkpt><trkpt lat="45.6818621233" lon="6.8850956764"><ele>2190.02</ele><time>2014-09-05T13:34:37Z</time></trkpt><trkpt lat="45.6818405818" lon="6.8850856181"><ele>2190.02</ele><time>2014-09-05T13:34:38Z</time></trkpt><trkpt lat="45.6815057248" lon="6.8848621566"><ele>2188.10</ele><time>2014-09-05T13:34:55Z</time></trkpt><trkpt lat="45.6811616477" lon="6.8846489210"><ele>2189.06</ele><time>2014-09-05T13:35:11Z</time></trkpt><trkpt lat="45.6808325741" lon="6.8845421355"><ele>2190.50</ele><time>2014-09-05T13:35:26Z</time></trkpt><trkpt lat="45.6804798637" lon="6.8846434727"><ele>2192.90</ele><time>2014-09-05T13:35:43Z</time></trkpt><trkpt lat="45.6802028418" lon="6.8845655210"><ele>2194.35</ele><time>2014-09-05T13:35:55Z</time></trkpt><trkpt lat="45.6799282506" lon="6.8840478547"><ele>2192.42</ele><time>2014-09-05T13:36:11Z</time></trkpt><trkpt lat="45.6799089722" lon="6.8838543165"><ele>2191.94</ele><time>2014-09-05T13:36:17Z</time></trkpt><trkpt lat="45.6799100619" lon="6.8838071264"><ele>2191.94</ele><time>2014-09-05T13:36:28Z</time></trkpt><trkpt lat="45.6798872631" lon="6.8838186935"><ele>2192.90</ele><time>2014-09-05T13:37:00Z</time></trkpt><trkpt lat="45.6798872631" lon="6.8838064559"><ele>2191.46</ele><time>2014-09-05T13:37:33Z</time></trkpt><trkpt lat="45.6798750255" lon="6.8837801367"><ele>2192.90</ele><time>2014-09-05T13:38:01Z</time></trkpt><trkpt lat="45.6798439287" lon="6.8835101556"><ele>2191.94</ele><time>2014-09-05T13:38:12Z</time></trkpt><trkpt lat="45.6795936450" lon="6.8831174634"><ele>2191.94</ele><time>2014-09-05T13:38:26Z</time></trkpt><trkpt lat="45.6793713570" lon="6.8829238415"><ele>2190.98</ele><time>2014-09-05T13:38:40Z</time></trkpt><trkpt lat="45.6793685071" lon="6.8829019647"><ele>2190.98</ele><time>2014-09-05T13:38:41Z</time></trkpt><trkpt lat="45.6793675851" lon="6.8828848656"><ele>2190.98</ele><time>2014-09-05T13:38:42Z</time></trkpt><trkpt lat="45.6793674175" lon="6.8828580435"><ele>2191.94</ele><time>2014-09-05T13:38:55Z</time></trkpt><trkpt lat="45.6793674175" lon="6.8828539364"><ele>2190.02</ele><time>2014-09-05T13:39:47Z</time></trkpt><trkpt lat="45.6793664116" lon="6.8828621507"><ele>2190.02</ele><time>2014-09-05T13:40:24Z</time></trkpt><trkpt lat="45.6793586165" lon="6.8829048984"><ele>2188.58</ele><time>2014-09-05T13:40:34Z</time></trkpt><trkpt lat="45.6793521624" lon="6.8829170521"><ele>2189.06</ele><time>2014-09-05T13:40:35Z</time></trkpt><trkpt lat="45.6793425232" lon="6.8829256855"><ele>2189.06</ele><time>2014-09-05T13:40:36Z</time></trkpt><trkpt lat="45.6793221552" lon="6.8829245958"><ele>2189.06</ele><time>2014-09-05T13:40:38Z</time></trkpt><trkpt lat="45.6792610511" lon="6.8828981090"><ele>2188.58</ele><time>2014-09-05T13:40:43Z</time></trkpt><trkpt lat="45.6792479753" lon="6.8828882184"><ele>2188.58</ele><time>2014-09-05T13:40:44Z</time></trkpt><trkpt lat="45.6792364921" lon="6.8828795012"><ele>2188.10</ele><time>2014-09-05T13:40:45Z</time></trkpt><trkpt lat="45.6792239193" lon="6.8828673474"><ele>2187.62</ele><time>2014-09-05T13:40:46Z</time></trkpt><trkpt lat="45.6792065687" lon="6.8828526791"><ele>2187.62</ele><time>2014-09-05T13:40:47Z</time></trkpt><trkpt lat="45.6791878771" lon="6.8828382622"><ele>2187.62</ele><time>2014-09-05T13:40:48Z</time></trkpt><trkpt lat="45.6791668385" lon="6.8828252703"><ele>2187.62</ele><time>2014-09-05T13:40:49Z</time></trkpt><trkpt lat="45.6790454686" lon="6.8828293774"><ele>2189.06</ele><time>2014-09-05T13:41:00Z</time></trkpt><trkpt lat="45.6790373381" lon="6.8828261085"><ele>2190.98</ele><time>2014-09-05T13:41:12Z</time></trkpt><trkpt lat="45.6790320575" lon="6.8828629889"><ele>2191.94</ele><time>2014-09-05T13:41:47Z</time></trkpt><trkpt lat="45.6790312193" lon="6.8828427047"><ele>2193.87</ele><time>2014-09-05T13:41:59Z</time></trkpt><trkpt lat="45.6790331472" lon="6.8828341551"><ele>2193.87</ele><time>2014-09-05T13:42:03Z</time></trkpt><trkpt lat="45.6790478155" lon="6.8828134518"><ele>2193.87</ele><time>2014-09-05T13:42:05Z</time></trkpt><trkpt lat="45.6790455524" lon="6.8827930000"><ele>2193.87</ele><time>2014-09-05T13:42:06Z</time></trkpt><trkpt lat="45.6790367514" lon="6.8827748112"><ele>2193.39</ele><time>2014-09-05T13:42:07Z</time></trkpt><trkpt lat="45.6790276989" lon="6.8827572092"><ele>2193.39</ele><time>2014-09-05T13:42:08Z</time></trkpt><trkpt lat="45.6790147908" lon="6.8827380147"><ele>2193.39</ele><time>2014-09-05T13:42:09Z</time></trkpt><trkpt lat="45.6789973564" lon="6.8827128690"><ele>2192.90</ele><time>2014-09-05T13:42:10Z</time></trkpt><trkpt lat="45.6788213365" lon="6.8825961929"><ele>2192.90</ele><time>2014-09-05T13:42:22Z</time></trkpt><trkpt lat="45.6788062491" lon="6.8825876433"><ele>2192.90</ele><time>2014-09-05T13:42:23Z</time></trkpt><trkpt lat="45.6787889823" lon="6.8825811893"><ele>2192.90</ele><time>2014-09-05T13:42:24Z</time></trkpt><trkpt lat="45.6785305683" lon="6.8824369367"><ele>2190.98</ele><time>2014-09-05T13:42:38Z</time></trkpt><trkpt lat="45.6781548914" lon="6.8822911754"><ele>2187.14</ele><time>2014-09-05T13:42:50Z</time></trkpt><trkpt lat="45.6774535775" lon="6.8819440808"><ele>2183.77</ele><time>2014-09-05T13:43:06Z</time></trkpt><trkpt lat="45.6766935065" lon="6.8815478683"><ele>2178.48</ele><time>2014-09-05T13:43:23Z</time></trkpt><trkpt lat="45.6760001555" lon="6.8808139488"><ele>2177.04</ele><time>2014-09-05T13:43:39Z</time></trkpt><trkpt lat="45.6754383165" lon="6.8801965378"><ele>2177.52</ele><time>2014-09-05T13:43:55Z</time></trkpt><trkpt lat="45.6751498953" lon="6.8798647821"><ele>2177.52</ele><time>2014-09-05T13:44:03Z</time></trkpt><trkpt lat="45.6751141883" lon="6.8798315059"><ele>2177.52</ele><time>2014-09-05T13:44:04Z</time></trkpt><trkpt lat="45.6750812475" lon="6.8797979783"><ele>2177.04</ele><time>2014-09-05T13:44:05Z</time></trkpt><trkpt lat="45.6747395173" lon="6.8794037774"><ele>2177.52</ele><time>2014-09-05T13:44:18Z</time></trkpt><trkpt lat="45.6745557021" lon="6.8792036176"><ele>2177.04</ele><time>2014-09-05T13:44:24Z</time></trkpt><trkpt lat="45.6745220907" lon="6.8791706767"><ele>2177.04</ele><time>2014-09-05T13:44:25Z</time></trkpt><trkpt lat="45.6744909100" lon="6.8791330419"><ele>2177.04</ele><time>2014-09-05T13:44:26Z</time></trkpt><trkpt lat="45.6744593941" lon="6.8790921383"><ele>2177.04</ele><time>2014-09-05T13:44:27Z</time></trkpt><trkpt lat="45.6744268723" lon="6.8790544197"><ele>2177.04</ele><time>2014-09-05T13:44:28Z</time></trkpt><trkpt lat="45.6738961302" lon="6.8784494139"><ele>2172.72</ele><time>2014-09-05T13:44:44Z</time></trkpt><trkpt lat="45.6737553980" lon="6.8782706279"><ele>2171.27</ele><time>2014-09-05T13:44:54Z</time></trkpt><trkpt lat="45.6737636961" lon="6.8782472424"><ele>2170.79</ele><time>2014-09-05T13:45:10Z</time></trkpt><trkpt lat="45.6737678032" lon="6.8782642577"><ele>2171.76</ele><time>2014-09-05T13:45:51Z</time></trkpt><trkpt lat="45.6737662945" lon="6.8782676104"><ele>2171.76</ele><time>2014-09-05T13:46:29Z</time></trkpt><trkpt lat="45.6737703178" lon="6.8782790937"><ele>2171.76</ele><time>2014-09-05T13:47:04Z</time></trkpt><trkpt lat="45.6737370417" lon="6.8782671075"><ele>2171.27</ele><time>2014-09-05T13:47:15Z</time></trkpt><trkpt lat="45.6737266481" lon="6.8782574683"><ele>2171.27</ele><time>2014-09-05T13:47:16Z</time></trkpt><trkpt lat="45.6737134047" lon="6.8782365136"><ele>2171.27</ele><time>2014-09-05T13:47:17Z</time></trkpt><trkpt lat="45.6733486243" lon="6.8777973857"><ele>2170.31</ele><time>2014-09-05T13:47:30Z</time></trkpt><trkpt lat="45.6731450278" lon="6.8775869999"><ele>2169.35</ele><time>2014-09-05T13:47:36Z</time></trkpt><trkpt lat="45.6731123384" lon="6.8775511254"><ele>2168.87</ele><time>2014-09-05T13:47:37Z</time></trkpt><trkpt lat="45.6724101864" lon="6.8767692614"><ele>2165.03</ele><time>2014-09-05T13:47:55Z</time></trkpt><trkpt lat="45.6721602380" lon="6.8764837738"><ele>2164.55</ele><time>2014-09-05T13:48:01Z</time></trkpt><trkpt lat="45.6714782026" lon="6.8757125549"><ele>2162.14</ele><time>2014-09-05T13:48:19Z</time></trkpt><trkpt lat="45.6713875104" lon="6.8755886704"><ele>2160.22</ele><time>2014-09-05T13:48:29Z</time></trkpt><trkpt lat="45.6713770330" lon="6.8755645305"><ele>2153.01</ele><time>2014-09-05T13:48:55Z</time></trkpt><trkpt lat="45.6713694893" lon="6.8756237067"><ele>2156.37</ele><time>2014-09-05T13:49:26Z</time></trkpt><trkpt lat="45.6713585928" lon="6.8756464217"><ele>2156.37</ele><time>2014-09-05T13:49:58Z</time></trkpt><trkpt lat="45.6713781226" lon="6.8756207731"><ele>2157.34</ele><time>2014-09-05T13:50:31Z</time></trkpt><trkpt lat="45.6713708304" lon="6.8756212760"><ele>2154.45</ele><time>2014-09-05T13:50:57Z</time></trkpt><trkpt lat="45.6713720877" lon="6.8756341841"><ele>2155.89</ele><time>2014-09-05T13:51:27Z</time></trkpt><trkpt lat="45.6713518035" lon="6.8756371178"><ele>2155.89</ele><time>2014-09-05T13:51:56Z</time></trkpt><trkpt lat="45.6713264063" lon="6.8756248802"><ele>2155.89</ele><time>2014-09-05T13:52:08Z</time></trkpt><trkpt lat="45.6710579339" lon="6.8752101436"><ele>2154.45</ele><time>2014-09-05T13:52:23Z</time></trkpt><trkpt lat="45.6707364041" lon="6.8749487121"><ele>2154.45</ele><time>2014-09-05T13:52:35Z</time></trkpt><trkpt lat="45.6705939956" lon="6.8748348858"><ele>2152.53</ele><time>2014-09-05T13:52:48Z</time></trkpt><trkpt lat="45.6705991924" lon="6.8748429324"><ele>2152.05</ele><time>2014-09-05T13:53:09Z</time></trkpt><trkpt lat="45.6705929898" lon="6.8748449441"><ele>2152.53</ele><time>2014-09-05T13:53:46Z</time></trkpt><trkpt lat="45.6705882959" lon="6.8748412561"><ele>2151.09</ele><time>2014-09-05T13:54:13Z</time></trkpt><trkpt lat="45.6705826800" lon="6.8748131767"><ele>2151.57</ele><time>2014-09-05T13:54:21Z</time></trkpt><trkpt lat="45.6705829315" lon="6.8747959938"><ele>2152.05</ele><time>2014-09-05T13:54:22Z</time></trkpt><trkpt lat="45.6705834344" lon="6.8747578561"><ele>2152.53</ele><time>2014-09-05T13:54:24Z</time></trkpt><trkpt lat="45.6705952529" lon="6.8747377396"><ele>2152.05</ele><time>2014-09-05T13:54:25Z</time></trkpt><trkpt lat="45.6705992762" lon="6.8747093249"><ele>2152.05</ele><time>2014-09-05T13:54:26Z</time></trkpt><trkpt lat="45.6705953367" lon="6.8746768031"><ele>2152.05</ele><time>2014-09-05T13:54:27Z</time></trkpt><trkpt lat="45.6705744658" lon="6.8746469636"><ele>2152.05</ele><time>2014-09-05T13:54:28Z</time></trkpt><trkpt lat="45.6705452129" lon="6.8746161181"><ele>2151.57</ele><time>2014-09-05T13:54:29Z</time></trkpt><trkpt lat="45.6705166306" lon="6.8745779805"><ele>2151.09</ele><time>2014-09-05T13:54:30Z</time></trkpt><trkpt lat="45.6699250359" lon="6.8739271257"><ele>2148.68</ele><time>2014-09-05T13:54:45Z</time></trkpt><trkpt lat="45.6694842316" lon="6.8734253850"><ele>2146.28</ele><time>2014-09-05T13:54:56Z</time></trkpt><trkpt lat="45.6694547273" lon="6.8733736686"><ele>2145.80</ele><time>2014-09-05T13:54:57Z</time></trkpt><trkpt lat="45.6694377121" lon="6.8733141571"><ele>2145.80</ele><time>2014-09-05T13:54:58Z</time></trkpt><trkpt lat="45.6694344431" lon="6.8732519634"><ele>2145.80</ele><time>2014-09-05T13:54:59Z</time></trkpt><trkpt lat="45.6694442499" lon="6.8732061144"><ele>2145.80</ele><time>2014-09-05T13:55:00Z</time></trkpt><trkpt lat="45.6694717426" lon="6.8731754366"><ele>2145.32</ele><time>2014-09-05T13:55:01Z</time></trkpt><trkpt lat="45.6695080362" lon="6.8731617741"><ele>2145.32</ele><time>2014-09-05T13:55:02Z</time></trkpt><trkpt lat="45.6695502810" lon="6.8731584214"><ele>2144.84</ele><time>2014-09-05T13:55:03Z</time></trkpt><trkpt lat="45.6695903465" lon="6.8731630314"><ele>2144.36</ele><time>2014-09-05T13:55:04Z</time></trkpt><trkpt lat="45.6696314178" lon="6.8731728382"><ele>2144.36</ele><time>2014-09-05T13:55:05Z</time></trkpt><trkpt lat="45.6696726568" lon="6.8731855787"><ele>2144.36</ele><time>2014-09-05T13:55:06Z</time></trkpt><trkpt lat="45.6697108783" lon="6.8732072040"><ele>2143.88</ele><time>2014-09-05T13:55:07Z</time></trkpt><trkpt lat="45.6702578813" lon="6.8736473378"><ele>2139.07</ele><time>2014-09-05T13:55:20Z</time></trkpt><trkpt lat="45.6703508366" lon="6.8737074360"><ele>2138.59</ele><time>2014-09-05T13:55:22Z</time></trkpt><trkpt lat="45.6704017147" lon="6.8737311568"><ele>2138.11</ele><time>2014-09-05T13:55:23Z</time></trkpt><trkpt lat="45.6704536825" lon="6.8737477530"><ele>2138.11</ele><time>2014-09-05T13:55:24Z</time></trkpt><trkpt lat="45.6705059018" lon="6.8737469148"><ele>2138.11</ele><time>2014-09-05T13:55:25Z</time></trkpt><trkpt lat="45.6705563609" lon="6.8737307377"><ele>2138.11</ele><time>2014-09-05T13:55:26Z</time></trkpt><trkpt lat="45.6706005335" lon="6.8737009820"><ele>2137.63</ele><time>2014-09-05T13:55:27Z</time></trkpt><trkpt lat="45.6706338096" lon="6.8736568931"><ele>2137.63</ele><time>2014-09-05T13:55:28Z</time></trkpt><trkpt lat="45.6706550159" lon="6.8735999800"><ele>2137.15</ele><time>2014-09-05T13:55:29Z</time></trkpt><trkpt lat="45.6706630625" lon="6.8735364452"><ele>2137.15</ele><time>2014-09-05T13:55:30Z</time></trkpt><trkpt lat="45.6706567761" lon="6.8734684680"><ele>2136.67</ele><time>2014-09-05T13:55:31Z</time></trkpt><trkpt lat="45.6706407666" lon="6.8734035920"><ele>2136.19</ele><time>2014-09-05T13:55:32Z</time></trkpt><trkpt lat="45.6706086639" lon="6.8733455054"><ele>2135.71</ele><time>2014-09-05T13:55:33Z</time></trkpt><trkpt lat="45.6705649104" lon="6.8732865807"><ele>2135.23</ele><time>2014-09-05T13:55:34Z</time></trkpt><trkpt lat="45.6705204025" lon="6.8732438330"><ele>2134.74</ele><time>2014-09-05T13:55:35Z</time></trkpt><trkpt lat="45.6704732962" lon="6.8732019234"><ele>2134.74</ele><time>2014-09-05T13:55:36Z</time></trkpt><trkpt lat="45.6700390298" lon="6.8728652224"><ele>2132.82</ele><time>2014-09-05T13:55:44Z</time></trkpt><trkpt lat="45.6698627584" lon="6.8727905396"><ele>2131.86</ele><time>2014-09-05T13:55:47Z</time></trkpt><trkpt lat="45.6696982216" lon="6.8727226462"><ele>2130.90</ele><time>2014-09-05T13:55:50Z</time></trkpt><trkpt lat="45.6695546396" lon="6.8726237398"><ele>2129.46</ele><time>2014-09-05T13:55:53Z</time></trkpt><trkpt lat="45.6695107184" lon="6.8725818302"><ele>2128.98</ele><time>2014-09-05T13:55:54Z</time></trkpt><trkpt lat="45.6694265641" lon="6.8724861927"><ele>2128.50</ele><time>2014-09-05T13:55:56Z</time></trkpt><trkpt lat="45.6693816371" lon="6.8724538386"><ele>2128.02</ele><time>2014-09-05T13:55:57Z</time></trkpt><trkpt lat="45.6693321839" lon="6.8724395055"><ele>2128.02</ele><time>2014-09-05T13:55:58Z</time></trkpt><trkpt lat="45.6692807190" lon="6.8724442832"><ele>2127.53</ele><time>2014-09-05T13:55:59Z</time></trkpt><trkpt lat="45.6692294218" lon="6.8724618852"><ele>2127.05</ele><time>2014-09-05T13:56:00Z</time></trkpt><trkpt lat="45.6691772863" lon="6.8724870309"><ele>2126.57</ele><time>2014-09-05T13:56:01Z</time></trkpt><trkpt lat="45.6691238098" lon="6.8725202233"><ele>2125.61</ele><time>2014-09-05T13:56:02Z</time></trkpt><trkpt lat="45.6690717582" lon="6.8725548405"><ele>2125.13</ele><time>2014-09-05T13:56:03Z</time></trkpt><trkpt lat="45.6688623782" lon="6.8726702593"><ele>2123.69</ele><time>2014-09-05T13:56:07Z</time></trkpt><trkpt lat="45.6688094046" lon="6.8726805691"><ele>2123.21</ele><time>2014-09-05T13:56:08Z</time></trkpt><trkpt lat="45.6687570177" lon="6.8726808205"><ele>2123.21</ele><time>2014-09-05T13:56:09Z</time></trkpt><trkpt lat="45.6687013619" lon="6.8726655655"><ele>2122.73</ele><time>2014-09-05T13:56:10Z</time></trkpt><trkpt lat="45.6686441135" lon="6.8726239074"><ele>2122.25</ele><time>2014-09-05T13:56:11Z</time></trkpt><trkpt lat="45.6685923971" lon="6.8725515716"><ele>2121.77</ele><time>2014-09-05T13:56:12Z</time></trkpt><trkpt lat="45.6685669161" lon="6.8724958319"><ele>2121.77</ele><time>2014-09-05T13:56:13Z</time></trkpt><trkpt lat="45.6685265992" lon="6.8724158686"><ele>2121.77</ele><time>2014-09-05T13:56:14Z</time></trkpt><trkpt lat="45.6684983522" lon="6.8723603804"><ele>2121.29</ele><time>2014-09-05T13:56:15Z</time></trkpt><trkpt lat="45.6684541795" lon="6.8723058142"><ele>2121.29</ele><time>2014-09-05T13:56:16Z</time></trkpt><trkpt lat="45.6684081629" lon="6.8722610548"><ele>2120.81</ele><time>2014-09-05T13:56:17Z</time></trkpt><trkpt lat="45.6683569495" lon="6.8722324725"><ele>2120.32</ele><time>2014-09-05T13:56:18Z</time></trkpt><trkpt lat="45.6683033053" lon="6.8722125236"><ele>2119.84</ele><time>2014-09-05T13:56:19Z</time></trkpt><trkpt lat="45.6682494935" lon="6.8721982744"><ele>2119.36</ele><time>2014-09-05T13:56:20Z</time></trkpt><trkpt lat="45.6681965198" lon="6.8721965142"><ele>2119.36</ele><time>2014-09-05T13:56:21Z</time></trkpt><trkpt lat="45.6681434624" lon="6.8722059019"><ele>2118.88</ele><time>2014-09-05T13:56:22Z</time></trkpt><trkpt lat="45.6680929195" lon="6.8722243421"><ele>2118.40</ele><time>2014-09-05T13:56:23Z</time></trkpt><trkpt lat="45.6679335795" lon="6.8722938281"><ele>2116.96</ele><time>2014-09-05T13:56:26Z</time></trkpt><trkpt lat="45.6678650156" lon="6.8723054789"><ele>2116.00</ele><time>2014-09-05T13:56:28Z</time></trkpt><trkpt lat="45.6677891593" lon="6.8723058142"><ele>2115.52</ele><time>2014-09-05T13:56:29Z</time></trkpt><trkpt lat="45.6674885005" lon="6.8722426146"><ele>2113.12</ele><time>2014-09-05T13:56:34Z</time></trkpt><trkpt lat="45.6674292404" lon="6.8722079974"><ele>2112.15</ele><time>2014-09-05T13:56:35Z</time></trkpt><trkpt lat="45.6673745904" lon="6.8721724581"><ele>2111.67</ele><time>2014-09-05T13:56:36Z</time></trkpt><trkpt lat="45.6670438405" lon="6.8719899841"><ele>2109.27</ele><time>2014-09-05T13:56:42Z</time></trkpt><trkpt lat="45.6664118450" lon="6.8718330748"><ele>2104.94</ele><time>2014-09-05T13:56:52Z</time></trkpt><trkpt lat="45.6663519982" lon="6.8718027323"><ele>2103.98</ele><time>2014-09-05T13:56:53Z</time></trkpt><trkpt lat="45.6657001376" lon="6.8713927735"><ele>2099.18</ele><time>2014-09-05T13:57:04Z</time></trkpt><trkpt lat="45.6656395365" lon="6.8713770155"><ele>2098.70</ele><time>2014-09-05T13:57:05Z</time></trkpt><trkpt lat="45.6649429165" lon="6.8712002411"><ele>2093.41</ele><time>2014-09-05T13:57:17Z</time></trkpt><trkpt lat="45.6646330375" lon="6.8708930444"><ele>2090.52</ele><time>2014-09-05T13:57:23Z</time></trkpt><trkpt lat="45.6638737209" lon="6.8704716861"><ele>2085.24</ele><time>2014-09-05T13:57:35Z</time></trkpt><trkpt lat="45.6635858864" lon="6.8704373203"><ele>2084.28</ele><time>2014-09-05T13:57:39Z</time></trkpt><trkpt lat="45.6635212619" lon="6.8704194669"><ele>2083.79</ele><time>2014-09-05T13:57:40Z</time></trkpt><trkpt lat="45.6633831281" lon="6.8703775574"><ele>2082.83</ele><time>2014-09-05T13:57:42Z</time></trkpt><trkpt lat="45.6627673097" lon="6.8705730233"><ele>2078.51</ele><time>2014-09-05T13:57:54Z</time></trkpt><trkpt lat="45.6627395656" lon="6.8705873564"><ele>2078.51</ele><time>2014-09-05T13:57:55Z</time></trkpt><trkpt lat="45.6623369828" lon="6.8706636317"><ele>2077.07</ele><time>2014-09-05T13:58:07Z</time></trkpt><trkpt lat="45.6623063050" lon="6.8705212232"><ele>2077.07</ele><time>2014-09-05T13:58:10Z</time></trkpt><trkpt lat="45.6623215601" lon="6.8704630528"><ele>2077.55</ele><time>2014-09-05T13:58:11Z</time></trkpt><trkpt lat="45.6623376533" lon="6.8704107497"><ele>2077.55</ele><time>2014-09-05T13:58:12Z</time></trkpt><trkpt lat="45.6623550039" lon="6.8703578599"><ele>2077.55</ele><time>2014-09-05T13:58:13Z</time></trkpt><trkpt lat="45.6623737793" lon="6.8703187164"><ele>2077.55</ele><time>2014-09-05T13:58:14Z</time></trkpt><trkpt lat="45.6623945665" lon="6.8702789862"><ele>2077.55</ele><time>2014-09-05T13:58:15Z</time></trkpt><trkpt lat="45.6624082290" lon="6.8702500686"><ele>2077.55</ele><time>2014-09-05T13:58:16Z</time></trkpt><trkpt lat="45.6624167785" lon="6.8702266831"><ele>2077.55</ele><time>2014-09-05T13:58:17Z</time></trkpt><trkpt lat="45.6624205504" lon="6.8702110089"><ele>2077.55</ele><time>2014-09-05T13:58:18Z</time></trkpt><trkpt lat="45.6624346320" lon="6.8702094164"><ele>2078.51</ele><time>2014-09-05T13:58:29Z</time></trkpt><trkpt lat="45.6624384876" lon="6.8701048940"><ele>2077.55</ele><time>2014-09-05T13:59:05Z</time></trkpt><trkpt lat="45.6624658126" lon="6.8699124455"><ele>2076.59</ele><time>2014-09-05T13:59:09Z</time></trkpt><trkpt lat="45.6624669023" lon="6.8698531855"><ele>2076.59</ele><time>2014-09-05T13:59:10Z</time></trkpt><trkpt lat="45.6624666508" lon="6.8697856274"><ele>2076.59</ele><time>2014-09-05T13:59:11Z</time></trkpt><trkpt lat="45.6624642201" lon="6.8697162252"><ele>2076.10</ele><time>2014-09-05T13:59:12Z</time></trkpt><trkpt lat="45.6624578498" lon="6.8696450628"><ele>2076.10</ele><time>2014-09-05T13:59:13Z</time></trkpt><trkpt lat="45.6624503899" lon="6.8695682846"><ele>2075.62</ele><time>2014-09-05T13:59:14Z</time></trkpt><trkpt lat="45.6624363922" lon="6.8694888242"><ele>2075.14</ele><time>2014-09-05T13:59:15Z</time></trkpt><trkpt lat="45.6624114979" lon="6.8694114592"><ele>2074.66</ele><time>2014-09-05T13:59:16Z</time></trkpt><trkpt lat="45.6623795629" lon="6.8693376984"><ele>2074.66</ele><time>2014-09-05T13:59:17Z</time></trkpt><trkpt lat="45.6623396650" lon="6.8692677096"><ele>2074.18</ele><time>2014-09-05T13:59:18Z</time></trkpt><trkpt lat="45.6622958276" lon="6.8692095391"><ele>2073.70</ele><time>2014-09-05T13:59:19Z</time></trkpt><trkpt lat="45.6622440275" lon="6.8691566493"><ele>2073.70</ele><time>2014-09-05T13:59:20Z</time></trkpt><trkpt lat="45.6621863600" lon="6.8691075314"><ele>2073.22</ele><time>2014-09-05T13:59:21Z</time></trkpt><trkpt lat="45.6621270999" lon="6.8690682203"><ele>2073.22</ele><time>2014-09-05T13:59:22Z</time></trkpt><trkpt lat="45.6619447935" lon="6.8689548969"><ele>2071.78</ele><time>2014-09-05T13:59:25Z</time></trkpt><trkpt lat="45.6618903950" lon="6.8689010851"><ele>2071.30</ele><time>2014-09-05T13:59:26Z</time></trkpt><trkpt lat="45.6618417799" lon="6.8688331079"><ele>2070.82</ele><time>2014-09-05T13:59:27Z</time></trkpt><trkpt lat="45.6618007086" lon="6.8687539827"><ele>2070.34</ele><time>2014-09-05T13:59:28Z</time></trkpt><trkpt lat="45.6617674325" lon="6.8686680682"><ele>2070.34</ele><time>2014-09-05T13:59:29Z</time></trkpt><trkpt lat="45.6611853931" lon="6.8676317297"><ele>2065.53</ele><time>2014-09-05T13:59:42Z</time></trkpt><trkpt lat="45.6603290141" lon="6.8665837403"><ele>2057.84</ele><time>2014-09-05T13:59:56Z</time></trkpt><trkpt lat="45.6599936541" lon="6.8661091570"><ele>2055.44</ele><time>2014-09-05T14:00:02Z</time></trkpt><trkpt lat="45.6597968470" lon="6.8659150321"><ele>2053.51</ele><time>2014-09-05T14:00:05Z</time></trkpt><trkpt lat="45.6597362459" lon="6.8658319674"><ele>2053.03</ele><time>2014-09-05T14:00:06Z</time></trkpt><trkpt lat="45.6596810091" lon="6.8657411914"><ele>2052.55</ele><time>2014-09-05T14:00:07Z</time></trkpt><trkpt lat="45.6596300472" lon="6.8656463921"><ele>2052.07</ele><time>2014-09-05T14:00:08Z</time></trkpt><trkpt lat="45.6595828570" lon="6.8655478209"><ele>2051.59</ele><time>2014-09-05T14:00:09Z</time></trkpt><trkpt lat="45.6595401932" lon="6.8654443882"><ele>2051.11</ele><time>2014-09-05T14:00:10Z</time></trkpt><trkpt lat="45.6591071840" lon="6.8644193653"><ele>2046.30</ele><time>2014-09-05T14:00:20Z</time></trkpt><trkpt lat="45.6590524502" lon="6.8643509690"><ele>2045.82</ele><time>2014-09-05T14:00:21Z</time></trkpt><trkpt lat="45.6589915138" lon="6.8642924633"><ele>2045.34</ele><time>2014-09-05T14:00:22Z</time></trkpt><trkpt lat="45.6588705629" lon="6.8641876057"><ele>2044.86</ele><time>2014-09-05T14:00:24Z</time></trkpt><trkpt lat="45.6588051002" lon="6.8641463667"><ele>2044.86</ele><time>2014-09-05T14:00:25Z</time></trkpt><trkpt lat="45.6587387156" lon="6.8641151022"><ele>2044.38</ele><time>2014-09-05T14:00:26Z</time></trkpt><trkpt lat="45.6583491247" lon="6.8639395013"><ele>2042.46</ele><time>2014-09-05T14:00:32Z</time></trkpt><trkpt lat="45.6582912896" lon="6.8638898805"><ele>2042.46</ele><time>2014-09-05T14:00:33Z</time></trkpt><trkpt lat="45.6582351308" lon="6.8638338055"><ele>2041.98</ele><time>2014-09-05T14:00:34Z</time></trkpt><trkpt lat="45.6574564520" lon="6.8632596452"><ele>2039.57</ele><time>2014-09-05T14:00:47Z</time></trkpt><trkpt lat="45.6573949289" lon="6.8632124551"><ele>2039.57</ele><time>2014-09-05T14:00:48Z</time></trkpt><trkpt lat="45.6567935273" lon="6.8624581676"><ele>2035.73</ele><time>2014-09-05T14:01:00Z</time></trkpt><trkpt lat="45.6567619275" lon="6.8623692356"><ele>2035.25</ele><time>2014-09-05T14:01:01Z</time></trkpt><trkpt lat="45.6567363627" lon="6.8622727599"><ele>2035.25</ele><time>2014-09-05T14:01:02Z</time></trkpt><trkpt lat="45.6566589139" lon="6.8619923852"><ele>2034.29</ele><time>2014-09-05T14:01:05Z</time></trkpt><trkpt lat="45.6566213630" lon="6.8619077280"><ele>2033.81</ele><time>2014-09-05T14:01:06Z</time></trkpt><trkpt lat="45.6565781124" lon="6.8618281838"><ele>2033.33</ele><time>2014-09-05T14:01:07Z</time></trkpt><trkpt lat="45.6561763678" lon="6.8613369204"><ele>2030.44</ele><time>2014-09-05T14:01:14Z</time></trkpt><trkpt lat="45.6561057083" lon="6.8612982798"><ele>2030.44</ele><time>2014-09-05T14:01:15Z</time></trkpt><trkpt lat="45.6560332887" lon="6.8612745591"><ele>2029.96</ele><time>2014-09-05T14:01:16Z</time></trkpt><trkpt lat="45.6556610484" lon="6.8611687794"><ele>2027.56</ele><time>2014-09-05T14:01:21Z</time></trkpt><trkpt lat="45.6555903051" lon="6.8611279596"><ele>2027.08</ele><time>2014-09-05T14:01:22Z</time></trkpt><trkpt lat="45.6555204839" lon="6.8610752374"><ele>2027.08</ele><time>2014-09-05T14:01:23Z</time></trkpt><trkpt lat="45.6554540154" lon="6.8610123731"><ele>2026.60</ele><time>2014-09-05T14:01:24Z</time></trkpt><trkpt lat="45.6553937495" lon="6.8609330803"><ele>2026.12</ele><time>2014-09-05T14:01:25Z</time></trkpt><trkpt lat="45.6553411949" lon="6.8608452380"><ele>2025.64</ele><time>2014-09-05T14:01:26Z</time></trkpt><trkpt lat="45.6552914903" lon="6.8607537914"><ele>2024.67</ele><time>2014-09-05T14:01:27Z</time></trkpt><trkpt lat="45.6548338383" lon="6.8598258309"><ele>2019.87</ele><time>2014-09-05T14:01:37Z</time></trkpt><trkpt lat="45.6547738239" lon="6.8597642239"><ele>2019.39</ele><time>2014-09-05T14:01:38Z</time></trkpt><trkpt lat="45.6547088642" lon="6.8597140163"><ele>2019.39</ele><time>2014-09-05T14:01:39Z</time></trkpt><trkpt lat="45.6546381209" lon="6.8596772198"><ele>2018.91</ele><time>2014-09-05T14:01:40Z</time></trkpt><trkpt lat="45.6545655336" lon="6.8596528284"><ele>2018.43</ele><time>2014-09-05T14:01:41Z</time></trkpt><trkpt lat="45.6544929463" lon="6.8596344721"><ele>2018.43</ele><time>2014-09-05T14:01:42Z</time></trkpt><trkpt lat="45.6542790402" lon="6.8595778942"><ele>2017.46</ele><time>2014-09-05T14:01:45Z</time></trkpt><trkpt lat="45.6542132422" lon="6.8595412653"><ele>2016.98</ele><time>2014-09-05T14:01:46Z</time></trkpt><trkpt lat="45.6541467737" lon="6.8594923150"><ele>2016.98</ele><time>2014-09-05T14:01:47Z</time></trkpt><trkpt lat="45.6540809758" lon="6.8594313785"><ele>2016.50</ele><time>2014-09-05T14:01:48Z</time></trkpt><trkpt lat="45.6540207937" lon="6.8593620602"><ele>2015.54</ele><time>2014-09-05T14:01:49Z</time></trkpt><trkpt lat="45.6539611146" lon="6.8592811748"><ele>2015.54</ele><time>2014-09-05T14:01:50Z</time></trkpt><trkpt lat="45.6539071351" lon="6.8591990322"><ele>2015.06</ele><time>2014-09-05T14:01:51Z</time></trkpt><trkpt lat="45.6532199867" lon="6.8583103828"><ele>2008.33</ele><time>2014-09-05T14:02:02Z</time></trkpt><trkpt lat="45.6529920828" lon="6.8581626937"><ele>2007.85</ele><time>2014-09-05T14:02:05Z</time></trkpt><trkpt lat="45.6521543115" lon="6.8576486316"><ele>2003.52</ele><time>2014-09-05T14:02:17Z</time></trkpt><trkpt lat="45.6513452064" lon="6.8568964396"><ele>1998.72</ele><time>2014-09-05T14:02:29Z</time></trkpt><trkpt lat="45.6507110316" lon="6.8564991374"><ele>1996.80</ele><time>2014-09-05T14:02:38Z</time></trkpt><trkpt lat="45.6505966187" lon="6.8564137258"><ele>1996.80</ele><time>2014-09-05T14:02:40Z</time></trkpt><trkpt lat="45.6505423877" lon="6.8563592434"><ele>1996.80</ele><time>2014-09-05T14:02:41Z</time></trkpt><trkpt lat="45.6504899170" lon="6.8562958762"><ele>1996.32</ele><time>2014-09-05T14:02:42Z</time></trkpt><trkpt lat="45.6504435651" lon="6.8562186789"><ele>1996.32</ele><time>2014-09-05T14:02:43Z</time></trkpt><trkpt lat="45.6504029129" lon="6.8561306689"><ele>1996.32</ele><time>2014-09-05T14:02:44Z</time></trkpt><trkpt lat="45.6503633503" lon="6.8560353667"><ele>1995.83</ele><time>2014-09-05T14:02:45Z</time></trkpt><trkpt lat="45.6497605238" lon="6.8548810948"><ele>1991.03</ele><time>2014-09-05T14:02:57Z</time></trkpt><trkpt lat="45.6497228891" lon="6.8547685258"><ele>1990.55</ele><time>2014-09-05T14:02:58Z</time></trkpt><trkpt lat="45.6496943068" lon="6.8546510115"><ele>1990.07</ele><time>2014-09-05T14:02:59Z</time></trkpt><trkpt lat="45.6496061292" lon="6.8541833851"><ele>1987.66</ele><time>2014-09-05T14:03:03Z</time></trkpt><trkpt lat="45.6495735236" lon="6.8540771026"><ele>1987.18</ele><time>2014-09-05T14:03:04Z</time></trkpt><trkpt lat="45.6495343801" lon="6.8539746758"><ele>1986.70</ele><time>2014-09-05T14:03:05Z</time></trkpt><trkpt lat="45.6492074858" lon="6.8532301951"><ele>1983.34</ele><time>2014-09-05T14:03:15Z</time></trkpt><trkpt lat="45.6492041331" lon="6.8532084860"><ele>1982.86</ele><time>2014-09-05T14:03:24Z</time></trkpt><trkpt lat="45.6491939910" lon="6.8532032892"><ele>1984.30</ele><time>2014-09-05T14:03:55Z</time></trkpt><trkpt lat="45.6491919793" lon="6.8532009423"><ele>1984.30</ele><time>2014-09-05T14:03:56Z</time></trkpt><trkpt lat="45.6491421908" lon="6.8531316239"><ele>1983.82</ele><time>2014-09-05T14:04:00Z</time></trkpt><trkpt lat="45.6491250917" lon="6.8530880380"><ele>1983.82</ele><time>2014-09-05T14:04:01Z</time></trkpt><trkpt lat="45.6491112616" lon="6.8530597072"><ele>1983.82</ele><time>2014-09-05T14:04:02Z</time></trkpt><trkpt lat="45.6490895525" lon="6.8530142773"><ele>1983.34</ele><time>2014-09-05T14:04:03Z</time></trkpt><trkpt lat="45.6490633171" lon="6.8529694341"><ele>1982.86</ele><time>2014-09-05T14:04:04Z</time></trkpt><trkpt lat="45.6490328908" lon="6.8529279437"><ele>1982.86</ele><time>2014-09-05T14:04:05Z</time></trkpt><trkpt lat="45.6489981897" lon="6.8528897222"><ele>1982.38</ele><time>2014-09-05T14:04:06Z</time></trkpt><trkpt lat="45.6489593815" lon="6.8528576195"><ele>1982.38</ele><time>2014-09-05T14:04:07Z</time></trkpt><trkpt lat="45.6489191484" lon="6.8528297078"><ele>1981.90</ele><time>2014-09-05T14:04:08Z</time></trkpt><trkpt lat="45.6488770712" lon="6.8527981918"><ele>1981.90</ele><time>2014-09-05T14:04:09Z</time></trkpt><trkpt lat="45.6488380115" lon="6.8527674302"><ele>1981.41</ele><time>2014-09-05T14:04:10Z</time></trkpt><trkpt lat="45.6487970240" lon="6.8527412787"><ele>1981.41</ele><time>2014-09-05T14:04:11Z</time></trkpt><trkpt lat="45.6479317602" lon="6.8522899132"><ele>1978.53</ele><time>2014-09-05T14:04:28Z</time></trkpt><trkpt lat="45.6475439295" lon="6.8520995602"><ele>1977.57</ele><time>2014-09-05T14:04:35Z</time></trkpt><trkpt lat="45.6474818196" lon="6.8520929385"><ele>1977.09</ele><time>2014-09-05T14:04:36Z</time></trkpt><trkpt lat="45.6472505629" lon="6.8520698044"><ele>1975.65</ele><time>2014-09-05T14:04:40Z</time></trkpt><trkpt lat="45.6471904647" lon="6.8520442396"><ele>1975.17</ele><time>2014-09-05T14:04:41Z</time></trkpt><trkpt lat="45.6471355632" lon="6.8520053476"><ele>1975.17</ele><time>2014-09-05T14:04:42Z</time></trkpt><trkpt lat="45.6470818352" lon="6.8519535474"><ele>1974.69</ele><time>2014-09-05T14:04:43Z</time></trkpt><trkpt lat="45.6470346451" lon="6.8518921919"><ele>1974.69</ele><time>2014-09-05T14:04:44Z</time></trkpt><trkpt lat="45.6469921488" lon="6.8518208619"><ele>1974.20</ele><time>2014-09-05T14:04:45Z</time></trkpt><trkpt lat="45.6469484791" lon="6.8517475203"><ele>1974.20</ele><time>2014-09-05T14:04:46Z</time></trkpt><trkpt lat="45.6468996964" lon="6.8516718317"><ele>1973.24</ele><time>2014-09-05T14:04:47Z</time></trkpt><trkpt lat="45.6462077703" lon="6.8507158756"><ele>1967.96</ele><time>2014-09-05T14:04:59Z</time></trkpt><trkpt lat="45.6457323488" lon="6.8501474150"><ele>1965.55</ele><time>2014-09-05T14:05:07Z</time></trkpt><trkpt lat="45.6456838176" lon="6.8500560522"><ele>1965.07</ele><time>2014-09-05T14:05:08Z</time></trkpt><trkpt lat="45.6453969050" lon="6.8494424969"><ele>1962.67</ele><time>2014-09-05T14:05:15Z</time></trkpt><trkpt lat="45.6453447696" lon="6.8493881822"><ele>1962.67</ele><time>2014-09-05T14:05:16Z</time></trkpt><trkpt lat="45.6447571144" lon="6.8485438731"><ele>1958.34</ele><time>2014-09-05T14:05:28Z</time></trkpt><trkpt lat="45.6441148929" lon="6.8477250449"><ele>1955.46</ele><time>2014-09-05T14:05:39Z</time></trkpt><trkpt lat="45.6440371927" lon="6.8476910144"><ele>1954.98</ele><time>2014-09-05T14:05:40Z</time></trkpt><trkpt lat="45.6439583190" lon="6.8476698920"><ele>1954.50</ele><time>2014-09-05T14:05:41Z</time></trkpt><trkpt lat="45.6438010745" lon="6.8476365320"><ele>1954.02</ele><time>2014-09-05T14:05:43Z</time></trkpt><trkpt lat="45.6437303312" lon="6.8475951254"><ele>1953.54</ele><time>2014-09-05T14:05:44Z</time></trkpt><trkpt lat="45.6436635274" lon="6.8475317582"><ele>1953.06</ele><time>2014-09-05T14:05:45Z</time></trkpt><trkpt lat="45.6432404928" lon="6.8470874336"><ele>1949.21</ele><time>2014-09-05T14:05:51Z</time></trkpt><trkpt lat="45.6431728508" lon="6.8469947297"><ele>1948.73</ele><time>2014-09-05T14:05:52Z</time></trkpt><trkpt lat="45.6431111600" lon="6.8468925543"><ele>1948.25</ele><time>2014-09-05T14:05:53Z</time></trkpt><trkpt lat="45.6422286294" lon="6.8455475941"><ele>1942.96</ele><time>2014-09-05T14:06:07Z</time></trkpt><trkpt lat="45.6421785057" lon="6.8454551417"><ele>1942.96</ele><time>2014-09-05T14:06:08Z</time></trkpt><trkpt lat="45.6421328243" lon="6.8453597557"><ele>1942.48</ele><time>2014-09-05T14:06:09Z</time></trkpt><trkpt lat="45.6418223586" lon="6.8444084935"><ele>1939.60</ele><time>2014-09-05T14:06:19Z</time></trkpt><trkpt lat="45.6417899206" lon="6.8443484791"><ele>1939.12</ele><time>2014-09-05T14:06:20Z</time></trkpt><trkpt lat="45.6417493522" lon="6.8443061505"><ele>1938.64</ele><time>2014-09-05T14:06:21Z</time></trkpt><trkpt lat="45.6417011563" lon="6.8442830164"><ele>1938.64</ele><time>2014-09-05T14:06:22Z</time></trkpt><trkpt lat="45.6416525412" lon="6.8442862015"><ele>1937.67</ele><time>2014-09-05T14:06:23Z</time></trkpt><trkpt lat="45.6416004058" lon="6.8443062343"><ele>1936.71</ele><time>2014-09-05T14:06:24Z</time></trkpt><trkpt lat="45.6415424030" lon="6.8443319667"><ele>1936.23</ele><time>2014-09-05T14:06:25Z</time></trkpt><trkpt lat="45.6414826401" lon="6.8443639018"><ele>1936.23</ele><time>2014-09-05T14:06:26Z</time></trkpt><trkpt lat="45.6414216198" lon="6.8444016203"><ele>1935.75</ele><time>2014-09-05T14:06:27Z</time></trkpt><trkpt lat="45.6406768877" lon="6.8451007549"><ele>1930.95</ele><time>2014-09-05T14:06:39Z</time></trkpt><trkpt lat="45.6404950842" lon="6.8452382181"><ele>1930.46</ele><time>2014-09-05T14:06:42Z</time></trkpt><trkpt lat="45.6404290348" lon="6.8452704046"><ele>1929.98</ele><time>2014-09-05T14:06:43Z</time></trkpt><trkpt lat="45.6402311381" lon="6.8453688920"><ele>1929.50</ele><time>2014-09-05T14:06:46Z</time></trkpt><trkpt lat="45.6401694473" lon="6.8454175070"><ele>1929.02</ele><time>2014-09-05T14:06:47Z</time></trkpt><trkpt lat="45.6395250466" lon="6.8460390251"><ele>1925.18</ele><time>2014-09-05T14:06:57Z</time></trkpt><trkpt lat="45.6394714024" lon="6.8461207487"><ele>1924.70</ele><time>2014-09-05T14:06:58Z</time></trkpt><trkpt lat="45.6393684726" lon="6.8462867104"><ele>1924.22</ele><time>2014-09-05T14:07:00Z</time></trkpt><trkpt lat="45.6393199414" lon="6.8463427015"><ele>1923.74</ele><time>2014-09-05T14:07:01Z</time></trkpt><trkpt lat="45.6392643694" lon="6.8463890534"><ele>1923.74</ele><time>2014-09-05T14:07:02Z</time></trkpt><trkpt lat="45.6391922012" lon="6.8464310467"><ele>1923.25</ele><time>2014-09-05T14:07:03Z</time></trkpt><trkpt lat="45.6391413230" lon="6.8464494031"><ele>1923.25</ele><time>2014-09-05T14:07:04Z</time></trkpt><trkpt lat="45.6390727591" lon="6.8464659993"><ele>1922.77</ele><time>2014-09-05T14:07:05Z</time></trkpt><trkpt lat="45.6390064582" lon="6.8464808352"><ele>1922.29</ele><time>2014-09-05T14:07:06Z</time></trkpt><trkpt lat="45.6389401574" lon="6.8465019576"><ele>1922.29</ele><time>2014-09-05T14:07:07Z</time></trkpt><trkpt lat="45.6385856029" lon="6.8466524966"><ele>1920.37</ele><time>2014-09-05T14:07:12Z</time></trkpt><trkpt lat="45.6385086570" lon="6.8466646504"><ele>1920.37</ele><time>2014-09-05T14:07:13Z</time></trkpt><trkpt lat="45.6384342257" lon="6.8466662429"><ele>1919.89</ele><time>2014-09-05T14:07:14Z</time></trkpt><trkpt lat="45.6380628236" lon="6.8466902152"><ele>1917.97</ele><time>2014-09-05T14:07:20Z</time></trkpt><trkpt lat="45.6380033121" lon="6.8467206415"><ele>1917.49</ele><time>2014-09-05T14:07:21Z</time></trkpt><trkpt lat="45.6377827004" lon="6.8469050433"><ele>1915.56</ele><time>2014-09-05T14:07:25Z</time></trkpt><trkpt lat="45.6377427187" lon="6.8469664827"><ele>1915.56</ele><time>2014-09-05T14:07:26Z</time></trkpt><trkpt lat="45.6377131306" lon="6.8470331188"><ele>1915.08</ele><time>2014-09-05T14:07:27Z</time></trkpt><trkpt lat="45.6376908347" lon="6.8471052032"><ele>1915.08</ele><time>2014-09-05T14:07:28Z</time></trkpt><trkpt lat="45.6376730651" lon="6.8471763656"><ele>1915.08</ele><time>2014-09-05T14:07:29Z</time></trkpt><trkpt lat="45.6376598217" lon="6.8472520541"><ele>1914.60</ele><time>2014-09-05T14:07:30Z</time></trkpt><trkpt lat="45.6376521941" lon="6.8473333586"><ele>1914.60</ele><time>2014-09-05T14:07:31Z</time></trkpt><trkpt lat="45.6376493443" lon="6.8474152498"><ele>1914.12</ele><time>2014-09-05T14:07:32Z</time></trkpt><trkpt lat="45.6376455724" lon="6.8474996556"><ele>1914.12</ele><time>2014-09-05T14:07:33Z</time></trkpt><trkpt lat="45.6376388669" lon="6.8475858215"><ele>1913.64</ele><time>2014-09-05T14:07:34Z</time></trkpt><trkpt lat="45.6375485100" lon="6.8483487424"><ele>1910.76</ele><time>2014-09-05T14:07:42Z</time></trkpt><trkpt lat="45.6375141442" lon="6.8484409433"><ele>1910.28</ele><time>2014-09-05T14:07:43Z</time></trkpt><trkpt lat="45.6374741625" lon="6.8485301267"><ele>1909.80</ele><time>2014-09-05T14:07:44Z</time></trkpt><trkpt lat="45.6373825483" lon="6.8486988544"><ele>1909.32</ele><time>2014-09-05T14:07:46Z</time></trkpt><trkpt lat="45.6372783612" lon="6.8488595355"><ele>1908.83</ele><time>2014-09-05T14:07:48Z</time></trkpt><trkpt lat="45.6372350268" lon="6.8489483837"><ele>1908.35</ele><time>2014-09-05T14:07:49Z</time></trkpt><trkpt lat="45.6371155847" lon="6.8492314406"><ele>1906.43</ele><time>2014-09-05T14:07:52Z</time></trkpt><trkpt lat="45.6370663829" lon="6.8493118230"><ele>1905.95</ele><time>2014-09-05T14:07:53Z</time></trkpt><trkpt lat="45.6370069552" lon="6.8493818957"><ele>1905.95</ele><time>2014-09-05T14:07:54Z</time></trkpt><trkpt lat="45.6369433366" lon="6.8494445924"><ele>1905.47</ele><time>2014-09-05T14:07:55Z</time></trkpt><trkpt lat="45.6368755270" lon="6.8494981527"><ele>1904.99</ele><time>2014-09-05T14:07:56Z</time></trkpt><trkpt lat="45.6368083879" lon="6.8495503720"><ele>1904.99</ele><time>2014-09-05T14:07:57Z</time></trkpt><trkpt lat="45.6359902304" lon="6.8504205812"><ele>1902.11</ele><time>2014-09-05T14:08:11Z</time></trkpt><trkpt lat="45.6359515060" lon="6.8504555337"><ele>1901.63</ele><time>2014-09-05T14:08:12Z</time></trkpt><trkpt lat="45.6358971912" lon="6.8504873011"><ele>1901.63</ele><time>2014-09-05T14:08:13Z</time></trkpt><trkpt lat="45.6358431280" lon="6.8504955154"><ele>1901.63</ele><time>2014-09-05T14:08:14Z</time></trkpt><trkpt lat="45.6357917469" lon="6.8504742254"><ele>1901.14</ele><time>2014-09-05T14:08:15Z</time></trkpt><trkpt lat="45.6357430480" lon="6.8504367582"><ele>1901.14</ele><time>2014-09-05T14:08:16Z</time></trkpt><trkpt lat="45.6356908288" lon="6.8503972795"><ele>1900.66</ele><time>2014-09-05T14:08:17Z</time></trkpt><trkpt lat="45.6356371846" lon="6.8503623269"><ele>1900.18</ele><time>2014-09-05T14:08:18Z</time></trkpt><trkpt lat="45.6355816126" lon="6.8503314815"><ele>1900.18</ele><time>2014-09-05T14:08:19Z</time></trkpt><trkpt lat="45.6349541433" lon="6.8500891607"><ele>1896.82</ele><time>2014-09-05T14:08:29Z</time></trkpt><trkpt lat="45.6348934583" lon="6.8500300683"><ele>1896.82</ele><time>2014-09-05T14:08:30Z</time></trkpt><trkpt lat="45.6348374672" lon="6.8499611691"><ele>1896.34</ele><time>2014-09-05T14:08:31Z</time></trkpt><trkpt lat="45.6347852480" lon="6.8498819601"><ele>1896.34</ele><time>2014-09-05T14:08:32Z</time></trkpt><trkpt lat="45.6347405724" lon="6.8497967161"><ele>1895.86</ele><time>2014-09-05T14:08:33Z</time></trkpt><trkpt lat="45.6347041111" lon="6.8497075327"><ele>1895.38</ele><time>2014-09-05T14:08:34Z</time></trkpt><trkpt lat="45.6346698292" lon="6.8496146612"><ele>1894.90</ele><time>2014-09-05T14:08:35Z</time></trkpt><trkpt lat="45.6345622055" lon="6.8493887689"><ele>1893.93</ele><time>2014-09-05T14:08:38Z</time></trkpt><trkpt lat="45.6345151830" lon="6.8493219651"><ele>1893.45</ele><time>2014-09-05T14:08:39Z</time></trkpt><trkpt lat="45.6344631314" lon="6.8492651358"><ele>1892.97</ele><time>2014-09-05T14:08:40Z</time></trkpt><trkpt lat="45.6344071403" lon="6.8492181133"><ele>1892.49</ele><time>2014-09-05T14:08:41Z</time></trkpt><trkpt lat="45.6343476288" lon="6.8491785508"><ele>1892.49</ele><time>2014-09-05T14:08:42Z</time></trkpt><trkpt lat="45.6342836749" lon="6.8491490465"><ele>1892.01</ele><time>2014-09-05T14:08:43Z</time></trkpt><trkpt lat="45.6342146918" lon="6.8491271697"><ele>1891.53</ele><time>2014-09-05T14:08:44Z</time></trkpt><trkpt lat="45.6341427751" lon="6.8491119146"><ele>1891.53</ele><time>2014-09-05T14:08:45Z</time></trkpt><trkpt lat="45.6333127152" lon="6.8490435183"><ele>1886.72</ele><time>2014-09-05T14:08:56Z</time></trkpt><trkpt lat="45.6330129784" lon="6.8490780517"><ele>1884.80</ele><time>2014-09-05T14:09:00Z</time></trkpt><trkpt lat="45.6329374574" lon="6.8490702566"><ele>1884.32</ele><time>2014-09-05T14:09:01Z</time></trkpt><trkpt lat="45.6328616850" lon="6.8490540795"><ele>1883.84</ele><time>2014-09-05T14:09:02Z</time></trkpt><trkpt lat="45.6326417439" lon="6.8489815760"><ele>1882.40</ele><time>2014-09-05T14:09:05Z</time></trkpt><trkpt lat="45.6325705815" lon="6.8489423487"><ele>1881.92</ele><time>2014-09-05T14:09:06Z</time></trkpt><trkpt lat="45.6325000059" lon="6.8488949072"><ele>1881.44</ele><time>2014-09-05T14:09:07Z</time></trkpt><trkpt lat="45.6324313581" lon="6.8488368206"><ele>1880.96</ele><time>2014-09-05T14:09:08Z</time></trkpt><trkpt lat="45.6323658954" lon="6.8487739563"><ele>1880.48</ele><time>2014-09-05T14:09:09Z</time></trkpt><trkpt lat="45.6321188807" lon="6.8484802544"><ele>1878.55</ele><time>2014-09-05T14:09:13Z</time></trkpt><trkpt lat="45.6318911444" lon="6.8481266219"><ele>1876.63</ele><time>2014-09-05T14:09:17Z</time></trkpt><trkpt lat="45.6318257656" lon="6.8480488379"><ele>1876.15</ele><time>2014-09-05T14:09:18Z</time></trkpt><trkpt lat="45.6316861231" lon="6.8479145598"><ele>1875.67</ele><time>2014-09-05T14:09:20Z</time></trkpt><trkpt lat="45.6316106860" lon="6.8478657771"><ele>1875.19</ele><time>2014-09-05T14:09:21Z</time></trkpt><trkpt lat="45.6315355003" lon="6.8478283100"><ele>1874.71</ele><time>2014-09-05T14:09:22Z</time></trkpt><trkpt lat="45.6314570457" lon="6.8477885798"><ele>1874.23</ele><time>2014-09-05T14:09:23Z</time></trkpt><trkpt lat="45.6313897390" lon="6.8477410544"><ele>1873.75</ele><time>2014-09-05T14:09:24Z</time></trkpt><trkpt lat="45.6313309819" lon="6.8476869911"><ele>1873.27</ele><time>2014-09-05T14:09:25Z</time></trkpt><trkpt lat="45.6312701292" lon="6.8476142362"><ele>1872.79</ele><time>2014-09-05T14:09:26Z</time></trkpt><trkpt lat="45.6312199216" lon="6.8475451693"><ele>1872.30</ele><time>2014-09-05T14:09:27Z</time></trkpt><trkpt lat="45.6310078595" lon="6.8473022617"><ele>1871.34</ele><time>2014-09-05T14:09:31Z</time></trkpt><trkpt lat="45.6309456658" lon="6.8472621962"><ele>1870.86</ele><time>2014-09-05T14:09:32Z</time></trkpt><trkpt lat="45.6304617785" lon="6.8469096534"><ele>1868.46</ele><time>2014-09-05T14:09:40Z</time></trkpt><trkpt lat="45.6304224674" lon="6.8468540814"><ele>1867.98</ele><time>2014-09-05T14:09:41Z</time></trkpt><trkpt lat="45.6303166877" lon="6.8466707692"><ele>1867.50</ele><time>2014-09-05T14:09:49Z</time></trkpt><trkpt lat="45.6303228065" lon="6.8466463778"><ele>1866.06</ele><time>2014-09-05T14:10:00Z</time></trkpt><trkpt lat="45.6303240638" lon="6.8466454558"><ele>1866.06</ele><time>2014-09-05T14:10:35Z</time></trkpt><trkpt lat="45.6303353794" lon="6.8466514070"><ele>1866.06</ele><time>2014-09-05T14:11:16Z</time></trkpt><trkpt lat="45.6303017680" lon="6.8466412649"><ele>1866.54</ele><time>2014-09-05T14:11:47Z</time></trkpt><trkpt lat="45.6302867644" lon="6.8466366548"><ele>1866.54</ele><time>2014-09-05T14:11:48Z</time></trkpt><trkpt lat="45.6302637979" lon="6.8466286082"><ele>1866.54</ele><time>2014-09-05T14:11:49Z</time></trkpt><trkpt lat="45.6300181244" lon="6.8465307076"><ele>1865.58</ele><time>2014-09-05T14:12:01Z</time></trkpt><trkpt lat="45.6299971696" lon="6.8465305399"><ele>1866.54</ele><time>2014-09-05T14:12:16Z</time></trkpt><trkpt lat="45.6300084852" lon="6.8465420231"><ele>1865.09</ele><time>2014-09-05T14:12:35Z</time></trkpt><trkpt lat="45.6300354749" lon="6.8465469684"><ele>1864.13</ele><time>2014-09-05T14:13:04Z</time></trkpt><trkpt lat="45.6300353073" lon="6.8465394247"><ele>1863.17</ele><time>2014-09-05T14:13:28Z</time></trkpt><trkpt lat="45.6300240755" lon="6.8465400953"><ele>1863.65</ele><time>2014-09-05T14:13:47Z</time></trkpt><trkpt lat="45.6300187949" lon="6.8465581164"><ele>1864.61</ele><time>2014-09-05T14:14:08Z</time></trkpt><trkpt lat="45.6300150231" lon="6.8465811666"><ele>1864.13</ele><time>2014-09-05T14:14:09Z</time></trkpt><trkpt lat="45.6300068926" lon="6.8466135208"><ele>1864.13</ele><time>2014-09-05T14:14:10Z</time></trkpt><trkpt lat="45.6299955770" lon="6.8466510717"><ele>1863.65</ele><time>2014-09-05T14:14:11Z</time></trkpt><trkpt lat="45.6299803220" lon="6.8466899637"><ele>1863.65</ele><time>2014-09-05T14:14:12Z</time></trkpt><trkpt lat="45.6299607921" lon="6.8467280176"><ele>1863.65</ele><time>2014-09-05T14:14:13Z</time></trkpt><trkpt lat="45.6299386639" lon="6.8467674963"><ele>1863.17</ele><time>2014-09-05T14:14:14Z</time></trkpt><trkpt lat="45.6295535993" lon="6.8472500425"><ele>1864.13</ele><time>2014-09-05T14:14:28Z</time></trkpt><trkpt lat="45.6293008011" lon="6.8475787807"><ele>1863.65</ele><time>2014-09-05T14:14:44Z</time></trkpt><trkpt lat="45.6292668544" lon="6.8476374540"><ele>1864.13</ele><time>2014-09-05T14:14:49Z</time></trkpt><trkpt lat="45.6292410381" lon="6.8476547208"><ele>1864.13</ele><time>2014-09-05T14:14:51Z</time></trkpt><trkpt lat="45.6291375216" lon="6.8476061057"><ele>1864.13</ele><time>2014-09-05T14:15:01Z</time></trkpt><trkpt lat="45.6288641039" lon="6.8478792720"><ele>1863.65</ele><time>2014-09-05T14:15:14Z</time></trkpt><trkpt lat="45.6283783726" lon="6.8482019752"><ele>1859.33</ele><time>2014-09-05T14:15:30Z</time></trkpt><trkpt lat="45.6280275062" lon="6.8485098425"><ele>1856.44</ele><time>2014-09-05T14:15:42Z</time></trkpt><trkpt lat="45.6276167929" lon="6.8489742000"><ele>1854.04</ele><time>2014-09-05T14:15:58Z</time></trkpt><trkpt lat="45.6273291260" lon="6.8494665530"><ele>1852.12</ele><time>2014-09-05T14:16:14Z</time></trkpt><trkpt lat="45.6270899065" lon="6.8496858235"><ele>1851.16</ele><time>2014-09-05T14:16:27Z</time></trkpt><trkpt lat="45.6268332526" lon="6.8500452396"><ele>1851.64</ele><time>2014-09-05T14:16:43Z</time></trkpt><trkpt lat="45.6266847253" lon="6.8504923303"><ele>1851.16</ele><time>2014-09-05T14:16:58Z</time></trkpt><trkpt lat="45.6263958849" lon="6.8508733716"><ele>1850.19</ele><time>2014-09-05T14:17:13Z</time></trkpt><trkpt lat="45.6261630356" lon="6.8512045406"><ele>1850.19</ele><time>2014-09-05T14:17:25Z</time></trkpt><trkpt lat="45.6259755325" lon="6.8517063651"><ele>1847.31</ele><time>2014-09-05T14:17:38Z</time></trkpt><trkpt lat="45.6258018594" lon="6.8523948546"><ele>1844.43</ele><time>2014-09-05T14:17:52Z</time></trkpt><trkpt lat="45.6257409230" lon="6.8532346375"><ele>1839.14</ele><time>2014-09-05T14:18:07Z</time></trkpt><trkpt lat="45.6256616302" lon="6.8540371209"><ele>1835.29</ele><time>2014-09-05T14:18:23Z</time></trkpt><trkpt lat="45.6256217323" lon="6.8545381911"><ele>1832.41</ele><time>2014-09-05T14:18:34Z</time></trkpt><trkpt lat="45.6256225705" lon="6.8550437875"><ele>1830.97</ele><time>2014-09-05T14:18:45Z</time></trkpt><trkpt lat="45.6254194770" lon="6.8555565085"><ele>1828.56</ele><time>2014-09-05T14:18:57Z</time></trkpt><trkpt lat="45.6251974404" lon="6.8560616020"><ele>1826.64</ele><time>2014-09-05T14:19:09Z</time></trkpt><trkpt lat="45.6248724740" lon="6.8567563780"><ele>1822.80</ele><time>2014-09-05T14:19:25Z</time></trkpt><trkpt lat="45.6247216836" lon="6.8569912389"><ele>1821.35</ele><time>2014-09-05T14:19:30Z</time></trkpt><trkpt lat="45.6246889103" lon="6.8570298795"><ele>1820.87</ele><time>2014-09-05T14:19:31Z</time></trkpt><trkpt lat="45.6244207732" lon="6.8572947476"><ele>1818.95</ele><time>2014-09-05T14:19:39Z</time></trkpt><trkpt lat="45.6243900117" lon="6.8573344778"><ele>1818.95</ele><time>2014-09-05T14:19:40Z</time></trkpt><trkpt lat="45.6240971480" lon="6.8579036091"><ele>1815.59</ele><time>2014-09-05T14:19:54Z</time></trkpt><trkpt lat="45.6239623670" lon="6.8583712354"><ele>1812.70</ele><time>2014-09-05T14:20:06Z</time></trkpt><trkpt lat="45.6239637081" lon="6.8592085037"><ele>1809.34</ele><time>2014-09-05T14:20:23Z</time></trkpt><trkpt lat="45.6239586789" lon="6.8593750522"><ele>1809.34</ele><time>2014-09-05T14:20:31Z</time></trkpt><trkpt lat="45.6239561643" lon="6.8594215717"><ele>1808.38</ele><time>2014-09-05T14:20:58Z</time></trkpt><trkpt lat="45.6239609420" lon="6.8599541578"><ele>1805.97</ele><time>2014-09-05T14:21:09Z</time></trkpt><trkpt lat="45.6240418274" lon="6.8611836992"><ele>1800.69</ele><time>2014-09-05T14:21:25Z</time></trkpt><trkpt lat="45.6241132412" lon="6.8624945451"><ele>1794.92</ele><time>2014-09-05T14:21:39Z</time></trkpt><trkpt lat="45.6240104791" lon="6.8635621481"><ele>1791.07</ele><time>2014-09-05T14:21:51Z</time></trkpt><trkpt lat="45.6239624508" lon="6.8644009251"><ele>1788.67</ele><time>2014-09-05T14:22:01Z</time></trkpt><trkpt lat="45.6239711680" lon="6.8644728418"><ele>1788.67</ele><time>2014-09-05T14:22:02Z</time></trkpt><trkpt lat="45.6239869259" lon="6.8645422440"><ele>1788.19</ele><time>2014-09-05T14:22:03Z</time></trkpt><trkpt lat="45.6240273267" lon="6.8646702357"><ele>1788.19</ele><time>2014-09-05T14:22:05Z</time></trkpt><trkpt lat="45.6240813900" lon="6.8647921085"><ele>1787.71</ele><time>2014-09-05T14:22:07Z</time></trkpt><trkpt lat="45.6241766922" lon="6.8651142251"><ele>1786.75</ele><time>2014-09-05T14:22:13Z</time></trkpt><trkpt lat="45.6241560727" lon="6.8651592359"><ele>1786.27</ele><time>2014-09-05T14:22:14Z</time></trkpt><trkpt lat="45.6241210364" lon="6.8651825376"><ele>1785.79</ele><time>2014-09-05T14:22:15Z</time></trkpt><trkpt lat="45.6240803003" lon="6.8651773408"><ele>1785.79</ele><time>2014-09-05T14:22:16Z</time></trkpt><trkpt lat="45.6240410730" lon="6.8651372753"><ele>1785.31</ele><time>2014-09-05T14:22:17Z</time></trkpt><trkpt lat="45.6240121555" lon="6.8650745787"><ele>1785.31</ele><time>2014-09-05T14:22:18Z</time></trkpt><trkpt lat="45.6239954755" lon="6.8650166597"><ele>1784.82</ele><time>2014-09-05T14:22:19Z</time></trkpt><trkpt lat="45.6239792146" lon="6.8649443239"><ele>1784.82</ele><time>2014-09-05T14:22:20Z</time></trkpt><trkpt lat="45.6237158552" lon="6.8634244334"><ele>1779.54</ele><time>2014-09-05T14:22:38Z</time></trkpt><trkpt lat="45.6234356482" lon="6.8620384857"><ele>1773.77</ele><time>2014-09-05T14:22:55Z</time></trkpt><trkpt lat="45.6231030542" lon="6.8607167434"><ele>1769.44</ele><time>2014-09-05T14:23:10Z</time></trkpt><trkpt lat="45.6227846257" lon="6.8600441795"><ele>1766.08</ele><time>2014-09-05T14:23:19Z</time></trkpt><trkpt lat="45.6227245275" lon="6.8598051276"><ele>1765.12</ele><time>2014-09-05T14:23:22Z</time></trkpt><trkpt lat="45.6227119546" lon="6.8597193807"><ele>1764.64</ele><time>2014-09-05T14:23:23Z</time></trkpt><trkpt lat="45.6226245314" lon="6.8583137356"><ele>1759.83</ele><time>2014-09-05T14:23:41Z</time></trkpt><trkpt lat="45.6226241961" lon="6.8579730112"><ele>1758.39</ele><time>2014-09-05T14:23:46Z</time></trkpt><trkpt lat="45.6226371042" lon="6.8579041958"><ele>1758.39</ele><time>2014-09-05T14:23:47Z</time></trkpt><trkpt lat="45.6226564664" lon="6.8578382302"><ele>1757.91</ele><time>2014-09-05T14:23:48Z</time></trkpt><trkpt lat="45.6226812769" lon="6.8577725999"><ele>1757.91</ele><time>2014-09-05T14:23:49Z</time></trkpt><trkpt lat="45.6227117032" lon="6.8577121664"><ele>1757.43</ele><time>2014-09-05T14:23:50Z</time></trkpt><trkpt lat="45.6227469072" lon="6.8576525711"><ele>1756.95</ele><time>2014-09-05T14:23:51Z</time></trkpt><trkpt lat="45.6228867173" lon="6.8573898822"><ele>1755.50</ele><time>2014-09-05T14:23:55Z</time></trkpt><trkpt lat="45.6229097676" lon="6.8573094159"><ele>1755.50</ele><time>2014-09-05T14:23:56Z</time></trkpt><trkpt lat="45.6229443848" lon="6.8571378384"><ele>1754.54</ele><time>2014-09-05T14:23:58Z</time></trkpt><trkpt lat="45.6230344903" lon="6.8560157530"><ele>1749.26</ele><time>2014-09-05T14:24:12Z</time></trkpt><trkpt lat="45.6230694428" lon="6.8550658319"><ele>1744.93</ele><time>2014-09-05T14:24:25Z</time></trkpt><trkpt lat="45.6230326463" lon="6.8546747323"><ele>1743.01</ele><time>2014-09-05T14:24:30Z</time></trkpt><trkpt lat="45.6230176426" lon="6.8545898236"><ele>1742.53</ele><time>2014-09-05T14:24:31Z</time></trkpt><trkpt lat="45.6228697021" lon="6.8534099869"><ele>1738.68</ele><time>2014-09-05T14:24:44Z</time></trkpt><trkpt lat="45.6228754856" lon="6.8533287663"><ele>1738.68</ele><time>2014-09-05T14:24:45Z</time></trkpt><trkpt lat="45.6231227517" lon="6.8520480115"><ele>1735.32</ele><time>2014-09-05T14:25:02Z</time></trkpt><trkpt lat="45.6233655754" lon="6.8510256708"><ele>1734.36</ele><time>2014-09-05T14:25:17Z</time></trkpt><trkpt lat="45.6233822554" lon="6.8509080727"><ele>1734.84</ele><time>2014-09-05T14:25:19Z</time></trkpt><trkpt lat="45.6233804952" lon="6.8508478068"><ele>1734.84</ele><time>2014-09-05T14:25:20Z</time></trkpt><trkpt lat="45.6233754661" lon="6.8508076575"><ele>1734.84</ele><time>2014-09-05T14:25:21Z</time></trkpt><trkpt lat="45.6233704370" lon="6.8507820088"><ele>1734.84</ele><time>2014-09-05T14:25:22Z</time></trkpt><trkpt lat="45.6233743764" lon="6.8507423624"><ele>1734.84</ele><time>2014-09-05T14:25:31Z</time></trkpt><trkpt lat="45.6233775616" lon="6.8507267721"><ele>1736.76</ele><time>2014-09-05T14:26:03Z</time></trkpt><trkpt lat="45.6233872846" lon="6.8507261015"><ele>1738.68</ele><time>2014-09-05T14:26:40Z</time></trkpt><trkpt lat="45.6233930681" lon="6.8507194798"><ele>1739.64</ele><time>2014-09-05T14:27:12Z</time></trkpt><trkpt lat="45.6233887933" lon="6.8507209048"><ele>1740.12</ele><time>2014-09-05T14:27:39Z</time></trkpt><trkpt lat="45.6233618036" lon="6.8507253472"><ele>1740.12</ele><time>2014-09-05T14:28:04Z</time></trkpt><trkpt lat="45.6233493146" lon="6.8507184740"><ele>1739.64</ele><time>2014-09-05T14:28:06Z</time></trkpt><trkpt lat="45.6233374961" lon="6.8507123552"><ele>1739.64</ele><time>2014-09-05T14:28:07Z</time></trkpt><trkpt lat="45.6233188044" lon="6.8507076614"><ele>1739.16</ele><time>2014-09-05T14:28:08Z</time></trkpt><trkpt lat="45.6232987717" lon="6.8507023808"><ele>1739.16</ele><time>2014-09-05T14:28:09Z</time></trkpt><trkpt lat="45.6232763920" lon="6.8507006206"><ele>1738.68</ele><time>2014-09-05T14:28:10Z</time></trkpt><trkpt lat="45.6232500728" lon="6.8507095892"><ele>1738.20</ele><time>2014-09-05T14:28:11Z</time></trkpt><trkpt lat="45.6232216582" lon="6.8507344835"><ele>1738.20</ele><time>2014-09-05T14:28:12Z</time></trkpt><trkpt lat="45.6231927406" lon="6.8507727049"><ele>1737.72</ele><time>2014-09-05T14:28:13Z</time></trkpt><trkpt lat="45.6231711153" lon="6.8508169614"><ele>1737.24</ele><time>2014-09-05T14:28:14Z</time></trkpt><trkpt lat="45.6231538486" lon="6.8508782331"><ele>1737.24</ele><time>2014-09-05T14:28:15Z</time></trkpt><trkpt lat="45.6231416948" lon="6.8509466294"><ele>1736.76</ele><time>2014-09-05T14:28:16Z</time></trkpt><trkpt lat="45.6231317203" lon="6.8510170374"><ele>1736.28</ele><time>2014-09-05T14:28:17Z</time></trkpt><trkpt lat="45.6228517648" lon="6.8522146437"><ele>1729.55</ele><time>2014-09-05T14:28:32Z</time></trkpt><trkpt lat="45.6226886529" lon="6.8526384328"><ele>1727.63</ele><time>2014-09-05T14:28:38Z</time></trkpt><trkpt lat="45.6225023232" lon="6.8537480291"><ele>1724.26</ele><time>2014-09-05T14:28:52Z</time></trkpt><trkpt lat="45.6225040834" lon="6.8538457621"><ele>1723.78</ele><time>2014-09-05T14:28:53Z</time></trkpt><trkpt lat="45.6225317437" lon="6.8543107063"><ele>1722.34</ele><time>2014-09-05T14:28:58Z</time></trkpt><trkpt lat="45.6225272175" lon="6.8544022366"><ele>1721.86</ele><time>2014-09-05T14:28:59Z</time></trkpt><trkpt lat="45.6225165725" lon="6.8544952758"><ele>1721.38</ele><time>2014-09-05T14:29:00Z</time></trkpt><trkpt lat="45.6224994734" lon="6.8545841239"><ele>1721.38</ele><time>2014-09-05T14:29:01Z</time></trkpt><trkpt lat="45.6224769261" lon="6.8546733912"><ele>1720.90</ele><time>2014-09-05T14:29:02Z</time></trkpt><trkpt lat="45.6224411353" lon="6.8548525125"><ele>1720.42</ele><time>2014-09-05T14:29:04Z</time></trkpt><trkpt lat="45.6223592442" lon="6.8553810753"><ele>1718.49</ele><time>2014-09-05T14:29:10Z</time></trkpt><trkpt lat="45.6223299913" lon="6.8554607872"><ele>1718.49</ele><time>2014-09-05T14:29:11Z</time></trkpt><trkpt lat="45.6222941168" lon="6.8555327877"><ele>1718.01</ele><time>2014-09-05T14:29:12Z</time></trkpt><trkpt lat="45.6222525425" lon="6.8555986695"><ele>1718.01</ele><time>2014-09-05T14:29:13Z</time></trkpt><trkpt lat="45.6222064421" lon="6.8556639645"><ele>1718.01</ele><time>2014-09-05T14:29:14Z</time></trkpt><trkpt lat="45.6220256444" lon="6.8559316825"><ele>1717.53</ele><time>2014-09-05T14:29:18Z</time></trkpt><trkpt lat="45.6219921168" lon="6.8560067844"><ele>1717.05</ele><time>2014-09-05T14:29:19Z</time></trkpt><trkpt lat="45.6219635345" lon="6.8560907710"><ele>1717.05</ele><time>2014-09-05T14:29:20Z</time></trkpt><trkpt lat="45.6219424959" lon="6.8561761826"><ele>1716.57</ele><time>2014-09-05T14:29:21Z</time></trkpt><trkpt lat="45.6219279952" lon="6.8562682159"><ele>1716.09</ele><time>2014-09-05T14:29:22Z</time></trkpt><trkpt lat="45.6219240557" lon="6.8563626800"><ele>1716.09</ele><time>2014-09-05T14:29:23Z</time></trkpt><trkpt lat="45.6219301745" lon="6.8564559706"><ele>1715.61</ele><time>2014-09-05T14:29:24Z</time></trkpt><trkpt lat="45.6219401490" lon="6.8565418012"><ele>1715.13</ele><time>2014-09-05T14:29:25Z</time></trkpt><trkpt lat="45.6219523028" lon="6.8566322420"><ele>1715.13</ele><time>2014-09-05T14:29:26Z</time></trkpt><trkpt lat="45.6219595950" lon="6.8567172345"><ele>1714.65</ele><time>2014-09-05T14:29:27Z</time></trkpt><trkpt lat="45.6219631154" lon="6.8568006344"><ele>1714.17</ele><time>2014-09-05T14:29:28Z</time></trkpt><trkpt lat="45.6219559908" lon="6.8568857946"><ele>1714.17</ele><time>2014-09-05T14:29:29Z</time></trkpt><trkpt lat="45.6219358742" lon="6.8569646683"><ele>1713.69</ele><time>2014-09-05T14:29:30Z</time></trkpt><trkpt lat="45.6219027657" lon="6.8570398539"><ele>1713.21</ele><time>2014-09-05T14:29:31Z</time></trkpt><trkpt lat="45.6218590960" lon="6.8571039755"><ele>1713.21</ele><time>2014-09-05T14:29:32Z</time></trkpt><trkpt lat="45.6218095589" lon="6.8571641576"><ele>1712.73</ele><time>2014-09-05T14:29:33Z</time></trkpt><trkpt lat="45.6215261668" lon="6.8574731145"><ele>1711.28</ele><time>2014-09-05T14:29:40Z</time></trkpt><trkpt lat="45.6214884482" lon="6.8575336318"><ele>1710.80</ele><time>2014-09-05T14:29:41Z</time></trkpt><trkpt lat="45.6214574352" lon="6.8575989269"><ele>1710.32</ele><time>2014-09-05T14:29:42Z</time></trkpt><trkpt lat="45.6214319542" lon="6.8576711789"><ele>1710.32</ele><time>2014-09-05T14:29:43Z</time></trkpt><trkpt lat="45.6214091554" lon="6.8577522319"><ele>1709.84</ele><time>2014-09-05T14:29:44Z</time></trkpt><trkpt lat="45.6213883683" lon="6.8578417506"><ele>1708.88</ele><time>2014-09-05T14:29:45Z</time></trkpt><trkpt lat="45.6213743705" lon="6.8579275813"><ele>1708.40</ele><time>2014-09-05T14:29:46Z</time></trkpt><trkpt lat="45.6213633064" lon="6.8580170162"><ele>1707.92</ele><time>2014-09-05T14:29:47Z</time></trkpt><trkpt lat="45.6212184671" lon="6.8590111099"><ele>1703.11</ele><time>2014-09-05T14:30:01Z</time></trkpt><trkpt lat="45.6211126037" lon="6.8597132619"><ele>1700.23</ele><time>2014-09-05T14:30:15Z</time></trkpt><trkpt lat="45.6210812554" lon="6.8597248290"><ele>1700.23</ele><time>2014-09-05T14:30:16Z</time></trkpt><trkpt lat="45.6210465543" lon="6.8597048800"><ele>1699.75</ele><time>2014-09-05T14:30:17Z</time></trkpt><trkpt lat="45.6210285332" lon="6.8596636411"><ele>1699.27</ele><time>2014-09-05T14:30:18Z</time></trkpt><trkpt lat="45.6210266892" lon="6.8596030399"><ele>1699.27</ele><time>2014-09-05T14:30:19Z</time></trkpt><trkpt lat="45.6210380048" lon="6.8595380802"><ele>1699.27</ele><time>2014-09-05T14:30:20Z</time></trkpt><trkpt lat="45.6210531760" lon="6.8594789039"><ele>1698.79</ele><time>2014-09-05T14:30:21Z</time></trkpt><trkpt lat="45.6211842690" lon="6.8582770228"><ele>1693.98</ele><time>2014-09-05T14:30:37Z</time></trkpt><trkpt lat="45.6212493125" lon="6.8576807342"><ele>1692.54</ele><time>2014-09-05T14:30:44Z</time></trkpt><trkpt lat="45.6212774757" lon="6.8576056324"><ele>1692.54</ele><time>2014-09-05T14:30:45Z</time></trkpt><trkpt lat="45.6214520708" lon="6.8572450429"><ele>1691.10</ele><time>2014-09-05T14:30:50Z</time></trkpt><trkpt lat="45.6214680802" lon="6.8571720365"><ele>1691.10</ele><time>2014-09-05T14:30:51Z</time></trkpt><trkpt lat="45.6214721873" lon="6.8570937496"><ele>1690.62</ele><time>2014-09-05T14:30:52Z</time></trkpt><trkpt lat="45.6214677449" lon="6.8570133671"><ele>1690.14</ele><time>2014-09-05T14:30:53Z</time></trkpt><trkpt lat="45.6214552559" lon="6.8569287937"><ele>1690.14</ele><time>2014-09-05T14:30:54Z</time></trkpt><trkpt lat="45.6214381568" lon="6.8568413705"><ele>1689.65</ele><time>2014-09-05T14:30:55Z</time></trkpt><trkpt lat="45.6214104127" lon="6.8566630874"><ele>1689.17</ele><time>2014-09-05T14:30:57Z</time></trkpt><trkpt lat="45.6214060541" lon="6.8565694615"><ele>1688.69</ele><time>2014-09-05T14:30:58Z</time></trkpt><trkpt lat="45.6214097422" lon="6.8564715609"><ele>1688.21</ele><time>2014-09-05T14:30:59Z</time></trkpt><trkpt lat="45.6214195490" lon="6.8563691340"><ele>1688.21</ele><time>2014-09-05T14:31:00Z</time></trkpt><trkpt lat="45.6214378215" lon="6.8562591635"><ele>1687.73</ele><time>2014-09-05T14:31:01Z</time></trkpt><trkpt lat="45.6214618776" lon="6.8561489414"><ele>1687.25</ele><time>2014-09-05T14:31:02Z</time></trkpt><trkpt lat="45.6217035279" lon="6.8550960068"><ele>1681.96</ele><time>2014-09-05T14:31:12Z</time></trkpt><trkpt lat="45.6217103172" lon="6.8549929094"><ele>1681.00</ele><time>2014-09-05T14:31:13Z</time></trkpt><trkpt lat="45.6217059586" lon="6.8548888899"><ele>1680.52</ele><time>2014-09-05T14:31:14Z</time></trkpt><trkpt lat="45.6216907036" lon="6.8547879718"><ele>1680.04</ele><time>2014-09-05T14:31:15Z</time></trkpt><trkpt lat="45.6216673180" lon="6.8546865508"><ele>1679.56</ele><time>2014-09-05T14:31:16Z</time></trkpt><trkpt lat="45.6216349639" lon="6.8545887340"><ele>1679.56</ele><time>2014-09-05T14:31:17Z</time></trkpt><trkpt lat="45.6215984188" lon="6.8544966169"><ele>1679.08</ele><time>2014-09-05T14:31:18Z</time></trkpt><trkpt lat="45.6215608679" lon="6.8544001412"><ele>1678.60</ele><time>2014-09-05T14:31:19Z</time></trkpt><trkpt lat="45.6215315312" lon="6.8543019891"><ele>1678.12</ele><time>2014-09-05T14:31:20Z</time></trkpt><trkpt lat="45.6215099059" lon="6.8541986402"><ele>1678.12</ele><time>2014-09-05T14:31:21Z</time></trkpt><trkpt lat="45.6214951538" lon="6.8540930282"><ele>1677.64</ele><time>2014-09-05T14:31:22Z</time></trkpt><trkpt lat="45.6214864366" lon="6.8539819680"><ele>1677.16</ele><time>2014-09-05T14:31:23Z</time></trkpt><trkpt lat="45.6214800663" lon="6.8538733386"><ele>1676.68</ele><time>2014-09-05T14:31:24Z</time></trkpt><trkpt lat="45.6214376539" lon="6.8523544539"><ele>1671.39</ele><time>2014-09-05T14:31:37Z</time></trkpt><trkpt lat="45.6214963272" lon="6.8519315869"><ele>1668.99</ele><time>2014-09-05T14:31:42Z</time></trkpt><trkpt lat="45.6215083972" lon="6.8519189302"><ele>1668.51</ele><time>2014-09-05T14:31:43Z</time></trkpt><trkpt lat="45.6215240713" lon="6.8519161642"><ele>1668.02</ele><time>2014-09-05T14:31:44Z</time></trkpt><trkpt lat="45.6215510610" lon="6.8519125599"><ele>1668.99</ele><time>2014-09-05T14:31:55Z</time></trkpt><trkpt lat="45.6215316150" lon="6.8519072793"><ele>1672.83</ele><time>2014-09-05T14:32:28Z</time></trkpt><trkpt lat="45.6214990932" lon="6.8519009091"><ele>1672.83</ele><time>2014-09-05T14:32:35Z</time></trkpt><trkpt lat="45.6214912981" lon="6.8518178444"><ele>1672.35</ele><time>2014-09-05T14:32:39Z</time></trkpt><trkpt lat="45.6214975845" lon="6.8517745100"><ele>1672.35</ele><time>2014-09-05T14:32:40Z</time></trkpt><trkpt lat="45.6215015240" lon="6.8517459277"><ele>1672.35</ele><time>2014-09-05T14:32:41Z</time></trkpt><trkpt lat="45.6215062179" lon="6.8517017551"><ele>1672.35</ele><time>2014-09-05T14:32:42Z</time></trkpt><trkpt lat="45.6216039509" lon="6.8511346355"><ele>1669.47</ele><time>2014-09-05T14:32:54Z</time></trkpt><trkpt lat="45.6216380652" lon="6.8510232400"><ele>1668.99</ele><time>2014-09-05T14:32:56Z</time></trkpt><trkpt lat="45.6217637099" lon="6.8506501615"><ele>1668.99</ele><time>2014-09-05T14:33:02Z</time></trkpt><trkpt lat="45.6217803061" lon="6.8505799212"><ele>1668.99</ele><time>2014-09-05T14:33:03Z</time></trkpt><trkpt lat="45.6217935495" lon="6.8505121954"><ele>1668.99</ele><time>2014-09-05T14:33:04Z</time></trkpt><trkpt lat="45.6218033563" lon="6.8504398596"><ele>1668.51</ele><time>2014-09-05T14:33:05Z</time></trkpt><trkpt lat="45.6218064576" lon="6.8503657635"><ele>1668.51</ele><time>2014-09-05T14:33:06Z</time></trkpt><trkpt lat="45.6218022667" lon="6.8502899073"><ele>1668.51</ele><time>2014-09-05T14:33:07Z</time></trkpt><trkpt lat="45.6217959803" lon="6.8502121232"><ele>1668.51</ele><time>2014-09-05T14:33:08Z</time></trkpt><trkpt lat="45.6217399891" lon="6.8488493934"><ele>1662.26</ele><time>2014-09-05T14:33:23Z</time></trkpt><trkpt lat="45.6217400730" lon="6.8471217155"><ele>1654.57</ele><time>2014-09-05T14:33:39Z</time></trkpt><trkpt lat="45.6217224710" lon="6.8465118483"><ele>1652.16</ele><time>2014-09-05T14:33:45Z</time></trkpt><trkpt lat="45.6217416655" lon="6.8464357406"><ele>1651.68</ele><time>2014-09-05T14:33:46Z</time></trkpt><trkpt lat="45.6217666436" lon="6.8463614769"><ele>1651.68</ele><time>2014-09-05T14:33:47Z</time></trkpt><trkpt lat="45.6218222156" lon="6.8462351616"><ele>1650.72</ele><time>2014-09-05T14:33:49Z</time></trkpt><trkpt lat="45.6219443399" lon="6.8460302241"><ele>1650.24</ele><time>2014-09-05T14:33:52Z</time></trkpt><trkpt lat="45.6219818071" lon="6.8459516019"><ele>1649.76</ele><time>2014-09-05T14:33:53Z</time></trkpt><trkpt lat="45.6220148318" lon="6.8458616640"><ele>1649.76</ele><time>2014-09-05T14:33:54Z</time></trkpt><trkpt lat="45.6220366247" lon="6.8457855564"><ele>1649.28</ele><time>2014-09-05T14:33:55Z</time></trkpt><trkpt lat="45.6220612675" lon="6.8457075208"><ele>1648.80</ele><time>2014-09-05T14:33:56Z</time></trkpt><trkpt lat="45.6220932025" lon="6.8456340116"><ele>1648.80</ele><time>2014-09-05T14:33:57Z</time></trkpt><trkpt lat="45.6221297476" lon="6.8455637712"><ele>1648.32</ele><time>2014-09-05T14:33:58Z</time></trkpt><trkpt lat="45.6221724115" lon="6.8454957940"><ele>1648.32</ele><time>2014-09-05T14:33:59Z</time></trkpt><trkpt lat="45.6222211104" lon="6.8454314210"><ele>1648.32</ele><time>2014-09-05T14:34:00Z</time></trkpt><trkpt lat="45.6222721562" lon="6.8453676347"><ele>1647.84</ele><time>2014-09-05T14:34:01Z</time></trkpt><trkpt lat="45.6225513574" lon="6.8449927121"><ele>1646.88</ele><time>2014-09-05T14:34:07Z</time></trkpt><trkpt lat="45.6225781795" lon="6.8449318595"><ele>1646.88</ele><time>2014-09-05T14:34:08Z</time></trkpt><trkpt lat="45.6227774173" lon="6.8444534205"><ele>1643.99</ele><time>2014-09-05T14:34:20Z</time></trkpt><trkpt lat="45.6227946840" lon="6.8443882093"><ele>1643.51</ele><time>2014-09-05T14:34:32Z</time></trkpt><trkpt lat="45.6227983721" lon="6.8443621416"><ele>1643.51</ele><time>2014-09-05T14:34:33Z</time></trkpt><trkpt lat="45.6228047423" lon="6.8443338946"><ele>1643.51</ele><time>2014-09-05T14:34:34Z</time></trkpt><trkpt lat="45.6228153873" lon="6.8442986906"><ele>1643.51</ele><time>2014-09-05T14:34:35Z</time></trkpt><trkpt lat="45.6228314806" lon="6.8442567810"><ele>1643.51</ele><time>2014-09-05T14:34:36Z</time></trkpt><trkpt lat="45.6228502560" lon="6.8442121893"><ele>1643.03</ele><time>2014-09-05T14:34:37Z</time></trkpt><trkpt lat="45.6231126096" lon="6.8436526135"><ele>1641.11</ele><time>2014-09-05T14:34:47Z</time></trkpt><trkpt lat="45.6231336482" lon="6.8435859773"><ele>1640.63</ele><time>2014-09-05T14:34:48Z</time></trkpt><trkpt lat="45.6231446285" lon="6.8435126357"><ele>1640.63</ele><time>2014-09-05T14:34:49Z</time></trkpt><trkpt lat="45.6231494900" lon="6.8434346840"><ele>1640.63</ele><time>2014-09-05T14:34:50Z</time></trkpt><trkpt lat="45.6231529266" lon="6.8433525413"><ele>1640.15</ele><time>2014-09-05T14:34:51Z</time></trkpt><trkpt lat="45.6231919862" lon="6.8429117370"><ele>1638.70</ele><time>2014-09-05T14:34:56Z</time></trkpt><trkpt lat="45.6235219818" lon="6.8420343194"><ele>1636.78</ele><time>2014-09-05T14:35:07Z</time></trkpt><trkpt lat="45.6241809670" lon="6.8414761685"><ele>1632.94</ele><time>2014-09-05T14:35:18Z</time></trkpt><trkpt lat="45.6242428254" lon="6.8414349295"><ele>1632.46</ele><time>2014-09-05T14:35:19Z</time></trkpt><trkpt lat="45.6243005767" lon="6.8413859792"><ele>1631.98</ele><time>2014-09-05T14:35:20Z</time></trkpt><trkpt lat="45.6243517064" lon="6.8413288146"><ele>1631.98</ele><time>2014-09-05T14:35:21Z</time></trkpt><trkpt lat="45.6243937835" lon="6.8412594125"><ele>1631.49</ele><time>2014-09-05T14:35:22Z</time></trkpt><trkpt lat="45.6244284846" lon="6.8411781918"><ele>1631.01</ele><time>2014-09-05T14:35:23Z</time></trkpt><trkpt lat="45.6244568154" lon="6.8410880025"><ele>1631.01</ele><time>2014-09-05T14:35:24Z</time></trkpt><trkpt lat="45.6244842242" lon="6.8409959693"><ele>1630.53</ele><time>2014-09-05T14:35:25Z</time></trkpt><trkpt lat="45.6245149858" lon="6.8409086298"><ele>1630.05</ele><time>2014-09-05T14:35:26Z</time></trkpt><trkpt lat="45.6245508604" lon="6.8408254813"><ele>1630.05</ele><time>2014-09-05T14:35:27Z</time></trkpt><trkpt lat="45.6245923508" lon="6.8407466915"><ele>1629.57</ele><time>2014-09-05T14:35:28Z</time></trkpt><trkpt lat="45.6246370263" lon="6.8406740203"><ele>1629.09</ele><time>2014-09-05T14:35:29Z</time></trkpt><trkpt lat="45.6246851385" lon="6.8406050373"><ele>1628.61</ele><time>2014-09-05T14:35:30Z</time></trkpt><trkpt lat="45.6247354299" lon="6.8405384012"><ele>1628.13</ele><time>2014-09-05T14:35:31Z</time></trkpt><trkpt lat="45.6250365917" lon="6.8401871994"><ele>1625.25</ele><time>2014-09-05T14:35:37Z</time></trkpt><trkpt lat="45.6251843646" lon="6.8400644884"><ele>1623.80</ele><time>2014-09-05T14:35:40Z</time></trkpt><trkpt lat="45.6252378412" lon="6.8400403485"><ele>1623.32</ele><time>2014-09-05T14:35:41Z</time></trkpt><trkpt lat="45.6252947543" lon="6.8400260154"><ele>1622.84</ele><time>2014-09-05T14:35:42Z</time></trkpt><trkpt lat="45.6254129391" lon="6.8400055636"><ele>1622.36</ele><time>2014-09-05T14:35:44Z</time></trkpt><trkpt lat="45.6254697684" lon="6.8399815913"><ele>1621.88</ele><time>2014-09-05T14:35:45Z</time></trkpt><trkpt lat="45.6255232450" lon="6.8399395980"><ele>1621.40</ele><time>2014-09-05T14:35:46Z</time></trkpt><trkpt lat="45.6255715247" lon="6.8398805894"><ele>1621.40</ele><time>2014-09-05T14:35:47Z</time></trkpt><trkpt lat="45.6256146915" lon="6.8398106005"><ele>1621.40</ele><time>2014-09-05T14:35:48Z</time></trkpt><trkpt lat="45.6256538350" lon="6.8397321459"><ele>1620.92</ele><time>2014-09-05T14:35:49Z</time></trkpt><trkpt lat="45.6256918889" lon="6.8396500032"><ele>1620.44</ele><time>2014-09-05T14:35:50Z</time></trkpt><trkpt lat="45.6258993410" lon="6.8391464185"><ele>1618.04</ele><time>2014-09-05T14:35:56Z</time></trkpt><trkpt lat="45.6260114908" lon="6.8389206100"><ele>1616.59</ele><time>2014-09-05T14:35:59Z</time></trkpt><trkpt lat="45.6260398217" lon="6.8388408143"><ele>1616.11</ele><time>2014-09-05T14:36:00Z</time></trkpt><trkpt lat="45.6261213776" lon="6.8386236392"><ele>1614.67</ele><time>2014-09-05T14:36:03Z</time></trkpt><trkpt lat="45.6261551566" lon="6.8385616131"><ele>1614.19</ele><time>2014-09-05T14:36:04Z</time></trkpt><trkpt lat="45.6261937134" lon="6.8385031912"><ele>1613.71</ele><time>2014-09-05T14:36:05Z</time></trkpt><trkpt lat="45.6262378022" lon="6.8384497147"><ele>1613.23</ele><time>2014-09-05T14:36:06Z</time></trkpt><trkpt lat="45.6262857467" lon="6.8383954000"><ele>1612.75</ele><time>2014-09-05T14:36:07Z</time></trkpt><trkpt lat="45.6266620941" lon="6.8379486445"><ele>1610.35</ele><time>2014-09-05T14:36:14Z</time></trkpt><trkpt lat="45.6271836162" lon="6.8367832247"><ele>1605.06</ele><time>2014-09-05T14:36:26Z</time></trkpt><trkpt lat="45.6272603106" lon="6.8366136588"><ele>1603.62</ele><time>2014-09-05T14:36:28Z</time></trkpt><trkpt lat="45.6273093447" lon="6.8365423288"><ele>1603.14</ele><time>2014-09-05T14:36:29Z</time></trkpt><trkpt lat="45.6273710355" lon="6.8364769500"><ele>1602.17</ele><time>2014-09-05T14:36:30Z</time></trkpt><trkpt lat="45.6274346542" lon="6.8364188634"><ele>1601.69</ele><time>2014-09-05T14:36:31Z</time></trkpt><trkpt lat="45.6275008712" lon="6.8363642972"><ele>1601.21</ele><time>2014-09-05T14:36:32Z</time></trkpt><trkpt lat="45.6275639031" lon="6.8363185320"><ele>1600.73</ele><time>2014-09-05T14:36:33Z</time></trkpt><trkpt lat="45.6276828423" lon="6.8362181168"><ele>1599.77</ele><time>2014-09-05T14:36:35Z</time></trkpt><trkpt lat="45.6277242489" lon="6.8361603655"><ele>1599.77</ele><time>2014-09-05T14:36:36Z</time></trkpt><trkpt lat="45.6277640630" lon="6.8360832520"><ele>1599.29</ele><time>2014-09-05T14:36:37Z</time></trkpt><trkpt lat="45.6281573419" lon="6.8352923356"><ele>1596.41</ele><time>2014-09-05T14:36:48Z</time></trkpt><trkpt lat="45.6282272469" lon="6.8351984583"><ele>1595.93</ele><time>2014-09-05T14:36:50Z</time></trkpt><trkpt lat="45.6282545719" lon="6.8351399526"><ele>1595.93</ele><time>2014-09-05T14:36:51Z</time></trkpt><trkpt lat="45.6282641273" lon="6.8350769207"><ele>1595.93</ele><time>2014-09-05T14:36:52Z</time></trkpt><trkpt lat="45.6282550748" lon="6.8350148946"><ele>1595.93</ele><time>2014-09-05T14:36:53Z</time></trkpt><trkpt lat="45.6282267440" lon="6.8349661119"><ele>1595.93</ele><time>2014-09-05T14:36:54Z</time></trkpt><trkpt lat="45.6281865947" lon="6.8349395413"><ele>1595.93</ele><time>2014-09-05T14:36:55Z</time></trkpt><trkpt lat="45.6281403266" lon="6.8349372782"><ele>1595.93</ele><time>2014-09-05T14:36:56Z</time></trkpt><trkpt lat="45.6280956510" lon="6.8349605799"><ele>1595.45</ele><time>2014-09-05T14:36:57Z</time></trkpt><trkpt lat="45.6280545797" lon="6.8350044172"><ele>1594.96</ele><time>2014-09-05T14:36:58Z</time></trkpt><trkpt lat="45.6280182023" lon="6.8350548763"><ele>1594.96</ele><time>2014-09-05T14:36:59Z</time></trkpt><trkpt lat="45.6279835012" lon="6.8351139687"><ele>1594.48</ele><time>2014-09-05T14:37:00Z</time></trkpt><trkpt lat="45.6279509794" lon="6.8351796828"><ele>1594.48</ele><time>2014-09-05T14:37:01Z</time></trkpt><trkpt lat="45.6274710316" lon="6.8360259198"><ele>1590.64</ele><time>2014-09-05T14:37:13Z</time></trkpt><trkpt lat="45.6266794447" lon="6.8366481084"><ele>1586.79</ele><time>2014-09-05T14:37:26Z</time></trkpt><trkpt lat="45.6266237050" lon="6.8367000762"><ele>1586.31</ele><time>2014-09-05T14:37:27Z</time></trkpt><trkpt lat="45.6265716534" lon="6.8367602583"><ele>1585.83</ele><time>2014-09-05T14:37:28Z</time></trkpt><trkpt lat="45.6260980759" lon="6.8377056532"><ele>1582.47</ele><time>2014-09-05T14:37:40Z</time></trkpt><trkpt lat="45.6260513049" lon="6.8377722055"><ele>1582.47</ele><time>2014-09-05T14:37:41Z</time></trkpt><trkpt lat="45.6259955652" lon="6.8378338963"><ele>1581.99</ele><time>2014-09-05T14:37:42Z</time></trkpt><trkpt lat="45.6258328725" lon="6.8380076531"><ele>1581.03</ele><time>2014-09-05T14:37:45Z</time></trkpt><trkpt lat="45.6257249136" lon="6.8381505646"><ele>1581.03</ele><time>2014-09-05T14:37:47Z</time></trkpt><trkpt lat="45.6256748736" lon="6.8382320367"><ele>1580.54</ele><time>2014-09-05T14:37:48Z</time></trkpt><trkpt lat="45.6255761348" lon="6.8384034466"><ele>1580.06</ele><time>2014-09-05T14:37:50Z</time></trkpt><trkpt lat="45.6255146954" lon="6.8384807277"><ele>1580.06</ele><time>2014-09-05T14:37:51Z</time></trkpt><trkpt lat="45.6254481431" lon="6.8385439273"><ele>1579.58</ele><time>2014-09-05T14:37:52Z</time></trkpt><trkpt lat="45.6252283696" lon="6.8387148343"><ele>1578.14</ele><time>2014-09-05T14:37:55Z</time></trkpt><trkpt lat="45.6251533516" lon="6.8387467694"><ele>1577.66</ele><time>2014-09-05T14:37:56Z</time></trkpt><trkpt lat="45.6250780821" lon="6.8387520500"><ele>1577.66</ele><time>2014-09-05T14:37:57Z</time></trkpt><trkpt lat="45.6250023097" lon="6.8387411535"><ele>1577.18</ele><time>2014-09-05T14:37:58Z</time></trkpt><trkpt lat="45.6249254476" lon="6.8387295026"><ele>1576.70</ele><time>2014-09-05T14:37:59Z</time></trkpt><trkpt lat="45.6248489209" lon="6.8387240544"><ele>1576.22</ele><time>2014-09-05T14:38:00Z</time></trkpt><trkpt lat="45.6240415759" lon="6.8390431534"><ele>1570.45</ele><time>2014-09-05T14:38:11Z</time></trkpt><trkpt lat="45.6234356482" lon="6.8399040587"><ele>1564.68</ele><time>2014-09-05T14:38:22Z</time></trkpt><trkpt lat="45.6230433751" lon="6.8403869402"><ele>1561.80</ele><time>2014-09-05T14:38:30Z</time></trkpt><trkpt lat="45.6229805946" lon="6.8404176179"><ele>1561.32</ele><time>2014-09-05T14:38:31Z</time></trkpt><trkpt lat="45.6220822223" lon="6.8407786265"><ele>1560.36</ele><time>2014-09-05T14:38:45Z</time></trkpt><trkpt lat="45.6219713297" lon="6.8408710789"><ele>1559.88</ele><time>2014-09-05T14:38:47Z</time></trkpt><trkpt lat="45.6219344493" lon="6.8409170955"><ele>1559.88</ele><time>2014-09-05T14:38:48Z</time></trkpt><trkpt lat="45.6218937133" lon="6.8409779482"><ele>1559.88</ele><time>2014-09-05T14:38:49Z</time></trkpt><trkpt lat="45.6218554918" lon="6.8410440814"><ele>1559.88</ele><time>2014-09-05T14:38:50Z</time></trkpt><trkpt lat="45.6218193658" lon="6.8411157466"><ele>1559.40</ele><time>2014-09-05T14:38:51Z</time></trkpt><trkpt lat="45.6217858382" lon="6.8411926925"><ele>1559.40</ele><time>2014-09-05T14:38:52Z</time></trkpt><trkpt lat="45.6217513885" lon="6.8412719853"><ele>1558.92</ele><time>2014-09-05T14:38:53Z</time></trkpt><trkpt lat="45.6216723472" lon="6.8414212670"><ele>1558.43</ele><time>2014-09-05T14:38:55Z</time></trkpt><trkpt lat="45.6210585404" lon="6.8421820924"><ele>1554.59</ele><time>2014-09-05T14:39:08Z</time></trkpt><trkpt lat="45.6204571389" lon="6.8434604164"><ele>1550.26</ele><time>2014-09-05T14:39:23Z</time></trkpt><trkpt lat="45.6202787720" lon="6.8439971935"><ele>1547.38</ele><time>2014-09-05T14:39:30Z</time></trkpt><trkpt lat="45.6198383868" lon="6.8448449392"><ele>1544.98</ele><time>2014-09-05T14:39:42Z</time></trkpt><trkpt lat="45.6198233832" lon="6.8449080549"><ele>1544.98</ele><time>2014-09-05T14:39:43Z</time></trkpt><trkpt lat="45.6197773665" lon="6.8450587615"><ele>1544.50</ele><time>2014-09-05T14:39:46Z</time></trkpt><trkpt lat="45.6197549030" lon="6.8450773694"><ele>1544.01</ele><time>2014-09-05T14:39:47Z</time></trkpt><trkpt lat="45.6197290029" lon="6.8450817280"><ele>1544.01</ele><time>2014-09-05T14:39:48Z</time></trkpt><trkpt lat="45.6197067071" lon="6.8450766150"><ele>1544.01</ele><time>2014-09-05T14:39:49Z</time></trkpt><trkpt lat="45.6196865067" lon="6.8450580910"><ele>1544.01</ele><time>2014-09-05T14:39:50Z</time></trkpt><trkpt lat="45.6196737662" lon="6.8450144213"><ele>1544.01</ele><time>2014-09-05T14:39:51Z</time></trkpt><trkpt lat="45.6196761131" lon="6.8449788820"><ele>1543.53</ele><time>2014-09-05T14:39:52Z</time></trkpt><trkpt lat="45.6196892727" lon="6.8449338712"><ele>1543.53</ele><time>2014-09-05T14:39:53Z</time></trkpt><trkpt lat="45.6197091378" lon="6.8448825739"><ele>1543.05</ele><time>2014-09-05T14:39:54Z</time></trkpt><trkpt lat="45.6201276463" lon="6.8440357503"><ele>1542.09</ele><time>2014-09-05T14:40:08Z</time></trkpt><trkpt lat="45.6203964539" lon="6.8431209493"><ele>1540.17</ele><time>2014-09-05T14:40:20Z</time></trkpt><trkpt lat="45.6208404433" lon="6.8417418748"><ele>1533.92</ele><time>2014-09-05T14:40:35Z</time></trkpt><trkpt lat="45.6209042296" lon="6.8415847979"><ele>1532.96</ele><time>2014-09-05T14:40:37Z</time></trkpt><trkpt lat="45.6209469773" lon="6.8415127974"><ele>1532.48</ele><time>2014-09-05T14:40:38Z</time></trkpt><trkpt lat="45.6216802262" lon="6.8405104056"><ele>1525.75</ele><time>2014-09-05T14:40:52Z</time></trkpt><trkpt lat="45.6223871559" lon="6.8395621609"><ele>1518.54</ele><time>2014-09-05T14:41:05Z</time></trkpt><trkpt lat="45.6227536127" lon="6.8387652095"><ele>1513.73</ele><time>2014-09-05T14:41:15Z</time></trkpt><trkpt lat="45.6227477454" lon="6.8387445901"><ele>1513.25</ele><time>2014-09-05T14:41:16Z</time></trkpt><trkpt lat="45.6227084342" lon="6.8387892656"><ele>1512.29</ele><time>2014-09-05T14:41:20Z</time></trkpt><trkpt lat="45.6226905808" lon="6.8388624396"><ele>1512.29</ele><time>2014-09-05T14:41:24Z</time></trkpt><trkpt lat="45.6227752380" lon="6.8389151618"><ele>1514.21</ele><time>2014-09-05T14:41:33Z</time></trkpt><trkpt lat="45.6228188239" lon="6.8388940394"><ele>1517.10</ele><time>2014-09-05T14:41:44Z</time></trkpt><trkpt lat="45.6228366774" lon="6.8388740066"><ele>1519.98</ele><time>2014-09-05T14:42:12Z</time></trkpt><trkpt lat="45.6227904931" lon="6.8388843164"><ele>1522.87</ele><time>2014-09-05T14:42:42Z</time></trkpt><trkpt lat="45.6227805186" lon="6.8389015831"><ele>1519.98</ele><time>2014-09-05T14:43:14Z</time></trkpt><trkpt lat="45.6227835361" lon="6.8389073666"><ele>1521.42</ele><time>2014-09-05T14:43:35Z</time></trkpt><trkpt lat="45.6227894034" lon="6.8389029242"><ele>1522.39</ele><time>2014-09-05T14:44:01Z</time></trkpt><trkpt lat="45.6227892358" lon="6.8388975598"><ele>1521.42</ele><time>2014-09-05T14:44:29Z</time></trkpt><trkpt lat="45.6227960251" lon="6.8388904352"><ele>1523.35</ele><time>2014-09-05T14:45:00Z</time></trkpt><trkpt lat="45.6227895711" lon="6.8388910219"><ele>1519.98</ele><time>2014-09-05T14:45:28Z</time></trkpt><trkpt lat="45.6227712985" lon="6.8388976436"><ele>1521.90</ele><time>2014-09-05T14:46:00Z</time></trkpt><trkpt lat="45.6227696221" lon="6.8389125634"><ele>1521.42</ele><time>2014-09-05T14:46:27Z</time></trkpt><trkpt lat="45.6227950193" lon="6.8389203586"><ele>1521.90</ele><time>2014-09-05T14:46:57Z</time></trkpt><trkpt lat="45.6228027306" lon="6.8389099650"><ele>1521.90</ele><time>2014-09-05T14:47:27Z</time></trkpt><trkpt lat="45.6227930076" lon="6.8389233761"><ele>1521.42</ele><time>2014-09-05T14:47:50Z</time></trkpt><trkpt lat="45.6228014734" lon="6.8389183469"><ele>1521.42</ele><time>2014-09-05T14:48:15Z</time></trkpt><trkpt lat="45.6227988750" lon="6.8389160000"><ele>1519.98</ele><time>2014-09-05T14:48:46Z</time></trkpt><trkpt lat="45.6228020601" lon="6.8389085401"><ele>1520.46</ele><time>2014-09-05T14:49:11Z</time></trkpt><trkpt lat="45.6227932591" lon="6.8388807122"><ele>1522.39</ele><time>2014-09-05T14:49:37Z</time></trkpt><trkpt lat="45.6228048261" lon="6.8388613500"><ele>1524.31</ele><time>2014-09-05T14:50:04Z</time></trkpt><trkpt lat="45.6227994617" lon="6.8388635293"><ele>1523.35</ele><time>2014-09-05T14:50:34Z</time></trkpt><trkpt lat="45.6228143815" lon="6.8388904352"><ele>1521.42</ele><time>2014-09-05T14:50:56Z</time></trkpt><trkpt lat="45.6228295527" lon="6.8388915248"><ele>1519.02</ele><time>2014-09-05T14:51:34Z</time></trkpt><trkpt lat="45.6228374317" lon="6.8388514593"><ele>1521.90</ele><time>2014-09-05T14:52:05Z</time></trkpt><trkpt lat="45.6228148006" lon="6.8387923669"><ele>1528.15</ele><time>2014-09-05T14:52:46Z</time></trkpt><trkpt lat="45.6228141300" lon="6.8388098851"><ele>1527.19</ele><time>2014-09-05T14:53:16Z</time></trkpt><trkpt lat="45.6228076760" lon="6.8388117291"><ele>1528.15</ele><time>2014-09-05T14:53:50Z</time></trkpt><trkpt lat="45.6227900740" lon="6.8388614338"><ele>1523.83</ele><time>2014-09-05T14:54:18Z</time></trkpt><trkpt lat="45.6228026468" lon="6.8388418201"><ele>1523.83</ele><time>2014-09-05T14:54:43Z</time></trkpt><trkpt lat="45.6227987912" lon="6.8388448376"><ele>1521.90</ele><time>2014-09-05T14:55:13Z</time></trkpt><trkpt lat="45.6228044070" lon="6.8387952168"><ele>1527.67</ele><time>2014-09-05T14:55:53Z</time></trkpt><trkpt lat="45.6228007190" lon="6.8387813028"><ele>1527.19</ele><time>2014-09-05T14:56:26Z</time></trkpt><trkpt lat="45.6227903254" lon="6.8388175126"><ele>1529.59</ele><time>2014-09-05T14:57:09Z</time></trkpt><trkpt lat="45.6227775849" lon="6.8387885951"><ele>1531.52</ele><time>2014-09-05T14:57:50Z</time></trkpt><trkpt lat="45.6228004675" lon="6.8387795426"><ele>1528.15</ele><time>2014-09-05T14:58:25Z</time></trkpt><trkpt lat="45.6228230149" lon="6.8387795426"><ele>1528.15</ele><time>2014-09-05T14:58:53Z</time></trkpt><trkpt lat="45.6228134595" lon="6.8388294149"><ele>1527.19</ele><time>2014-09-05T14:59:22Z</time></trkpt><trkpt lat="45.6228076760" lon="6.8389090430"><ele>1523.35</ele><time>2014-09-05T15:00:10Z</time></trkpt><trkpt lat="45.6227846257" lon="6.8389111385"><ele>1520.46</ele><time>2014-09-05T15:00:48Z</time></trkpt><trkpt lat="45.6227935944" lon="6.8389034271"><ele>1522.87</ele><time>2014-09-05T15:01:19Z</time></trkpt><trkpt lat="45.6228096038" lon="6.8388855737"><ele>1520.94</ele><time>2014-09-05T15:01:48Z</time></trkpt><trkpt lat="45.6228164770" lon="6.8388649542"><ele>1520.46</ele><time>2014-09-05T15:02:19Z</time></trkpt><trkpt lat="45.6228023116" lon="6.8389216159"><ele>1518.06</ele><time>2014-09-05T15:02:56Z</time></trkpt><trkpt lat="45.6227961089" lon="6.8389175925"><ele>1521.42</ele><time>2014-09-05T15:03:22Z</time></trkpt><trkpt lat="45.6228107773" lon="6.8388913572"><ele>1521.90</ele><time>2014-09-05T15:03:54Z</time></trkpt><trkpt lat="45.6228215061" lon="6.8388676364"><ele>1519.98</ele><time>2014-09-05T15:04:21Z</time></trkpt><trkpt lat="45.6228277087" lon="6.8388800416"><ele>1522.39</ele><time>2014-09-05T15:04:48Z</time></trkpt><trkpt lat="45.6228181534" lon="6.8388745934"><ele>1520.94</ele><time>2014-09-05T15:05:18Z</time></trkpt><trkpt lat="45.6227986235" lon="6.8388980627"><ele>1519.98</ele><time>2014-09-05T15:06:00Z</time></trkpt><trkpt lat="45.6227969471" lon="6.8389092106"><ele>1519.02</ele><time>2014-09-05T15:06:29Z</time></trkpt><trkpt lat="45.6228052452" lon="6.8389051873"><ele>1519.02</ele><time>2014-09-05T15:07:03Z</time></trkpt><trkpt lat="45.6228032336" lon="6.8389082048"><ele>1519.50</ele><time>2014-09-05T15:07:32Z</time></trkpt><trkpt lat="45.6227911636" lon="6.8388975598"><ele>1519.50</ele><time>2014-09-05T15:08:16Z</time></trkpt><trkpt lat="45.6228103582" lon="6.8389289919"><ele>1515.66</ele><time>2014-09-05T15:09:01Z</time></trkpt><trkpt lat="45.6228180695" lon="6.8388882559"><ele>1517.58</ele><time>2014-09-05T15:09:27Z</time></trkpt><trkpt lat="45.6228505913" lon="6.8388864957"><ele>1514.21</ele><time>2014-09-05T15:09:58Z</time></trkpt><trkpt lat="45.6228665169" lon="6.8388777785"><ele>1512.77</ele><time>2014-09-05T15:10:32Z</time></trkpt><trkpt lat="45.6228383537" lon="6.8388627749"><ele>1518.54</ele><time>2014-09-05T15:11:08Z</time></trkpt><trkpt lat="45.6228161417" lon="6.8388753477"><ele>1520.94</ele><time>2014-09-05T15:11:39Z</time></trkpt><trkpt lat="45.6228313968" lon="6.8388750963"><ele>1520.46</ele><time>2014-09-05T15:12:19Z</time></trkpt><trkpt lat="45.6228117831" lon="6.8388538063"><ele>1520.46</ele><time>2014-09-05T15:12:50Z</time></trkpt><trkpt lat="45.6228319835" lon="6.8388711568"><ele>1520.46</ele><time>2014-09-05T15:13:26Z</time></trkpt><trkpt lat="45.6227997970" lon="6.8388532195"><ele>1520.94</ele><time>2014-09-05T15:14:01Z</time></trkpt><trkpt lat="45.6228138786" lon="6.8388658762"><ele>1519.50</ele><time>2014-09-05T15:14:33Z</time></trkpt><trkpt lat="45.6228107773" lon="6.8388801254"><ele>1521.42</ele><time>2014-09-05T15:15:14Z</time></trkpt><trkpt lat="45.6228101067" lon="6.8388937041"><ele>1521.42</ele><time>2014-09-05T15:15:29Z</time></trkpt><trkpt lat="45.6227990426" lon="6.8389007449"><ele>1522.39</ele><time>2014-09-05T15:15:50Z</time></trkpt><trkpt lat="45.6228050776" lon="6.8389101326"><ele>1522.87</ele><time>2014-09-05T15:16:16Z</time></trkpt><trkpt lat="45.6228077598" lon="6.8389508687"><ele>1519.98</ele><time>2014-09-05T15:16:39Z</time></trkpt><trkpt lat="45.6228092685" lon="6.8389295787"><ele>1519.50</ele><time>2014-09-05T15:17:03Z</time></trkpt><trkpt lat="45.6228101067" lon="6.8389289919"><ele>1519.02</ele><time>2014-09-05T15:17:29Z</time></trkpt><trkpt lat="45.6228217576" lon="6.8389075343"><ele>1518.54</ele><time>2014-09-05T15:17:56Z</time></trkpt><trkpt lat="45.6228133757" lon="6.8389236275"><ele>1523.35</ele><time>2014-09-05T15:18:32Z</time></trkpt><trkpt lat="45.6228167284" lon="6.8389216159"><ele>1520.46</ele><time>2014-09-05T15:19:16Z</time></trkpt><trkpt lat="45.6228218414" lon="6.8389558140"><ele>1516.62</ele><time>2014-09-05T15:19:40Z</time></trkpt><trkpt lat="45.6228106096" lon="6.8389333505"><ele>1516.14</ele><time>2014-09-05T15:19:52Z</time></trkpt><trkpt lat="45.6227894034" lon="6.8389205262"><ele>1515.66</ele><time>2014-09-05T15:20:02Z</time></trkpt><trkpt lat="45.6227438897" lon="6.8389375415"><ele>1514.69</ele><time>2014-09-05T15:20:08Z</time></trkpt><trkpt lat="45.6227388605" lon="6.8388936203"><ele>1514.69</ele><time>2014-09-05T15:20:12Z</time></trkpt><trkpt lat="45.6227560434" lon="6.8388234638"><ele>1514.21</ele><time>2014-09-05T15:20:15Z</time></trkpt><trkpt lat="45.6229106057" lon="6.8383982498"><ele>1513.25</ele><time>2014-09-05T15:20:26Z</time></trkpt><trkpt lat="45.6229204964" lon="6.8383473717"><ele>1513.25</ele><time>2014-09-05T15:20:38Z</time></trkpt><trkpt lat="45.6229286268" lon="6.8383261655"><ele>1513.25</ele><time>2014-09-05T15:20:39Z</time></trkpt><trkpt lat="45.6229417026" lon="6.8382934760"><ele>1512.77</ele><time>2014-09-05T15:20:40Z</time></trkpt><trkpt lat="45.6231887173" lon="6.8379980978"><ele>1511.33</ele><time>2014-09-05T15:20:49Z</time></trkpt><trkpt lat="45.6232333090" lon="6.8379697669"><ele>1510.85</ele><time>2014-09-05T15:20:50Z</time></trkpt><trkpt lat="45.6235545035" lon="6.8377837725"><ele>1511.33</ele><time>2014-09-05T15:20:57Z</time></trkpt><trkpt lat="45.6235944852" lon="6.8377467245"><ele>1511.33</ele><time>2014-09-05T15:20:58Z</time></trkpt><trkpt lat="45.6236328743" lon="6.8377039768"><ele>1511.33</ele><time>2014-09-05T15:20:59Z</time></trkpt><trkpt lat="45.6236664858" lon="6.8376515061"><ele>1510.85</ele><time>2014-09-05T15:21:00Z</time></trkpt><trkpt lat="45.6236958224" lon="6.8375844508"><ele>1510.85</ele><time>2014-09-05T15:21:01Z</time></trkpt><trkpt lat="45.6237206329" lon="6.8375163898"><ele>1510.37</ele><time>2014-09-05T15:21:02Z</time></trkpt><trkpt lat="45.6237425935" lon="6.8374403659"><ele>1510.37</ele><time>2014-09-05T15:21:03Z</time></trkpt><trkpt lat="45.6237870175" lon="6.8373090215"><ele>1509.89</ele><time>2014-09-05T15:21:05Z</time></trkpt><trkpt lat="45.6238166057" lon="6.8372528628"><ele>1509.41</ele><time>2014-09-05T15:21:06Z</time></trkpt><trkpt lat="45.6238526478" lon="6.8372027390"><ele>1508.93</ele><time>2014-09-05T15:21:07Z</time></trkpt><trkpt lat="45.6238943897" lon="6.8371588178"><ele>1508.45</ele><time>2014-09-05T15:21:08Z</time></trkpt><trkpt lat="45.6239410769" lon="6.8371150643"><ele>1507.97</ele><time>2014-09-05T15:21:09Z</time></trkpt><trkpt lat="45.6240740139" lon="6.8369857315"><ele>1507.00</ele><time>2014-09-05T15:21:12Z</time></trkpt><trkpt lat="45.6241126545" lon="6.8369336799"><ele>1506.52</ele><time>2014-09-05T15:21:13Z</time></trkpt><trkpt lat="45.6241436675" lon="6.8368794490"><ele>1506.04</ele><time>2014-09-05T15:21:14Z</time></trkpt><trkpt lat="45.6241704058" lon="6.8368108012"><ele>1505.56</ele><time>2014-09-05T15:21:15Z</time></trkpt><trkpt lat="45.6241917796" lon="6.8367417343"><ele>1505.56</ele><time>2014-09-05T15:21:16Z</time></trkpt><trkpt lat="45.6242556497" lon="6.8364407402"><ele>1503.64</ele><time>2014-09-05T15:21:20Z</time></trkpt><trkpt lat="45.6243020855" lon="6.8361267541"><ele>1501.72</ele><time>2014-09-05T15:21:24Z</time></trkpt><trkpt lat="45.6243262254" lon="6.8360559270"><ele>1501.24</ele><time>2014-09-05T15:21:25Z</time></trkpt><trkpt lat="45.6243552268" lon="6.8359906320"><ele>1500.76</ele><time>2014-09-05T15:21:26Z</time></trkpt><trkpt lat="45.6243920233" lon="6.8359298632"><ele>1500.76</ele><time>2014-09-05T15:21:27Z</time></trkpt><trkpt lat="45.6244406383" lon="6.8358767219"><ele>1500.27</ele><time>2014-09-05T15:21:28Z</time></trkpt><trkpt lat="45.6244920194" lon="6.8358367402"><ele>1499.79</ele><time>2014-09-05T15:21:29Z</time></trkpt><trkpt lat="45.6245459989" lon="6.8357972614"><ele>1499.79</ele><time>2014-09-05T15:21:30Z</time></trkpt><trkpt lat="45.6248443108" lon="6.8355425354"><ele>1497.87</ele><time>2014-09-05T15:21:36Z</time></trkpt><trkpt lat="45.6249401998" lon="6.8354701158"><ele>1496.91</ele><time>2014-09-05T15:21:38Z</time></trkpt><trkpt lat="45.6256078184" lon="6.8348438200"><ele>1493.55</ele><time>2014-09-05T15:21:52Z</time></trkpt><trkpt lat="45.6256365683" lon="6.8347921874"><ele>1493.55</ele><time>2014-09-05T15:21:53Z</time></trkpt><trkpt lat="45.6256581936" lon="6.8347308319"><ele>1493.55</ele><time>2014-09-05T15:21:54Z</time></trkpt><trkpt lat="45.6256892905" lon="6.8345878366"><ele>1493.06</ele><time>2014-09-05T15:21:56Z</time></trkpt><trkpt lat="45.6257031206" lon="6.8345125671"><ele>1492.58</ele><time>2014-09-05T15:21:57Z</time></trkpt><trkpt lat="45.6257958245" lon="6.8338958267"><ele>1489.70</ele><time>2014-09-05T15:22:05Z</time></trkpt><trkpt lat="45.6258135941" lon="6.8338251673"><ele>1489.22</ele><time>2014-09-05T15:22:06Z</time></trkpt><trkpt lat="45.6258337107" lon="6.8337602075"><ele>1489.22</ele><time>2014-09-05T15:22:07Z</time></trkpt><trkpt lat="45.6258597784" lon="6.8337017018"><ele>1488.74</ele><time>2014-09-05T15:22:08Z</time></trkpt><trkpt lat="45.6258948985" lon="6.8336521648"><ele>1488.26</ele><time>2014-09-05T15:22:09Z</time></trkpt><trkpt lat="45.6259378139" lon="6.8336086627"><ele>1487.78</ele><time>2014-09-05T15:22:10Z</time></trkpt><trkpt lat="45.6259830762" lon="6.8335649092"><ele>1487.30</ele><time>2014-09-05T15:22:11Z</time></trkpt><trkpt lat="45.6260304339" lon="6.8335199822"><ele>1487.30</ele><time>2014-09-05T15:22:12Z</time></trkpt><trkpt lat="45.6260808930" lon="6.8334768992"><ele>1486.82</ele><time>2014-09-05T15:22:13Z</time></trkpt><trkpt lat="45.6261298433" lon="6.8334311340"><ele>1486.34</ele><time>2014-09-05T15:22:14Z</time></trkpt><trkpt lat="45.6262239721" lon="6.8333298806"><ele>1485.37</ele><time>2014-09-05T15:22:16Z</time></trkpt><trkpt lat="45.6263054442" lon="6.8332105223"><ele>1484.89</ele><time>2014-09-05T15:22:18Z</time></trkpt><trkpt lat="45.6263368763" lon="6.8331452273"><ele>1484.41</ele><time>2014-09-05T15:22:19Z</time></trkpt><trkpt lat="45.6263675541" lon="6.8330822792"><ele>1483.93</ele><time>2014-09-05T15:22:20Z</time></trkpt><trkpt lat="45.6263965555" lon="6.8330197502"><ele>1483.93</ele><time>2014-09-05T15:22:21Z</time></trkpt><trkpt lat="45.6264182646" lon="6.8329535332"><ele>1483.45</ele><time>2014-09-05T15:22:22Z</time></trkpt><trkpt lat="45.6264339387" lon="6.8328839634"><ele>1483.45</ele><time>2014-09-05T15:22:23Z</time></trkpt><trkpt lat="45.6267848890" lon="6.8319272529"><ele>1480.09</ele><time>2014-09-05T15:22:37Z</time></trkpt><trkpt lat="45.6268045865" lon="6.8318585213"><ele>1480.09</ele><time>2014-09-05T15:22:38Z</time></trkpt><trkpt lat="45.6268354319" lon="6.8317079823"><ele>1479.61</ele><time>2014-09-05T15:22:40Z</time></trkpt><trkpt lat="45.6269580591" lon="6.8308987096"><ele>1475.76</ele><time>2014-09-05T15:22:50Z</time></trkpt><trkpt lat="45.6270859670" lon="6.8303490244"><ele>1473.36</ele><time>2014-09-05T15:22:57Z</time></trkpt><trkpt lat="45.6270809378" lon="6.8302691448"><ele>1472.88</ele><time>2014-09-05T15:22:58Z</time></trkpt><trkpt lat="45.6270662695" lon="6.8301932048"><ele>1472.88</ele><time>2014-09-05T15:22:59Z</time></trkpt><trkpt lat="45.6270459853" lon="6.8301172648"><ele>1472.88</ele><time>2014-09-05T15:23:00Z</time></trkpt><trkpt lat="45.6270221807" lon="6.8300433364"><ele>1472.88</ele><time>2014-09-05T15:23:01Z</time></trkpt><trkpt lat="45.6265736651" lon="6.8288427126"><ele>1470.95</ele><time>2014-09-05T15:23:16Z</time></trkpt><trkpt lat="45.6263672188" lon="6.8280458450"><ele>1468.55</ele><time>2014-09-05T15:23:28Z</time></trkpt><trkpt lat="45.6264517084" lon="6.8278852478"><ele>1467.59</ele><time>2014-09-05T15:23:32Z</time></trkpt><trkpt lat="45.6268282235" lon="6.8276798073"><ele>1466.15</ele><time>2014-09-05T15:23:45Z</time></trkpt><trkpt lat="45.6270439737" lon="6.8275845051"><ele>1465.19</ele><time>2014-09-05T15:23:50Z</time></trkpt><trkpt lat="45.6270848773" lon="6.8275557552"><ele>1464.71</ele><time>2014-09-05T15:23:51Z</time></trkpt><trkpt lat="45.6271944288" lon="6.8274356425"><ele>1464.23</ele><time>2014-09-05T15:23:54Z</time></trkpt><trkpt lat="45.6272230111" lon="6.8273825012"><ele>1464.23</ele><time>2014-09-05T15:23:55Z</time></trkpt><trkpt lat="45.6272524316" lon="6.8273218162"><ele>1463.74</ele><time>2014-09-05T15:23:56Z</time></trkpt><trkpt lat="45.6273387652" lon="6.8271560222"><ele>1463.26</ele><time>2014-09-05T15:23:59Z</time></trkpt><trkpt lat="45.6273750588" lon="6.8271043897"><ele>1462.78</ele><time>2014-09-05T15:24:00Z</time></trkpt><trkpt lat="45.6275016256" lon="6.8270095903"><ele>1461.34</ele><time>2014-09-05T15:24:03Z</time></trkpt><trkpt lat="45.6276446208" lon="6.8270018790"><ele>1459.90</ele><time>2014-09-05T15:24:06Z</time></trkpt><trkpt lat="45.6277543399" lon="6.8270253483"><ele>1459.42</ele><time>2014-09-05T15:24:08Z</time></trkpt><trkpt lat="45.6277897116" lon="6.8270388432"><ele>1459.42</ele><time>2014-09-05T15:24:09Z</time></trkpt><trkpt lat="45.6278379075" lon="6.8270613905"><ele>1459.42</ele><time>2014-09-05T15:24:10Z</time></trkpt><trkpt lat="45.6280986685" lon="6.8271034677"><ele>1460.86</ele><time>2014-09-05T15:24:16Z</time></trkpt><trkpt lat="45.6281358004" lon="6.8270714488"><ele>1460.86</ele><time>2014-09-05T15:24:17Z</time></trkpt><trkpt lat="45.6281632092" lon="6.8270302936"><ele>1460.86</ele><time>2014-09-05T15:24:18Z</time></trkpt><trkpt lat="45.6281849183" lon="6.8269835226"><ele>1460.38</ele><time>2014-09-05T15:24:19Z</time></trkpt><trkpt lat="45.6281991675" lon="6.8269319739"><ele>1460.38</ele><time>2014-09-05T15:24:20Z</time></trkpt><trkpt lat="45.6281979103" lon="6.8268791679"><ele>1460.38</ele><time>2014-09-05T15:24:21Z</time></trkpt><trkpt lat="45.6281796377" lon="6.8268308882"><ele>1459.90</ele><time>2014-09-05T15:24:22Z</time></trkpt><trkpt lat="45.6281537376" lon="6.8267935049"><ele>1459.90</ele><time>2014-09-05T15:24:23Z</time></trkpt><trkpt lat="45.6280726846" lon="6.8267370109"><ele>1459.42</ele><time>2014-09-05T15:24:25Z</time></trkpt><trkpt lat="45.6280399114" lon="6.8267282937"><ele>1459.42</ele><time>2014-09-05T15:24:26Z</time></trkpt><trkpt lat="45.6279938109" lon="6.8267218396"><ele>1458.94</ele><time>2014-09-05T15:24:27Z</time></trkpt><trkpt lat="45.6273696944" lon="6.8266536947"><ele>1456.05</ele><time>2014-09-05T15:24:38Z</time></trkpt><trkpt lat="45.6273075007" lon="6.8266736437"><ele>1456.05</ele><time>2014-09-05T15:24:39Z</time></trkpt><trkpt lat="45.6272500008" lon="6.8267019745"><ele>1455.57</ele><time>2014-09-05T15:24:40Z</time></trkpt><trkpt lat="45.6271901540" lon="6.8267390225"><ele>1455.57</ele><time>2014-09-05T15:24:41Z</time></trkpt><trkpt lat="45.6271344982" lon="6.8267821893"><ele>1455.09</ele><time>2014-09-05T15:24:42Z</time></trkpt><trkpt lat="45.6270770822" lon="6.8268306367"><ele>1454.61</ele><time>2014-09-05T15:24:43Z</time></trkpt><trkpt lat="45.6270194147" lon="6.8268717080"><ele>1454.13</ele><time>2014-09-05T15:24:44Z</time></trkpt><trkpt lat="45.6269631721" lon="6.8268980272"><ele>1453.65</ele><time>2014-09-05T15:24:45Z</time></trkpt><trkpt lat="45.6269052532" lon="6.8269143719"><ele>1453.17</ele><time>2014-09-05T15:24:46Z</time></trkpt><trkpt lat="45.6268417183" lon="6.8269251008"><ele>1453.17</ele><time>2014-09-05T15:24:47Z</time></trkpt><trkpt lat="45.6267825421" lon="6.8269282859"><ele>1452.69</ele><time>2014-09-05T15:24:48Z</time></trkpt><trkpt lat="45.6267233659" lon="6.8269265257"><ele>1452.21</ele><time>2014-09-05T15:24:49Z</time></trkpt><trkpt lat="45.6266661175" lon="6.8269302137"><ele>1451.73</ele><time>2014-09-05T15:24:50Z</time></trkpt><trkpt lat="45.6263773609" lon="6.8269581255"><ele>1450.29</ele><time>2014-09-05T15:24:55Z</time></trkpt><trkpt lat="45.6263168436" lon="6.8269753922"><ele>1450.29</ele><time>2014-09-05T15:24:56Z</time></trkpt><trkpt lat="45.6262600143" lon="6.8269995321"><ele>1449.81</ele><time>2014-09-05T15:24:57Z</time></trkpt><trkpt lat="45.6262051966" lon="6.8270290364"><ele>1449.81</ele><time>2014-09-05T15:24:58Z</time></trkpt><trkpt lat="45.6261400692" lon="6.8270723708"><ele>1449.32</ele><time>2014-09-05T15:24:59Z</time></trkpt><trkpt lat="45.6258989219" lon="6.8272721115"><ele>1447.88</ele><time>2014-09-05T15:25:04Z</time></trkpt><trkpt lat="45.6258589402" lon="6.8273180444"><ele>1447.88</ele><time>2014-09-05T15:25:05Z</time></trkpt><trkpt lat="45.6258227304" lon="6.8273659889"><ele>1447.40</ele><time>2014-09-05T15:25:06Z</time></trkpt><trkpt lat="45.6257546693" lon="6.8274777196"><ele>1446.92</ele><time>2014-09-05T15:25:08Z</time></trkpt><trkpt lat="45.6257223990" lon="6.8275527377"><ele>1446.92</ele><time>2014-09-05T15:25:09Z</time></trkpt><trkpt lat="45.6257023662" lon="6.8276140094"><ele>1446.44</ele><time>2014-09-05T15:25:10Z</time></trkpt><trkpt lat="45.6256638095" lon="6.8277650513"><ele>1445.96</ele><time>2014-09-05T15:25:12Z</time></trkpt><trkpt lat="45.6256533321" lon="6.8278352916"><ele>1445.48</ele><time>2014-09-05T15:25:13Z</time></trkpt><trkpt lat="45.6256467104" lon="6.8279099744"><ele>1445.00</ele><time>2014-09-05T15:25:14Z</time></trkpt><trkpt lat="45.6256462075" lon="6.8279857468"><ele>1444.52</ele><time>2014-09-05T15:25:15Z</time></trkpt><trkpt lat="45.6256472971" lon="6.8280574959"><ele>1444.04</ele><time>2014-09-05T15:25:16Z</time></trkpt><trkpt lat="45.6256597862" lon="6.8283012416"><ele>1442.60</ele><time>2014-09-05T15:25:19Z</time></trkpt><trkpt lat="45.6256771367" lon="6.8283819593"><ele>1442.11</ele><time>2014-09-05T15:25:20Z</time></trkpt><trkpt lat="45.6256948225" lon="6.8284632638"><ele>1441.63</ele><time>2014-09-05T15:25:21Z</time></trkpt><trkpt lat="45.6257551722" lon="6.8288421258"><ele>1439.23</ele><time>2014-09-05T15:25:26Z</time></trkpt><trkpt lat="45.6257565133" lon="6.8289239332"><ele>1438.75</ele><time>2014-09-05T15:25:27Z</time></trkpt><trkpt lat="45.6257477123" lon="6.8290198222"><ele>1437.79</ele><time>2014-09-05T15:25:28Z</time></trkpt><trkpt lat="45.6257359777" lon="6.8290912360"><ele>1437.31</ele><time>2014-09-05T15:25:29Z</time></trkpt><trkpt lat="45.6257195491" lon="6.8291730434"><ele>1436.83</ele><time>2014-09-05T15:25:30Z</time></trkpt><trkpt lat="45.6256503146" lon="6.8294654880"><ele>1435.87</ele><time>2014-09-05T15:25:34Z</time></trkpt><trkpt lat="45.6256429385" lon="6.8295389134"><ele>1434.91</ele><time>2014-09-05T15:25:35Z</time></trkpt><trkpt lat="45.6256462913" lon="6.8303177599"><ele>1431.06</ele><time>2014-09-05T15:25:45Z</time></trkpt><trkpt lat="45.6256564334" lon="6.8303925265"><ele>1430.58</ele><time>2014-09-05T15:25:46Z</time></trkpt><trkpt lat="45.6256743707" lon="6.8305422273"><ele>1430.10</ele><time>2014-09-05T15:25:48Z</time></trkpt><trkpt lat="45.6256767176" lon="6.8306136411"><ele>1429.62</ele><time>2014-09-05T15:25:49Z</time></trkpt><trkpt lat="45.6256807409" lon="6.8306810316"><ele>1429.62</ele><time>2014-09-05T15:25:50Z</time></trkpt><trkpt lat="45.6256900448" lon="6.8307436444"><ele>1429.62</ele><time>2014-09-05T15:25:51Z</time></trkpt><trkpt lat="45.6257002708" lon="6.8308079336"><ele>1429.62</ele><time>2014-09-05T15:25:52Z</time></trkpt><trkpt lat="45.6257337984" lon="6.8311520945"><ele>1428.66</ele><time>2014-09-05T15:25:57Z</time></trkpt><trkpt lat="45.6257327925" lon="6.8312266935"><ele>1428.18</ele><time>2014-09-05T15:25:58Z</time></trkpt><trkpt lat="45.6257235724" lon="6.8313017115"><ele>1428.18</ele><time>2014-09-05T15:25:59Z</time></trkpt><trkpt lat="45.6257063057" lon="6.8313754722"><ele>1427.70</ele><time>2014-09-05T15:26:00Z</time></trkpt><trkpt lat="45.6256807409" lon="6.8314452935"><ele>1427.70</ele><time>2014-09-05T15:26:01Z</time></trkpt><trkpt lat="45.6256488897" lon="6.8315089121"><ele>1427.21</ele><time>2014-09-05T15:26:02Z</time></trkpt><trkpt lat="45.6256142724" lon="6.8315671664"><ele>1427.21</ele><time>2014-09-05T15:26:03Z</time></trkpt><trkpt lat="45.6255757157" lon="6.8316209782"><ele>1426.73</ele><time>2014-09-05T15:26:04Z</time></trkpt><trkpt lat="45.6255333032" lon="6.8316709343"><ele>1426.25</ele><time>2014-09-05T15:26:05Z</time></trkpt><trkpt lat="45.6254875381" lon="6.8317182921"><ele>1426.25</ele><time>2014-09-05T15:26:06Z</time></trkpt><trkpt lat="45.6251960993" lon="6.8319580983"><ele>1423.85</ele><time>2014-09-05T15:26:12Z</time></trkpt><trkpt lat="45.6251513399" lon="6.8319667317"><ele>1423.85</ele><time>2014-09-05T15:26:13Z</time></trkpt><trkpt lat="45.6251133699" lon="6.8319480401"><ele>1423.37</ele><time>2014-09-05T15:26:14Z</time></trkpt><trkpt lat="45.6250902358" lon="6.8318995927"><ele>1422.89</ele><time>2014-09-05T15:26:15Z</time></trkpt><trkpt lat="45.6250855420" lon="6.8318410870"><ele>1422.41</ele><time>2014-09-05T15:26:16Z</time></trkpt><trkpt lat="45.6251012161" lon="6.8317840062"><ele>1421.93</ele><time>2014-09-05T15:26:17Z</time></trkpt><trkpt lat="45.6251337379" lon="6.8317398336"><ele>1421.93</ele><time>2014-09-05T15:26:18Z</time></trkpt><trkpt lat="45.6251701992" lon="6.8317084014"><ele>1421.93</ele><time>2014-09-05T15:26:19Z</time></trkpt><trkpt lat="45.6252083369" lon="6.8316841777"><ele>1421.93</ele><time>2014-09-05T15:26:20Z</time></trkpt><trkpt lat="45.6252474803" lon="6.8316628877"><ele>1421.93</ele><time>2014-09-05T15:26:21Z</time></trkpt><trkpt lat="45.6253691018" lon="6.8315963354"><ele>1421.93</ele><time>2014-09-05T15:26:24Z</time></trkpt><trkpt lat="45.6254075747" lon="6.8315649033"><ele>1421.93</ele><time>2014-09-05T15:26:25Z</time></trkpt><trkpt lat="45.6254433654" lon="6.8315230776"><ele>1421.93</ele><time>2014-09-05T15:26:26Z</time></trkpt><trkpt lat="45.6254748814" lon="6.8314781506"><ele>1421.93</ele><time>2014-09-05T15:26:27Z</time></trkpt><trkpt lat="45.6255036313" lon="6.8314268533"><ele>1421.93</ele><time>2014-09-05T15:26:28Z</time></trkpt><trkpt lat="45.6255303696" lon="6.8313696049"><ele>1421.93</ele><time>2014-09-05T15:26:29Z</time></trkpt><trkpt lat="45.6255526654" lon="6.8313051481"><ele>1421.93</ele><time>2014-09-05T15:26:30Z</time></trkpt><trkpt lat="45.6255679205" lon="6.8312347401"><ele>1421.45</ele><time>2014-09-05T15:26:31Z</time></trkpt><trkpt lat="45.6255742069" lon="6.8311615661"><ele>1420.97</ele><time>2014-09-05T15:26:32Z</time></trkpt><trkpt lat="45.6255700998" lon="6.8310850393"><ele>1420.97</ele><time>2014-09-05T15:26:33Z</time></trkpt><trkpt lat="45.6255571917" lon="6.8310109433"><ele>1420.49</ele><time>2014-09-05T15:26:34Z</time></trkpt><trkpt lat="45.6255368236" lon="6.8309346680"><ele>1420.49</ele><time>2014-09-05T15:26:35Z</time></trkpt><trkpt lat="45.6255140249" lon="6.8308551237"><ele>1420.00</ele><time>2014-09-05T15:26:36Z</time></trkpt><trkpt lat="45.6253689341" lon="6.8304487690"><ele>1419.04</ele><time>2014-09-05T15:26:41Z</time></trkpt><trkpt lat="45.6253270246" lon="6.8303763494"><ele>1419.04</ele><time>2014-09-05T15:26:42Z</time></trkpt><trkpt lat="45.6252794992" lon="6.8303126469"><ele>1419.04</ele><time>2014-09-05T15:26:43Z</time></trkpt><trkpt lat="45.6251832750" lon="6.8301795423"><ele>1418.56</ele><time>2014-09-05T15:26:45Z</time></trkpt><trkpt lat="45.6251457240" lon="6.8301051110"><ele>1418.08</ele><time>2014-09-05T15:26:46Z</time></trkpt><trkpt lat="45.6251163036" lon="6.8300142512"><ele>1417.60</ele><time>2014-09-05T15:26:47Z</time></trkpt><trkpt lat="45.6250995398" lon="6.8299161829"><ele>1417.60</ele><time>2014-09-05T15:26:48Z</time></trkpt><trkpt lat="45.6250946783" lon="6.8298051227"><ele>1417.12</ele><time>2014-09-05T15:26:49Z</time></trkpt><trkpt lat="45.6250995398" lon="6.8297023606"><ele>1416.64</ele><time>2014-09-05T15:26:50Z</time></trkpt><trkpt lat="45.6251291279" lon="6.8290518411"><ele>1413.28</ele><time>2014-09-05T15:26:56Z</time></trkpt><trkpt lat="45.6251424551" lon="6.8289582152"><ele>1412.79</ele><time>2014-09-05T15:26:57Z</time></trkpt><trkpt lat="45.6252087560" lon="6.8285709713"><ele>1410.39</ele><time>2014-09-05T15:27:01Z</time></trkpt><trkpt lat="45.6252150424" lon="6.8284718134"><ele>1409.91</ele><time>2014-09-05T15:27:02Z</time></trkpt><trkpt lat="45.6252160482" lon="6.8283764273"><ele>1409.43</ele><time>2014-09-05T15:27:03Z</time></trkpt><trkpt lat="45.6251889747" lon="6.8279034365"><ele>1407.03</ele><time>2014-09-05T15:27:08Z</time></trkpt><trkpt lat="45.6251688581" lon="6.8278161809"><ele>1407.03</ele><time>2014-09-05T15:27:09Z</time></trkpt><trkpt lat="45.6251397729" lon="6.8277365528"><ele>1406.55</ele><time>2014-09-05T15:27:10Z</time></trkpt><trkpt lat="45.6248718873" lon="6.8272166234"><ele>1405.10</ele><time>2014-09-05T15:27:17Z</time></trkpt><trkpt lat="45.6248451490" lon="6.8271336425"><ele>1404.62</ele><time>2014-09-05T15:27:18Z</time></trkpt><trkpt lat="45.6248337496" lon="6.8270480633"><ele>1404.14</ele><time>2014-09-05T15:27:19Z</time></trkpt><trkpt lat="45.6248402037" lon="6.8269642442"><ele>1403.66</ele><time>2014-09-05T15:27:20Z</time></trkpt><trkpt lat="45.6248594820" lon="6.8268833589"><ele>1403.18</ele><time>2014-09-05T15:27:21Z</time></trkpt><trkpt lat="45.6248826999" lon="6.8268020544"><ele>1402.70</ele><time>2014-09-05T15:27:22Z</time></trkpt><trkpt lat="45.6249111146" lon="6.8267230969"><ele>1402.22</ele><time>2014-09-05T15:27:23Z</time></trkpt><trkpt lat="45.6249445584" lon="6.8266486656"><ele>1401.26</ele><time>2014-09-05T15:27:24Z</time></trkpt><trkpt lat="45.6249780022" lon="6.8265743181"><ele>1400.78</ele><time>2014-09-05T15:27:25Z</time></trkpt><trkpt lat="45.6253261864" lon="6.8258435838"><ele>1393.57</ele><time>2014-09-05T15:27:35Z</time></trkpt><trkpt lat="45.6258877739" lon="6.8251975905"><ele>1387.80</ele><time>2014-09-05T15:27:48Z</time></trkpt><trkpt lat="45.6266256329" lon="6.8246329017"><ele>1384.44</ele><time>2014-09-05T15:28:02Z</time></trkpt><trkpt lat="45.6269116234" lon="6.8244516850"><ele>1383.47</ele><time>2014-09-05T15:28:07Z</time></trkpt><trkpt lat="45.6269737333" lon="6.8244330771"><ele>1382.99</ele><time>2014-09-05T15:28:08Z</time></trkpt><trkpt lat="45.6271562073" lon="6.8244003877"><ele>1382.51</ele><time>2014-09-05T15:28:11Z</time></trkpt><trkpt lat="45.6272156350" lon="6.8244009744"><ele>1382.03</ele><time>2014-09-05T15:28:12Z</time></trkpt><trkpt lat="45.6273305509" lon="6.8244019803"><ele>1382.03</ele><time>2014-09-05T15:28:14Z</time></trkpt><trkpt lat="45.6273916550" lon="6.8243918382"><ele>1382.03</ele><time>2014-09-05T15:28:15Z</time></trkpt><trkpt lat="45.6274533458" lon="6.8243718892"><ele>1381.55</ele><time>2014-09-05T15:28:16Z</time></trkpt><trkpt lat="45.6275143661" lon="6.8243429717"><ele>1381.55</ele><time>2014-09-05T15:28:17Z</time></trkpt><trkpt lat="45.6275744643" lon="6.8243061751"><ele>1381.55</ele><time>2014-09-05T15:28:18Z</time></trkpt><trkpt lat="45.6276335567" lon="6.8242667802"><ele>1381.07</ele><time>2014-09-05T15:28:19Z</time></trkpt><trkpt lat="45.6279329583" lon="6.8240957055"><ele>1379.63</ele><time>2014-09-05T15:28:24Z</time></trkpt><trkpt lat="45.6279910449" lon="6.8240620103"><ele>1379.15</ele><time>2014-09-05T15:28:25Z</time></trkpt><trkpt lat="45.6280499697" lon="6.8240380380"><ele>1379.15</ele><time>2014-09-05T15:28:26Z</time></trkpt><trkpt lat="45.6287475117" lon="6.8238224555"><ele>1378.67</ele><time>2014-09-05T15:28:37Z</time></trkpt><trkpt lat="45.6288073584" lon="6.8237812165"><ele>1378.67</ele><time>2014-09-05T15:28:38Z</time></trkpt><trkpt lat="45.6288615055" lon="6.8237263989"><ele>1378.67</ele><time>2014-09-05T15:28:39Z</time></trkpt><trkpt lat="45.6289112940" lon="6.8236587569"><ele>1378.19</ele><time>2014-09-05T15:28:40Z</time></trkpt><trkpt lat="45.6289552152" lon="6.8235797994"><ele>1377.71</ele><time>2014-09-05T15:28:41Z</time></trkpt><trkpt lat="45.6289959513" lon="6.8234887719"><ele>1377.23</ele><time>2014-09-05T15:28:42Z</time></trkpt><trkpt lat="45.6290314905" lon="6.8233985826"><ele>1376.75</ele><time>2014-09-05T15:28:43Z</time></trkpt><trkpt lat="45.6291862205" lon="6.8230473809"><ele>1374.34</ele><time>2014-09-05T15:28:47Z</time></trkpt><trkpt lat="45.6292371824" lon="6.8229800742"><ele>1373.86</ele><time>2014-09-05T15:28:48Z</time></trkpt><trkpt lat="45.6292952690" lon="6.8229337223"><ele>1373.38</ele><time>2014-09-05T15:28:49Z</time></trkpt><trkpt lat="45.6293560378" lon="6.8229007814"><ele>1372.90</ele><time>2014-09-05T15:28:50Z</time></trkpt><trkpt lat="45.6294183992" lon="6.8228746299"><ele>1372.42</ele><time>2014-09-05T15:28:51Z</time></trkpt><trkpt lat="45.6294810958" lon="6.8228543457"><ele>1371.94</ele><time>2014-09-05T15:28:52Z</time></trkpt><trkpt lat="45.6295415293" lon="6.8228468020"><ele>1371.94</ele><time>2014-09-05T15:28:53Z</time></trkpt><trkpt lat="45.6296014600" lon="6.8228438683"><ele>1371.94</ele><time>2014-09-05T15:28:54Z</time></trkpt><trkpt lat="45.6296602171" lon="6.8228320498"><ele>1371.94</ele><time>2014-09-05T15:28:55Z</time></trkpt><trkpt lat="45.6297073234" lon="6.8228012882"><ele>1371.94</ele><time>2014-09-05T15:28:56Z</time></trkpt><trkpt lat="45.6297395099" lon="6.8227492366"><ele>1371.94</ele><time>2014-09-05T15:28:57Z</time></trkpt><trkpt lat="45.6297562737" lon="6.8226862047"><ele>1371.94</ele><time>2014-09-05T15:28:58Z</time></trkpt><trkpt lat="45.6297525857" lon="6.8226147071"><ele>1371.94</ele><time>2014-09-05T15:28:59Z</time></trkpt><trkpt lat="45.6297280267" lon="6.8225561175"><ele>1371.46</ele><time>2014-09-05T15:29:00Z</time></trkpt><trkpt lat="45.6296872906" lon="6.8225153815"><ele>1371.46</ele><time>2014-09-05T15:29:01Z</time></trkpt><trkpt lat="45.6296381727" lon="6.8224937562"><ele>1371.46</ele><time>2014-09-05T15:29:02Z</time></trkpt><trkpt lat="45.6295837741" lon="6.8224904872"><ele>1370.98</ele><time>2014-09-05T15:29:03Z</time></trkpt><trkpt lat="45.6295307167" lon="6.8225032277"><ele>1370.50</ele><time>2014-09-05T15:29:04Z</time></trkpt><trkpt lat="45.6294751447" lon="6.8225232605"><ele>1370.50</ele><time>2014-09-05T15:29:05Z</time></trkpt><trkpt lat="45.6293672696" lon="6.8225821014"><ele>1370.02</ele><time>2014-09-05T15:29:07Z</time></trkpt><trkpt lat="45.6292653456" lon="6.8226618972"><ele>1369.54</ele><time>2014-09-05T15:29:09Z</time></trkpt><trkpt lat="45.6291649304" lon="6.8227624800"><ele>1369.05</ele><time>2014-09-05T15:29:11Z</time></trkpt><trkpt lat="45.6291174050" lon="6.8228255119"><ele>1369.05</ele><time>2014-09-05T15:29:12Z</time></trkpt><trkpt lat="45.6290724780" lon="6.8228975125"><ele>1368.57</ele><time>2014-09-05T15:29:13Z</time></trkpt><trkpt lat="45.6288744975" lon="6.8232517317"><ele>1366.65</ele><time>2014-09-05T15:29:18Z</time></trkpt><trkpt lat="45.6288320012" lon="6.8233084772"><ele>1366.17</ele><time>2014-09-05T15:29:19Z</time></trkpt><trkpt lat="45.6287882477" lon="6.8233587686"><ele>1365.69</ele><time>2014-09-05T15:29:20Z</time></trkpt><trkpt lat="45.6287421472" lon="6.8234013487"><ele>1365.21</ele><time>2014-09-05T15:29:21Z</time></trkpt><trkpt lat="45.6286909338" lon="6.8234326132"><ele>1365.21</ele><time>2014-09-05T15:29:22Z</time></trkpt><trkpt lat="45.6286346912" lon="6.8234544899"><ele>1364.73</ele><time>2014-09-05T15:29:23Z</time></trkpt><trkpt lat="45.6285745092" lon="6.8234679010"><ele>1364.25</ele><time>2014-09-05T15:29:24Z</time></trkpt><trkpt lat="45.6285129860" lon="6.8234747741"><ele>1363.77</ele><time>2014-09-05T15:29:25Z</time></trkpt><trkpt lat="45.6277343910" lon="6.8235727586"><ele>1360.88</ele><time>2014-09-05T15:29:37Z</time></trkpt><trkpt lat="45.6276651565" lon="6.8235701602"><ele>1360.40</ele><time>2014-09-05T15:29:38Z</time></trkpt><trkpt lat="45.6271462329" lon="6.8235280830"><ele>1357.52</ele><time>2014-09-05T15:29:45Z</time></trkpt><trkpt lat="45.6270729750" lon="6.8235421646"><ele>1357.04</ele><time>2014-09-05T15:29:46Z</time></trkpt><trkpt lat="45.6266791094" lon="6.8236169312"><ele>1354.15</ele><time>2014-09-05T15:29:52Z</time></trkpt><trkpt lat="45.6266177539" lon="6.8236003350"><ele>1354.15</ele><time>2014-09-05T15:29:53Z</time></trkpt><trkpt lat="45.6265607569" lon="6.8235703278"><ele>1353.67</ele><time>2014-09-05T15:29:54Z</time></trkpt><trkpt lat="45.6265076995" lon="6.8235315196"><ele>1353.19</ele><time>2014-09-05T15:29:55Z</time></trkpt><trkpt lat="45.6264573243" lon="6.8234927952"><ele>1352.71</ele><time>2014-09-05T15:29:56Z</time></trkpt><trkpt lat="45.6264034286" lon="6.8234579265"><ele>1352.23</ele><time>2014-09-05T15:29:57Z</time></trkpt><trkpt lat="45.6263523828" lon="6.8234358821"><ele>1352.23</ele><time>2014-09-05T15:29:58Z</time></trkpt><trkpt lat="45.6262932904" lon="6.8234286737"><ele>1351.75</ele><time>2014-09-05T15:29:59Z</time></trkpt><trkpt lat="45.6262311805" lon="6.8234350439"><ele>1351.75</ele><time>2014-09-05T15:30:00Z</time></trkpt><trkpt lat="45.6261673104" lon="6.8234539870"><ele>1351.27</ele><time>2014-09-05T15:30:01Z</time></trkpt><trkpt lat="45.6261027697" lon="6.8234826531"><ele>1351.27</ele><time>2014-09-05T15:30:02Z</time></trkpt><trkpt lat="45.6260391511" lon="6.8235186953"><ele>1350.79</ele><time>2014-09-05T15:30:03Z</time></trkpt><trkpt lat="45.6259788014" lon="6.8235617783"><ele>1350.79</ele><time>2014-09-05T15:30:04Z</time></trkpt><trkpt lat="45.6259208824" lon="6.8236065377"><ele>1350.31</ele><time>2014-09-05T15:30:05Z</time></trkpt><trkpt lat="45.6258628797" lon="6.8236430828"><ele>1349.83</ele><time>2014-09-05T15:30:06Z</time></trkpt><trkpt lat="45.6257976685" lon="6.8236703239"><ele>1349.35</ele><time>2014-09-05T15:30:07Z</time></trkpt><trkpt lat="45.6257423479" lon="6.8236798793"><ele>1349.35</ele><time>2014-09-05T15:30:08Z</time></trkpt><trkpt lat="45.6250489969" lon="6.8239150755"><ele>1343.10</ele><time>2014-09-05T15:30:21Z</time></trkpt><trkpt lat="45.6249451451" lon="6.8239300791"><ele>1342.14</ele><time>2014-09-05T15:30:23Z</time></trkpt><trkpt lat="45.6248516869" lon="6.8239265587"><ele>1341.18</ele><time>2014-09-05T15:30:25Z</time></trkpt><trkpt lat="45.6248080172" lon="6.8239185959"><ele>1340.70</ele><time>2014-09-05T15:30:26Z</time></trkpt><trkpt lat="45.6247669458" lon="6.8239054363"><ele>1340.22</ele><time>2014-09-05T15:30:27Z</time></trkpt><trkpt lat="45.6246817857" lon="6.8238947075"><ele>1338.77</ele><time>2014-09-05T15:30:30Z</time></trkpt><trkpt lat="45.6246682070" lon="6.8239176739"><ele>1338.77</ele><time>2014-09-05T15:30:31Z</time></trkpt><trkpt lat="45.6246502697" lon="6.8239635229"><ele>1338.77</ele><time>2014-09-05T15:30:40Z</time></trkpt><trkpt lat="45.6246567238" lon="6.8239496090"><ele>1337.81</ele><time>2014-09-05T15:31:00Z</time></trkpt><trkpt lat="45.6246539578" lon="6.8239186797"><ele>1337.33</ele><time>2014-09-05T15:31:06Z</time></trkpt><trkpt lat="45.6244412251" lon="6.8237884250"><ele>1336.37</ele><time>2014-09-05T15:31:17Z</time></trkpt><trkpt lat="45.6241685618" lon="6.8241542112"><ele>1334.93</ele><time>2014-09-05T15:31:28Z</time></trkpt><trkpt lat="45.6241083797" lon="6.8242675345"><ele>1334.45</ele><time>2014-09-05T15:31:30Z</time></trkpt><trkpt lat="45.6240712479" lon="6.8243175745"><ele>1333.97</ele><time>2014-09-05T15:31:31Z</time></trkpt><trkpt lat="45.6240290031" lon="6.8243654352"><ele>1333.49</ele><time>2014-09-05T15:31:32Z</time></trkpt><trkpt lat="45.6234553456" lon="6.8250117637"><ele>1328.20</ele><time>2014-09-05T15:31:46Z</time></trkpt><trkpt lat="45.6231294572" lon="6.8258175161"><ele>1324.35</ele><time>2014-09-05T15:31:58Z</time></trkpt><trkpt lat="45.6231168006" lon="6.8258921988"><ele>1323.87</ele><time>2014-09-05T15:31:59Z</time></trkpt><trkpt lat="45.6231080834" lon="6.8259688932"><ele>1323.39</ele><time>2014-09-05T15:32:00Z</time></trkpt><trkpt lat="45.6231052335" lon="6.8260483537"><ele>1322.91</ele><time>2014-09-05T15:32:01Z</time></trkpt><trkpt lat="45.6231056526" lon="6.8261234555"><ele>1322.43</ele><time>2014-09-05T15:32:02Z</time></trkpt><trkpt lat="45.6231072452" lon="6.8261991441"><ele>1321.95</ele><time>2014-09-05T15:32:03Z</time></trkpt><trkpt lat="45.6231629010" lon="6.8270758074"><ele>1319.55</ele><time>2014-09-05T15:32:14Z</time></trkpt><trkpt lat="45.6231558602" lon="6.8271659967"><ele>1319.55</ele><time>2014-09-05T15:32:15Z</time></trkpt><trkpt lat="45.6229656748" lon="6.8281437457"><ele>1315.70</ele><time>2014-09-05T15:32:27Z</time></trkpt><trkpt lat="45.6229006313" lon="6.8283425644"><ele>1314.26</ele><time>2014-09-05T15:32:31Z</time></trkpt><trkpt lat="45.6228669360" lon="6.8283574004"><ele>1313.78</ele><time>2014-09-05T15:32:32Z</time></trkpt><trkpt lat="45.6228322349" lon="6.8283452466"><ele>1313.30</ele><time>2014-09-05T15:32:33Z</time></trkpt><trkpt lat="45.6228073407" lon="6.8283040915"><ele>1312.82</ele><time>2014-09-05T15:32:34Z</time></trkpt><trkpt lat="45.6228030659" lon="6.8282487709"><ele>1312.34</ele><time>2014-09-05T15:32:35Z</time></trkpt><trkpt lat="45.6228159741" lon="6.8281876668"><ele>1311.86</ele><time>2014-09-05T15:32:36Z</time></trkpt><trkpt lat="45.6228332408" lon="6.8281352799"><ele>1311.86</ele><time>2014-09-05T15:32:37Z</time></trkpt><trkpt lat="45.6228513457" lon="6.8280798756"><ele>1311.86</ele><time>2014-09-05T15:32:38Z</time></trkpt><trkpt lat="45.6230322272" lon="6.8274435215"><ele>1311.38</ele><time>2014-09-05T15:32:50Z</time></trkpt><trkpt lat="45.6229976099" lon="6.8268274516"><ele>1310.41</ele><time>2014-09-05T15:32:59Z</time></trkpt><trkpt lat="45.6229733024" lon="6.8267581332"><ele>1310.41</ele><time>2014-09-05T15:33:00Z</time></trkpt><trkpt lat="45.6227932591" lon="6.8262178358"><ele>1308.97</ele><time>2014-09-05T15:33:07Z</time></trkpt><trkpt lat="45.6227801833" lon="6.8261263054"><ele>1308.49</ele><time>2014-09-05T15:33:08Z</time></trkpt><trkpt lat="45.6227753218" lon="6.8260306679"><ele>1308.49</ele><time>2014-09-05T15:33:09Z</time></trkpt><trkpt lat="45.6227797642" lon="6.8259384669"><ele>1308.01</ele><time>2014-09-05T15:33:10Z</time></trkpt><trkpt lat="45.6227916665" lon="6.8258480262"><ele>1307.53</ele><time>2014-09-05T15:33:11Z</time></trkpt><trkpt lat="45.6228089333" lon="6.8257577531"><ele>1307.53</ele><time>2014-09-05T15:33:12Z</time></trkpt><trkpt lat="45.6228277087" lon="6.8256712519"><ele>1307.05</ele><time>2014-09-05T15:33:13Z</time></trkpt><trkpt lat="45.6229586340" lon="6.8251896277"><ele>1304.17</ele><time>2014-09-05T15:33:19Z</time></trkpt><trkpt lat="45.6229853723" lon="6.8251154479"><ele>1303.69</ele><time>2014-09-05T15:33:20Z</time></trkpt><trkpt lat="45.6234726962" lon="6.8239336833"><ele>1296.96</ele><time>2014-09-05T15:33:37Z</time></trkpt><trkpt lat="45.6238644663" lon="6.8230935652"><ele>1292.63</ele><time>2014-09-05T15:33:50Z</time></trkpt><trkpt lat="45.6241416559" lon="6.8226766493"><ele>1290.71</ele><time>2014-09-05T15:33:57Z</time></trkpt><trkpt lat="45.6241862476" lon="6.8226271123"><ele>1290.23</ele><time>2014-09-05T15:33:58Z</time></trkpt><trkpt lat="45.6244672090" lon="6.8223592266"><ele>1288.78</ele><time>2014-09-05T15:34:04Z</time></trkpt><trkpt lat="45.6245703902" lon="6.8223040737"><ele>1288.30</ele><time>2014-09-05T15:34:06Z</time></trkpt><trkpt lat="45.6246242020" lon="6.8222868070"><ele>1288.30</ele><time>2014-09-05T15:34:07Z</time></trkpt><trkpt lat="45.6249171495" lon="6.8222381920"><ele>1287.82</ele><time>2014-09-05T15:34:12Z</time></trkpt><trkpt lat="45.6249756552" lon="6.8222195003"><ele>1287.82</ele><time>2014-09-05T15:34:13Z</time></trkpt><trkpt lat="45.6250317302" lon="6.8221914209"><ele>1287.34</ele><time>2014-09-05T15:34:14Z</time></trkpt><trkpt lat="45.6255661603" lon="6.8218899239"><ele>1284.46</ele><time>2014-09-05T15:34:25Z</time></trkpt><trkpt lat="45.6256138533" lon="6.8218771834"><ele>1284.46</ele><time>2014-09-05T15:34:26Z</time></trkpt><trkpt lat="45.6258151866" lon="6.8218663707"><ele>1283.50</ele><time>2014-09-05T15:34:30Z</time></trkpt><trkpt lat="45.6260321941" lon="6.8218864873"><ele>1283.02</ele><time>2014-09-05T15:34:34Z</time></trkpt><trkpt lat="45.6260875985" lon="6.8218757585"><ele>1282.54</ele><time>2014-09-05T15:34:35Z</time></trkpt><trkpt lat="45.6261464395" lon="6.8218583241"><ele>1282.54</ele><time>2014-09-05T15:34:36Z</time></trkpt><trkpt lat="45.6263229623" lon="6.8217938673"><ele>1281.09</ele><time>2014-09-05T15:34:39Z</time></trkpt><trkpt lat="45.6265878305" lon="6.8216509558"><ele>1279.65</ele><time>2014-09-05T15:34:44Z</time></trkpt><trkpt lat="45.6266395468" lon="6.8216194399"><ele>1279.17</ele><time>2014-09-05T15:34:45Z</time></trkpt><trkpt lat="45.6266846415" lon="6.8215911929"><ele>1279.17</ele><time>2014-09-05T15:34:46Z</time></trkpt><trkpt lat="45.6270061713" lon="6.8212449364"><ele>1276.77</ele><time>2014-09-05T15:34:54Z</time></trkpt><trkpt lat="45.6270371005" lon="6.8211923819"><ele>1276.29</ele><time>2014-09-05T15:34:55Z</time></trkpt><trkpt lat="45.6270644255" lon="6.8211445212"><ele>1275.81</ele><time>2014-09-05T15:34:56Z</time></trkpt><trkpt lat="45.6270914990" lon="6.8210938107"><ele>1275.33</ele><time>2014-09-05T15:34:57Z</time></trkpt><trkpt lat="45.6271223444" lon="6.8210441899"><ele>1274.85</ele><time>2014-09-05T15:34:58Z</time></trkpt><trkpt lat="45.6271565426" lon="6.8210004363"><ele>1274.36</ele><time>2014-09-05T15:34:59Z</time></trkpt><trkpt lat="45.6271960214" lon="6.8209602870"><ele>1273.88</ele><time>2014-09-05T15:35:00Z</time></trkpt><trkpt lat="45.6272416189" lon="6.8209244963"><ele>1273.88</ele><time>2014-09-05T15:35:01Z</time></trkpt><trkpt lat="45.6272902340" lon="6.8208973389"><ele>1273.40</ele><time>2014-09-05T15:35:02Z</time></trkpt><trkpt lat="45.6273380946" lon="6.8208750430"><ele>1272.92</ele><time>2014-09-05T15:35:03Z</time></trkpt><trkpt lat="45.6276014540" lon="6.8207566906"><ele>1271.00</ele><time>2014-09-05T15:35:08Z</time></trkpt><trkpt lat="45.6280207168" lon="6.8205390964"><ele>1271.48</ele><time>2014-09-05T15:35:16Z</time></trkpt><trkpt lat="45.6282587629" lon="6.8204395194"><ele>1271.96</ele><time>2014-09-05T15:35:21Z</time></trkpt><trkpt lat="45.6287584919" lon="6.8201145530"><ele>1269.08</ele><time>2014-09-05T15:35:33Z</time></trkpt><trkpt lat="45.6287698913" lon="6.8200620823"><ele>1268.12</ele><time>2014-09-05T15:35:34Z</time></trkpt><trkpt lat="45.6287622638" lon="6.8200085219"><ele>1267.64</ele><time>2014-09-05T15:35:35Z</time></trkpt><trkpt lat="45.6287396327" lon="6.8199618347"><ele>1267.16</ele><time>2014-09-05T15:35:36Z</time></trkpt><trkpt lat="45.6287073623" lon="6.8199334200"><ele>1265.71</ele><time>2014-09-05T15:35:37Z</time></trkpt><trkpt lat="45.6286680512" lon="6.8199268822"><ele>1265.23</ele><time>2014-09-05T15:35:38Z</time></trkpt><trkpt lat="45.6286288239" lon="6.8199388683"><ele>1265.23</ele><time>2014-09-05T15:35:39Z</time></trkpt><trkpt lat="45.6285894290" lon="6.8199583981"><ele>1264.75</ele><time>2014-09-05T15:35:40Z</time></trkpt><trkpt lat="45.6285518780" lon="6.8199856393"><ele>1263.79</ele><time>2014-09-05T15:35:41Z</time></trkpt><trkpt lat="45.6281297654" lon="6.8202390242"><ele>1258.98</ele><time>2014-09-05T15:35:50Z</time></trkpt><trkpt lat="45.6280068867" lon="6.8202756532"><ele>1258.02</ele><time>2014-09-05T15:35:52Z</time></trkpt><trkpt lat="45.6273231748" lon="6.8202824425"><ele>1253.70</ele><time>2014-09-05T15:36:02Z</time></trkpt><trkpt lat="45.6272608135" lon="6.8202582188"><ele>1252.74</ele><time>2014-09-05T15:36:03Z</time></trkpt><trkpt lat="45.6272048224" lon="6.8202354200"><ele>1252.25</ele><time>2014-09-05T15:36:04Z</time></trkpt><trkpt lat="45.6271443050" lon="6.8202201650"><ele>1252.25</ele><time>2014-09-05T15:36:05Z</time></trkpt><trkpt lat="45.6270830333" lon="6.8202194944"><ele>1251.77</ele><time>2014-09-05T15:36:06Z</time></trkpt><trkpt lat="45.6270231865" lon="6.8202318996"><ele>1251.77</ele><time>2014-09-05T15:36:07Z</time></trkpt><trkpt lat="45.6269660220" lon="6.8202566262"><ele>1251.29</ele><time>2014-09-05T15:36:08Z</time></trkpt><trkpt lat="45.6269076839" lon="6.8202944286"><ele>1251.29</ele><time>2014-09-05T15:36:09Z</time></trkpt><trkpt lat="45.6268610805" lon="6.8203349132"><ele>1250.81</ele><time>2014-09-05T15:36:10Z</time></trkpt><trkpt lat="45.6268136390" lon="6.8203862105"><ele>1250.81</ele><time>2014-09-05T15:36:11Z</time></trkpt><trkpt lat="45.6267688796" lon="6.8204390164"><ele>1250.33</ele><time>2014-09-05T15:36:12Z</time></trkpt><trkpt lat="45.6267206836" lon="6.8204890564"><ele>1249.85</ele><time>2014-09-05T15:36:13Z</time></trkpt><trkpt lat="45.6264882535" lon="6.8207239173"><ele>1246.49</ele><time>2014-09-05T15:36:18Z</time></trkpt><trkpt lat="45.6264410634" lon="6.8207551818"><ele>1246.01</ele><time>2014-09-05T15:36:19Z</time></trkpt><trkpt lat="45.6263911072" lon="6.8207790703"><ele>1245.53</ele><time>2014-09-05T15:36:20Z</time></trkpt><trkpt lat="45.6260688230" lon="6.8208898790"><ele>1243.12</ele><time>2014-09-05T15:36:26Z</time></trkpt><trkpt lat="45.6251626555" lon="6.8210078962"><ele>1238.80</ele><time>2014-09-05T15:36:39Z</time></trkpt><trkpt lat="45.6243936997" lon="6.8211121671"><ele>1231.59</ele><time>2014-09-05T15:36:53Z</time></trkpt><trkpt lat="45.6243421510" lon="6.8211338762"><ele>1231.59</ele><time>2014-09-05T15:36:54Z</time></trkpt><trkpt lat="45.6235258374" lon="6.8216232117"><ele>1226.30</ele><time>2014-09-05T15:37:08Z</time></trkpt><trkpt lat="45.6234077364" lon="6.8217097130"><ele>1225.34</ele><time>2014-09-05T15:37:10Z</time></trkpt><trkpt lat="45.6226549577" lon="6.8224238511"><ele>1219.57</ele><time>2014-09-05T15:37:24Z</time></trkpt><trkpt lat="45.6226042472" lon="6.8224597257"><ele>1219.09</ele><time>2014-09-05T15:37:25Z</time></trkpt><trkpt lat="45.6219053641" lon="6.8230486382"><ele>1212.36</ele><time>2014-09-05T15:37:38Z</time></trkpt><trkpt lat="45.6218184438" lon="6.8231605366"><ele>1211.88</ele><time>2014-09-05T15:37:40Z</time></trkpt><trkpt lat="45.6210784893" lon="6.8240747508"><ele>1205.63</ele><time>2014-09-05T15:37:56Z</time></trkpt><trkpt lat="45.6210441235" lon="6.8241245393"><ele>1205.15</ele><time>2014-09-05T15:37:57Z</time></trkpt><trkpt lat="45.6210137811" lon="6.8241806980"><ele>1205.15</ele><time>2014-09-05T15:37:58Z</time></trkpt><trkpt lat="45.6209874619" lon="6.8242417183"><ele>1205.15</ele><time>2014-09-05T15:37:59Z</time></trkpt><trkpt lat="45.6208990328" lon="6.8244806863"><ele>1204.19</ele><time>2014-09-05T15:38:03Z</time></trkpt><trkpt lat="45.6208790839" lon="6.8245362584"><ele>1204.19</ele><time>2014-09-05T15:38:04Z</time></trkpt><trkpt lat="45.6208606437" lon="6.8245907407"><ele>1203.71</ele><time>2014-09-05T15:38:05Z</time></trkpt><trkpt lat="45.6207985338" lon="6.8248172197"><ele>1202.75</ele><time>2014-09-05T15:38:09Z</time></trkpt><trkpt lat="45.6204866432" lon="6.8254674040"><ele>1203.23</ele><time>2014-09-05T15:38:23Z</time></trkpt><trkpt lat="45.6204238627" lon="6.8255084753"><ele>1203.23</ele><time>2014-09-05T15:38:25Z</time></trkpt><trkpt lat="45.6203883234" lon="6.8254917115"><ele>1202.75</ele><time>2014-09-05T15:38:26Z</time></trkpt><trkpt lat="45.6203636806" lon="6.8254486285"><ele>1202.75</ele><time>2014-09-05T15:38:27Z</time></trkpt><trkpt lat="45.6203609146" lon="6.8253964931"><ele>1202.75</ele><time>2014-09-05T15:38:28Z</time></trkpt><trkpt lat="45.6203768402" lon="6.8253495544"><ele>1202.75</ele><time>2014-09-05T15:38:29Z</time></trkpt><trkpt lat="45.6203989685" lon="6.8253095727"><ele>1202.75</ele><time>2014-09-05T15:38:30Z</time></trkpt><trkpt lat="45.6207274552" lon="6.8246737216"><ele>1200.82</ele><time>2014-09-05T15:38:42Z</time></trkpt><trkpt lat="45.6210737117" lon="6.8236108962"><ele>1195.06</ele><time>2014-09-05T15:38:56Z</time></trkpt><trkpt lat="45.6212343927" lon="6.8232020270"><ele>1192.65</ele><time>2014-09-05T15:39:02Z</time></trkpt><trkpt lat="45.6212690938" lon="6.8231442757"><ele>1192.17</ele><time>2014-09-05T15:39:03Z</time></trkpt><trkpt lat="45.6213095784" lon="6.8230882846"><ele>1192.17</ele><time>2014-09-05T15:39:04Z</time></trkpt><trkpt lat="45.6213540025" lon="6.8230377417"><ele>1191.69</ele><time>2014-09-05T15:39:05Z</time></trkpt><trkpt lat="45.6214031205" lon="6.8229921442"><ele>1191.21</ele><time>2014-09-05T15:39:06Z</time></trkpt><trkpt lat="45.6214552559" lon="6.8229546770"><ele>1190.73</ele><time>2014-09-05T15:39:07Z</time></trkpt><trkpt lat="45.6215086486" lon="6.8229213171"><ele>1190.73</ele><time>2014-09-05T15:39:08Z</time></trkpt><trkpt lat="45.6215597782" lon="6.8228850234"><ele>1190.25</ele><time>2014-09-05T15:39:09Z</time></trkpt><trkpt lat="45.6216072198" lon="6.8228441197"><ele>1189.77</ele><time>2014-09-05T15:39:10Z</time></trkpt><trkpt lat="45.6217342895" lon="6.8226957601"><ele>1188.33</ele><time>2014-09-05T15:39:13Z</time></trkpt><trkpt lat="45.6217696611" lon="6.8226376735"><ele>1187.85</ele><time>2014-09-05T15:39:14Z</time></trkpt><trkpt lat="45.6218936294" lon="6.8223693687"><ele>1185.44</ele><time>2014-09-05T15:39:18Z</time></trkpt><trkpt lat="45.6219173502" lon="6.8222909141"><ele>1184.48</ele><time>2014-09-05T15:39:19Z</time></trkpt><trkpt lat="45.6220441684" lon="6.8218140677"><ele>1181.12</ele><time>2014-09-05T15:39:26Z</time></trkpt><trkpt lat="45.6221360341" lon="6.8215782847"><ele>1178.23</ele><time>2014-09-05T15:39:30Z</time></trkpt><trkpt lat="45.6223162450" lon="6.8212713394"><ele>1175.83</ele><time>2014-09-05T15:39:35Z</time></trkpt><trkpt lat="45.6223621778" lon="6.8212198745"><ele>1175.35</ele><time>2014-09-05T15:39:36Z</time></trkpt><trkpt lat="45.6229257770" lon="6.8208593689"><ele>1174.39</ele><time>2014-09-05T15:39:48Z</time></trkpt><trkpt lat="45.6229606457" lon="6.8208237458"><ele>1174.39</ele><time>2014-09-05T15:39:49Z</time></trkpt><trkpt lat="45.6229909044" lon="6.8207828421"><ele>1174.87</ele><time>2014-09-05T15:39:50Z</time></trkpt><trkpt lat="45.6230818480" lon="6.8206561916"><ele>1174.87</ele><time>2014-09-05T15:39:53Z</time></trkpt><trkpt lat="45.6234972551" lon="6.8199023232"><ele>1171.02</ele><time>2014-09-05T15:40:06Z</time></trkpt><trkpt lat="45.6238908693" lon="6.8194337748"><ele>1171.02</ele><time>2014-09-05T15:40:17Z</time></trkpt><trkpt lat="45.6243569870" lon="6.8190858420"><ele>1169.10</ele><time>2014-09-05T15:40:28Z</time></trkpt><trkpt lat="45.6247357652" lon="6.8188058864"><ele>1167.66</ele><time>2014-09-05T15:40:39Z</time></trkpt><trkpt lat="45.6253240909" lon="6.8182981107"><ele>1164.29</ele><time>2014-09-05T15:40:51Z</time></trkpt><trkpt lat="45.6253775675" lon="6.8182694446"><ele>1163.81</ele><time>2014-09-05T15:40:52Z</time></trkpt><trkpt lat="45.6254354026" lon="6.8182512559"><ele>1163.81</ele><time>2014-09-05T15:40:53Z</time></trkpt><trkpt lat="45.6254974287" lon="6.8182349112"><ele>1163.33</ele><time>2014-09-05T15:40:54Z</time></trkpt><trkpt lat="45.6255612150" lon="6.8182270322"><ele>1163.33</ele><time>2014-09-05T15:40:55Z</time></trkpt><trkpt lat="45.6256253365" lon="6.8182223383"><ele>1162.85</ele><time>2014-09-05T15:40:56Z</time></trkpt><trkpt lat="45.6256870274" lon="6.8182117771"><ele>1162.85</ele><time>2014-09-05T15:40:57Z</time></trkpt><trkpt lat="45.6257474609" lon="6.8181955162"><ele>1162.37</ele><time>2014-09-05T15:40:58Z</time></trkpt><trkpt lat="45.6258047931" lon="6.8181761540"><ele>1161.89</ele><time>2014-09-05T15:40:59Z</time></trkpt><trkpt lat="45.6258590240" lon="6.8181515113"><ele>1161.41</ele><time>2014-09-05T15:41:00Z</time></trkpt><trkpt lat="45.6259104051" lon="6.8181198277"><ele>1160.93</ele><time>2014-09-05T15:41:01Z</time></trkpt><trkpt lat="45.6259606965" lon="6.8180815224"><ele>1160.45</ele><time>2014-09-05T15:41:02Z</time></trkpt><trkpt lat="45.6260097306" lon="6.8180335779"><ele>1159.97</ele><time>2014-09-05T15:41:03Z</time></trkpt><trkpt lat="45.6260500476" lon="6.8179846276"><ele>1159.97</ele><time>2014-09-05T15:41:04Z</time></trkpt><trkpt lat="45.6260898616" lon="6.8179263733"><ele>1159.49</ele><time>2014-09-05T15:41:05Z</time></trkpt><trkpt lat="45.6261268258" lon="6.8178640120"><ele>1159.01</ele><time>2014-09-05T15:41:06Z</time></trkpt><trkpt lat="45.6261608563" lon="6.8178002257"><ele>1158.53</ele><time>2014-09-05T15:41:07Z</time></trkpt><trkpt lat="45.6265798677" lon="6.8171373848"><ele>1154.68</ele><time>2014-09-05T15:41:19Z</time></trkpt><trkpt lat="45.6266879104" lon="6.8168906216"><ele>1153.24</ele><time>2014-09-05T15:41:23Z</time></trkpt><trkpt lat="45.6267502718" lon="6.8167625461"><ele>1152.28</ele><time>2014-09-05T15:41:25Z</time></trkpt><trkpt lat="45.6270790100" lon="6.8160672672"><ele>1148.91</ele><time>2014-09-05T15:41:36Z</time></trkpt><trkpt lat="45.6270914152" lon="6.8160111085"><ele>1148.91</ele><time>2014-09-05T15:41:37Z</time></trkpt><trkpt lat="45.6270915829" lon="6.8159563746"><ele>1148.91</ele><time>2014-09-05T15:41:38Z</time></trkpt><trkpt lat="45.6270791776" lon="6.8159064185"><ele>1148.91</ele><time>2014-09-05T15:41:39Z</time></trkpt><trkpt lat="45.6270536967" lon="6.8158646766"><ele>1149.39</ele><time>2014-09-05T15:41:40Z</time></trkpt><trkpt lat="45.6270155590" lon="6.8158386089"><ele>1149.39</ele><time>2014-09-05T15:41:41Z</time></trkpt><trkpt lat="45.6269691233" lon="6.8158392794"><ele>1149.39</ele><time>2014-09-05T15:41:42Z</time></trkpt><trkpt lat="45.6269236933" lon="6.8158641737"><ele>1149.39</ele><time>2014-09-05T15:41:43Z</time></trkpt><trkpt lat="45.6268848013" lon="6.8159112800"><ele>1148.91</ele><time>2014-09-05T15:41:44Z</time></trkpt><trkpt lat="45.6268502679" lon="6.8159742281"><ele>1148.43</ele><time>2014-09-05T15:41:45Z</time></trkpt><trkpt lat="45.6268126331" lon="6.8160427921"><ele>1147.95</ele><time>2014-09-05T15:41:46Z</time></trkpt><trkpt lat="45.6267702207" lon="6.8161044829"><ele>1147.47</ele><time>2014-09-05T15:41:47Z</time></trkpt><trkpt lat="45.6267237011" lon="6.8161661737"><ele>1147.47</ele><time>2014-09-05T15:41:48Z</time></trkpt><trkpt lat="45.6263484433" lon="6.8166947365"><ele>1143.63</ele><time>2014-09-05T15:41:56Z</time></trkpt><trkpt lat="45.6257648952" lon="6.8172547314"><ele>1138.34</ele><time>2014-09-05T15:42:08Z</time></trkpt><trkpt lat="45.6257119216" lon="6.8172904383"><ele>1137.86</ele><time>2014-09-05T15:42:09Z</time></trkpt><trkpt lat="45.6256558467" lon="6.8173191883"><ele>1137.38</ele><time>2014-09-05T15:42:10Z</time></trkpt><trkpt lat="45.6255985145" lon="6.8173424900"><ele>1137.38</ele><time>2014-09-05T15:42:11Z</time></trkpt><trkpt lat="45.6255400088" lon="6.8173577450"><ele>1136.90</ele><time>2014-09-05T15:42:12Z</time></trkpt><trkpt lat="45.6254821736" lon="6.8173672166"><ele>1136.90</ele><time>2014-09-05T15:42:13Z</time></trkpt><trkpt lat="45.6246204302" lon="6.8174042646"><ele>1133.05</ele><time>2014-09-05T15:42:26Z</time></trkpt><trkpt lat="45.6237789709" lon="6.8176668696"><ele>1128.73</ele><time>2014-09-05T15:42:38Z</time></trkpt><trkpt lat="45.6234873645" lon="6.8177966215"><ele>1126.80</ele><time>2014-09-05T15:42:43Z</time></trkpt><trkpt lat="45.6234360673" lon="6.8178363517"><ele>1126.32</ele><time>2014-09-05T15:42:44Z</time></trkpt><trkpt lat="45.6233879551" lon="6.8178815302"><ele>1125.84</ele><time>2014-09-05T15:42:45Z</time></trkpt><trkpt lat="45.6233452074" lon="6.8179273792"><ele>1125.36</ele><time>2014-09-05T15:42:46Z</time></trkpt><trkpt lat="45.6233050581" lon="6.8179770838"><ele>1124.88</ele><time>2014-09-05T15:42:47Z</time></trkpt><trkpt lat="45.6232665014" lon="6.8180319853"><ele>1124.40</ele><time>2014-09-05T15:42:48Z</time></trkpt><trkpt lat="45.6227244437" lon="6.8187964987"><ele>1119.11</ele><time>2014-09-05T15:43:03Z</time></trkpt><trkpt lat="45.6226743199" lon="6.8188316189"><ele>1118.63</ele><time>2014-09-05T15:43:04Z</time></trkpt><trkpt lat="45.6226222683" lon="6.8188595306"><ele>1118.63</ele><time>2014-09-05T15:43:05Z</time></trkpt><trkpt lat="45.6225696299" lon="6.8188826647"><ele>1118.15</ele><time>2014-09-05T15:43:06Z</time></trkpt><trkpt lat="45.6225160696" lon="6.8189011049"><ele>1118.15</ele><time>2014-09-05T15:43:07Z</time></trkpt><trkpt lat="45.6224631798" lon="6.8189162761"><ele>1117.67</ele><time>2014-09-05T15:43:08Z</time></trkpt><trkpt lat="45.6219749339" lon="6.8191497121"><ele>1114.79</ele><time>2014-09-05T15:43:18Z</time></trkpt><trkpt lat="45.6213390827" lon="6.8199873157"><ele>1109.98</ele><time>2014-09-05T15:43:33Z</time></trkpt><trkpt lat="45.6205114536" lon="6.8209962454"><ele>1103.25</ele><time>2014-09-05T15:43:51Z</time></trkpt><trkpt lat="45.6203132216" lon="6.8212162703"><ele>1101.81</ele><time>2014-09-05T15:43:55Z</time></trkpt><trkpt lat="45.6202241220" lon="6.8213538174"><ele>1100.85</ele><time>2014-09-05T15:43:57Z</time></trkpt><trkpt lat="45.6200451683" lon="6.8216991518"><ele>1099.89</ele><time>2014-09-05T15:44:02Z</time></trkpt><trkpt lat="45.6199313421" lon="6.8218817934"><ele>1098.92</ele><time>2014-09-05T15:44:05Z</time></trkpt><trkpt lat="45.6198877562" lon="6.8219362758"><ele>1098.92</ele><time>2014-09-05T15:44:06Z</time></trkpt><trkpt lat="45.6193169486" lon="6.8225237634"><ele>1094.60</ele><time>2014-09-05T15:44:19Z</time></trkpt><trkpt lat="45.6192885339" lon="6.8225745577"><ele>1095.08</ele><time>2014-09-05T15:44:20Z</time></trkpt><trkpt lat="45.6192634720" lon="6.8226244301"><ele>1095.08</ele><time>2014-09-05T15:44:21Z</time></trkpt><trkpt lat="45.6190700177" lon="6.8231752049"><ele>1094.12</ele><time>2014-09-05T15:44:33Z</time></trkpt><trkpt lat="45.6190461293" lon="6.8232021108"><ele>1094.12</ele><time>2014-09-05T15:44:34Z</time></trkpt><trkpt lat="45.6190185528" lon="6.8232130073"><ele>1094.12</ele><time>2014-09-05T15:44:35Z</time></trkpt><trkpt lat="45.6189950835" lon="6.8232089002"><ele>1094.12</ele><time>2014-09-05T15:44:36Z</time></trkpt><trkpt lat="45.6189700216" lon="6.8231866881"><ele>1094.60</ele><time>2014-09-05T15:44:37Z</time></trkpt><trkpt lat="45.6189545989" lon="6.8231582735"><ele>1094.60</ele><time>2014-09-05T15:44:38Z</time></trkpt><trkpt lat="45.6189506594" lon="6.8231306970"><ele>1094.12</ele><time>2014-09-05T15:44:39Z</time></trkpt><trkpt lat="45.6189574488" lon="6.8230961636"><ele>1094.12</ele><time>2014-09-05T15:44:40Z</time></trkpt><trkpt lat="45.6189711951" lon="6.8230585288"><ele>1093.64</ele><time>2014-09-05T15:44:41Z</time></trkpt><trkpt lat="45.6189882942" lon="6.8230175413"><ele>1093.16</ele><time>2014-09-05T15:44:42Z</time></trkpt><trkpt lat="45.6192846783" lon="6.8222134653"><ele>1090.27</ele><time>2014-09-05T15:44:55Z</time></trkpt><trkpt lat="45.6196794659" lon="6.8214062043"><ele>1085.95</ele><time>2014-09-05T15:45:09Z</time></trkpt><trkpt lat="45.6198212039" lon="6.8211339600"><ele>1084.02</ele><time>2014-09-05T15:45:15Z</time></trkpt><trkpt lat="45.6202249601" lon="6.8203788344"><ele>1080.66</ele><time>2014-09-05T15:45:27Z</time></trkpt><trkpt lat="45.6204819493" lon="6.8199010659"><ele>1077.78</ele><time>2014-09-05T15:45:39Z</time></trkpt><trkpt lat="45.6206950173" lon="6.8194304220"><ele>1076.33</ele><time>2014-09-05T15:45:49Z</time></trkpt><trkpt lat="45.6207093503" lon="6.8193743471"><ele>1076.33</ele><time>2014-09-05T15:45:50Z</time></trkpt><trkpt lat="45.6207220908" lon="6.8193159252"><ele>1076.33</ele><time>2014-09-05T15:45:51Z</time></trkpt><trkpt lat="45.6207335740" lon="6.8192569166"><ele>1075.85</ele><time>2014-09-05T15:45:52Z</time></trkpt><trkpt lat="45.6207468174" lon="6.8191966508"><ele>1075.85</ele><time>2014-09-05T15:45:53Z</time></trkpt><trkpt lat="45.6209652498" lon="6.8181462307"><ele>1070.57</ele><time>2014-09-05T15:46:08Z</time></trkpt><trkpt lat="45.6210015435" lon="6.8180070911"><ele>1070.08</ele><time>2014-09-05T15:46:10Z</time></trkpt><trkpt lat="45.6212006137" lon="6.8174817134"><ele>1068.16</ele><time>2014-09-05T15:46:18Z</time></trkpt><trkpt lat="45.6216808967" lon="6.8168133404"><ele>1064.80</ele><time>2014-09-05T15:46:30Z</time></trkpt><trkpt lat="45.6217321102" lon="6.8167721853"><ele>1064.32</ele><time>2014-09-05T15:46:31Z</time></trkpt><trkpt lat="45.6222600024" lon="6.8162804190"><ele>1060.47</ele><time>2014-09-05T15:46:41Z</time></trkpt><trkpt lat="45.6222928595" lon="6.8162143696"><ele>1060.47</ele><time>2014-09-05T15:46:42Z</time></trkpt><trkpt lat="45.6223198492" lon="6.8161419500"><ele>1059.99</ele><time>2014-09-05T15:46:43Z</time></trkpt><trkpt lat="45.6223421451" lon="6.8160658423"><ele>1059.51</ele><time>2014-09-05T15:46:44Z</time></trkpt><trkpt lat="45.6223619264" lon="6.8159879744"><ele>1059.03</ele><time>2014-09-05T15:46:45Z</time></trkpt><trkpt lat="45.6224439014" lon="6.8156017363"><ele>1056.15</ele><time>2014-09-05T15:46:50Z</time></trkpt><trkpt lat="45.6224920973" lon="6.8154586572"><ele>1055.18</ele><time>2014-09-05T15:46:52Z</time></trkpt><trkpt lat="45.6225235295" lon="6.8153893389"><ele>1054.70</ele><time>2014-09-05T15:46:53Z</time></trkpt><trkpt lat="45.6225600746" lon="6.8153246306"><ele>1054.70</ele><time>2014-09-05T15:46:54Z</time></trkpt><trkpt lat="45.6226011459" lon="6.8152691424"><ele>1054.22</ele><time>2014-09-05T15:46:55Z</time></trkpt><trkpt lat="45.6226453185" lon="6.8152184319"><ele>1054.22</ele><time>2014-09-05T15:46:56Z</time></trkpt><trkpt lat="45.6227402017" lon="6.8151327688"><ele>1053.26</ele><time>2014-09-05T15:46:58Z</time></trkpt><trkpt lat="45.6233763043" lon="6.8146301061"><ele>1049.42</ele><time>2014-09-05T15:47:11Z</time></trkpt><trkpt lat="45.6238549948" lon="6.8143934850"><ele>1048.45</ele><time>2014-09-05T15:47:19Z</time></trkpt><trkpt lat="45.6239115726" lon="6.8143445347"><ele>1048.45</ele><time>2014-09-05T15:47:20Z</time></trkpt><trkpt lat="45.6239676476" lon="6.8142860290"><ele>1048.45</ele><time>2014-09-05T15:47:21Z</time></trkpt><trkpt lat="45.6240747683" lon="6.8141515832"><ele>1047.97</ele><time>2014-09-05T15:47:23Z</time></trkpt><trkpt lat="45.6241205335" lon="6.8140712008"><ele>1047.49</ele><time>2014-09-05T15:47:24Z</time></trkpt><trkpt lat="45.6241625268" lon="6.8139843643"><ele>1047.49</ele><time>2014-09-05T15:47:25Z</time></trkpt><trkpt lat="45.6244014110" lon="6.8135096133"><ele>1044.61</ele><time>2014-09-05T15:47:31Z</time></trkpt><trkpt lat="45.6244514510" lon="6.8134516943"><ele>1044.13</ele><time>2014-09-05T15:47:32Z</time></trkpt><trkpt lat="45.6249110308" lon="6.8131088745"><ele>1041.25</ele><time>2014-09-05T15:47:40Z</time></trkpt><trkpt lat="45.6249657646" lon="6.8130557332"><ele>1041.25</ele><time>2014-09-05T15:47:41Z</time></trkpt><trkpt lat="45.6252142880" lon="6.8128122389"><ele>1039.80</ele><time>2014-09-05T15:47:46Z</time></trkpt><trkpt lat="45.6252660044" lon="6.8127896916"><ele>1039.80</ele><time>2014-09-05T15:47:47Z</time></trkpt><trkpt lat="45.6253210735" lon="6.8127817288"><ele>1039.80</ele><time>2014-09-05T15:47:48Z</time></trkpt><trkpt lat="45.6253773998" lon="6.8127847463"><ele>1039.32</ele><time>2014-09-05T15:47:49Z</time></trkpt><trkpt lat="45.6254295353" lon="6.8127970677"><ele>1039.32</ele><time>2014-09-05T15:47:50Z</time></trkpt><trkpt lat="45.6254799105" lon="6.8128195312"><ele>1039.80</ele><time>2014-09-05T15:47:51Z</time></trkpt><trkpt lat="45.6255280226" lon="6.8128544837"><ele>1039.80</ele><time>2014-09-05T15:47:52Z</time></trkpt><trkpt lat="45.6255742908" lon="6.8128929567"><ele>1039.32</ele><time>2014-09-05T15:47:53Z</time></trkpt><trkpt lat="45.6258186232" lon="6.8130833097"><ele>1038.36</ele><time>2014-09-05T15:47:59Z</time></trkpt><trkpt lat="45.6258638017" lon="6.8131012470"><ele>1037.88</ele><time>2014-09-05T15:48:00Z</time></trkpt><trkpt lat="45.6259147637" lon="6.8131084554"><ele>1037.40</ele><time>2014-09-05T15:48:01Z</time></trkpt><trkpt lat="45.6259712577" lon="6.8131077010"><ele>1037.40</ele><time>2014-09-05T15:48:02Z</time></trkpt><trkpt lat="45.6260314398" lon="6.8131010793"><ele>1037.40</ele><time>2014-09-05T15:48:03Z</time></trkpt><trkpt lat="45.6260947231" lon="6.8130792864"><ele>1036.92</ele><time>2014-09-05T15:48:04Z</time></trkpt><trkpt lat="45.6261553243" lon="6.8130392209"><ele>1036.44</ele><time>2014-09-05T15:48:05Z</time></trkpt><trkpt lat="45.6262148358" lon="6.8129875045"><ele>1036.44</ele><time>2014-09-05T15:48:06Z</time></trkpt><trkpt lat="45.6262710784" lon="6.8129312620"><ele>1035.96</ele><time>2014-09-05T15:48:07Z</time></trkpt><trkpt lat="45.6267565582" lon="6.8124932237"><ele>1031.15</ele><time>2014-09-05T15:48:19Z</time></trkpt><trkpt lat="45.6268543750" lon="6.8124029506"><ele>1029.71</ele><time>2014-09-05T15:48:24Z</time></trkpt><trkpt lat="45.6268772576" lon="6.8123960774"><ele>1029.23</ele><time>2014-09-05T15:48:36Z</time></trkpt><trkpt lat="45.6268352643" lon="6.8124077283"><ele>1030.67</ele><time>2014-09-05T15:49:08Z</time></trkpt><trkpt lat="45.6268383656" lon="6.8124340475"><ele>1031.15</ele><time>2014-09-05T15:49:41Z</time></trkpt><trkpt lat="45.6268388685" lon="6.8124326225"><ele>1031.15</ele><time>2014-09-05T15:50:04Z</time></trkpt><trkpt lat="45.6268486753" lon="6.8123934790"><ele>1028.75</ele><time>2014-09-05T15:50:32Z</time></trkpt><trkpt lat="45.6268338393" lon="6.8123719376"><ele>1030.67</ele><time>2014-09-05T15:50:57Z</time></trkpt><trkpt lat="45.6268545426" lon="6.8124024477"><ele>1033.55</ele><time>2014-09-05T15:51:24Z</time></trkpt><trkpt lat="45.6268361025" lon="6.8123999331"><ele>1032.11</ele><time>2014-09-05T15:51:58Z</time></trkpt><trkpt lat="45.6268379465" lon="6.8123962451"><ele>1034.04</ele><time>2014-09-05T15:52:27Z</time></trkpt><trkpt lat="45.6268478371" lon="6.8123972509"><ele>1034.04</ele><time>2014-09-05T15:52:52Z</time></trkpt><trkpt lat="45.6268416345" lon="6.8124095723"><ele>1035.00</ele><time>2014-09-05T15:53:17Z</time></trkpt><trkpt lat="45.6268304028" lon="6.8124240730"><ele>1034.04</ele><time>2014-09-05T15:53:43Z</time></trkpt><trkpt lat="45.6268332526" lon="6.8124369811"><ele>1033.55</ele><time>2014-09-05T15:54:19Z</time></trkpt><trkpt lat="45.6268493459" lon="6.8124512304"><ele>1033.55</ele><time>2014-09-05T15:54:47Z</time></trkpt><trkpt lat="45.6268382818" lon="6.8124694191"><ele>1034.04</ele><time>2014-09-05T15:55:10Z</time></trkpt><trkpt lat="45.6268565543" lon="6.8124464527"><ele>1034.04</ele><time>2014-09-05T15:55:39Z</time></trkpt><trkpt lat="45.6268637627" lon="6.8124503922"><ele>1034.52</ele><time>2014-09-05T15:56:12Z</time></trkpt><trkpt lat="45.6268730666" lon="6.8124552537"><ele>1034.04</ele><time>2014-09-05T15:56:38Z</time></trkpt><trkpt lat="45.6268620025" lon="6.8124249950"><ele>1032.11</ele><time>2014-09-05T15:57:07Z</time></trkpt><trkpt lat="45.6268349290" lon="6.8124067225"><ele>1031.63</ele><time>2014-09-05T15:57:30Z</time></trkpt><trkpt lat="45.6268131360" lon="6.8123980053"><ele>1033.07</ele><time>2014-09-05T15:58:02Z</time></trkpt><trkpt lat="45.6268160697" lon="6.8123588618"><ele>1034.04</ele><time>2014-09-05T15:58:34Z</time></trkpt><trkpt lat="45.6268227752" lon="6.8123655673"><ele>1034.52</ele><time>2014-09-05T15:58:59Z</time></trkpt><trkpt lat="45.6268424727" lon="6.8123664893"><ele>1033.55</ele><time>2014-09-05T15:59:21Z</time></trkpt><trkpt lat="45.6268485077" lon="6.8123679142"><ele>1034.04</ele><time>2014-09-05T15:59:40Z</time></trkpt><trkpt lat="45.6268477533" lon="6.8123746198"><ele>1034.04</ele><time>2014-09-05T16:00:06Z</time></trkpt><trkpt lat="45.6268687081" lon="6.8123791460"><ele>1032.11</ele><time>2014-09-05T16:00:38Z</time></trkpt><trkpt lat="45.6268452387" lon="6.8123811577"><ele>1032.59</ele><time>2014-09-05T16:01:03Z</time></trkpt><trkpt lat="45.6268526148" lon="6.8123773020"><ele>1031.63</ele><time>2014-09-05T16:01:31Z</time></trkpt><trkpt lat="45.6268428080" lon="6.8123823311"><ele>1029.71</ele><time>2014-09-05T16:01:59Z</time></trkpt><trkpt lat="45.6268381979" lon="6.8123753741"><ele>1030.19</ele><time>2014-09-05T16:02:34Z</time></trkpt><trkpt lat="45.6268309057" lon="6.8123784754"><ele>1031.15</ele><time>2014-09-05T16:02:59Z</time></trkpt><trkpt lat="45.6268493459" lon="6.8124006875"><ele>1034.52</ele><time>2014-09-05T16:03:27Z</time></trkpt><trkpt lat="45.6268535368" lon="6.8124173675"><ele>1035.00</ele><time>2014-09-05T16:03:56Z</time></trkpt><trkpt lat="45.6268649362" lon="6.8124223128"><ele>1033.55</ele><time>2014-09-05T16:04:25Z</time></trkpt><trkpt lat="45.6268682051" lon="6.8123861030"><ele>1032.11</ele><time>2014-09-05T16:04:50Z</time></trkpt><trkpt lat="45.6268692948" lon="6.8123748712"><ele>1032.11</ele><time>2014-09-05T16:05:27Z</time></trkpt><trkpt lat="45.6268655229" lon="6.8123742007"><ele>1032.11</ele><time>2014-09-05T16:05:43Z</time></trkpt><trkpt lat="45.6268599909" lon="6.8124168646"><ele>1034.04</ele><time>2014-09-05T16:06:20Z</time></trkpt><trkpt lat="45.6268469151" lon="6.8124154396"><ele>1035.96</ele><time>2014-09-05T16:06:50Z</time></trkpt><trkpt lat="45.6268393714" lon="6.8124236539"><ele>1038.36</ele><time>2014-09-05T16:07:17Z</time></trkpt><trkpt lat="45.6268426403" lon="6.8124307785"><ele>1038.84</ele><time>2014-09-05T16:07:47Z</time></trkpt><trkpt lat="45.6268410478" lon="6.8124162778"><ele>1040.76</ele><time>2014-09-05T16:08:23Z</time></trkpt><trkpt lat="45.6268285587" lon="6.8124099076"><ele>1041.73</ele><time>2014-09-05T16:08:57Z</time></trkpt><trkpt lat="45.6268217694" lon="6.8124243245"><ele>1042.21</ele><time>2014-09-05T16:09:34Z</time></trkpt><trkpt lat="45.6268240325" lon="6.8124427646"><ele>1044.13</ele><time>2014-09-05T16:10:01Z</time></trkpt><trkpt lat="45.6268272176" lon="6.8124315329"><ele>1044.13</ele><time>2014-09-05T16:10:28Z</time></trkpt><trkpt lat="45.6268309895" lon="6.8124218099"><ele>1043.17</ele><time>2014-09-05T16:10:57Z</time></trkpt><trkpt lat="45.6268112082" lon="6.8124172837"><ele>1043.17</ele><time>2014-09-05T16:11:29Z</time></trkpt><trkpt lat="45.6268206798" lon="6.8124171998"><ele>1042.69</ele><time>2014-09-05T16:11:55Z</time></trkpt><trkpt lat="45.6268197577" lon="6.8124078959"><ele>1042.21</ele><time>2014-09-05T16:12:21Z</time></trkpt><trkpt lat="45.6268238649" lon="6.8123895396"><ele>1038.36</ele><time>2014-09-05T16:12:49Z</time></trkpt><trkpt lat="45.6268239487" lon="6.8123576045"><ele>1035.48</ele><time>2014-09-05T16:13:24Z</time></trkpt><trkpt lat="45.6268295646" lon="6.8123512343"><ele>1035.96</ele><time>2014-09-05T16:13:48Z</time></trkpt><trkpt lat="45.6268106215" lon="6.8123651482"><ele>1039.32</ele><time>2014-09-05T16:14:22Z</time></trkpt><trkpt lat="45.6267998926" lon="6.8123775534"><ele>1039.80</ele><time>2014-09-05T16:14:42Z</time></trkpt><trkpt lat="45.6267971266" lon="6.8123488873"><ele>1038.84</ele><time>2014-09-05T16:15:10Z</time></trkpt><trkpt lat="45.6268242840" lon="6.8123528268"><ele>1038.36</ele><time>2014-09-05T16:15:49Z</time></trkpt><trkpt lat="45.6268512737" lon="6.8123988435"><ele>1037.88</ele><time>2014-09-05T16:16:31Z</time></trkpt><trkpt lat="45.6268620864" lon="6.8124246597"><ele>1035.48</ele><time>2014-09-05T16:17:07Z</time></trkpt><trkpt lat="45.6268721446" lon="6.8124279287"><ele>1035.96</ele><time>2014-09-05T16:17:35Z</time></trkpt><trkpt lat="45.6268626731" lon="6.8124249112"><ele>1035.48</ele><time>2014-09-05T16:18:10Z</time></trkpt><trkpt lat="45.6268547941" lon="6.8124363106"><ele>1035.96</ele><time>2014-09-05T16:18:38Z</time></trkpt><trkpt lat="45.6268506031" lon="6.8124446925"><ele>1035.96</ele><time>2014-09-05T16:19:10Z</time></trkpt><trkpt lat="45.6268148124" lon="6.8124303594"><ele>1039.32</ele><time>2014-09-05T16:19:34Z</time></trkpt><trkpt lat="45.6267884094" lon="6.8124371488"><ele>1045.57</ele><time>2014-09-05T16:20:04Z</time></trkpt><trkpt lat="45.6268071849" lon="6.8124390766"><ele>1044.13</ele><time>2014-09-05T16:20:33Z</time></trkpt><trkpt lat="45.6268288940" lon="6.8124414235"><ele>1042.69</ele><time>2014-09-05T16:20:58Z</time></trkpt><trkpt lat="45.6268490944" lon="6.8124219775"><ele>1039.32</ele><time>2014-09-05T16:21:32Z</time></trkpt><trkpt lat="45.6268584821" lon="6.8124084827"><ele>1037.40</ele><time>2014-09-05T16:21:59Z</time></trkpt><trkpt lat="45.6268579792" lon="6.8124155235"><ele>1037.40</ele><time>2014-09-05T16:22:36Z</time></trkpt><trkpt lat="45.6268529501" lon="6.8123869412"><ele>1036.92</ele><time>2014-09-05T16:22:49Z</time></trkpt><trkpt lat="45.6268630922" lon="6.8123722728"><ele>1035.48</ele><time>2014-09-05T16:22:58Z</time></trkpt><trkpt lat="45.6268580630" lon="6.8123879470"><ele>1032.59</ele><time>2014-09-05T16:23:05Z</time></trkpt><trkpt lat="45.6268514413" lon="6.8124077283"><ele>1032.11</ele><time>2014-09-05T16:23:06Z</time></trkpt><trkpt lat="45.6268519443" lon="6.8124185409"><ele>1031.63</ele><time>2014-09-05T16:23:07Z</time></trkpt><trkpt lat="45.6268555485" lon="6.8124307785"><ele>1031.63</ele><time>2014-09-05T16:23:08Z</time></trkpt><trkpt lat="45.6270075124" lon="6.8125803955"><ele>1032.59</ele><time>2014-09-05T16:23:25Z</time></trkpt><trkpt lat="45.6270297244" lon="6.8126231432"><ele>1033.55</ele><time>2014-09-05T16:23:39Z</time></trkpt><trkpt lat="45.6270169001" lon="6.8127019331"><ele>1034.04</ele><time>2014-09-05T16:23:58Z</time></trkpt><trkpt lat="45.6269862223" lon="6.8126119953"><ele>1034.52</ele><time>2014-09-05T16:24:20Z</time></trkpt><trkpt lat="45.6270344183" lon="6.8126704171"><ele>1035.48</ele><time>2014-09-05T16:24:50Z</time></trkpt><trkpt lat="45.6270507630" lon="6.8127385620"><ele>1036.92</ele><time>2014-09-05T16:25:05Z</time></trkpt></trkseg><trkseg><trkpt lat="45.6269888207" lon="6.8125766236"><ele>1034.52</ele><time>2014-09-05T18:25:14Z</time></trkpt><trkpt lat="45.6268706359" lon="6.8122735340"><ele>1034.52</ele><time>2014-09-05T18:25:44Z</time></trkpt><trkpt lat="45.6270050816" lon="6.8123944849"><ele>1049.42</ele><time>2014-09-05T18:26:08Z</time></trkpt><trkpt lat="45.6270959415" lon="6.8123038765"><ele>1028.27</ele><time>2014-09-05T18:26:55Z</time></trkpt><trkpt lat="45.6270710472" lon="6.8123433553"><ele>1026.83</ele><time>2014-09-05T18:27:15Z</time></trkpt><trkpt lat="45.6270364299" lon="6.8122836761"><ele>1029.23</ele><time>2014-09-05T18:27:37Z</time></trkpt><trkpt lat="45.6270303112" lon="6.8123208918"><ele>1029.71</ele><time>2014-09-05T18:28:07Z</time></trkpt><trkpt lat="45.6269932631" lon="6.8122919742"><ele>1029.71</ele><time>2014-09-05T18:28:26Z</time></trkpt><trkpt lat="45.6270059198" lon="6.8123061396"><ele>1026.34</ele><time>2014-09-05T18:28:44Z</time></trkpt><trkpt lat="45.6270339992" lon="6.8123436067"><ele>1025.86</ele><time>2014-09-05T18:29:08Z</time></trkpt><trkpt lat="45.6269984599" lon="6.8123212270"><ele>1025.38</ele><time>2014-09-05T18:29:28Z</time></trkpt><trkpt lat="45.6270651799" lon="6.8123322912"><ele>1025.86</ele><time>2014-09-05T18:29:49Z</time></trkpt><trkpt lat="45.6270645931" lon="6.8123968318"><ele>1022.98</ele><time>2014-09-05T18:30:08Z</time></trkpt><trkpt lat="45.6270857994" lon="6.8123710994"><ele>1022.02</ele><time>2014-09-05T18:30:35Z</time></trkpt><trkpt lat="45.6270744838" lon="6.8123513181"><ele>1020.10</ele><time>2014-09-05T18:31:05Z</time></trkpt><trkpt lat="45.6270423811" lon="6.8123641424"><ele>1020.10</ele><time>2014-09-05T18:31:34Z</time></trkpt><trkpt lat="45.6270372681" lon="6.8123549223"><ele>1019.62</ele><time>2014-09-05T18:31:56Z</time></trkpt><trkpt lat="45.6270021480" lon="6.8123793975"><ele>1019.13</ele><time>2014-09-05T18:32:20Z</time></trkpt><trkpt lat="45.6270355918" lon="6.8124011904"><ele>1018.65</ele><time>2014-09-05T18:32:49Z</time></trkpt><trkpt lat="45.6270550378" lon="6.8124439381"><ele>1016.73</ele><time>2014-09-05T18:33:22Z</time></trkpt><trkpt lat="45.6270608213" lon="6.8123979215"><ele>1016.73</ele><time>2014-09-05T18:33:41Z</time></trkpt><trkpt lat="45.6270178221" lon="6.8123426009"><ele>1015.77</ele><time>2014-09-05T18:34:06Z</time></trkpt><trkpt lat="45.6270562112" lon="6.8124263361"><ele>1016.73</ele><time>2014-09-05T18:34:26Z</time></trkpt><trkpt lat="45.6270614918" lon="6.8123854324"><ele>1019.13</ele><time>2014-09-05T18:34:51Z</time></trkpt><trkpt lat="45.6270723883" lon="6.8123868573"><ele>1016.25</ele><time>2014-09-05T18:35:19Z</time></trkpt><trkpt lat="45.6270451471" lon="6.8123643100"><ele>1016.25</ele><time>2014-09-05T18:35:42Z</time></trkpt><trkpt lat="45.6270336639" lon="6.8123349734"><ele>1016.25</ele><time>2014-09-05T18:36:01Z</time></trkpt></trkseg><trkseg><trkpt lat="45.6270834524" lon="6.8123934790"><ele>1020.58</ele><time>2014-09-05T20:26:50Z</time></trkpt><trkpt lat="45.6272616517" lon="6.8123944849"><ele>1019.62</ele><time>2014-09-05T20:27:17Z</time></trkpt><trkpt lat="45.6270243600" lon="6.8123539165"><ele>1032.11</ele><time>2014-09-05T20:27:49Z</time></trkpt><trkpt lat="45.6269950233" lon="6.8123511504"><ele>1032.59</ele><time>2014-09-05T20:28:18Z</time></trkpt><trkpt lat="45.6270118710" lon="6.8124312814"><ele>1032.59</ele><time>2014-09-05T20:28:47Z</time></trkpt><trkpt lat="45.6270411238" lon="6.8123865221"><ele>1033.07</ele><time>2014-09-05T20:29:19Z</time></trkpt><trkpt lat="45.6269843783" lon="6.8123148568"><ele>1033.07</ele><time>2014-09-05T20:30:04Z</time></trkpt><trkpt lat="45.6269978732" lon="6.8123076484"><ele>1034.04</ele><time>2014-09-05T20:30:33Z</time></trkpt><trkpt lat="45.6269861385" lon="6.8122663256"><ele>1034.04</ele><time>2014-09-05T20:31:09Z</time></trkpt><trkpt lat="45.6269934308" lon="6.8123173714"><ele>1033.55</ele><time>2014-09-05T20:31:38Z</time></trkpt><trkpt lat="45.6269455701" lon="6.8123579398"><ele>1035.48</ele><time>2014-09-05T20:32:12Z</time></trkpt><trkpt lat="45.6269488391" lon="6.8123735301"><ele>1035.96</ele><time>2014-09-05T20:32:44Z</time></trkpt><trkpt lat="45.6269537844" lon="6.8123239093"><ele>1036.92</ele><time>2014-09-05T20:33:27Z</time></trkpt><trkpt lat="45.6269780919" lon="6.8123770505"><ele>1030.67</ele><time>2014-09-05T20:34:01Z</time></trkpt><trkpt lat="45.6269687042" lon="6.8123839237"><ele>1029.23</ele><time>2014-09-05T20:34:28Z</time></trkpt><trkpt lat="45.6270173192" lon="6.8124012742"><ele>1029.23</ele><time>2014-09-05T20:34:51Z</time></trkpt><trkpt lat="45.6269645970" lon="6.8123486359"><ele>1026.83</ele><time>2014-09-05T20:35:25Z</time></trkpt><trkpt lat="45.6270158105" lon="6.8123586103"><ele>1027.31</ele><time>2014-09-05T20:35:51Z</time></trkpt><trkpt lat="45.6269987952" lon="6.8123416789"><ele>1027.79</ele><time>2014-09-05T20:36:23Z</time></trkpt><trkpt lat="45.6269540358" lon="6.8123173714"><ele>1029.71</ele><time>2014-09-05T20:36:55Z</time></trkpt><trkpt lat="45.6270049140" lon="6.8123701774"><ele>1028.27</ele><time>2014-09-05T20:37:23Z</time></trkpt><trkpt lat="45.6270351727" lon="6.8123957422"><ele>1024.42</ele><time>2014-09-05T20:37:57Z</time></trkpt><trkpt lat="45.6270022318" lon="6.8124050461"><ele>1021.54</ele><time>2014-09-05T20:38:29Z</time></trkpt><trkpt lat="45.6269554608" lon="6.8123438582"><ele>1022.98</ele><time>2014-09-05T20:38:54Z</time></trkpt></trkseg></trk></gpx>